<?xml version='1.0' encoding='UTF-8'?><gpx version="1.1" creator="JPX - https://github.com/jenetics/jpx" xmlns="http://www.topografix.com/GPX/1/1"><trk><trkseg><trkpt lat="45.4686471" lon="11.1779212"><ele>167.0</ele><time>2026-04-19T06:51:05.639Z</time></trkpt><trkpt lat="45.4686" lon="11.1778502"><ele>167.0</ele><time>2026-04-19T06:52:04.556Z</time></trkpt><trkpt lat="45.4686028" lon="11.177952"><ele>167.0</ele><time>2026-04-19T06:52:51.559Z</time></trkpt><trkpt lat="45.4686273" lon="11.1780466"><ele>167.0</ele><time>2026-04-19T06:52:56.562Z</time></trkpt><trkpt lat="45.4687106" lon="11.1780624"><ele>167.0</ele><time>2026-04-19T06:53:00.566Z</time></trkpt><trkpt lat="45.4687832" lon="11.1780599"><ele>167.0</ele><time>2026-04-19T06:53:03.559Z</time></trkpt><trkpt lat="45.4688532" lon="11.1780697"><ele>167.0</ele><time>2026-04-19T06:53:06.556Z</time></trkpt><trkpt lat="45.4689312" lon="11.1780814"><ele>167.42857142857142</ele><time>2026-04-19T06:53:09.563Z</time></trkpt><trkpt lat="45.4690134" lon="11.1780842"><ele>167.85714285714286</ele><time>2026-04-19T06:53:12.56Z</time></trkpt><trkpt lat="45.4690775" lon="11.1780838"><ele>168.28571428571428</ele><time>2026-04-19T06:53:14.564Z</time></trkpt><trkpt lat="45.469163" lon="11.1781005"><ele>168.71428571428572</ele><time>2026-04-19T06:53:17.562Z</time></trkpt><trkpt lat="45.4692341" lon="11.1781169"><ele>169.14285714285714</ele><time>2026-04-19T06:53:20.558Z</time></trkpt><trkpt lat="45.4692991" lon="11.1781487"><ele>169.57142857142858</ele><time>2026-04-19T06:53:22.568Z</time></trkpt><trkpt lat="45.4693638" lon="11.1781884"><ele>170.0</ele><time>2026-04-19T06:53:24.559Z</time></trkpt><trkpt lat="45.4694253" lon="11.1782092"><ele>170.16666666666666</ele><time>2026-04-19T06:53:26.548Z</time></trkpt><trkpt lat="45.4695039" lon="11.1782199"><ele>170.33333333333331</ele><time>2026-04-19T06:53:28.564Z</time></trkpt><trkpt lat="45.4695727" lon="11.1782282"><ele>170.5</ele><time>2026-04-19T06:53:30.562Z</time></trkpt><trkpt lat="45.4696387" lon="11.1782348"><ele>170.66666666666666</ele><time>2026-04-19T06:53:32.552Z</time></trkpt><trkpt lat="45.4697254" lon="11.1782529"><ele>170.83333333333334</ele><time>2026-04-19T06:53:35.549Z</time></trkpt><trkpt lat="45.4698108" lon="11.1782743"><ele>171.0</ele><time>2026-04-19T06:53:38.565Z</time></trkpt><trkpt lat="45.4698922" lon="11.1782888"><ele>171.16666666666666</ele><time>2026-04-19T06:53:41.565Z</time></trkpt><trkpt lat="45.4699699" lon="11.178304"><ele>171.33333333333334</ele><time>2026-04-19T06:53:44.564Z</time></trkpt><trkpt lat="45.4700514" lon="11.178316"><ele>171.5</ele><time>2026-04-19T06:53:47.568Z</time></trkpt><trkpt lat="45.4701387" lon="11.1783509"><ele>171.66666666666669</ele><time>2026-04-19T06:53:50.561Z</time></trkpt><trkpt lat="45.4702292" lon="11.1783729"><ele>171.83333333333334</ele><time>2026-04-19T06:53:53.569Z</time></trkpt><trkpt lat="45.4702954" lon="11.1783899"><ele>172.0</ele><time>2026-04-19T06:53:55.556Z</time></trkpt><trkpt lat="45.4703836" lon="11.1784245"><ele>172.5</ele><time>2026-04-19T06:53:58.561Z</time></trkpt><trkpt lat="45.4704653" lon="11.178455"><ele>173.0</ele><time>2026-04-19T06:54:01.554Z</time></trkpt><trkpt lat="45.4705613" lon="11.1784542"><ele>173.5</ele><time>2026-04-19T06:54:04.552Z</time></trkpt><trkpt lat="45.470629" lon="11.1784833"><ele>174.0</ele><time>2026-04-19T06:54:06.572Z</time></trkpt><trkpt lat="45.4707015" lon="11.1784971"><ele>174.5</ele><time>2026-04-19T06:54:08.568Z</time></trkpt><trkpt lat="45.470774" lon="11.1785068"><ele>175.0</ele><time>2026-04-19T06:54:10.561Z</time></trkpt><trkpt lat="45.4708455" lon="11.1785243"><ele>175.0</ele><time>2026-04-19T06:54:12.556Z</time></trkpt><trkpt lat="45.4709116" lon="11.1785574"><ele>175.0</ele><time>2026-04-19T06:54:14.567Z</time></trkpt><trkpt lat="45.4709395" lon="11.1786663"><ele>175.0</ele><time>2026-04-19T06:54:17.557Z</time></trkpt><trkpt lat="45.4709365" lon="11.178807"><ele>175.0</ele><time>2026-04-19T06:54:20.565Z</time></trkpt><trkpt lat="45.4709352" lon="11.1789133"><ele>175.0</ele><time>2026-04-19T06:54:22.558Z</time></trkpt><trkpt lat="45.4709257" lon="11.1790218"><ele>175.0</ele><time>2026-04-19T06:54:24.563Z</time></trkpt><trkpt lat="45.4709254" lon="11.1791369"><ele>175.16666666666669</ele><time>2026-04-19T06:54:26.566Z</time></trkpt><trkpt lat="45.4709231" lon="11.1792576"><ele>175.33333333333334</ele><time>2026-04-19T06:54:28.57Z</time></trkpt><trkpt lat="45.4709233" lon="11.1793711"><ele>175.5</ele><time>2026-04-19T06:54:30.557Z</time></trkpt><trkpt lat="45.4709701" lon="11.1794636"><ele>175.66666666666666</ele><time>2026-04-19T06:54:32.561Z</time></trkpt><trkpt lat="45.4710454" lon="11.1795055"><ele>175.83333333333331</ele><time>2026-04-19T06:54:34.562Z</time></trkpt><trkpt lat="45.4711332" lon="11.1795177"><ele>176.0</ele><time>2026-04-19T06:54:36.554Z</time></trkpt><trkpt lat="45.4712191" lon="11.1795269"><ele>176.16666666666666</ele><time>2026-04-19T06:54:38.557Z</time></trkpt><trkpt lat="45.4712995" lon="11.1795386"><ele>176.33333333333331</ele><time>2026-04-19T06:54:40.565Z</time></trkpt><trkpt lat="45.4713769" lon="11.1795453"><ele>176.5</ele><time>2026-04-19T06:54:42.565Z</time></trkpt><trkpt lat="45.4714566" lon="11.1795505"><ele>176.66666666666666</ele><time>2026-04-19T06:54:44.563Z</time></trkpt><trkpt lat="45.4715338" lon="11.1795592"><ele>176.83333333333334</ele><time>2026-04-19T06:54:46.569Z</time></trkpt><trkpt lat="45.471606" lon="11.1795633"><ele>177.0</ele><time>2026-04-19T06:54:48.543Z</time></trkpt><trkpt lat="45.4716796" lon="11.1796286"><ele>177.0</ele><time>2026-04-19T06:54:51.553Z</time></trkpt><trkpt lat="45.471683" lon="11.179719"><ele>177.0</ele><time>2026-04-19T06:54:53.568Z</time></trkpt><trkpt lat="45.4716785" lon="11.1798227"><ele>177.0</ele><time>2026-04-19T06:54:55.559Z</time></trkpt><trkpt lat="45.4716788" lon="11.1799346"><ele>177.0</ele><time>2026-04-19T06:54:57.565Z</time></trkpt><trkpt lat="45.4716816" lon="11.1800468"><ele>177.0</ele><time>2026-04-19T06:54:59.563Z</time></trkpt><trkpt lat="45.4716783" lon="11.1801554"><ele>177.0</ele><time>2026-04-19T06:55:01.565Z</time></trkpt><trkpt lat="45.471671" lon="11.1802643"><ele>177.0</ele><time>2026-04-19T06:55:03.564Z</time></trkpt><trkpt lat="45.4716598" lon="11.180373"><ele>177.14285714285714</ele><time>2026-04-19T06:55:05.562Z</time></trkpt><trkpt lat="45.4716644" lon="11.1804822"><ele>177.28571428571428</ele><time>2026-04-19T06:55:07.562Z</time></trkpt><trkpt lat="45.4717122" lon="11.1805679"><ele>177.42857142857142</ele><time>2026-04-19T06:55:09.559Z</time></trkpt><trkpt lat="45.4717853" lon="11.1806082"><ele>177.57142857142856</ele><time>2026-04-19T06:55:11.567Z</time></trkpt><trkpt lat="45.4718514" lon="11.180656"><ele>177.71428571428572</ele><time>2026-04-19T06:55:13.552Z</time></trkpt><trkpt lat="45.4718909" lon="11.1807269"><ele>177.85714285714283</ele><time>2026-04-19T06:55:15.562Z</time></trkpt><trkpt lat="45.4719439" lon="11.1808029"><ele>178.0</ele><time>2026-04-19T06:55:18.566Z</time></trkpt><trkpt lat="45.4720152" lon="11.1808139"><ele>178.0</ele><time>2026-04-19T06:55:20.567Z</time></trkpt><trkpt lat="45.4720898" lon="11.1808145"><ele>178.0</ele><time>2026-04-19T06:55:22.566Z</time></trkpt><trkpt lat="45.4721687" lon="11.1808325"><ele>178.0</ele><time>2026-04-19T06:55:24.566Z</time></trkpt><trkpt lat="45.4722495" lon="11.1808531"><ele>178.0</ele><time>2026-04-19T06:55:26.561Z</time></trkpt><trkpt lat="45.4723282" lon="11.1808717"><ele>178.0</ele><time>2026-04-19T06:55:28.56Z</time></trkpt><trkpt lat="45.472401" lon="11.1808867"><ele>178.0</ele><time>2026-04-19T06:55:30.567Z</time></trkpt><trkpt lat="45.4724746" lon="11.1809113"><ele>178.28571428571428</ele><time>2026-04-19T06:55:32.563Z</time></trkpt><trkpt lat="45.4725487" lon="11.1809388"><ele>178.57142857142856</ele><time>2026-04-19T06:55:34.566Z</time></trkpt><trkpt lat="45.4726127" lon="11.1809734"><ele>178.85714285714283</ele><time>2026-04-19T06:55:36.55Z</time></trkpt><trkpt lat="45.4726814" lon="11.1810115"><ele>179.14285714285714</ele><time>2026-04-19T06:55:38.56Z</time></trkpt><trkpt lat="45.472755" lon="11.1810422"><ele>179.42857142857144</ele><time>2026-04-19T06:55:40.546Z</time></trkpt><trkpt lat="45.4728053" lon="11.1811226"><ele>179.7142857142857</ele><time>2026-04-19T06:55:42.571Z</time></trkpt><trkpt lat="45.4728331" lon="11.1812273"><ele>180.0</ele><time>2026-04-19T06:55:44.564Z</time></trkpt><trkpt lat="45.472867" lon="11.1813364"><ele>180.0</ele><time>2026-04-19T06:55:46.57Z</time></trkpt><trkpt lat="45.4729084" lon="11.1814441"><ele>180.0</ele><time>2026-04-19T06:55:48.557Z</time></trkpt><trkpt lat="45.4729499" lon="11.1815414"><ele>180.0</ele><time>2026-04-19T06:55:50.56Z</time></trkpt><trkpt lat="45.4730044" lon="11.1816266"><ele>180.0</ele><time>2026-04-19T06:55:52.567Z</time></trkpt><trkpt lat="45.4730678" lon="11.1816943"><ele>180.0</ele><time>2026-04-19T06:55:54.57Z</time></trkpt><trkpt lat="45.4731365" lon="11.1817577"><ele>180.0</ele><time>2026-04-19T06:55:56.552Z</time></trkpt><trkpt lat="45.4732138" lon="11.1818245"><ele>180.4</ele><time>2026-04-19T06:55:58.566Z</time></trkpt><trkpt lat="45.4732917" lon="11.1818919"><ele>180.8</ele><time>2026-04-19T06:56:00.558Z</time></trkpt><trkpt lat="45.4733768" lon="11.1819649"><ele>181.2</ele><time>2026-04-19T06:56:02.548Z</time></trkpt><trkpt lat="45.473446" lon="11.1820333"><ele>181.6</ele><time>2026-04-19T06:56:04.566Z</time></trkpt><trkpt lat="45.4735249" lon="11.1820902"><ele>182.0</ele><time>2026-04-19T06:56:06.563Z</time></trkpt><trkpt lat="45.4736061" lon="11.1821682"><ele>182.0</ele><time>2026-04-19T06:56:08.56Z</time></trkpt><trkpt lat="45.4736932" lon="11.1822414"><ele>182.0</ele><time>2026-04-19T06:56:10.571Z</time></trkpt><trkpt lat="45.4737673" lon="11.182307"><ele>182.0</ele><time>2026-04-19T06:56:12.566Z</time></trkpt><trkpt lat="45.4738411" lon="11.1823788"><ele>182.0</ele><time>2026-04-19T06:56:14.562Z</time></trkpt><trkpt lat="45.4739207" lon="11.1824513"><ele>182.0</ele><time>2026-04-19T06:56:16.561Z</time></trkpt><trkpt lat="45.4740034" lon="11.1825215"><ele>182.2</ele><time>2026-04-19T06:56:18.569Z</time></trkpt><trkpt lat="45.4740838" lon="11.1825968"><ele>182.39999999999998</ele><time>2026-04-19T06:56:20.562Z</time></trkpt><trkpt lat="45.4741627" lon="11.1826659"><ele>182.60000000000002</ele><time>2026-04-19T06:56:22.562Z</time></trkpt><trkpt lat="45.474235" lon="11.1827365"><ele>182.8</ele><time>2026-04-19T06:56:24.566Z</time></trkpt><trkpt lat="45.4743091" lon="11.1828092"><ele>183.0</ele><time>2026-04-19T06:56:26.559Z</time></trkpt><trkpt lat="45.4743799" lon="11.1828822"><ele>183.0</ele><time>2026-04-19T06:56:28.548Z</time></trkpt><trkpt lat="45.4744519" lon="11.1829566"><ele>183.0</ele><time>2026-04-19T06:56:30.564Z</time></trkpt><trkpt lat="45.4745186" lon="11.1830384"><ele>183.0</ele><time>2026-04-19T06:56:32.563Z</time></trkpt><trkpt lat="45.4745788" lon="11.1831168"><ele>183.0</ele><time>2026-04-19T06:56:34.559Z</time></trkpt><trkpt lat="45.4746423" lon="11.1831868"><ele>183.0</ele><time>2026-04-19T06:56:36.568Z</time></trkpt><trkpt lat="45.4747101" lon="11.1832595"><ele>183.0</ele><time>2026-04-19T06:56:38.55Z</time></trkpt><trkpt lat="45.4747701" lon="11.1833318"><ele>183.33333333333334</ele><time>2026-04-19T06:56:40.558Z</time></trkpt><trkpt lat="45.4748288" lon="11.1834067"><ele>183.66666666666666</ele><time>2026-04-19T06:56:42.545Z</time></trkpt><trkpt lat="45.4748902" lon="11.1834748"><ele>184.0</ele><time>2026-04-19T06:56:44.562Z</time></trkpt><trkpt lat="45.4749582" lon="11.1835371"><ele>184.33333333333331</ele><time>2026-04-19T06:56:46.561Z</time></trkpt><trkpt lat="45.4750293" lon="11.1835889"><ele>184.66666666666666</ele><time>2026-04-19T06:56:48.558Z</time></trkpt><trkpt lat="45.4751079" lon="11.1836296"><ele>185.0</ele><time>2026-04-19T06:56:50.567Z</time></trkpt><trkpt lat="45.4751863" lon="11.1836642"><ele>185.0</ele><time>2026-04-19T06:56:52.568Z</time></trkpt><trkpt lat="45.4752622" lon="11.1837009"><ele>185.0</ele><time>2026-04-19T06:56:54.565Z</time></trkpt><trkpt lat="45.475339" lon="11.1837362"><ele>185.0</ele><time>2026-04-19T06:56:56.567Z</time></trkpt><trkpt lat="45.4754212" lon="11.1837707"><ele>185.0</ele><time>2026-04-19T06:56:58.572Z</time></trkpt><trkpt lat="45.475501" lon="11.1838055"><ele>185.0</ele><time>2026-04-19T06:57:00.563Z</time></trkpt><trkpt lat="45.4755813" lon="11.1838394"><ele>185.0</ele><time>2026-04-19T06:57:02.563Z</time></trkpt><trkpt lat="45.4756623" lon="11.1838671"><ele>185.16666666666666</ele><time>2026-04-19T06:57:04.568Z</time></trkpt><trkpt lat="45.4757402" lon="11.1838833"><ele>185.33333333333331</ele><time>2026-04-19T06:57:06.56Z</time></trkpt><trkpt lat="45.4758179" lon="11.1838989"><ele>185.5</ele><time>2026-04-19T06:57:08.552Z</time></trkpt><trkpt lat="45.4758903" lon="11.1839498"><ele>185.66666666666666</ele><time>2026-04-19T06:57:10.565Z</time></trkpt><trkpt lat="45.4759644" lon="11.1839915"><ele>185.83333333333334</ele><time>2026-04-19T06:57:12.558Z</time></trkpt><trkpt lat="45.4760411" lon="11.1840299"><ele>186.0</ele><time>2026-04-19T06:57:14.562Z</time></trkpt><trkpt lat="45.4761171" lon="11.1840639"><ele>186.0</ele><time>2026-04-19T06:57:16.614Z</time></trkpt><trkpt lat="45.4761941" lon="11.1840936"><ele>186.0</ele><time>2026-04-19T06:57:18.564Z</time></trkpt><trkpt lat="45.4762688" lon="11.1841291"><ele>186.0</ele><time>2026-04-19T06:57:20.655Z</time></trkpt><trkpt lat="45.4763525" lon="11.1841603"><ele>186.0</ele><time>2026-04-19T06:57:22.65Z</time></trkpt><trkpt lat="45.4764292" lon="11.1841891"><ele>186.0</ele><time>2026-04-19T06:57:24.547Z</time></trkpt><trkpt lat="45.4765041" lon="11.1842176"><ele>186.0</ele><time>2026-04-19T06:57:26.637Z</time></trkpt><trkpt lat="45.4766138" lon="11.1842862"><ele>186.5</ele><time>2026-04-19T06:57:29.563Z</time></trkpt><trkpt lat="45.4766922" lon="11.1843328"><ele>187.0</ele><time>2026-04-19T06:57:31.642Z</time></trkpt><trkpt lat="45.4767671" lon="11.184377"><ele>187.5</ele><time>2026-04-19T06:57:33.571Z</time></trkpt><trkpt lat="45.47683" lon="11.1844306"><ele>188.0</ele><time>2026-04-19T06:57:35.656Z</time></trkpt><trkpt lat="45.476889" lon="11.1844951"><ele>188.5</ele><time>2026-04-19T06:57:37.64Z</time></trkpt><trkpt lat="45.4769498" lon="11.1845597"><ele>189.0</ele><time>2026-04-19T06:57:39.552Z</time></trkpt><trkpt lat="45.4770146" lon="11.1846168"><ele>189.0</ele><time>2026-04-19T06:57:41.645Z</time></trkpt><trkpt lat="45.4770883" lon="11.1846428"><ele>189.0</ele><time>2026-04-19T06:57:43.669Z</time></trkpt><trkpt lat="45.4771533" lon="11.1846248"><ele>189.0</ele><time>2026-04-19T06:57:45.565Z</time></trkpt><trkpt lat="45.4772146" lon="11.1846011"><ele>189.0</ele><time>2026-04-19T06:57:47.659Z</time></trkpt><trkpt lat="45.4772981" lon="11.1845417"><ele>189.0</ele><time>2026-04-19T06:57:50.55Z</time></trkpt><trkpt lat="45.4773521" lon="11.1844953"><ele>189.0</ele><time>2026-04-19T06:57:52.664Z</time></trkpt><trkpt lat="45.477407" lon="11.1844503"><ele>189.0</ele><time>2026-04-19T06:57:54.554Z</time></trkpt><trkpt lat="45.4774689" lon="11.1844138"><ele>189.14285714285714</ele><time>2026-04-19T06:57:56.662Z</time></trkpt><trkpt lat="45.477527" lon="11.1843715"><ele>189.28571428571428</ele><time>2026-04-19T06:57:58.697Z</time></trkpt><trkpt lat="45.4775888" lon="11.1843429"><ele>189.42857142857144</ele><time>2026-04-19T06:58:00.546Z</time></trkpt><trkpt lat="45.4776496" lon="11.1843088"><ele>189.57142857142856</ele><time>2026-04-19T06:58:02.653Z</time></trkpt><trkpt lat="45.4777402" lon="11.1842486"><ele>189.71428571428572</ele><time>2026-04-19T06:58:05.563Z</time></trkpt><trkpt lat="45.4778016" lon="11.1842092"><ele>189.85714285714286</ele><time>2026-04-19T06:58:07.663Z</time></trkpt><trkpt lat="45.4778621" lon="11.1841729"><ele>190.0</ele><time>2026-04-19T06:58:09.646Z</time></trkpt><trkpt lat="45.4779461" lon="11.184122"><ele>190.5</ele><time>2026-04-19T06:58:12.626Z</time></trkpt><trkpt lat="45.4780281" lon="11.1840714"><ele>191.0</ele><time>2026-04-19T06:58:15.556Z</time></trkpt><trkpt lat="45.4780999" lon="11.1840316"><ele>191.5</ele><time>2026-04-19T06:58:18.559Z</time></trkpt><trkpt lat="45.478151" lon="11.183965"><ele>192.0</ele><time>2026-04-19T06:58:21.547Z</time></trkpt><trkpt lat="45.4781598" lon="11.1838508"><ele>192.49999999999997</ele><time>2026-04-19T06:58:24.658Z</time></trkpt><trkpt lat="45.4781422" lon="11.1837215"><ele>193.0</ele><time>2026-04-19T06:58:27.667Z</time></trkpt><trkpt lat="45.4781265" lon="11.1835907"><ele>193.49999999999997</ele><time>2026-04-19T06:58:30.567Z</time></trkpt><trkpt lat="45.4780985" lon="11.1834638"><ele>194.0</ele><time>2026-04-19T06:58:33.686Z</time></trkpt><trkpt lat="45.4780773" lon="11.1833745"><ele>194.5</ele><time>2026-04-19T06:58:35.675Z</time></trkpt><trkpt lat="45.4780719" lon="11.1832849"><ele>195.0</ele><time>2026-04-19T06:58:37.561Z</time></trkpt><trkpt lat="45.4781148" lon="11.1831249"><ele>195.49999999999997</ele><time>2026-04-19T06:58:41.553Z</time></trkpt><trkpt lat="45.4781982" lon="11.1830795"><ele>196.0</ele><time>2026-04-19T06:58:44.564Z</time></trkpt><trkpt lat="45.4783083" lon="11.183028"><ele>196.33333333333331</ele><time>2026-04-19T06:58:48.556Z</time></trkpt><trkpt lat="45.4783855" lon="11.1829947"><ele>196.66666666666666</ele><time>2026-04-19T06:58:51.568Z</time></trkpt><trkpt lat="45.4784686" lon="11.1829626"><ele>197.0</ele><time>2026-04-19T06:58:54.672Z</time></trkpt><trkpt lat="45.4785692" lon="11.1829457"><ele>197.33333333333331</ele><time>2026-04-19T06:58:58.562Z</time></trkpt><trkpt lat="45.4786667" lon="11.1829019"><ele>197.66666666666666</ele><time>2026-04-19T06:59:02.617Z</time></trkpt><trkpt lat="45.4787309" lon="11.1828811"><ele>198.0</ele><time>2026-04-19T06:59:05.637Z</time></trkpt><trkpt lat="45.4787963" lon="11.1828343"><ele>198.16666666666666</ele><time>2026-04-19T06:59:08.559Z</time></trkpt><trkpt lat="45.4788779" lon="11.182768"><ele>198.33333333333331</ele><time>2026-04-19T06:59:11.654Z</time></trkpt><trkpt lat="45.4789692" lon="11.1827293"><ele>198.5</ele><time>2026-04-19T06:59:14.563Z</time></trkpt><trkpt lat="45.4790531" lon="11.1826797"><ele>198.66666666666666</ele><time>2026-04-19T06:59:17.645Z</time></trkpt><trkpt lat="45.4791125" lon="11.1826381"><ele>198.83333333333331</ele><time>2026-04-19T06:59:19.55Z</time></trkpt><trkpt lat="45.4791766" lon="11.1825988"><ele>199.0</ele><time>2026-04-19T06:59:21.647Z</time></trkpt><trkpt lat="45.4792384" lon="11.1825498"><ele>198.99999999999997</ele><time>2026-04-19T06:59:23.564Z</time></trkpt><trkpt lat="45.4793046" lon="11.1825067"><ele>199.0</ele><time>2026-04-19T06:59:25.628Z</time></trkpt><trkpt lat="45.4793752" lon="11.1824724"><ele>199.0</ele><time>2026-04-19T06:59:27.627Z</time></trkpt><trkpt lat="45.4794397" lon="11.1824404"><ele>199.0</ele><time>2026-04-19T06:59:29.548Z</time></trkpt><trkpt lat="45.4795057" lon="11.1824244"><ele>198.99999999999997</ele><time>2026-04-19T06:59:31.546Z</time></trkpt><trkpt lat="45.4796011" lon="11.1824554"><ele>199.0</ele><time>2026-04-19T06:59:34.558Z</time></trkpt><trkpt lat="45.4796707" lon="11.1824778"><ele>199.14285714285714</ele><time>2026-04-19T06:59:36.555Z</time></trkpt><trkpt lat="45.4797343" lon="11.1824757"><ele>199.28571428571428</ele><time>2026-04-19T06:59:38.554Z</time></trkpt><trkpt lat="45.4798028" lon="11.1824575"><ele>199.42857142857144</ele><time>2026-04-19T06:59:40.551Z</time></trkpt><trkpt lat="45.4798723" lon="11.1824339"><ele>199.57142857142856</ele><time>2026-04-19T06:59:42.551Z</time></trkpt><trkpt lat="45.4799389" lon="11.1824141"><ele>199.71428571428572</ele><time>2026-04-19T06:59:44.554Z</time></trkpt><trkpt lat="45.4800047" lon="11.1823933"><ele>199.85714285714286</ele><time>2026-04-19T06:59:46.547Z</time></trkpt><trkpt lat="45.4800705" lon="11.182371"><ele>200.0</ele><time>2026-04-19T06:59:48.559Z</time></trkpt><trkpt lat="45.4801322" lon="11.1823205"><ele>200.00000000000003</ele><time>2026-04-19T06:59:50.553Z</time></trkpt><trkpt lat="45.4801902" lon="11.1822804"><ele>200.0</ele><time>2026-04-19T06:59:52.557Z</time></trkpt><trkpt lat="45.4802564" lon="11.1822577"><ele>200.0</ele><time>2026-04-19T06:59:54.56Z</time></trkpt><trkpt lat="45.480324" lon="11.1822249"><ele>200.0</ele><time>2026-04-19T06:59:56.552Z</time></trkpt><trkpt lat="45.4803911" lon="11.1821872"><ele>200.0</ele><time>2026-04-19T06:59:58.562Z</time></trkpt><trkpt lat="45.4804595" lon="11.1821447"><ele>200.00000000000003</ele><time>2026-04-19T07:00:00.56Z</time></trkpt><trkpt lat="45.48053" lon="11.1821065"><ele>200.0</ele><time>2026-04-19T07:00:02.632Z</time></trkpt><trkpt lat="45.4805978" lon="11.1820738"><ele>200.2857142857143</ele><time>2026-04-19T07:00:04.562Z</time></trkpt><trkpt lat="45.4806659" lon="11.1820353"><ele>200.57142857142858</ele><time>2026-04-19T07:00:06.557Z</time></trkpt><trkpt lat="45.4807318" lon="11.1819964"><ele>200.85714285714286</ele><time>2026-04-19T07:00:08.662Z</time></trkpt><trkpt lat="45.4807927" lon="11.1819545"><ele>201.14285714285717</ele><time>2026-04-19T07:00:10.568Z</time></trkpt><trkpt lat="45.4808617" lon="11.1819094"><ele>201.42857142857142</ele><time>2026-04-19T07:00:12.655Z</time></trkpt><trkpt lat="45.4809298" lon="11.1818809"><ele>201.71428571428572</ele><time>2026-04-19T07:00:14.654Z</time></trkpt><trkpt lat="45.480998" lon="11.1818513"><ele>202.0</ele><time>2026-04-19T07:00:16.551Z</time></trkpt><trkpt lat="45.4810627" lon="11.1818196"><ele>201.99999999999997</ele><time>2026-04-19T07:00:18.664Z</time></trkpt><trkpt lat="45.481157" lon="11.1817519"><ele>202.0</ele><time>2026-04-19T07:00:21.565Z</time></trkpt><trkpt lat="45.4812183" lon="11.1816996"><ele>202.0</ele><time>2026-04-19T07:00:23.668Z</time></trkpt><trkpt lat="45.4812811" lon="11.1816659"><ele>202.0</ele><time>2026-04-19T07:00:25.673Z</time></trkpt><trkpt lat="45.4813434" lon="11.1816448"><ele>201.99999999999997</ele><time>2026-04-19T07:00:27.565Z</time></trkpt><trkpt lat="45.4814045" lon="11.1816078"><ele>202.0</ele><time>2026-04-19T07:00:29.658Z</time></trkpt><trkpt lat="45.4815044" lon="11.1815669"><ele>202.85714285714286</ele><time>2026-04-19T07:00:32.552Z</time></trkpt><trkpt lat="45.4815728" lon="11.1815396"><ele>203.71428571428572</ele><time>2026-04-19T07:00:34.669Z</time></trkpt><trkpt lat="45.4816666" lon="11.1814826"><ele>204.57142857142856</ele><time>2026-04-19T07:00:37.558Z</time></trkpt><trkpt lat="45.4817296" lon="11.1814666"><ele>205.42857142857144</ele><time>2026-04-19T07:00:39.633Z</time></trkpt><trkpt lat="45.4817909" lon="11.1814405"><ele>206.2857142857143</ele><time>2026-04-19T07:00:41.657Z</time></trkpt><trkpt lat="45.4818541" lon="11.1814067"><ele>207.14285714285714</ele><time>2026-04-19T07:00:43.559Z</time></trkpt><trkpt lat="45.4819143" lon="11.1813701"><ele>208.0</ele><time>2026-04-19T07:00:45.659Z</time></trkpt><trkpt lat="45.4819741" lon="11.1813375"><ele>208.0</ele><time>2026-04-19T07:00:47.553Z</time></trkpt><trkpt lat="45.4820575" lon="11.1812791"><ele>208.0</ele><time>2026-04-19T07:00:50.65Z</time></trkpt><trkpt lat="45.482132" lon="11.1812213"><ele>208.0</ele><time>2026-04-19T07:00:53.631Z</time></trkpt><trkpt lat="45.4822049" lon="11.1811836"><ele>208.0</ele><time>2026-04-19T07:00:56.649Z</time></trkpt><trkpt lat="45.4823107" lon="11.1811684"><ele>208.0</ele><time>2026-04-19T07:01:00.562Z</time></trkpt><trkpt lat="45.4824071" lon="11.1811892"><ele>208.49999999999997</ele><time>2026-04-19T07:01:05.557Z</time></trkpt><trkpt lat="45.4824556" lon="11.181293"><ele>209.0</ele><time>2026-04-19T07:01:47.557Z</time></trkpt><trkpt lat="45.4825043" lon="11.1812191"><ele>209.5</ele><time>2026-04-19T07:02:03.552Z</time></trkpt><trkpt lat="45.4824268" lon="11.1812171"><ele>210.0</ele><time>2026-04-19T07:11:28.563Z</time></trkpt><trkpt lat="45.4825353" lon="11.1812135"><ele>210.49999999999997</ele><time>2026-04-19T07:12:24.48Z</time></trkpt><trkpt lat="45.4824516" lon="11.1811975"><ele>211.0</ele><time>2026-04-19T07:13:26.065Z</time></trkpt><trkpt lat="45.4824881" lon="11.1811208"><ele>210.99999999999997</ele><time>2026-04-19T07:15:45.568Z</time></trkpt><trkpt lat="45.4825501" lon="11.181048"><ele>211.0</ele><time>2026-04-19T07:15:48.563Z</time></trkpt><trkpt lat="45.4826164" lon="11.1809669"><ele>211.0</ele><time>2026-04-19T07:15:51.674Z</time></trkpt><trkpt lat="45.4826731" lon="11.1808883"><ele>211.0</ele><time>2026-04-19T07:15:54.551Z</time></trkpt><trkpt lat="45.4827356" lon="11.1808174"><ele>210.99999999999997</ele><time>2026-04-19T07:15:57.655Z</time></trkpt><trkpt lat="45.4828046" lon="11.1807521"><ele>211.0</ele><time>2026-04-19T07:16:00.562Z</time></trkpt><trkpt lat="45.4828715" lon="11.1806817"><ele>211.66666666666666</ele><time>2026-04-19T07:16:03.591Z</time></trkpt><trkpt lat="45.4829347" lon="11.1806013"><ele>212.33333333333331</ele><time>2026-04-19T07:16:06.557Z</time></trkpt><trkpt lat="45.483013" lon="11.1805317"><ele>213.0</ele><time>2026-04-19T07:16:09.65Z</time></trkpt><trkpt lat="45.4830734" lon="11.1804489"><ele>213.66666666666669</ele><time>2026-04-19T07:16:12.566Z</time></trkpt><trkpt lat="45.4831441" lon="11.1803705"><ele>214.33333333333334</ele><time>2026-04-19T07:16:15.549Z</time></trkpt><trkpt lat="45.4832154" lon="11.1802913"><ele>215.0</ele><time>2026-04-19T07:16:18.554Z</time></trkpt><trkpt lat="45.4832856" lon="11.1802044"><ele>215.00000000000003</ele><time>2026-04-19T07:16:21.673Z</time></trkpt><trkpt lat="45.4833552" lon="11.1801243"><ele>215.0</ele><time>2026-04-19T07:16:24.552Z</time></trkpt><trkpt lat="45.4834191" lon="11.1800372"><ele>215.0</ele><time>2026-04-19T07:16:27.582Z</time></trkpt><trkpt lat="45.4834762" lon="11.1799829"><ele>215.0</ele><time>2026-04-19T07:16:30.547Z</time></trkpt><trkpt lat="45.4835465" lon="11.1799242"><ele>215.00000000000003</ele><time>2026-04-19T07:16:33.655Z</time></trkpt><trkpt lat="45.483612" lon="11.1798698"><ele>215.0</ele><time>2026-04-19T07:16:36.557Z</time></trkpt><trkpt lat="45.4836874" lon="11.1798146"><ele>215.00000000000003</ele><time>2026-04-19T07:16:39.59Z</time></trkpt><trkpt lat="45.4837444" lon="11.1797402"><ele>215.0</ele><time>2026-04-19T07:16:42.551Z</time></trkpt><trkpt lat="45.483799" lon="11.1796472"><ele>215.0</ele><time>2026-04-19T07:16:45.656Z</time></trkpt><trkpt lat="45.4838614" lon="11.1795629"><ele>215.0</ele><time>2026-04-19T07:16:48.559Z</time></trkpt><trkpt lat="45.4839134" lon="11.1795019"><ele>215.00000000000003</ele><time>2026-04-19T07:16:50.557Z</time></trkpt><trkpt lat="45.4839636" lon="11.1794441"><ele>215.0</ele><time>2026-04-19T07:16:52.557Z</time></trkpt><trkpt lat="45.4840268" lon="11.1793633"><ele>215.33333333333334</ele><time>2026-04-19T07:16:55.554Z</time></trkpt><trkpt lat="45.4840906" lon="11.1792754"><ele>215.66666666666669</ele><time>2026-04-19T07:16:58.661Z</time></trkpt><trkpt lat="45.4841396" lon="11.1792153"><ele>216.0</ele><time>2026-04-19T07:17:00.554Z</time></trkpt><trkpt lat="45.4841942" lon="11.1791652"><ele>216.33333333333331</ele><time>2026-04-19T07:17:02.54Z</time></trkpt><trkpt lat="45.4842669" lon="11.1791029"><ele>216.66666666666666</ele><time>2026-04-19T07:17:05.557Z</time></trkpt><trkpt lat="45.4843452" lon="11.1790372"><ele>217.0</ele><time>2026-04-19T07:17:08.663Z</time></trkpt><trkpt lat="45.484405" lon="11.1789954"><ele>217.16666666666666</ele><time>2026-04-19T07:17:10.621Z</time></trkpt><trkpt lat="45.4844801" lon="11.1789305"><ele>217.33333333333331</ele><time>2026-04-19T07:17:13.56Z</time></trkpt><trkpt lat="45.4845487" lon="11.1788673"><ele>217.5</ele><time>2026-04-19T07:17:16.652Z</time></trkpt><trkpt lat="45.4846221" lon="11.1788253"><ele>217.66666666666669</ele><time>2026-04-19T07:17:19.556Z</time></trkpt><trkpt lat="45.4846912" lon="11.1787758"><ele>217.83333333333334</ele><time>2026-04-19T07:17:22.644Z</time></trkpt><trkpt lat="45.4847477" lon="11.1787091"><ele>218.0</ele><time>2026-04-19T07:17:25.553Z</time></trkpt><trkpt lat="45.4847915" lon="11.1786197"><ele>218.33333333333334</ele><time>2026-04-19T07:17:28.552Z</time></trkpt><trkpt lat="45.4848463" lon="11.178521"><ele>218.66666666666669</ele><time>2026-04-19T07:17:31.641Z</time></trkpt><trkpt lat="45.4849096" lon="11.1784191"><ele>219.0</ele><time>2026-04-19T07:17:34.554Z</time></trkpt><trkpt lat="45.4849787" lon="11.1783386"><ele>219.33333333333331</ele><time>2026-04-19T07:17:37.642Z</time></trkpt><trkpt lat="45.4850503" lon="11.1782605"><ele>219.66666666666666</ele><time>2026-04-19T07:17:40.552Z</time></trkpt><trkpt lat="45.485111" lon="11.1782289"><ele>220.0</ele><time>2026-04-19T07:17:42.559Z</time></trkpt><trkpt lat="45.4851756" lon="11.1781963"><ele>219.99999999999997</ele><time>2026-04-19T07:17:44.644Z</time></trkpt><trkpt lat="45.4852438" lon="11.1781673"><ele>220.0</ele><time>2026-04-19T07:17:46.645Z</time></trkpt><trkpt lat="45.4853071" lon="11.1781472"><ele>220.0</ele><time>2026-04-19T07:17:48.642Z</time></trkpt><trkpt lat="45.4853966" lon="11.1781195"><ele>220.0</ele><time>2026-04-19T07:17:51.63Z</time></trkpt><trkpt lat="45.4854576" lon="11.1780963"><ele>219.99999999999997</ele><time>2026-04-19T07:17:53.648Z</time></trkpt><trkpt lat="45.4855363" lon="11.1780591"><ele>220.0</ele><time>2026-04-19T07:17:56.668Z</time></trkpt><trkpt lat="45.4856311" lon="11.1780349"><ele>220.33333333333331</ele><time>2026-04-19T07:17:59.565Z</time></trkpt><trkpt lat="45.4856948" lon="11.1780242"><ele>220.66666666666666</ele><time>2026-04-19T07:18:01.646Z</time></trkpt><trkpt lat="45.4857621" lon="11.1780004"><ele>221.0</ele><time>2026-04-19T07:18:03.655Z</time></trkpt><trkpt lat="45.485842" lon="11.1779455"><ele>221.33333333333331</ele><time>2026-04-19T07:18:06.661Z</time></trkpt><trkpt lat="45.4858941" lon="11.1778638"><ele>221.66666666666666</ele><time>2026-04-19T07:18:09.656Z</time></trkpt><trkpt lat="45.4858888" lon="11.177745"><ele>222.0</ele><time>2026-04-19T07:18:12.661Z</time></trkpt><trkpt lat="45.4858915" lon="11.1776074"><ele>222.0</ele><time>2026-04-19T07:18:15.663Z</time></trkpt><trkpt lat="45.4858795" lon="11.1774716"><ele>222.0</ele><time>2026-04-19T07:18:18.655Z</time></trkpt><trkpt lat="45.4858567" lon="11.1773241"><ele>222.0</ele><time>2026-04-19T07:18:21.651Z</time></trkpt><trkpt lat="45.4858534" lon="11.1772261"><ele>222.0</ele><time>2026-04-19T07:18:23.658Z</time></trkpt><trkpt lat="45.4858471" lon="11.1771333"><ele>222.0</ele><time>2026-04-19T07:18:25.681Z</time></trkpt><trkpt lat="45.4858636" lon="11.1770177"><ele>222.0</ele><time>2026-04-19T07:18:28.669Z</time></trkpt><trkpt lat="45.4859529" lon="11.1769751"><ele>221.83333333333334</ele><time>2026-04-19T07:18:31.681Z</time></trkpt><trkpt lat="45.4860392" lon="11.1769534"><ele>221.66666666666669</ele><time>2026-04-19T07:18:34.668Z</time></trkpt><trkpt lat="45.4861192" lon="11.1769336"><ele>221.5</ele><time>2026-04-19T07:18:37.657Z</time></trkpt><trkpt lat="45.4862071" lon="11.1769171"><ele>221.33333333333334</ele><time>2026-04-19T07:18:40.661Z</time></trkpt><trkpt lat="45.4862951" lon="11.1769093"><ele>221.16666666666669</ele><time>2026-04-19T07:18:43.7Z</time></trkpt><trkpt lat="45.4863807" lon="11.1768955"><ele>221.0</ele><time>2026-04-19T07:18:46.644Z</time></trkpt><trkpt lat="45.4864671" lon="11.1768738"><ele>221.50000000000003</ele><time>2026-04-19T07:18:49.64Z</time></trkpt><trkpt lat="45.4865605" lon="11.1768573"><ele>222.0</ele><time>2026-04-19T07:18:52.651Z</time></trkpt><trkpt lat="45.4866303" lon="11.1768411"><ele>222.5</ele><time>2026-04-19T07:18:54.649Z</time></trkpt><trkpt lat="45.4867192" lon="11.1768136"><ele>223.0</ele><time>2026-04-19T07:18:57.561Z</time></trkpt><trkpt lat="45.4868008" lon="11.1767734"><ele>223.50000000000003</ele><time>2026-04-19T07:19:00.691Z</time></trkpt><trkpt lat="45.4868623" lon="11.1767377"><ele>224.0</ele><time>2026-04-19T07:19:02.64Z</time></trkpt><trkpt lat="45.4869701" lon="11.1766916"><ele>224.0</ele><time>2026-04-19T07:19:05.654Z</time></trkpt><trkpt lat="45.4870453" lon="11.1766743"><ele>224.0</ele><time>2026-04-19T07:19:07.655Z</time></trkpt><trkpt lat="45.4871152" lon="11.176656"><ele>224.0</ele><time>2026-04-19T07:19:09.644Z</time></trkpt><trkpt lat="45.4872017" lon="11.1766102"><ele>224.0</ele><time>2026-04-19T07:19:12.665Z</time></trkpt><trkpt lat="45.487261" lon="11.1765771"><ele>224.0</ele><time>2026-04-19T07:19:14.701Z</time></trkpt><trkpt lat="45.4873231" lon="11.1765473"><ele>224.0</ele><time>2026-04-19T07:19:16.653Z</time></trkpt><trkpt lat="45.4873883" lon="11.1765233"><ele>224.0</ele><time>2026-04-19T07:19:18.672Z</time></trkpt><trkpt lat="45.48745" lon="11.1765003"><ele>224.42857142857144</ele><time>2026-04-19T07:19:20.667Z</time></trkpt><trkpt lat="45.4875422" lon="11.1764677"><ele>224.85714285714286</ele><time>2026-04-19T07:19:23.67Z</time></trkpt><trkpt lat="45.4876189" lon="11.1765149"><ele>225.28571428571428</ele><time>2026-04-19T07:19:26.68Z</time></trkpt><trkpt lat="45.4876604" lon="11.1765872"><ele>225.71428571428572</ele><time>2026-04-19T07:19:28.631Z</time></trkpt><trkpt lat="45.4876999" lon="11.1766667"><ele>226.14285714285717</ele><time>2026-04-19T07:19:30.67Z</time></trkpt><trkpt lat="45.4877463" lon="11.176735"><ele>226.57142857142858</ele><time>2026-04-19T07:19:32.661Z</time></trkpt><trkpt lat="45.4878042" lon="11.1767804"><ele>227.0</ele><time>2026-04-19T07:19:34.653Z</time></trkpt><trkpt lat="45.487894" lon="11.1768248"><ele>227.50000000000003</ele><time>2026-04-19T07:19:37.689Z</time></trkpt><trkpt lat="45.4879549" lon="11.1768529"><ele>228.0</ele><time>2026-04-19T07:19:39.659Z</time></trkpt><trkpt lat="45.488067" lon="11.176919"><ele>228.5</ele><time>2026-04-19T07:19:43.666Z</time></trkpt><trkpt lat="45.4881288" lon="11.1769525"><ele>229.0</ele><time>2026-04-19T07:19:45.66Z</time></trkpt><trkpt lat="45.4882228" lon="11.176997"><ele>229.50000000000003</ele><time>2026-04-19T07:19:48.667Z</time></trkpt><trkpt lat="45.4882911" lon="11.1770217"><ele>230.0</ele><time>2026-04-19T07:19:50.675Z</time></trkpt><trkpt lat="45.4883612" lon="11.1770451"><ele>230.00000000000003</ele><time>2026-04-19T07:19:52.651Z</time></trkpt><trkpt lat="45.488433" lon="11.1770608"><ele>230.0</ele><time>2026-04-19T07:19:54.649Z</time></trkpt><trkpt lat="45.4885091" lon="11.177067"><ele>230.0</ele><time>2026-04-19T07:19:56.664Z</time></trkpt><trkpt lat="45.4885795" lon="11.1770961"><ele>230.0</ele><time>2026-04-19T07:19:58.667Z</time></trkpt><trkpt lat="45.4886529" lon="11.1771219"><ele>230.00000000000003</ele><time>2026-04-19T07:20:00.558Z</time></trkpt><trkpt lat="45.4887294" lon="11.1771465"><ele>230.0</ele><time>2026-04-19T07:20:02.629Z</time></trkpt><trkpt lat="45.4888113" lon="11.1771751"><ele>230.00000000000003</ele><time>2026-04-19T07:20:04.651Z</time></trkpt><trkpt lat="45.4888732" lon="11.1772141"><ele>230.0</ele><time>2026-04-19T07:20:06.647Z</time></trkpt><trkpt lat="45.4889555" lon="11.1772666"><ele>230.0</ele><time>2026-04-19T07:20:09.637Z</time></trkpt><trkpt lat="45.4890216" lon="11.1773115"><ele>230.0</ele><time>2026-04-19T07:20:11.645Z</time></trkpt><trkpt lat="45.4890896" lon="11.1773521"><ele>230.00000000000003</ele><time>2026-04-19T07:20:13.636Z</time></trkpt><trkpt lat="45.4891647" lon="11.1773851"><ele>230.0</ele><time>2026-04-19T07:20:15.65Z</time></trkpt><trkpt lat="45.4892413" lon="11.1774105"><ele>230.00000000000003</ele><time>2026-04-19T07:20:17.658Z</time></trkpt><trkpt lat="45.4893252" lon="11.1774272"><ele>230.0</ele><time>2026-04-19T07:20:19.56Z</time></trkpt><trkpt lat="45.4894071" lon="11.1774377"><ele>230.0</ele><time>2026-04-19T07:20:21.655Z</time></trkpt><trkpt lat="45.4894878" lon="11.1774312"><ele>230.0</ele><time>2026-04-19T07:20:23.649Z</time></trkpt><trkpt lat="45.4895711" lon="11.177416"><ele>230.00000000000003</ele><time>2026-04-19T07:20:25.653Z</time></trkpt><trkpt lat="45.489653" lon="11.1773918"><ele>230.0</ele><time>2026-04-19T07:20:27.642Z</time></trkpt><trkpt lat="45.4897289" lon="11.1773637"><ele>230.57142857142856</ele><time>2026-04-19T07:20:29.658Z</time></trkpt><trkpt lat="45.4898011" lon="11.1773353"><ele>231.14285714285714</ele><time>2026-04-19T07:20:31.666Z</time></trkpt><trkpt lat="45.4898719" lon="11.1773038"><ele>231.71428571428572</ele><time>2026-04-19T07:20:33.648Z</time></trkpt><trkpt lat="45.4899367" lon="11.1772704"><ele>232.28571428571428</ele><time>2026-04-19T07:20:35.668Z</time></trkpt><trkpt lat="45.4900002" lon="11.177246"><ele>232.8571428571429</ele><time>2026-04-19T07:20:37.66Z</time></trkpt><trkpt lat="45.4900655" lon="11.1772269"><ele>233.42857142857144</ele><time>2026-04-19T07:20:39.669Z</time></trkpt><trkpt lat="45.4901285" lon="11.1772003"><ele>234.0</ele><time>2026-04-19T07:20:41.656Z</time></trkpt><trkpt lat="45.4901897" lon="11.1771772"><ele>234.0</ele><time>2026-04-19T07:20:43.656Z</time></trkpt><trkpt lat="45.4902509" lon="11.1771517"><ele>234.0</ele><time>2026-04-19T07:20:45.658Z</time></trkpt><trkpt lat="45.490337" lon="11.1770995"><ele>234.0</ele><time>2026-04-19T07:20:48.655Z</time></trkpt><trkpt lat="45.490395" lon="11.1770622"><ele>234.0</ele><time>2026-04-19T07:20:50.67Z</time></trkpt><trkpt lat="45.4904786" lon="11.1770095"><ele>234.0</ele><time>2026-04-19T07:20:53.664Z</time></trkpt><trkpt lat="45.4905521" lon="11.1769296"><ele>234.0</ele><time>2026-04-19T07:20:56.652Z</time></trkpt><trkpt lat="45.4906252" lon="11.1768553"><ele>234.16666666666666</ele><time>2026-04-19T07:20:59.561Z</time></trkpt><trkpt lat="45.4906989" lon="11.1767917"><ele>234.33333333333331</ele><time>2026-04-19T07:21:02.66Z</time></trkpt><trkpt lat="45.4907687" lon="11.1767202"><ele>234.5</ele><time>2026-04-19T07:21:05.668Z</time></trkpt><trkpt lat="45.4908235" lon="11.1766378"><ele>234.66666666666666</ele><time>2026-04-19T07:21:08.674Z</time></trkpt><trkpt lat="45.4908962" lon="11.1765713"><ele>234.83333333333331</ele><time>2026-04-19T07:21:11.665Z</time></trkpt><trkpt lat="45.4909665" lon="11.1764832"><ele>235.0</ele><time>2026-04-19T07:21:14.665Z</time></trkpt><trkpt lat="45.4910214" lon="11.1764036"><ele>235.14285714285714</ele><time>2026-04-19T07:21:16.672Z</time></trkpt><trkpt lat="45.4910716" lon="11.1763232"><ele>235.28571428571428</ele><time>2026-04-19T07:21:18.672Z</time></trkpt><trkpt lat="45.491117" lon="11.1762451"><ele>235.42857142857142</ele><time>2026-04-19T07:21:20.646Z</time></trkpt><trkpt lat="45.4911617" lon="11.176163"><ele>235.57142857142856</ele><time>2026-04-19T07:21:22.634Z</time></trkpt><trkpt lat="45.4912132" lon="11.1760801"><ele>235.71428571428572</ele><time>2026-04-19T07:21:24.641Z</time></trkpt><trkpt lat="45.4912669" lon="11.1760046"><ele>235.85714285714283</ele><time>2026-04-19T07:21:26.649Z</time></trkpt><trkpt lat="45.4913163" lon="11.1759384"><ele>236.0</ele><time>2026-04-19T07:21:28.647Z</time></trkpt><trkpt lat="45.4913702" lon="11.1758723"><ele>236.42857142857142</ele><time>2026-04-19T07:21:30.641Z</time></trkpt><trkpt lat="45.4914272" lon="11.1758189"><ele>236.8571428571429</ele><time>2026-04-19T07:21:32.652Z</time></trkpt><trkpt lat="45.4914849" lon="11.175772"><ele>237.2857142857143</ele><time>2026-04-19T07:21:34.658Z</time></trkpt><trkpt lat="45.4915481" lon="11.1757258"><ele>237.71428571428572</ele><time>2026-04-19T07:21:36.648Z</time></trkpt><trkpt lat="45.4916148" lon="11.1756934"><ele>238.14285714285717</ele><time>2026-04-19T07:21:38.656Z</time></trkpt><trkpt lat="45.4916767" lon="11.1756621"><ele>238.5714285714286</ele><time>2026-04-19T07:21:40.563Z</time></trkpt><trkpt lat="45.4917379" lon="11.1756315"><ele>239.00000000000003</ele><time>2026-04-19T07:21:42.661Z</time></trkpt><trkpt lat="45.4918006" lon="11.1756049"><ele>239.16666666666669</ele><time>2026-04-19T07:21:44.662Z</time></trkpt><trkpt lat="45.4918632" lon="11.1755898"><ele>239.33333333333334</ele><time>2026-04-19T07:21:46.653Z</time></trkpt><trkpt lat="45.4919534" lon="11.1755619"><ele>239.5</ele><time>2026-04-19T07:21:49.664Z</time></trkpt><trkpt lat="45.4920169" lon="11.1755483"><ele>239.66666666666669</ele><time>2026-04-19T07:21:51.592Z</time></trkpt><trkpt lat="45.4921072" lon="11.1755287"><ele>239.83333333333334</ele><time>2026-04-19T07:21:54.564Z</time></trkpt><trkpt lat="45.4921706" lon="11.175524"><ele>240.0</ele><time>2026-04-19T07:21:56.603Z</time></trkpt><trkpt lat="45.4922844" lon="11.1754913"><ele>240.5</ele><time>2026-04-19T07:22:00.665Z</time></trkpt><trkpt lat="45.4923815" lon="11.1754813"><ele>241.0</ele><time>2026-04-19T07:22:03.667Z</time></trkpt><trkpt lat="45.4924467" lon="11.1754648"><ele>241.5</ele><time>2026-04-19T07:22:05.631Z</time></trkpt><trkpt lat="45.4925321" lon="11.1754399"><ele>242.0</ele><time>2026-04-19T07:22:08.687Z</time></trkpt><trkpt lat="45.492623" lon="11.1754248"><ele>242.5</ele><time>2026-04-19T07:22:11.669Z</time></trkpt><trkpt lat="45.4927129" lon="11.1754032"><ele>243.0</ele><time>2026-04-19T07:22:14.646Z</time></trkpt><trkpt lat="45.4927796" lon="11.1753965"><ele>243.0</ele><time>2026-04-19T07:22:16.673Z</time></trkpt><trkpt lat="45.4928453" lon="11.1753876"><ele>243.0</ele><time>2026-04-19T07:22:18.666Z</time></trkpt><trkpt lat="45.4929105" lon="11.1753748"><ele>243.0</ele><time>2026-04-19T07:22:20.673Z</time></trkpt><trkpt lat="45.4929999" lon="11.1753503"><ele>243.0</ele><time>2026-04-19T07:22:23.668Z</time></trkpt><trkpt lat="45.4930637" lon="11.1753411"><ele>243.0</ele><time>2026-04-19T07:22:25.648Z</time></trkpt><trkpt lat="45.4931301" lon="11.1753166"><ele>243.0</ele><time>2026-04-19T07:22:27.662Z</time></trkpt><trkpt lat="45.4931991" lon="11.1752926"><ele>243.0</ele><time>2026-04-19T07:22:29.662Z</time></trkpt><trkpt lat="45.4932633" lon="11.1752915"><ele>243.16666666666666</ele><time>2026-04-19T07:22:31.662Z</time></trkpt><trkpt lat="45.4933493" lon="11.1753286"><ele>243.33333333333331</ele><time>2026-04-19T07:22:34.669Z</time></trkpt><trkpt lat="45.4934369" lon="11.1753782"><ele>243.5</ele><time>2026-04-19T07:22:37.674Z</time></trkpt><trkpt lat="45.4934964" lon="11.175414"><ele>243.66666666666666</ele><time>2026-04-19T07:22:39.66Z</time></trkpt><trkpt lat="45.4935821" lon="11.1754598"><ele>243.83333333333331</ele><time>2026-04-19T07:22:42.652Z</time></trkpt><trkpt lat="45.4936712" lon="11.1755011"><ele>244.0</ele><time>2026-04-19T07:22:45.638Z</time></trkpt><trkpt lat="45.4937425" lon="11.1755321"><ele>244.1428571428571</ele><time>2026-04-19T07:22:47.637Z</time></trkpt><trkpt lat="45.4938075" lon="11.1755635"><ele>244.28571428571428</ele><time>2026-04-19T07:22:49.648Z</time></trkpt><trkpt lat="45.4938742" lon="11.1755971"><ele>244.42857142857142</ele><time>2026-04-19T07:22:51.654Z</time></trkpt><trkpt lat="45.4939418" lon="11.1756185"><ele>244.57142857142856</ele><time>2026-04-19T07:22:53.642Z</time></trkpt><trkpt lat="45.4940053" lon="11.1756426"><ele>244.71428571428572</ele><time>2026-04-19T07:22:55.585Z</time></trkpt><trkpt lat="45.4940725" lon="11.1756612"><ele>244.85714285714286</ele><time>2026-04-19T07:22:57.655Z</time></trkpt><trkpt lat="45.4941373" lon="11.1756793"><ele>245.0</ele><time>2026-04-19T07:22:59.639Z</time></trkpt><trkpt lat="45.4942046" lon="11.1756879"><ele>245.0</ele><time>2026-04-19T07:23:01.639Z</time></trkpt><trkpt lat="45.4942746" lon="11.1757022"><ele>245.0</ele><time>2026-04-19T07:23:03.66Z</time></trkpt><trkpt lat="45.4943517" lon="11.1757182"><ele>245.0</ele><time>2026-04-19T07:23:05.67Z</time></trkpt><trkpt lat="45.4944242" lon="11.1757347"><ele>245.0</ele><time>2026-04-19T07:23:07.659Z</time></trkpt><trkpt lat="45.4944982" lon="11.1757512"><ele>245.0</ele><time>2026-04-19T07:23:09.678Z</time></trkpt><trkpt lat="45.4945649" lon="11.1757603"><ele>245.0</ele><time>2026-04-19T07:23:11.563Z</time></trkpt><trkpt lat="45.4946278" lon="11.1757752"><ele>245.0</ele><time>2026-04-19T07:23:13.651Z</time></trkpt><trkpt lat="45.4947217" lon="11.1757952"><ele>245.16666666666669</ele><time>2026-04-19T07:23:16.668Z</time></trkpt><trkpt lat="45.4948085" lon="11.1758098"><ele>245.33333333333334</ele><time>2026-04-19T07:23:19.679Z</time></trkpt><trkpt lat="45.4948705" lon="11.17583"><ele>245.5</ele><time>2026-04-19T07:23:21.556Z</time></trkpt><trkpt lat="45.4949654" lon="11.1758536"><ele>245.66666666666669</ele><time>2026-04-19T07:23:24.667Z</time></trkpt><trkpt lat="45.4950312" lon="11.1758694"><ele>245.83333333333334</ele><time>2026-04-19T07:23:26.67Z</time></trkpt><trkpt lat="45.495098" lon="11.1758834"><ele>246.0</ele><time>2026-04-19T07:23:28.666Z</time></trkpt><trkpt lat="45.4951879" lon="11.1759209"><ele>246.0</ele><time>2026-04-19T07:23:31.69Z</time></trkpt><trkpt lat="45.4952782" lon="11.1759423"><ele>246.0</ele><time>2026-04-19T07:23:34.665Z</time></trkpt><trkpt lat="45.4953712" lon="11.1759646"><ele>246.0</ele><time>2026-04-19T07:23:37.671Z</time></trkpt><trkpt lat="45.4954349" lon="11.1759756"><ele>246.0</ele><time>2026-04-19T07:23:39.661Z</time></trkpt><trkpt lat="45.4955002" lon="11.175989"><ele>246.0</ele><time>2026-04-19T07:23:41.664Z</time></trkpt><trkpt lat="45.4955892" lon="11.1760119"><ele>246.0</ele><time>2026-04-19T07:23:44.565Z</time></trkpt><trkpt lat="45.4956597" lon="11.176019"><ele>246.5</ele><time>2026-04-19T07:23:46.561Z</time></trkpt><trkpt lat="45.495738" lon="11.1760164"><ele>247.0</ele><time>2026-04-19T07:23:48.681Z</time></trkpt><trkpt lat="45.4958085" lon="11.1760213"><ele>247.5</ele><time>2026-04-19T07:23:50.673Z</time></trkpt><trkpt lat="45.4958984" lon="11.1760298"><ele>248.0</ele><time>2026-04-19T07:23:53.67Z</time></trkpt><trkpt lat="45.4959903" lon="11.1760374"><ele>248.5</ele><time>2026-04-19T07:23:56.669Z</time></trkpt><trkpt lat="45.4960539" lon="11.1760561"><ele>249.0</ele><time>2026-04-19T07:23:58.673Z</time></trkpt><trkpt lat="45.4961209" lon="11.1760783"><ele>249.0</ele><time>2026-04-19T07:24:00.668Z</time></trkpt><trkpt lat="45.4961882" lon="11.1761015"><ele>248.99999999999997</ele><time>2026-04-19T07:24:02.636Z</time></trkpt><trkpt lat="45.4962569" lon="11.1761267"><ele>249.0</ele><time>2026-04-19T07:24:04.65Z</time></trkpt><trkpt lat="45.4963255" lon="11.1761477"><ele>249.0</ele><time>2026-04-19T07:24:06.646Z</time></trkpt><trkpt lat="45.4963978" lon="11.1761736"><ele>248.99999999999997</ele><time>2026-04-19T07:24:08.627Z</time></trkpt><trkpt lat="45.4964739" lon="11.1761965"><ele>249.0</ele><time>2026-04-19T07:24:10.558Z</time></trkpt><trkpt lat="45.4965496" lon="11.1762225"><ele>249.0</ele><time>2026-04-19T07:24:12.648Z</time></trkpt><trkpt lat="45.4966241" lon="11.1762409"><ele>249.66666666666666</ele><time>2026-04-19T07:24:14.638Z</time></trkpt><trkpt lat="45.4966936" lon="11.1762574"><ele>250.33333333333331</ele><time>2026-04-19T07:24:16.638Z</time></trkpt><trkpt lat="45.4967574" lon="11.1762697"><ele>251.0</ele><time>2026-04-19T07:24:18.641Z</time></trkpt><trkpt lat="45.4968203" lon="11.1762769"><ele>251.66666666666666</ele><time>2026-04-19T07:24:20.676Z</time></trkpt><trkpt lat="45.496913" lon="11.1762882"><ele>252.33333333333331</ele><time>2026-04-19T07:24:23.56Z</time></trkpt><trkpt lat="45.4970014" lon="11.176323"><ele>253.0</ele><time>2026-04-19T07:24:26.656Z</time></trkpt><trkpt lat="45.4970846" lon="11.1763543"><ele>253.28571428571433</ele><time>2026-04-19T07:24:29.65Z</time></trkpt><trkpt lat="45.4971469" lon="11.1763684"><ele>253.57142857142858</ele><time>2026-04-19T07:24:31.669Z</time></trkpt><trkpt lat="45.4972113" lon="11.1763832"><ele>253.8571428571429</ele><time>2026-04-19T07:24:33.667Z</time></trkpt><trkpt lat="45.4972957" lon="11.1763976"><ele>254.14285714285717</ele><time>2026-04-19T07:24:36.667Z</time></trkpt><trkpt lat="45.4973812" lon="11.1764145"><ele>254.42857142857144</ele><time>2026-04-19T07:24:39.676Z</time></trkpt><trkpt lat="45.4974458" lon="11.1764273"><ele>254.71428571428572</ele><time>2026-04-19T07:24:41.666Z</time></trkpt><trkpt lat="45.4975087" lon="11.1764341"><ele>255.0</ele><time>2026-04-19T07:24:43.676Z</time></trkpt><trkpt lat="45.4976006" lon="11.1764506"><ele>255.0</ele><time>2026-04-19T07:24:46.685Z</time></trkpt><trkpt lat="45.4976924" lon="11.1764601"><ele>255.0</ele><time>2026-04-19T07:24:49.652Z</time></trkpt><trkpt lat="45.4977877" lon="11.1764731"><ele>255.0</ele><time>2026-04-19T07:24:52.673Z</time></trkpt><trkpt lat="45.4978556" lon="11.1764825"><ele>255.0</ele><time>2026-04-19T07:24:54.664Z</time></trkpt><trkpt lat="45.4979249" lon="11.1764923"><ele>255.0</ele><time>2026-04-19T07:24:56.665Z</time></trkpt><trkpt lat="45.4979931" lon="11.176498"><ele>255.0</ele><time>2026-04-19T07:24:58.659Z</time></trkpt><trkpt lat="45.4980574" lon="11.1765063"><ele>255.4</ele><time>2026-04-19T07:25:00.582Z</time></trkpt><trkpt lat="45.4981405" lon="11.1765065"><ele>255.8</ele><time>2026-04-19T07:25:03.669Z</time></trkpt><trkpt lat="45.498227" lon="11.1765007"><ele>256.2</ele><time>2026-04-19T07:25:06.655Z</time></trkpt><trkpt lat="45.4983229" lon="11.1764985"><ele>256.6</ele><time>2026-04-19T07:25:09.683Z</time></trkpt><trkpt lat="45.4984153" lon="11.1764857"><ele>257.0</ele><time>2026-04-19T07:25:12.681Z</time></trkpt><trkpt lat="45.4985099" lon="11.1764925"><ele>257.0</ele><time>2026-04-19T07:25:15.662Z</time></trkpt><trkpt lat="45.4985994" lon="11.1765042"><ele>257.0</ele><time>2026-04-19T07:25:18.666Z</time></trkpt><trkpt lat="45.4986858" lon="11.1765317"><ele>257.0</ele><time>2026-04-19T07:25:21.644Z</time></trkpt><trkpt lat="45.4987562" lon="11.1765537"><ele>257.0</ele><time>2026-04-19T07:25:23.638Z</time></trkpt><trkpt lat="45.498826" lon="11.1765685"><ele>257.0</ele><time>2026-04-19T07:25:25.626Z</time></trkpt><trkpt lat="45.4989165" lon="11.1765968"><ele>257.0</ele><time>2026-04-19T07:25:28.647Z</time></trkpt><trkpt lat="45.4989858" lon="11.1766186"><ele>256.85714285714283</ele><time>2026-04-19T07:25:30.638Z</time></trkpt><trkpt lat="45.4990538" lon="11.1766311"><ele>256.7142857142857</ele><time>2026-04-19T07:25:32.646Z</time></trkpt><trkpt lat="45.4991176" lon="11.1766203"><ele>256.57142857142856</ele><time>2026-04-19T07:25:34.659Z</time></trkpt><trkpt lat="45.4991794" lon="11.1765928"><ele>256.42857142857144</ele><time>2026-04-19T07:25:36.648Z</time></trkpt><trkpt lat="45.4992441" lon="11.176559"><ele>256.2857142857143</ele><time>2026-04-19T07:25:38.659Z</time></trkpt><trkpt lat="45.4993071" lon="11.1765142"><ele>256.1428571428571</ele><time>2026-04-19T07:25:40.599Z</time></trkpt><trkpt lat="45.4993624" lon="11.1764641"><ele>256.0</ele><time>2026-04-19T07:25:42.582Z</time></trkpt><trkpt lat="45.4994149" lon="11.1764115"><ele>256.3333333333333</ele><time>2026-04-19T07:25:44.659Z</time></trkpt><trkpt lat="45.4994679" lon="11.1763515"><ele>256.66666666666663</ele><time>2026-04-19T07:25:46.654Z</time></trkpt><trkpt lat="45.4995162" lon="11.1762902"><ele>257.0</ele><time>2026-04-19T07:25:48.666Z</time></trkpt><trkpt lat="45.4995776" lon="11.1761964"><ele>257.3333333333333</ele><time>2026-04-19T07:25:51.662Z</time></trkpt><trkpt lat="45.4996348" lon="11.1761036"><ele>257.6666666666667</ele><time>2026-04-19T07:25:54.649Z</time></trkpt><trkpt lat="45.499694" lon="11.1759972"><ele>258.0</ele><time>2026-04-19T07:25:57.665Z</time></trkpt><trkpt lat="45.4997395" lon="11.1759176"><ele>258.4285714285714</ele><time>2026-04-19T07:25:59.662Z</time></trkpt><trkpt lat="45.4997752" lon="11.1758408"><ele>258.85714285714283</ele><time>2026-04-19T07:26:01.674Z</time></trkpt><trkpt lat="45.4998096" lon="11.175758"><ele>259.2857142857143</ele><time>2026-04-19T07:26:03.675Z</time></trkpt><trkpt lat="45.4998559" lon="11.17568"><ele>259.71428571428567</ele><time>2026-04-19T07:26:05.663Z</time></trkpt><trkpt lat="45.4998923" lon="11.1755944"><ele>260.1428571428571</ele><time>2026-04-19T07:26:07.662Z</time></trkpt><trkpt lat="45.4999368" lon="11.1755169"><ele>260.57142857142856</ele><time>2026-04-19T07:26:09.678Z</time></trkpt><trkpt lat="45.4999873" lon="11.1754511"><ele>261.0</ele><time>2026-04-19T07:26:11.666Z</time></trkpt><trkpt lat="45.5000415" lon="11.1753857"><ele>261.14285714285717</ele><time>2026-04-19T07:26:13.656Z</time></trkpt><trkpt lat="45.5000931" lon="11.1753135"><ele>261.2857142857143</ele><time>2026-04-19T07:26:15.671Z</time></trkpt><trkpt lat="45.5001469" lon="11.1752392"><ele>261.42857142857144</ele><time>2026-04-19T07:26:17.654Z</time></trkpt><trkpt lat="45.5002037" lon="11.1751706"><ele>261.57142857142856</ele><time>2026-04-19T07:26:19.657Z</time></trkpt><trkpt lat="45.5002605" lon="11.1751035"><ele>261.7142857142857</ele><time>2026-04-19T07:26:21.699Z</time></trkpt><trkpt lat="45.5003135" lon="11.1750381"><ele>261.8571428571429</ele><time>2026-04-19T07:26:23.663Z</time></trkpt><trkpt lat="45.5003666" lon="11.1749733"><ele>262.0</ele><time>2026-04-19T07:26:25.679Z</time></trkpt><trkpt lat="45.5004201" lon="11.1749098"><ele>262.66666666666663</ele><time>2026-04-19T07:26:27.673Z</time></trkpt><trkpt lat="45.5004705" lon="11.1748456"><ele>263.3333333333333</ele><time>2026-04-19T07:26:29.68Z</time></trkpt><trkpt lat="45.5005164" lon="11.1747838"><ele>264.0</ele><time>2026-04-19T07:26:31.662Z</time></trkpt><trkpt lat="45.5005896" lon="11.1746947"><ele>264.6666666666667</ele><time>2026-04-19T07:26:34.668Z</time></trkpt><trkpt lat="45.5006429" lon="11.1746434"><ele>265.33333333333337</ele><time>2026-04-19T07:26:36.623Z</time></trkpt><trkpt lat="45.5007199" lon="11.1745885"><ele>266.0</ele><time>2026-04-19T07:26:39.673Z</time></trkpt><trkpt lat="45.500802" lon="11.1745277"><ele>266.0</ele><time>2026-04-19T07:26:42.555Z</time></trkpt><trkpt lat="45.5008611" lon="11.1744903"><ele>266.0</ele><time>2026-04-19T07:26:44.608Z</time></trkpt><trkpt lat="45.5009447" lon="11.1744374"><ele>266.0</ele><time>2026-04-19T07:26:47.641Z</time></trkpt><trkpt lat="45.5010249" lon="11.1743819"><ele>266.0</ele><time>2026-04-19T07:26:50.634Z</time></trkpt><trkpt lat="45.5011045" lon="11.174333"><ele>266.0</ele><time>2026-04-19T07:26:53.661Z</time></trkpt><trkpt lat="45.5011849" lon="11.1742783"><ele>266.0</ele><time>2026-04-19T07:26:56.66Z</time></trkpt><trkpt lat="45.5012621" lon="11.1742281"><ele>266.5</ele><time>2026-04-19T07:26:59.554Z</time></trkpt><trkpt lat="45.5013458" lon="11.1741768"><ele>267.0</ele><time>2026-04-19T07:27:02.65Z</time></trkpt><trkpt lat="45.5014298" lon="11.1741266"><ele>267.5</ele><time>2026-04-19T07:27:05.661Z</time></trkpt><trkpt lat="45.5015177" lon="11.1740927"><ele>268.0</ele><time>2026-04-19T07:27:08.668Z</time></trkpt><trkpt lat="45.5015803" lon="11.1740565"><ele>268.5</ele><time>2026-04-19T07:27:10.661Z</time></trkpt><trkpt lat="45.5016431" lon="11.1740268"><ele>269.0</ele><time>2026-04-19T07:27:12.675Z</time></trkpt><trkpt lat="45.5017271" lon="11.1739894"><ele>269.0</ele><time>2026-04-19T07:27:15.669Z</time></trkpt><trkpt lat="45.5017869" lon="11.1739527"><ele>269.0</ele><time>2026-04-19T07:27:17.681Z</time></trkpt><trkpt lat="45.5019001" lon="11.1738851"><ele>269.0</ele><time>2026-04-19T07:27:21.648Z</time></trkpt><trkpt lat="45.50198" lon="11.1738363"><ele>269.0</ele><time>2026-04-19T07:27:24.668Z</time></trkpt><trkpt lat="45.5020387" lon="11.1738024"><ele>269.0</ele><time>2026-04-19T07:27:26.645Z</time></trkpt><trkpt lat="45.502098" lon="11.1737641"><ele>269.0</ele><time>2026-04-19T07:27:28.673Z</time></trkpt><trkpt lat="45.5021606" lon="11.1737238"><ele>269.6666666666667</ele><time>2026-04-19T07:27:30.655Z</time></trkpt><trkpt lat="45.5022213" lon="11.1736865"><ele>270.33333333333337</ele><time>2026-04-19T07:27:32.667Z</time></trkpt><trkpt lat="45.502306" lon="11.1736395"><ele>271.0</ele><time>2026-04-19T07:27:35.659Z</time></trkpt><trkpt lat="45.5023901" lon="11.1735954"><ele>271.6666666666667</ele><time>2026-04-19T07:27:38.667Z</time></trkpt><trkpt lat="45.5024758" lon="11.1735506"><ele>272.3333333333333</ele><time>2026-04-19T07:27:41.65Z</time></trkpt><trkpt lat="45.5025455" lon="11.1735134"><ele>273.0</ele><time>2026-04-19T07:27:44.666Z</time></trkpt><trkpt lat="45.5026284" lon="11.1734952"><ele>273.0</ele><time>2026-04-19T07:27:47.672Z</time></trkpt><trkpt lat="45.502711" lon="11.1734673"><ele>273.0</ele><time>2026-04-19T07:27:50.673Z</time></trkpt><trkpt lat="45.5027898" lon="11.1734361"><ele>273.0</ele><time>2026-04-19T07:27:53.649Z</time></trkpt><trkpt lat="45.5028681" lon="11.1733946"><ele>273.0</ele><time>2026-04-19T07:27:56.563Z</time></trkpt><trkpt lat="45.5029419" lon="11.1733382"><ele>273.0</ele><time>2026-04-19T07:27:59.646Z</time></trkpt><trkpt lat="45.5030196" lon="11.1732949"><ele>273.0</ele><time>2026-04-19T07:28:02.657Z</time></trkpt><trkpt lat="45.5031001" lon="11.1732638"><ele>273.2</ele><time>2026-04-19T07:28:05.656Z</time></trkpt><trkpt lat="45.5031917" lon="11.173225"><ele>273.4</ele><time>2026-04-19T07:28:08.59Z</time></trkpt><trkpt lat="45.5032842" lon="11.1732026"><ele>273.59999999999997</ele><time>2026-04-19T07:28:11.642Z</time></trkpt><trkpt lat="45.5033784" lon="11.1731788"><ele>273.8</ele><time>2026-04-19T07:28:14.662Z</time></trkpt><trkpt lat="45.5034709" lon="11.1731459"><ele>274.0</ele><time>2026-04-19T07:28:17.659Z</time></trkpt><trkpt lat="45.5035603" lon="11.1731085"><ele>274.0</ele><time>2026-04-19T07:28:20.635Z</time></trkpt><trkpt lat="45.5036394" lon="11.1730693"><ele>274.0</ele><time>2026-04-19T07:28:23.668Z</time></trkpt><trkpt lat="45.503725" lon="11.1730389"><ele>274.0</ele><time>2026-04-19T07:28:26.669Z</time></trkpt><trkpt lat="45.5038097" lon="11.1730081"><ele>274.0</ele><time>2026-04-19T07:28:29.664Z</time></trkpt><trkpt lat="45.5039279" lon="11.1729577"><ele>274.0</ele><time>2026-04-19T07:28:34.676Z</time></trkpt><trkpt lat="45.5040334" lon="11.1729133"><ele>274.3333333333333</ele><time>2026-04-19T07:28:37.619Z</time></trkpt><trkpt lat="45.5041164" lon="11.1728598"><ele>274.66666666666663</ele><time>2026-04-19T07:28:40.666Z</time></trkpt><trkpt lat="45.5042016" lon="11.1728166"><ele>275.0</ele><time>2026-04-19T07:28:43.651Z</time></trkpt><trkpt lat="45.5042884" lon="11.1727828"><ele>275.3333333333333</ele><time>2026-04-19T07:28:46.663Z</time></trkpt><trkpt lat="45.5043524" lon="11.1727625"><ele>275.6666666666667</ele><time>2026-04-19T07:28:48.664Z</time></trkpt><trkpt lat="45.504415" lon="11.172731"><ele>276.0</ele><time>2026-04-19T07:28:50.671Z</time></trkpt><trkpt lat="45.5044808" lon="11.1727016"><ele>276.0</ele><time>2026-04-19T07:28:52.66Z</time></trkpt><trkpt lat="45.5045473" lon="11.172682"><ele>276.0</ele><time>2026-04-19T07:28:54.652Z</time></trkpt><trkpt lat="45.5046119" lon="11.1726568"><ele>276.0</ele><time>2026-04-19T07:28:56.666Z</time></trkpt><trkpt lat="45.5047121" lon="11.1726241"><ele>276.0</ele><time>2026-04-19T07:28:59.56Z</time></trkpt><trkpt lat="45.5047741" lon="11.172604"><ele>276.0</ele><time>2026-04-19T07:29:01.669Z</time></trkpt><trkpt lat="45.5048412" lon="11.1725812"><ele>276.0</ele><time>2026-04-19T07:29:03.659Z</time></trkpt><trkpt lat="45.5049064" lon="11.1725621"><ele>276.0</ele><time>2026-04-19T07:29:05.665Z</time></trkpt><trkpt lat="45.5049974" lon="11.1725337"><ele>276.57142857142856</ele><time>2026-04-19T07:29:08.56Z</time></trkpt><trkpt lat="45.5050643" lon="11.1725139"><ele>277.14285714285717</ele><time>2026-04-19T07:29:10.641Z</time></trkpt><trkpt lat="45.5051291" lon="11.1724976"><ele>277.7142857142857</ele><time>2026-04-19T07:29:12.657Z</time></trkpt><trkpt lat="45.5051931" lon="11.1724868"><ele>278.2857142857143</ele><time>2026-04-19T07:29:14.648Z</time></trkpt><trkpt lat="45.5052782" lon="11.1724681"><ele>278.8571428571429</ele><time>2026-04-19T07:29:17.644Z</time></trkpt><trkpt lat="45.5053669" lon="11.1724517"><ele>279.42857142857144</ele><time>2026-04-19T07:29:20.647Z</time></trkpt><trkpt lat="45.5054321" lon="11.1724481"><ele>280.0</ele><time>2026-04-19T07:29:22.649Z</time></trkpt><trkpt lat="45.5055218" lon="11.1724411"><ele>280.5</ele><time>2026-04-19T07:29:25.635Z</time></trkpt><trkpt lat="45.505606" lon="11.1724401"><ele>281.0</ele><time>2026-04-19T07:29:28.661Z</time></trkpt><trkpt lat="45.505696" lon="11.1724458"><ele>281.5</ele><time>2026-04-19T07:29:31.676Z</time></trkpt><trkpt lat="45.5057918" lon="11.1724341"><ele>282.0</ele><time>2026-04-19T07:29:34.664Z</time></trkpt><trkpt lat="45.5058548" lon="11.1724327"><ele>282.5</ele><time>2026-04-19T07:29:36.648Z</time></trkpt><trkpt lat="45.50592" lon="11.1724255"><ele>283.0</ele><time>2026-04-19T07:29:38.561Z</time></trkpt><trkpt lat="45.5060184" lon="11.1724242"><ele>283.0</ele><time>2026-04-19T07:29:41.661Z</time></trkpt><trkpt lat="45.5060855" lon="11.1724159"><ele>283.0</ele><time>2026-04-19T07:29:43.664Z</time></trkpt><trkpt lat="45.506181" lon="11.1724137"><ele>283.0</ele><time>2026-04-19T07:29:46.557Z</time></trkpt><trkpt lat="45.5062444" lon="11.1724098"><ele>283.0</ele><time>2026-04-19T07:29:48.613Z</time></trkpt><trkpt lat="45.5063722" lon="11.1724009"><ele>283.0</ele><time>2026-04-19T07:29:52.553Z</time></trkpt><trkpt lat="45.5064386" lon="11.172399"><ele>283.0</ele><time>2026-04-19T07:29:54.562Z</time></trkpt><trkpt lat="45.5065046" lon="11.1723915"><ele>283.3333333333333</ele><time>2026-04-19T07:29:56.641Z</time></trkpt><trkpt lat="45.5065931" lon="11.1723785"><ele>283.66666666666663</ele><time>2026-04-19T07:29:59.67Z</time></trkpt><trkpt lat="45.5066877" lon="11.1723719"><ele>284.0</ele><time>2026-04-19T07:30:02.569Z</time></trkpt><trkpt lat="45.5067544" lon="11.1723572"><ele>284.3333333333333</ele><time>2026-04-19T07:30:04.671Z</time></trkpt><trkpt lat="45.5068464" lon="11.1723313"><ele>284.6666666666667</ele><time>2026-04-19T07:30:07.633Z</time></trkpt><trkpt lat="45.5069367" lon="11.1723015"><ele>285.0</ele><time>2026-04-19T07:30:10.562Z</time></trkpt><trkpt lat="45.5070242" lon="11.1722886"><ele>285.8333333333333</ele><time>2026-04-19T07:30:13.549Z</time></trkpt><trkpt lat="45.5071156" lon="11.1722708"><ele>286.6666666666667</ele><time>2026-04-19T07:30:16.566Z</time></trkpt><trkpt lat="45.5072059" lon="11.1722445"><ele>287.5</ele><time>2026-04-19T07:30:19.637Z</time></trkpt><trkpt lat="45.5072845" lon="11.172203"><ele>288.33333333333337</ele><time>2026-04-19T07:30:22.566Z</time></trkpt><trkpt lat="45.5073617" lon="11.1721575"><ele>289.1666666666667</ele><time>2026-04-19T07:30:25.571Z</time></trkpt><trkpt lat="45.5074379" lon="11.1721112"><ele>290.0</ele><time>2026-04-19T07:30:28.565Z</time></trkpt><trkpt lat="45.5075074" lon="11.1720862"><ele>290.0</ele><time>2026-04-19T07:30:31.567Z</time></trkpt><trkpt lat="45.5075764" lon="11.1720594"><ele>290.0</ele><time>2026-04-19T07:30:34.568Z</time></trkpt><trkpt lat="45.5076509" lon="11.1720351"><ele>290.0</ele><time>2026-04-19T07:30:37.56Z</time></trkpt><trkpt lat="45.5077193" lon="11.1719708"><ele>290.0</ele><time>2026-04-19T07:30:40.551Z</time></trkpt><trkpt lat="45.5077826" lon="11.1718859"><ele>290.0</ele><time>2026-04-19T07:30:43.68Z</time></trkpt><trkpt lat="45.5078546" lon="11.1718082"><ele>290.0</ele><time>2026-04-19T07:30:46.568Z</time></trkpt><trkpt lat="45.5079144" lon="11.1717253"><ele>290.33333333333337</ele><time>2026-04-19T07:30:49.647Z</time></trkpt><trkpt lat="45.5079822" lon="11.1716384"><ele>290.6666666666667</ele><time>2026-04-19T07:30:52.561Z</time></trkpt><trkpt lat="45.508048" lon="11.1715584"><ele>291.0</ele><time>2026-04-19T07:30:55.569Z</time></trkpt><trkpt lat="45.5081133" lon="11.1714693"><ele>291.3333333333333</ele><time>2026-04-19T07:30:58.564Z</time></trkpt><trkpt lat="45.5081564" lon="11.1713963"><ele>291.66666666666663</ele><time>2026-04-19T07:31:00.567Z</time></trkpt><trkpt lat="45.5082044" lon="11.171327"><ele>292.0</ele><time>2026-04-19T07:31:02.568Z</time></trkpt><trkpt lat="45.508263" lon="11.1712615"><ele>292.0</ele><time>2026-04-19T07:31:04.66Z</time></trkpt><trkpt lat="45.508349" lon="11.1711746"><ele>292.0</ele><time>2026-04-19T07:31:07.565Z</time></trkpt><trkpt lat="45.5084067" lon="11.17113"><ele>292.0</ele><time>2026-04-19T07:31:09.565Z</time></trkpt><trkpt lat="45.5084627" lon="11.1710802"><ele>292.0</ele><time>2026-04-19T07:31:11.566Z</time></trkpt><trkpt lat="45.508539" lon="11.1710243"><ele>292.0</ele><time>2026-04-19T07:31:14.656Z</time></trkpt><trkpt lat="45.5086076" lon="11.1709662"><ele>292.0</ele><time>2026-04-19T07:31:17.565Z</time></trkpt><trkpt lat="45.5086897" lon="11.1709119"><ele>292.57142857142856</ele><time>2026-04-19T07:31:20.562Z</time></trkpt><trkpt lat="45.5087536" lon="11.1708724"><ele>293.14285714285717</ele><time>2026-04-19T07:31:22.66Z</time></trkpt><trkpt lat="45.508818" lon="11.1708338"><ele>293.7142857142857</ele><time>2026-04-19T07:31:24.558Z</time></trkpt><trkpt lat="45.5088788" lon="11.1707924"><ele>294.2857142857143</ele><time>2026-04-19T07:31:26.561Z</time></trkpt><trkpt lat="45.5089351" lon="11.1707413"><ele>294.85714285714283</ele><time>2026-04-19T07:31:28.555Z</time></trkpt><trkpt lat="45.5089874" lon="11.1706869"><ele>295.42857142857144</ele><time>2026-04-19T07:31:30.564Z</time></trkpt><trkpt lat="45.5090396" lon="11.170625"><ele>296.0</ele><time>2026-04-19T07:31:32.564Z</time></trkpt><trkpt lat="45.5090963" lon="11.1705662"><ele>296.14285714285717</ele><time>2026-04-19T07:31:34.563Z</time></trkpt><trkpt lat="45.5091571" lon="11.1705063"><ele>296.2857142857143</ele><time>2026-04-19T07:31:36.567Z</time></trkpt><trkpt lat="45.5092176" lon="11.1704488"><ele>296.42857142857144</ele><time>2026-04-19T07:31:38.566Z</time></trkpt><trkpt lat="45.5092746" lon="11.170399"><ele>296.57142857142856</ele><time>2026-04-19T07:31:40.563Z</time></trkpt><trkpt lat="45.5093271" lon="11.1703392"><ele>296.7142857142857</ele><time>2026-04-19T07:31:42.565Z</time></trkpt><trkpt lat="45.5093778" lon="11.1702842"><ele>296.8571428571429</ele><time>2026-04-19T07:31:44.557Z</time></trkpt><trkpt lat="45.5094393" lon="11.1702231"><ele>297.0</ele><time>2026-04-19T07:31:46.668Z</time></trkpt><trkpt lat="45.5094967" lon="11.1701595"><ele>297.0</ele><time>2026-04-19T07:31:48.558Z</time></trkpt><trkpt lat="45.5095551" lon="11.1700975"><ele>297.0</ele><time>2026-04-19T07:31:50.563Z</time></trkpt><trkpt lat="45.5096215" lon="11.1700358"><ele>297.0</ele><time>2026-04-19T07:31:52.566Z</time></trkpt><trkpt lat="45.509682" lon="11.16997"><ele>297.0</ele><time>2026-04-19T07:31:54.56Z</time></trkpt><trkpt lat="45.5097438" lon="11.169911"><ele>297.0</ele><time>2026-04-19T07:31:56.65Z</time></trkpt><trkpt lat="45.5098305" lon="11.1698459"><ele>297.0</ele><time>2026-04-19T07:31:59.566Z</time></trkpt><trkpt lat="45.5098893" lon="11.1698042"><ele>297.14285714285717</ele><time>2026-04-19T07:32:01.567Z</time></trkpt><trkpt lat="45.5099456" lon="11.1697585"><ele>297.28571428571433</ele><time>2026-04-19T07:32:03.571Z</time></trkpt><trkpt lat="45.5100056" lon="11.1697148"><ele>297.42857142857144</ele><time>2026-04-19T07:32:05.672Z</time></trkpt><trkpt lat="45.5100666" lon="11.1696765"><ele>297.57142857142856</ele><time>2026-04-19T07:32:07.565Z</time></trkpt><trkpt lat="45.5101254" lon="11.1696354"><ele>297.71428571428567</ele><time>2026-04-19T07:32:09.675Z</time></trkpt><trkpt lat="45.5101797" lon="11.1695866"><ele>297.85714285714283</ele><time>2026-04-19T07:32:11.571Z</time></trkpt><trkpt lat="45.5102352" lon="11.1695374"><ele>298.0</ele><time>2026-04-19T07:32:13.562Z</time></trkpt><trkpt lat="45.5102994" lon="11.1694898"><ele>298.0</ele><time>2026-04-19T07:32:15.566Z</time></trkpt><trkpt lat="45.5103634" lon="11.169451"><ele>298.0</ele><time>2026-04-19T07:32:17.67Z</time></trkpt><trkpt lat="45.5104241" lon="11.1694065"><ele>298.0</ele><time>2026-04-19T07:32:19.566Z</time></trkpt><trkpt lat="45.5104878" lon="11.1693753"><ele>298.0</ele><time>2026-04-19T07:32:21.653Z</time></trkpt><trkpt lat="45.5105505" lon="11.1693375"><ele>298.0</ele><time>2026-04-19T07:32:23.561Z</time></trkpt><trkpt lat="45.5106181" lon="11.1693002"><ele>298.0</ele><time>2026-04-19T07:32:25.673Z</time></trkpt><trkpt lat="45.5106788" lon="11.1692563"><ele>298.0</ele><time>2026-04-19T07:32:27.562Z</time></trkpt><trkpt lat="45.5107605" lon="11.1691888"><ele>298.5</ele><time>2026-04-19T07:32:30.562Z</time></trkpt><trkpt lat="45.5108313" lon="11.1691152"><ele>299.0</ele><time>2026-04-19T07:32:33.662Z</time></trkpt><trkpt lat="45.5108955" lon="11.16906"><ele>299.5</ele><time>2026-04-19T07:32:36.564Z</time></trkpt><trkpt lat="45.5109568" lon="11.1690005"><ele>300.0</ele><time>2026-04-19T07:32:39.562Z</time></trkpt><trkpt lat="45.5110148" lon="11.1689347"><ele>300.5</ele><time>2026-04-19T07:32:42.564Z</time></trkpt><trkpt lat="45.5110999" lon="11.1688513"><ele>301.0</ele><time>2026-04-19T07:32:46.564Z</time></trkpt><trkpt lat="45.5111969" lon="11.1687807"><ele>301.66666666666663</ele><time>2026-04-19T07:32:50.565Z</time></trkpt><trkpt lat="45.5112678" lon="11.1687322"><ele>302.3333333333333</ele><time>2026-04-19T07:32:53.676Z</time></trkpt><trkpt lat="45.5113429" lon="11.1686833"><ele>303.0</ele><time>2026-04-19T07:32:56.566Z</time></trkpt><trkpt lat="45.5114201" lon="11.1686452"><ele>303.6666666666667</ele><time>2026-04-19T07:32:59.572Z</time></trkpt><trkpt lat="45.5114971" lon="11.1686092"><ele>304.33333333333337</ele><time>2026-04-19T07:33:02.559Z</time></trkpt><trkpt lat="45.5115763" lon="11.1685663"><ele>305.0</ele><time>2026-04-19T07:33:05.563Z</time></trkpt><trkpt lat="45.5116358" lon="11.1685357"><ele>305.0</ele><time>2026-04-19T07:33:07.589Z</time></trkpt><trkpt lat="45.511696" lon="11.1685014"><ele>305.0</ele><time>2026-04-19T07:33:09.562Z</time></trkpt><trkpt lat="45.5117638" lon="11.168467"><ele>305.0</ele><time>2026-04-19T07:33:11.561Z</time></trkpt><trkpt lat="45.5118302" lon="11.1684317"><ele>305.0</ele><time>2026-04-19T07:33:13.565Z</time></trkpt><trkpt lat="45.5118895" lon="11.1683948"><ele>305.0</ele><time>2026-04-19T07:33:15.64Z</time></trkpt><trkpt lat="45.5119553" lon="11.1683552"><ele>305.0</ele><time>2026-04-19T07:33:17.564Z</time></trkpt><trkpt lat="45.5120162" lon="11.168318"><ele>305.0</ele><time>2026-04-19T07:33:19.562Z</time></trkpt><trkpt lat="45.512083" lon="11.1682801"><ele>305.42857142857144</ele><time>2026-04-19T07:33:21.566Z</time></trkpt><trkpt lat="45.5121469" lon="11.1682292"><ele>305.85714285714283</ele><time>2026-04-19T07:33:23.561Z</time></trkpt><trkpt lat="45.512204" lon="11.168179"><ele>306.2857142857143</ele><time>2026-04-19T07:33:25.56Z</time></trkpt><trkpt lat="45.51226" lon="11.1681267"><ele>306.7142857142857</ele><time>2026-04-19T07:33:27.564Z</time></trkpt><trkpt lat="45.5123205" lon="11.168091"><ele>307.1428571428571</ele><time>2026-04-19T07:33:29.564Z</time></trkpt><trkpt lat="45.5123836" lon="11.1680489"><ele>307.57142857142856</ele><time>2026-04-19T07:33:32.567Z</time></trkpt><trkpt lat="45.5124806" lon="11.1680321"><ele>308.0</ele><time>2026-04-19T07:33:35.636Z</time></trkpt><trkpt lat="45.5125487" lon="11.1680142"><ele>308.1666666666667</ele><time>2026-04-19T07:33:37.565Z</time></trkpt><trkpt lat="45.5126316" lon="11.1680171"><ele>308.33333333333337</ele><time>2026-04-19T07:33:39.57Z</time></trkpt><trkpt lat="45.5127068" lon="11.1679821"><ele>308.5</ele><time>2026-04-19T07:33:41.57Z</time></trkpt><trkpt lat="45.5127748" lon="11.1679378"><ele>308.6666666666667</ele><time>2026-04-19T07:33:43.637Z</time></trkpt><trkpt lat="45.5128386" lon="11.1678881"><ele>308.8333333333333</ele><time>2026-04-19T07:33:45.562Z</time></trkpt><trkpt lat="45.5129112" lon="11.167817"><ele>309.0</ele><time>2026-04-19T07:33:48.562Z</time></trkpt><trkpt lat="45.5129813" lon="11.1677697"><ele>309.5</ele><time>2026-04-19T07:33:50.647Z</time></trkpt><trkpt lat="45.5130387" lon="11.1677078"><ele>310.0</ele><time>2026-04-19T07:33:52.553Z</time></trkpt><trkpt lat="45.513091" lon="11.167654"><ele>310.5</ele><time>2026-04-19T07:33:54.589Z</time></trkpt><trkpt lat="45.5131831" lon="11.1675405"><ele>311.0</ele><time>2026-04-19T07:33:58.562Z</time></trkpt><trkpt lat="45.5132441" lon="11.1674791"><ele>311.5</ele><time>2026-04-19T07:34:00.554Z</time></trkpt><trkpt lat="45.5133103" lon="11.1674207"><ele>312.0</ele><time>2026-04-19T07:34:02.648Z</time></trkpt><trkpt lat="45.5133823" lon="11.1673801"><ele>312.0</ele><time>2026-04-19T07:34:04.566Z</time></trkpt><trkpt lat="45.513471" lon="11.1673326"><ele>312.0</ele><time>2026-04-19T07:34:07.578Z</time></trkpt><trkpt lat="45.513557" lon="11.167323"><ele>312.0</ele><time>2026-04-19T07:34:09.565Z</time></trkpt><trkpt lat="45.5136331" lon="11.1673372"><ele>312.0</ele><time>2026-04-19T07:34:11.559Z</time></trkpt><trkpt lat="45.5136987" lon="11.1673267"><ele>312.0</ele><time>2026-04-19T07:34:13.58Z</time></trkpt><trkpt lat="45.5137767" lon="11.1672482"><ele>312.0</ele><time>2026-04-19T07:34:16.573Z</time></trkpt><trkpt lat="45.5138327" lon="11.1671885"><ele>312.2857142857143</ele><time>2026-04-19T07:34:18.656Z</time></trkpt><trkpt lat="45.5138844" lon="11.1671219"><ele>312.57142857142856</ele><time>2026-04-19T07:34:20.56Z</time></trkpt><trkpt lat="45.513941" lon="11.1670602"><ele>312.85714285714283</ele><time>2026-04-19T07:34:22.56Z</time></trkpt><trkpt lat="45.5140068" lon="11.1670006"><ele>313.1428571428571</ele><time>2026-04-19T07:34:24.668Z</time></trkpt><trkpt lat="45.514064" lon="11.1669365"><ele>313.42857142857144</ele><time>2026-04-19T07:34:26.57Z</time></trkpt><trkpt lat="45.5141356" lon="11.1668819"><ele>313.71428571428567</ele><time>2026-04-19T07:34:28.568Z</time></trkpt><trkpt lat="45.514193" lon="11.1668381"><ele>314.0</ele><time>2026-04-19T07:34:30.57Z</time></trkpt><trkpt lat="45.5142621" lon="11.1667481"><ele>314.0</ele><time>2026-04-19T07:34:33.563Z</time></trkpt><trkpt lat="45.5143194" lon="11.1666875"><ele>314.0</ele><time>2026-04-19T07:34:35.674Z</time></trkpt><trkpt lat="45.5143763" lon="11.1666246"><ele>314.0</ele><time>2026-04-19T07:34:37.574Z</time></trkpt><trkpt lat="45.5144379" lon="11.1665588"><ele>314.0</ele><time>2026-04-19T07:34:39.564Z</time></trkpt><trkpt lat="45.5145016" lon="11.1664687"><ele>314.0</ele><time>2026-04-19T07:34:42.571Z</time></trkpt><trkpt lat="45.5145514" lon="11.1663715"><ele>314.0</ele><time>2026-04-19T07:34:45.663Z</time></trkpt><trkpt lat="45.5146193" lon="11.1662797"><ele>314.5</ele><time>2026-04-19T07:34:48.713Z</time></trkpt><trkpt lat="45.5146681" lon="11.1661798"><ele>315.0</ele><time>2026-04-19T07:34:51.578Z</time></trkpt><trkpt lat="45.5147266" lon="11.1660743"><ele>315.5</ele><time>2026-04-19T07:34:54.57Z</time></trkpt><trkpt lat="45.5148011" lon="11.1660044"><ele>316.0</ele><time>2026-04-19T07:34:56.598Z</time></trkpt><trkpt lat="45.514865" lon="11.1659513"><ele>316.5</ele><time>2026-04-19T07:34:58.564Z</time></trkpt><trkpt lat="45.5149559" lon="11.1659301"><ele>317.0</ele><time>2026-04-19T07:35:01.569Z</time></trkpt><trkpt lat="45.5150846" lon="11.165925"><ele>317.0</ele><time>2026-04-19T07:35:05.581Z</time></trkpt><trkpt lat="45.515175" lon="11.16592"><ele>317.0</ele><time>2026-04-19T07:35:08.668Z</time></trkpt><trkpt lat="45.515266" lon="11.1659097"><ele>317.0</ele><time>2026-04-19T07:35:11.568Z</time></trkpt><trkpt lat="45.5153301" lon="11.1658909"><ele>317.0</ele><time>2026-04-19T07:35:13.566Z</time></trkpt><trkpt lat="45.5154072" lon="11.16587"><ele>317.0</ele><time>2026-04-19T07:35:16.583Z</time></trkpt><trkpt lat="45.5154809" lon="11.1658652"><ele>317.0</ele><time>2026-04-19T07:35:18.561Z</time></trkpt><trkpt lat="45.5155453" lon="11.1658321"><ele>317.8</ele><time>2026-04-19T07:35:20.576Z</time></trkpt><trkpt lat="45.515658" lon="11.165796"><ele>318.6</ele><time>2026-04-19T07:35:24.564Z</time></trkpt><trkpt lat="45.5157258" lon="11.1657869"><ele>319.40000000000003</ele><time>2026-04-19T07:35:26.565Z</time></trkpt><trkpt lat="45.5158194" lon="11.1658241"><ele>320.2</ele><time>2026-04-19T07:35:28.56Z</time></trkpt><trkpt lat="45.5159521" lon="11.1658436"><ele>321.0</ele><time>2026-04-19T07:35:31.567Z</time></trkpt><trkpt lat="45.5160277" lon="11.1658322"><ele>321.0</ele><time>2026-04-19T07:35:33.675Z</time></trkpt><trkpt lat="45.5161105" lon="11.1658087"><ele>321.0</ele><time>2026-04-19T07:35:35.563Z</time></trkpt><trkpt lat="45.5161924" lon="11.1657917"><ele>321.0</ele><time>2026-04-19T07:35:37.664Z</time></trkpt><trkpt lat="45.5163008" lon="11.165765"><ele>321.0</ele><time>2026-04-19T07:35:40.567Z</time></trkpt><trkpt lat="45.5163617" lon="11.165735"><ele>321.0</ele><time>2026-04-19T07:35:42.566Z</time></trkpt><trkpt lat="45.5164612" lon="11.1657185"><ele>321.0</ele><time>2026-04-19T07:35:45.564Z</time></trkpt><trkpt lat="45.5165353" lon="11.1657178"><ele>321.0</ele><time>2026-04-19T07:35:47.567Z</time></trkpt><trkpt lat="45.5166164" lon="11.1657396"><ele>321.0</ele><time>2026-04-19T07:35:49.572Z</time></trkpt><trkpt lat="45.5166906" lon="11.1657351"><ele>321.0</ele><time>2026-04-19T07:35:51.559Z</time></trkpt><trkpt lat="45.516765" lon="11.1657234"><ele>321.0</ele><time>2026-04-19T07:35:53.564Z</time></trkpt><trkpt lat="45.5168369" lon="11.1657057"><ele>321.0</ele><time>2026-04-19T07:35:55.564Z</time></trkpt><trkpt lat="45.5169373" lon="11.1656925"><ele>321.0</ele><time>2026-04-19T07:35:58.567Z</time></trkpt><trkpt lat="45.5170182" lon="11.1656974"><ele>321.3333333333333</ele><time>2026-04-19T07:36:00.56Z</time></trkpt><trkpt lat="45.5170986" lon="11.1657067"><ele>321.6666666666667</ele><time>2026-04-19T07:36:02.563Z</time></trkpt><trkpt lat="45.5171669" lon="11.1657076"><ele>322.0</ele><time>2026-04-19T07:36:04.565Z</time></trkpt><trkpt lat="45.5172562" lon="11.1656589"><ele>322.33333333333337</ele><time>2026-04-19T07:36:07.567Z</time></trkpt><trkpt lat="45.5173177" lon="11.165633"><ele>322.6666666666667</ele><time>2026-04-19T07:36:09.566Z</time></trkpt><trkpt lat="45.517391" lon="11.1655994"><ele>323.0</ele><time>2026-04-19T07:36:11.678Z</time></trkpt><trkpt lat="45.5174634" lon="11.165564"><ele>323.00000000000006</ele><time>2026-04-19T07:36:13.574Z</time></trkpt><trkpt lat="45.5175374" lon="11.1655297"><ele>323.0</ele><time>2026-04-19T07:36:15.568Z</time></trkpt><trkpt lat="45.5176078" lon="11.1654912"><ele>323.0</ele><time>2026-04-19T07:36:17.565Z</time></trkpt><trkpt lat="45.5176784" lon="11.1654573"><ele>323.0</ele><time>2026-04-19T07:36:19.574Z</time></trkpt><trkpt lat="45.5177423" lon="11.1654185"><ele>323.0</ele><time>2026-04-19T07:36:21.569Z</time></trkpt><trkpt lat="45.5177998" lon="11.1653809"><ele>323.00000000000006</ele><time>2026-04-19T07:36:23.578Z</time></trkpt><trkpt lat="45.5178617" lon="11.1653464"><ele>323.0</ele><time>2026-04-19T07:36:25.568Z</time></trkpt><trkpt lat="45.5179329" lon="11.1653236"><ele>323.5</ele><time>2026-04-19T07:36:27.566Z</time></trkpt><trkpt lat="45.5180088" lon="11.1652949"><ele>324.0</ele><time>2026-04-19T07:36:29.569Z</time></trkpt><trkpt lat="45.5180895" lon="11.1652607"><ele>324.5</ele><time>2026-04-19T07:36:31.561Z</time></trkpt><trkpt lat="45.5181572" lon="11.165222"><ele>325.0</ele><time>2026-04-19T07:36:33.568Z</time></trkpt><trkpt lat="45.5182213" lon="11.1652011"><ele>325.5</ele><time>2026-04-19T07:36:35.679Z</time></trkpt><trkpt lat="45.5182951" lon="11.1651687"><ele>326.0</ele><time>2026-04-19T07:36:37.562Z</time></trkpt><trkpt lat="45.5183687" lon="11.1651342"><ele>326.0</ele><time>2026-04-19T07:36:39.572Z</time></trkpt><trkpt lat="45.5184505" lon="11.1651105"><ele>326.0</ele><time>2026-04-19T07:36:41.562Z</time></trkpt><trkpt lat="45.5185304" lon="11.1650834"><ele>326.0</ele><time>2026-04-19T07:36:43.563Z</time></trkpt><trkpt lat="45.5186037" lon="11.1650589"><ele>326.0</ele><time>2026-04-19T07:36:45.67Z</time></trkpt><trkpt lat="45.5186743" lon="11.1650378"><ele>326.0</ele><time>2026-04-19T07:36:47.68Z</time></trkpt><trkpt lat="45.5187491" lon="11.1650167"><ele>326.0</ele><time>2026-04-19T07:36:49.566Z</time></trkpt><trkpt lat="45.5188636" lon="11.1649893"><ele>326.42857142857144</ele><time>2026-04-19T07:36:52.568Z</time></trkpt><trkpt lat="45.5189391" lon="11.164972"><ele>326.85714285714283</ele><time>2026-04-19T07:36:54.566Z</time></trkpt><trkpt lat="45.5190077" lon="11.164947"><ele>327.2857142857143</ele><time>2026-04-19T07:36:56.574Z</time></trkpt><trkpt lat="45.5190792" lon="11.1649272"><ele>327.7142857142857</ele><time>2026-04-19T07:36:58.664Z</time></trkpt><trkpt lat="45.5191471" lon="11.1649006"><ele>328.1428571428571</ele><time>2026-04-19T07:37:00.675Z</time></trkpt><trkpt lat="45.5192153" lon="11.1648792"><ele>328.57142857142856</ele><time>2026-04-19T07:37:02.573Z</time></trkpt><trkpt lat="45.5192826" lon="11.1648478"><ele>329.0</ele><time>2026-04-19T07:37:04.564Z</time></trkpt><trkpt lat="45.5193516" lon="11.1648145"><ele>329.0</ele><time>2026-04-19T07:37:06.673Z</time></trkpt><trkpt lat="45.5194206" lon="11.1647834"><ele>329.0</ele><time>2026-04-19T07:37:08.678Z</time></trkpt><trkpt lat="45.5195366" lon="11.164742"><ele>329.0</ele><time>2026-04-19T07:37:11.569Z</time></trkpt><trkpt lat="45.5196131" lon="11.1647032"><ele>329.0</ele><time>2026-04-19T07:37:13.569Z</time></trkpt><trkpt lat="45.5196903" lon="11.1646648"><ele>329.0</ele><time>2026-04-19T07:37:15.641Z</time></trkpt><trkpt lat="45.5197625" lon="11.164622"><ele>329.0</ele><time>2026-04-19T07:37:17.568Z</time></trkpt><trkpt lat="45.5198311" lon="11.164581"><ele>329.33333333333337</ele><time>2026-04-19T07:37:19.562Z</time></trkpt><trkpt lat="45.5199025" lon="11.1645358"><ele>329.6666666666667</ele><time>2026-04-19T07:37:21.663Z</time></trkpt><trkpt lat="45.5199722" lon="11.1644898"><ele>330.0</ele><time>2026-04-19T07:37:23.565Z</time></trkpt><trkpt lat="45.5200432" lon="11.1644525"><ele>330.3333333333333</ele><time>2026-04-19T07:37:25.565Z</time></trkpt><trkpt lat="45.5201128" lon="11.1644118"><ele>330.66666666666663</ele><time>2026-04-19T07:37:27.569Z</time></trkpt><trkpt lat="45.5201792" lon="11.1643527"><ele>331.0</ele><time>2026-04-19T07:37:29.576Z</time></trkpt><trkpt lat="45.5202377" lon="11.1642816"><ele>331.0</ele><time>2026-04-19T07:37:31.571Z</time></trkpt><trkpt lat="45.5202907" lon="11.164201"><ele>331.0</ele><time>2026-04-19T07:37:33.57Z</time></trkpt><trkpt lat="45.5203464" lon="11.1641282"><ele>331.0</ele><time>2026-04-19T07:37:35.572Z</time></trkpt><trkpt lat="45.5204299" lon="11.1640244"><ele>331.0</ele><time>2026-04-19T07:37:38.568Z</time></trkpt><trkpt lat="45.5204852" lon="11.1639592"><ele>331.0</ele><time>2026-04-19T07:37:40.57Z</time></trkpt><trkpt lat="45.5205414" lon="11.1639005"><ele>331.0</ele><time>2026-04-19T07:37:42.659Z</time></trkpt><trkpt lat="45.5205967" lon="11.1638464"><ele>331.2857142857143</ele><time>2026-04-19T07:37:44.567Z</time></trkpt><trkpt lat="45.5206532" lon="11.1637968"><ele>331.57142857142856</ele><time>2026-04-19T07:37:46.648Z</time></trkpt><trkpt lat="45.520718" lon="11.1637621"><ele>331.8571428571429</ele><time>2026-04-19T07:37:48.567Z</time></trkpt><trkpt lat="45.5207859" lon="11.1637263"><ele>332.1428571428571</ele><time>2026-04-19T07:37:50.566Z</time></trkpt><trkpt lat="45.5208541" lon="11.1636987"><ele>332.4285714285714</ele><time>2026-04-19T07:37:52.565Z</time></trkpt><trkpt lat="45.5209245" lon="11.1636721"><ele>332.7142857142857</ele><time>2026-04-19T07:37:54.567Z</time></trkpt><trkpt lat="45.5209911" lon="11.1636448"><ele>333.0</ele><time>2026-04-19T07:37:56.611Z</time></trkpt><trkpt lat="45.5210591" lon="11.1636204"><ele>333.0</ele><time>2026-04-19T07:37:58.654Z</time></trkpt><trkpt lat="45.5211294" lon="11.1636003"><ele>333.0</ele><time>2026-04-19T07:38:00.563Z</time></trkpt><trkpt lat="45.5212024" lon="11.1635673"><ele>333.0</ele><time>2026-04-19T07:38:02.575Z</time></trkpt><trkpt lat="45.5212709" lon="11.1635464"><ele>333.0</ele><time>2026-04-19T07:38:04.578Z</time></trkpt><trkpt lat="45.5213383" lon="11.1635228"><ele>333.0</ele><time>2026-04-19T07:38:06.643Z</time></trkpt><trkpt lat="45.5214066" lon="11.1635009"><ele>333.0</ele><time>2026-04-19T07:38:08.564Z</time></trkpt><trkpt lat="45.5214774" lon="11.1634779"><ele>333.0</ele><time>2026-04-19T07:38:10.565Z</time></trkpt><trkpt lat="45.5215391" lon="11.1634479"><ele>333.1666666666667</ele><time>2026-04-19T07:38:12.567Z</time></trkpt><trkpt lat="45.5215967" lon="11.1634076"><ele>333.3333333333333</ele><time>2026-04-19T07:38:14.574Z</time></trkpt><trkpt lat="45.5216551" lon="11.1633655"><ele>333.5</ele><time>2026-04-19T07:38:16.695Z</time></trkpt><trkpt lat="45.5217191" lon="11.1633375"><ele>333.66666666666663</ele><time>2026-04-19T07:38:18.569Z</time></trkpt><trkpt lat="45.5217705" lon="11.1632313"><ele>333.8333333333333</ele><time>2026-04-19T07:38:21.659Z</time></trkpt><trkpt lat="45.5217444" lon="11.1631378"><ele>334.0</ele><time>2026-04-19T07:38:23.569Z</time></trkpt><trkpt lat="45.5216855" lon="11.1629931"><ele>334.0</ele><time>2026-04-19T07:38:26.567Z</time></trkpt><trkpt lat="45.5216484" lon="11.1628935"><ele>334.0</ele><time>2026-04-19T07:38:28.567Z</time></trkpt><trkpt lat="45.5216069" lon="11.1627943"><ele>334.0</ele><time>2026-04-19T07:38:30.556Z</time></trkpt><trkpt lat="45.5215965" lon="11.162685"><ele>334.0</ele><time>2026-04-19T07:38:32.564Z</time></trkpt><trkpt lat="45.5216278" lon="11.1626016"><ele>334.0</ele><time>2026-04-19T07:38:36.566Z</time></trkpt><trkpt lat="45.5216757" lon="11.1624881"><ele>334.0</ele><time>2026-04-19T07:38:39.644Z</time></trkpt><trkpt lat="45.5216969" lon="11.1623933"><ele>333.85714285714283</ele><time>2026-04-19T07:38:41.561Z</time></trkpt><trkpt lat="45.521717" lon="11.1622933"><ele>333.7142857142857</ele><time>2026-04-19T07:38:43.565Z</time></trkpt><trkpt lat="45.5217278" lon="11.162197"><ele>333.57142857142856</ele><time>2026-04-19T07:38:45.665Z</time></trkpt><trkpt lat="45.5217446" lon="11.1620956"><ele>333.42857142857144</ele><time>2026-04-19T07:38:47.564Z</time></trkpt><trkpt lat="45.5217788" lon="11.1620155"><ele>333.2857142857143</ele><time>2026-04-19T07:38:49.563Z</time></trkpt><trkpt lat="45.5218313" lon="11.1619353"><ele>333.14285714285717</ele><time>2026-04-19T07:38:52.561Z</time></trkpt><trkpt lat="45.521836" lon="11.1618401"><ele>333.0</ele><time>2026-04-19T07:38:55.562Z</time></trkpt><trkpt lat="45.5218104" lon="11.1617049"><ele>333.0</ele><time>2026-04-19T07:38:58.56Z</time></trkpt><trkpt lat="45.5217897" lon="11.1615901"><ele>333.0</ele><time>2026-04-19T07:39:00.572Z</time></trkpt><trkpt lat="45.5217648" lon="11.1614792"><ele>333.0</ele><time>2026-04-19T07:39:02.662Z</time></trkpt><trkpt lat="45.521737" lon="11.1613525"><ele>333.0</ele><time>2026-04-19T07:39:04.566Z</time></trkpt><trkpt lat="45.521754" lon="11.1612611"><ele>333.0</ele><time>2026-04-19T07:39:06.639Z</time></trkpt><trkpt lat="45.5218125" lon="11.1611986"><ele>333.0</ele><time>2026-04-19T07:39:09.563Z</time></trkpt><trkpt lat="45.5218212" lon="11.1611066"><ele>333.0</ele><time>2026-04-19T07:39:11.686Z</time></trkpt><trkpt lat="45.5218112" lon="11.1610105"><ele>333.0</ele><time>2026-04-19T07:39:13.563Z</time></trkpt><trkpt lat="45.5218294" lon="11.1609193"><ele>333.0</ele><time>2026-04-19T07:39:15.657Z</time></trkpt><trkpt lat="45.5218392" lon="11.1608246"><ele>333.0</ele><time>2026-04-19T07:39:17.565Z</time></trkpt><trkpt lat="45.5218242" lon="11.1607232"><ele>333.0</ele><time>2026-04-19T07:39:19.567Z</time></trkpt><trkpt lat="45.5218001" lon="11.160616"><ele>333.0</ele><time>2026-04-19T07:39:21.573Z</time></trkpt><trkpt lat="45.5217791" lon="11.1605012"><ele>333.0</ele><time>2026-04-19T07:39:23.673Z</time></trkpt><trkpt lat="45.521764" lon="11.1603717"><ele>333.1666666666667</ele><time>2026-04-19T07:39:25.558Z</time></trkpt><trkpt lat="45.5217292" lon="11.160245"><ele>333.3333333333333</ele><time>2026-04-19T07:39:27.568Z</time></trkpt><trkpt lat="45.5217039" lon="11.160141"><ele>333.5</ele><time>2026-04-19T07:39:29.567Z</time></trkpt><trkpt lat="45.5216794" lon="11.1600179"><ele>333.66666666666663</ele><time>2026-04-19T07:39:31.587Z</time></trkpt><trkpt lat="45.5216573" lon="11.1598991"><ele>333.8333333333333</ele><time>2026-04-19T07:39:33.688Z</time></trkpt><trkpt lat="45.5216347" lon="11.1597811"><ele>334.0</ele><time>2026-04-19T07:39:35.573Z</time></trkpt><trkpt lat="45.5216129" lon="11.1596645"><ele>333.66666666666663</ele><time>2026-04-19T07:39:37.554Z</time></trkpt><trkpt lat="45.52158" lon="11.1595582"><ele>333.3333333333333</ele><time>2026-04-19T07:39:39.683Z</time></trkpt><trkpt lat="45.5215561" lon="11.1594673"><ele>333.0</ele><time>2026-04-19T07:39:41.561Z</time></trkpt><trkpt lat="45.521514" lon="11.1593546"><ele>332.6666666666667</ele><time>2026-04-19T07:39:44.562Z</time></trkpt><trkpt lat="45.5214899" lon="11.1592563"><ele>332.33333333333337</ele><time>2026-04-19T07:39:46.635Z</time></trkpt><trkpt lat="45.5214596" lon="11.1591442"><ele>332.0</ele><time>2026-04-19T07:39:48.561Z</time></trkpt><trkpt lat="45.5214293" lon="11.1590434"><ele>331.83333333333337</ele><time>2026-04-19T07:39:50.569Z</time></trkpt><trkpt lat="45.5213871" lon="11.1589523"><ele>331.6666666666667</ele><time>2026-04-19T07:39:52.564Z</time></trkpt><trkpt lat="45.5213365" lon="11.158863"><ele>331.5</ele><time>2026-04-19T07:39:54.571Z</time></trkpt><trkpt lat="45.5212921" lon="11.1587798"><ele>331.3333333333333</ele><time>2026-04-19T07:39:56.566Z</time></trkpt><trkpt lat="45.5212419" lon="11.1587007"><ele>331.16666666666663</ele><time>2026-04-19T07:39:58.661Z</time></trkpt><trkpt lat="45.5211852" lon="11.1586094"><ele>331.0</ele><time>2026-04-19T07:40:00.56Z</time></trkpt><trkpt lat="45.5211387" lon="11.1585209"><ele>331.0</ele><time>2026-04-19T07:40:02.563Z</time></trkpt><trkpt lat="45.5210983" lon="11.1584263"><ele>331.0</ele><time>2026-04-19T07:40:04.554Z</time></trkpt><trkpt lat="45.5210713" lon="11.1583224"><ele>331.0</ele><time>2026-04-19T07:40:06.558Z</time></trkpt><trkpt lat="45.5210535" lon="11.1582158"><ele>331.0</ele><time>2026-04-19T07:40:08.565Z</time></trkpt><trkpt lat="45.5210396" lon="11.1581084"><ele>331.0</ele><time>2026-04-19T07:40:10.559Z</time></trkpt><trkpt lat="45.5210262" lon="11.1579937"><ele>331.0</ele><time>2026-04-19T07:40:12.55Z</time></trkpt><trkpt lat="45.5210242" lon="11.1578785"><ele>331.0</ele><time>2026-04-19T07:40:14.555Z</time></trkpt><trkpt lat="45.5210213" lon="11.1577559"><ele>331.0</ele><time>2026-04-19T07:40:16.558Z</time></trkpt><trkpt lat="45.5210263" lon="11.1576293"><ele>331.0</ele><time>2026-04-19T07:40:18.566Z</time></trkpt><trkpt lat="45.5210323" lon="11.157504"><ele>331.0</ele><time>2026-04-19T07:40:20.563Z</time></trkpt><trkpt lat="45.5210403" lon="11.1573825"><ele>331.0</ele><time>2026-04-19T07:40:22.563Z</time></trkpt><trkpt lat="45.5210483" lon="11.1572599"><ele>331.0</ele><time>2026-04-19T07:40:24.563Z</time></trkpt><trkpt lat="45.5210555" lon="11.1571397"><ele>331.66666666666663</ele><time>2026-04-19T07:40:26.562Z</time></trkpt><trkpt lat="45.5210609" lon="11.1570257"><ele>332.3333333333333</ele><time>2026-04-19T07:40:28.564Z</time></trkpt><trkpt lat="45.5210667" lon="11.1569096"><ele>333.0</ele><time>2026-04-19T07:40:30.647Z</time></trkpt><trkpt lat="45.5210743" lon="11.1567944"><ele>333.6666666666667</ele><time>2026-04-19T07:40:32.572Z</time></trkpt><trkpt lat="45.5210805" lon="11.1566864"><ele>334.33333333333337</ele><time>2026-04-19T07:40:34.565Z</time></trkpt><trkpt lat="45.5210848" lon="11.1565768"><ele>335.0</ele><time>2026-04-19T07:40:36.57Z</time></trkpt><trkpt lat="45.5210934" lon="11.1564759"><ele>335.1428571428571</ele><time>2026-04-19T07:40:38.668Z</time></trkpt><trkpt lat="45.5211022" lon="11.1563741"><ele>335.2857142857143</ele><time>2026-04-19T07:40:40.642Z</time></trkpt><trkpt lat="45.5211087" lon="11.1562714"><ele>335.42857142857144</ele><time>2026-04-19T07:40:42.562Z</time></trkpt><trkpt lat="45.5211208" lon="11.1561743"><ele>335.57142857142856</ele><time>2026-04-19T07:40:44.651Z</time></trkpt><trkpt lat="45.521125" lon="11.15608"><ele>335.7142857142857</ele><time>2026-04-19T07:40:46.568Z</time></trkpt><trkpt lat="45.5211359" lon="11.1559765"><ele>335.85714285714283</ele><time>2026-04-19T07:40:48.598Z</time></trkpt><trkpt lat="45.5211477" lon="11.1558731"><ele>336.0</ele><time>2026-04-19T07:40:50.561Z</time></trkpt><trkpt lat="45.521135" lon="11.1557663"><ele>336.0</ele><time>2026-04-19T07:40:53.563Z</time></trkpt><trkpt lat="45.5210933" lon="11.1556442"><ele>336.0</ele><time>2026-04-19T07:40:58.567Z</time></trkpt><trkpt lat="45.5210636" lon="11.1555326"><ele>336.0</ele><time>2026-04-19T07:41:01.566Z</time></trkpt><trkpt lat="45.52103" lon="11.155403"><ele>336.0</ele><time>2026-04-19T07:41:04.664Z</time></trkpt><trkpt lat="45.5210076" lon="11.1553013"><ele>336.0</ele><time>2026-04-19T07:41:06.57Z</time></trkpt><trkpt lat="45.5209835" lon="11.1551965"><ele>336.0</ele><time>2026-04-19T07:41:08.562Z</time></trkpt><trkpt lat="45.5209704" lon="11.1550997"><ele>336.0</ele><time>2026-04-19T07:41:10.558Z</time></trkpt><trkpt lat="45.5209596" lon="11.1550078"><ele>336.0</ele><time>2026-04-19T07:41:12.616Z</time></trkpt><trkpt lat="45.5209444" lon="11.154856"><ele>336.0</ele><time>2026-04-19T07:41:15.564Z</time></trkpt><trkpt lat="45.5209378" lon="11.1547587"><ele>336.0</ele><time>2026-04-19T07:41:17.564Z</time></trkpt><trkpt lat="45.5209203" lon="11.1546623"><ele>336.0</ele><time>2026-04-19T07:41:19.57Z</time></trkpt><trkpt lat="45.5208998" lon="11.1545688"><ele>336.0</ele><time>2026-04-19T07:41:21.657Z</time></trkpt><trkpt lat="45.5208695" lon="11.154447"><ele>336.42857142857144</ele><time>2026-04-19T07:41:24.564Z</time></trkpt><trkpt lat="45.5208346" lon="11.1543216"><ele>336.8571428571429</ele><time>2026-04-19T07:41:27.564Z</time></trkpt><trkpt lat="45.5208063" lon="11.1542325"><ele>337.2857142857143</ele><time>2026-04-19T07:41:29.562Z</time></trkpt><trkpt lat="45.5207753" lon="11.1541414"><ele>337.7142857142857</ele><time>2026-04-19T07:41:31.565Z</time></trkpt><trkpt lat="45.5207515" lon="11.1540497"><ele>338.14285714285717</ele><time>2026-04-19T07:41:33.562Z</time></trkpt><trkpt lat="45.5207333" lon="11.1539554"><ele>338.57142857142856</ele><time>2026-04-19T07:41:35.566Z</time></trkpt><trkpt lat="45.5207348" lon="11.1540596"><ele>339.0</ele><time>2026-04-19T07:41:43.566Z</time></trkpt><trkpt lat="45.5207612" lon="11.1541674"><ele>339.0</ele><time>2026-04-19T07:41:45.659Z</time></trkpt><trkpt lat="45.5207906" lon="11.1542725"><ele>339.0</ele><time>2026-04-19T07:41:47.571Z</time></trkpt><trkpt lat="45.5208385" lon="11.1543961"><ele>339.0</ele><time>2026-04-19T07:41:50.571Z</time></trkpt><trkpt lat="45.5207906" lon="11.1545008"><ele>339.0</ele><time>2026-04-19T07:41:53.561Z</time></trkpt><trkpt lat="45.5206897" lon="11.1545003"><ele>339.0</ele><time>2026-04-19T07:41:55.568Z</time></trkpt><trkpt lat="45.5205131" lon="11.1544369"><ele>339.0</ele><time>2026-04-19T07:41:58.567Z</time></trkpt><trkpt lat="45.5204506" lon="11.1544134"><ele>339.0</ele><time>2026-04-19T07:41:59.573Z</time></trkpt><trkpt lat="45.5203857" lon="11.1543882"><ele>339.0</ele><time>2026-04-19T07:42:00.565Z</time></trkpt><trkpt lat="45.520319" lon="11.1543672"><ele>339.0</ele><time>2026-04-19T07:42:01.565Z</time></trkpt><trkpt lat="45.520252" lon="11.1543406"><ele>339.0</ele><time>2026-04-19T07:42:02.572Z</time></trkpt><trkpt lat="45.5201811" lon="11.1543181"><ele>339.0</ele><time>2026-04-19T07:42:03.553Z</time></trkpt><trkpt lat="45.5201207" lon="11.1542913"><ele>339.0</ele><time>2026-04-19T07:42:04.571Z</time></trkpt><trkpt lat="45.5200484" lon="11.1542692"><ele>338.4</ele><time>2026-04-19T07:42:05.568Z</time></trkpt><trkpt lat="45.5199235" lon="11.154234"><ele>337.79999999999995</ele><time>2026-04-19T07:42:07.574Z</time></trkpt><trkpt lat="45.5198033" lon="11.1541818"><ele>337.20000000000005</ele><time>2026-04-19T07:42:09.565Z</time></trkpt><trkpt lat="45.5197404" lon="11.1541674"><ele>336.6</ele><time>2026-04-19T07:42:10.573Z</time></trkpt><trkpt lat="45.5196666" lon="11.1541612"><ele>336.0</ele><time>2026-04-19T07:42:11.567Z</time></trkpt><trkpt lat="45.5195408" lon="11.1541256"><ele>336.0</ele><time>2026-04-19T07:42:13.559Z</time></trkpt><trkpt lat="45.5194349" lon="11.1541058"><ele>336.0</ele><time>2026-04-19T07:42:15.578Z</time></trkpt><trkpt lat="45.5193072" lon="11.1540823"><ele>336.0</ele><time>2026-04-19T07:42:17.572Z</time></trkpt><trkpt lat="45.5192362" lon="11.1540769"><ele>336.0</ele><time>2026-04-19T07:42:18.568Z</time></trkpt><trkpt lat="45.5191696" lon="11.1540701"><ele>336.0</ele><time>2026-04-19T07:42:19.659Z</time></trkpt><trkpt lat="45.5191028" lon="11.154074"><ele>336.0</ele><time>2026-04-19T07:42:20.564Z</time></trkpt><trkpt lat="45.518979" lon="11.1540833"><ele>336.0</ele><time>2026-04-19T07:42:22.571Z</time></trkpt><trkpt lat="45.5189104" lon="11.1541009"><ele>336.0</ele><time>2026-04-19T07:42:23.573Z</time></trkpt><trkpt lat="45.5188467" lon="11.1541186"><ele>336.0</ele><time>2026-04-19T07:42:24.565Z</time></trkpt><trkpt lat="45.5187333" lon="11.1541776"><ele>336.0</ele><time>2026-04-19T07:42:26.565Z</time></trkpt><trkpt lat="45.5186354" lon="11.1542584"><ele>336.0</ele><time>2026-04-19T07:42:28.687Z</time></trkpt><trkpt lat="45.5185212" lon="11.1543251"><ele>337.5</ele><time>2026-04-19T07:42:30.567Z</time></trkpt><trkpt lat="45.5183644" lon="11.1543973"><ele>339.0</ele><time>2026-04-19T07:42:33.565Z</time></trkpt><trkpt lat="45.5182696" lon="11.1544224"><ele>340.5</ele><time>2026-04-19T07:42:35.571Z</time></trkpt><trkpt lat="45.5181619" lon="11.1544303"><ele>342.0</ele><time>2026-04-19T07:42:37.569Z</time></trkpt><trkpt lat="45.5180428" lon="11.1544193"><ele>342.0</ele><time>2026-04-19T07:42:39.561Z</time></trkpt><trkpt lat="45.5179378" lon="11.1543748"><ele>342.0</ele><time>2026-04-19T07:42:41.675Z</time></trkpt><trkpt lat="45.5178614" lon="11.1543374"><ele>342.0</ele><time>2026-04-19T07:42:43.565Z</time></trkpt><trkpt lat="45.5177741" lon="11.1542824"><ele>342.0</ele><time>2026-04-19T07:42:45.568Z</time></trkpt><trkpt lat="45.5176855" lon="11.1542191"><ele>342.0</ele><time>2026-04-19T07:42:47.568Z</time></trkpt><trkpt lat="45.5175985" lon="11.1541207"><ele>342.8</ele><time>2026-04-19T07:42:49.579Z</time></trkpt><trkpt lat="45.5175231" lon="11.1540062"><ele>343.6</ele><time>2026-04-19T07:42:51.677Z</time></trkpt><trkpt lat="45.5174678" lon="11.1538914"><ele>344.40000000000003</ele><time>2026-04-19T07:42:53.655Z</time></trkpt><trkpt lat="45.5174142" lon="11.1537761"><ele>345.20000000000005</ele><time>2026-04-19T07:42:55.552Z</time></trkpt><trkpt lat="45.5173679" lon="11.153666"><ele>346.0</ele><time>2026-04-19T07:42:57.565Z</time></trkpt><trkpt lat="45.5173203" lon="11.1535615"><ele>346.0</ele><time>2026-04-19T07:42:59.562Z</time></trkpt><trkpt lat="45.5172792" lon="11.1534745"><ele>346.0</ele><time>2026-04-19T07:43:01.556Z</time></trkpt><trkpt lat="45.5172203" lon="11.1533915"><ele>346.0</ele><time>2026-04-19T07:43:03.563Z</time></trkpt><trkpt lat="45.5171633" lon="11.1533126"><ele>346.0</ele><time>2026-04-19T07:43:05.627Z</time></trkpt><trkpt lat="45.5171059" lon="11.1532344"><ele>346.0</ele><time>2026-04-19T07:43:07.571Z</time></trkpt><trkpt lat="45.5170485" lon="11.1531605"><ele>346.0</ele><time>2026-04-19T07:43:09.577Z</time></trkpt><trkpt lat="45.5169986" lon="11.1530913"><ele>345.2857142857143</ele><time>2026-04-19T07:43:11.573Z</time></trkpt><trkpt lat="45.5169512" lon="11.1530159"><ele>344.5714285714286</ele><time>2026-04-19T07:43:13.568Z</time></trkpt><trkpt lat="45.5169048" lon="11.1529423"><ele>343.8571428571429</ele><time>2026-04-19T07:43:15.653Z</time></trkpt><trkpt lat="45.516861" lon="11.1528752"><ele>343.1428571428571</ele><time>2026-04-19T07:43:17.57Z</time></trkpt><trkpt lat="45.5168161" lon="11.152809"><ele>342.42857142857144</ele><time>2026-04-19T07:43:19.645Z</time></trkpt><trkpt lat="45.5167637" lon="11.1527123"><ele>341.7142857142857</ele><time>2026-04-19T07:43:22.587Z</time></trkpt><trkpt lat="45.5167267" lon="11.1526214"><ele>341.0</ele><time>2026-04-19T07:43:25.654Z</time></trkpt><trkpt lat="45.5166844" lon="11.1525519"><ele>341.0</ele><time>2026-04-19T07:43:28.568Z</time></trkpt><trkpt lat="45.5166491" lon="11.152461"><ele>341.0</ele><time>2026-04-19T07:43:32.563Z</time></trkpt><trkpt lat="45.5166192" lon="11.1523795"><ele>341.0</ele><time>2026-04-19T07:43:36.562Z</time></trkpt><trkpt lat="45.5165899" lon="11.1522953"><ele>341.0</ele><time>2026-04-19T07:43:40.565Z</time></trkpt><trkpt lat="45.5165565" lon="11.1522088"><ele>341.0</ele><time>2026-04-19T07:43:44.566Z</time></trkpt><trkpt lat="45.5165129" lon="11.1521305"><ele>341.0</ele><time>2026-04-19T07:43:47.568Z</time></trkpt><trkpt lat="45.5164737" lon="11.1520597"><ele>341.0</ele><time>2026-04-19T07:43:50.569Z</time></trkpt><trkpt lat="45.5164206" lon="11.1519813"><ele>340.83333333333337</ele><time>2026-04-19T07:43:54.563Z</time></trkpt><trkpt lat="45.5163726" lon="11.1519124"><ele>340.6666666666667</ele><time>2026-04-19T07:43:58.562Z</time></trkpt><trkpt lat="45.5163161" lon="11.1518293"><ele>340.5</ele><time>2026-04-19T07:44:02.559Z</time></trkpt><trkpt lat="45.5162542" lon="11.1517576"><ele>340.3333333333333</ele><time>2026-04-19T07:44:06.569Z</time></trkpt><trkpt lat="45.5162027" lon="11.1516757"><ele>340.16666666666663</ele><time>2026-04-19T07:44:10.564Z</time></trkpt><trkpt lat="45.5161575" lon="11.15159"><ele>340.0</ele><time>2026-04-19T07:44:14.57Z</time></trkpt><trkpt lat="45.5161307" lon="11.1514977"><ele>341.8571428571429</ele><time>2026-04-19T07:44:18.563Z</time></trkpt><trkpt lat="45.5161046" lon="11.1514056"><ele>343.71428571428567</ele><time>2026-04-19T07:44:22.562Z</time></trkpt><trkpt lat="45.5160818" lon="11.1513131"><ele>345.57142857142856</ele><time>2026-04-19T07:44:26.567Z</time></trkpt><trkpt lat="45.5160661" lon="11.1512065"><ele>347.42857142857144</ele><time>2026-04-19T07:44:30.563Z</time></trkpt><trkpt lat="45.5160565" lon="11.1511169"><ele>349.28571428571433</ele><time>2026-04-19T07:44:34.571Z</time></trkpt><trkpt lat="45.5160527" lon="11.1510022"><ele>351.1428571428571</ele><time>2026-04-19T07:44:39.567Z</time></trkpt><trkpt lat="45.5160587" lon="11.150903"><ele>353.0</ele><time>2026-04-19T07:44:44.566Z</time></trkpt><trkpt lat="45.5160579" lon="11.1508026"><ele>357.1428571428571</ele><time>2026-04-19T07:44:49.561Z</time></trkpt><trkpt lat="45.5160723" lon="11.1507048"><ele>361.28571428571433</ele><time>2026-04-19T07:44:55.56Z</time></trkpt><trkpt lat="45.5160197" lon="11.1506526"><ele>365.42857142857144</ele><time>2026-04-19T07:45:10.566Z</time></trkpt><trkpt lat="45.5159466" lon="11.1506883"><ele>369.57142857142856</ele><time>2026-04-19T07:45:15.567Z</time></trkpt><trkpt lat="45.5158773" lon="11.150672"><ele>373.71428571428567</ele><time>2026-04-19T07:45:19.559Z</time></trkpt><trkpt lat="45.5158088" lon="11.1506583"><ele>377.8571428571429</ele><time>2026-04-19T07:45:23.566Z</time></trkpt><trkpt lat="45.515741" lon="11.1506278"><ele>382.0</ele><time>2026-04-19T07:45:28.659Z</time></trkpt><trkpt lat="45.5156642" lon="11.150589"><ele>382.0</ele><time>2026-04-19T07:45:37.565Z</time></trkpt><trkpt lat="45.5155966" lon="11.1505913"><ele>382.0</ele><time>2026-04-19T07:45:41.561Z</time></trkpt><trkpt lat="45.5155325" lon="11.1505517"><ele>382.0</ele><time>2026-04-19T07:45:45.559Z</time></trkpt><trkpt lat="45.515475" lon="11.1504977"><ele>382.0</ele><time>2026-04-19T07:45:49.558Z</time></trkpt><trkpt lat="45.5154151" lon="11.1504571"><ele>382.0</ele><time>2026-04-19T07:45:54.522Z</time></trkpt><trkpt lat="45.5153585" lon="11.150374"><ele>382.0</ele><time>2026-04-19T07:45:59.014Z</time></trkpt><trkpt lat="45.5152919" lon="11.1503375"><ele>382.0</ele><time>2026-04-19T07:46:10.557Z</time></trkpt><trkpt lat="45.5151763" lon="11.1503562"><ele>382.20000000000005</ele><time>2026-04-19T07:47:00.563Z</time></trkpt><trkpt lat="45.5150542" lon="11.1503411"><ele>382.4</ele><time>2026-04-19T07:47:08.638Z</time></trkpt><trkpt lat="45.514961" lon="11.1503227"><ele>382.6</ele><time>2026-04-19T07:47:13.563Z</time></trkpt><trkpt lat="45.5148814" lon="11.1503106"><ele>382.79999999999995</ele><time>2026-04-19T07:47:17.658Z</time></trkpt><trkpt lat="45.514803" lon="11.1503117"><ele>383.0</ele><time>2026-04-19T07:47:21.557Z</time></trkpt><trkpt lat="45.5147173" lon="11.1503013"><ele>383.0</ele><time>2026-04-19T07:47:25.586Z</time></trkpt><trkpt lat="45.5146272" lon="11.1502675"><ele>383.0</ele><time>2026-04-19T08:03:53.573Z</time></trkpt><trkpt lat="45.5146946" lon="11.1502404"><ele>383.0</ele><time>2026-04-19T08:04:14.561Z</time></trkpt><trkpt lat="45.5147715" lon="11.150223"><ele>383.0</ele><time>2026-04-19T08:04:28.653Z</time></trkpt><trkpt lat="45.5148553" lon="11.1501835"><ele>383.0</ele><time>2026-04-19T08:04:33.576Z</time></trkpt><trkpt lat="45.5149164" lon="11.1501427"><ele>383.0</ele><time>2026-04-19T08:04:37.584Z</time></trkpt><trkpt lat="45.514977" lon="11.1500886"><ele>383.0</ele><time>2026-04-19T08:04:41.661Z</time></trkpt><trkpt lat="45.5150278" lon="11.1500121"><ele>383.0</ele><time>2026-04-19T08:04:45.633Z</time></trkpt><trkpt lat="45.5150767" lon="11.1499452"><ele>383.0</ele><time>2026-04-19T08:04:49.569Z</time></trkpt><trkpt lat="45.5151314" lon="11.1498873"><ele>383.0</ele><time>2026-04-19T08:04:54.557Z</time></trkpt><trkpt lat="45.51508" lon="11.1498303"><ele>383.0</ele><time>2026-04-19T08:05:01.578Z</time></trkpt><trkpt lat="45.5150226" lon="11.1498759"><ele>383.0</ele><time>2026-04-19T08:05:05.567Z</time></trkpt><trkpt lat="45.5149528" lon="11.1498903"><ele>383.0</ele><time>2026-04-19T08:05:10.568Z</time></trkpt><trkpt lat="45.5148823" lon="11.1499039"><ele>383.0</ele><time>2026-04-19T08:05:14.689Z</time></trkpt><trkpt lat="45.5148078" lon="11.149922"><ele>383.0</ele><time>2026-04-19T08:05:18.574Z</time></trkpt><trkpt lat="45.5147305" lon="11.1499219"><ele>383.0</ele><time>2026-04-19T08:05:22.574Z</time></trkpt><trkpt lat="45.5146611" lon="11.1499098"><ele>383.0</ele><time>2026-04-19T08:05:26.577Z</time></trkpt><trkpt lat="45.5145913" lon="11.1498704"><ele>383.0</ele><time>2026-04-19T08:05:30.569Z</time></trkpt><trkpt lat="45.5145295" lon="11.1498263"><ele>383.0</ele><time>2026-04-19T08:05:34.568Z</time></trkpt><trkpt lat="45.5144676" lon="11.1497851"><ele>383.0</ele><time>2026-04-19T08:05:38.644Z</time></trkpt><trkpt lat="45.5144136" lon="11.1497317"><ele>386.42857142857144</ele><time>2026-04-19T08:05:43.571Z</time></trkpt><trkpt lat="45.5143621" lon="11.1496645"><ele>389.85714285714283</ele><time>2026-04-19T08:05:47.625Z</time></trkpt><trkpt lat="45.5143007" lon="11.1495985"><ele>393.28571428571433</ele><time>2026-04-19T08:05:52.567Z</time></trkpt><trkpt lat="45.5143617" lon="11.1495734"><ele>396.7142857142857</ele><time>2026-04-19T08:06:01.567Z</time></trkpt><trkpt lat="45.5144291" lon="11.1496078"><ele>400.14285714285717</ele><time>2026-04-19T08:06:05.575Z</time></trkpt><trkpt lat="45.5144971" lon="11.1496104"><ele>403.5714285714286</ele><time>2026-04-19T08:06:09.653Z</time></trkpt><trkpt lat="45.5145713" lon="11.1496077"><ele>407.0</ele><time>2026-04-19T08:06:13.578Z</time></trkpt><trkpt lat="45.514639" lon="11.1495961"><ele>407.00000000000006</ele><time>2026-04-19T08:06:49.565Z</time></trkpt><trkpt lat="45.514705" lon="11.1495811"><ele>407.0</ele><time>2026-04-19T08:06:52.67Z</time></trkpt><trkpt lat="45.5147688" lon="11.1495372"><ele>407.0</ele><time>2026-04-19T08:06:56.571Z</time></trkpt><trkpt lat="45.5148296" lon="11.149479"><ele>407.0</ele><time>2026-04-19T08:07:00.566Z</time></trkpt><trkpt lat="45.5148872" lon="11.1494119"><ele>407.0</ele><time>2026-04-19T08:07:04.572Z</time></trkpt><trkpt lat="45.5149386" lon="11.1493411"><ele>407.00000000000006</ele><time>2026-04-19T08:07:08.557Z</time></trkpt><trkpt lat="45.5148791" lon="11.1492914"><ele>407.0</ele><time>2026-04-19T08:07:15.564Z</time></trkpt><trkpt lat="45.5148211" lon="11.149336"><ele>407.00000000000006</ele><time>2026-04-19T08:07:18.558Z</time></trkpt><trkpt lat="45.5147355" lon="11.1493486"><ele>407.0</ele><time>2026-04-19T08:07:22.557Z</time></trkpt><trkpt lat="45.5146695" lon="11.1493392"><ele>407.0</ele><time>2026-04-19T08:07:25.556Z</time></trkpt><trkpt lat="45.5146001" lon="11.1493268"><ele>407.0</ele><time>2026-04-19T08:07:28.656Z</time></trkpt><trkpt lat="45.5145312" lon="11.1492982"><ele>407.0</ele><time>2026-04-19T08:07:31.633Z</time></trkpt><trkpt lat="45.5144654" lon="11.1492569"><ele>407.00000000000006</ele><time>2026-04-19T08:07:34.624Z</time></trkpt><trkpt lat="45.5144015" lon="11.1491941"><ele>407.0</ele><time>2026-04-19T08:07:37.642Z</time></trkpt><trkpt lat="45.5143317" lon="11.1491383"><ele>408.14285714285717</ele><time>2026-04-19T08:07:40.674Z</time></trkpt><trkpt lat="45.5142707" lon="11.1491007"><ele>409.2857142857143</ele><time>2026-04-19T08:07:43.647Z</time></trkpt><trkpt lat="45.5141984" lon="11.1490618"><ele>410.42857142857144</ele><time>2026-04-19T08:07:47.595Z</time></trkpt><trkpt lat="45.5141252" lon="11.1490173"><ele>411.57142857142856</ele><time>2026-04-19T08:07:52.658Z</time></trkpt><trkpt lat="45.5140733" lon="11.1489504"><ele>412.7142857142857</ele><time>2026-04-19T08:07:56.634Z</time></trkpt><trkpt lat="45.5141352" lon="11.1489219"><ele>413.8571428571429</ele><time>2026-04-19T08:08:00.562Z</time></trkpt><trkpt lat="45.5142037" lon="11.1489494"><ele>415.0</ele><time>2026-04-19T08:08:04.653Z</time></trkpt><trkpt lat="45.5142887" lon="11.1489694"><ele>415.00000000000006</ele><time>2026-04-19T08:08:08.672Z</time></trkpt><trkpt lat="45.5143646" lon="11.1489899"><ele>415.0</ele><time>2026-04-19T08:08:12.588Z</time></trkpt><trkpt lat="45.5144735" lon="11.1490125"><ele>415.0</ele><time>2026-04-19T08:08:19.604Z</time></trkpt><trkpt lat="45.5145557" lon="11.1490438"><ele>415.0</ele><time>2026-04-19T08:08:25.674Z</time></trkpt><trkpt lat="45.5146216" lon="11.1489988"><ele>415.00000000000006</ele><time>2026-04-19T08:08:30.567Z</time></trkpt><trkpt lat="45.5146707" lon="11.1489324"><ele>415.0</ele><time>2026-04-19T08:08:35.56Z</time></trkpt><trkpt lat="45.5146958" lon="11.1488452"><ele>416.83333333333337</ele><time>2026-04-19T08:08:39.561Z</time></trkpt><trkpt lat="45.5147578" lon="11.1487762"><ele>418.6666666666667</ele><time>2026-04-19T08:08:42.566Z</time></trkpt><trkpt lat="45.5147737" lon="11.1486759"><ele>420.5</ele><time>2026-04-19T08:08:48.565Z</time></trkpt><trkpt lat="45.5147098" lon="11.1486054"><ele>422.33333333333337</ele><time>2026-04-19T08:08:53.558Z</time></trkpt><trkpt lat="45.5146464" lon="11.1485583"><ele>424.1666666666667</ele><time>2026-04-19T08:08:57.558Z</time></trkpt><trkpt lat="45.5145034" lon="11.1485441"><ele>426.0</ele><time>2026-04-19T08:09:00.648Z</time></trkpt><trkpt lat="45.514489" lon="11.148453"><ele>425.99999999999994</ele><time>2026-04-19T08:09:06.643Z</time></trkpt><trkpt lat="45.5145516" lon="11.1484026"><ele>426.0</ele><time>2026-04-19T08:09:11.657Z</time></trkpt><trkpt lat="45.5145881" lon="11.1483254"><ele>426.0</ele><time>2026-04-19T08:09:17.655Z</time></trkpt><trkpt lat="45.5146172" lon="11.1482454"><ele>426.0</ele><time>2026-04-19T08:09:22.563Z</time></trkpt><trkpt lat="45.5146598" lon="11.1481559"><ele>426.0</ele><time>2026-04-19T08:09:28.555Z</time></trkpt><trkpt lat="45.5147036" lon="11.1480814"><ele>425.99999999999994</ele><time>2026-04-19T08:09:34.636Z</time></trkpt><trkpt lat="45.5147549" lon="11.1480175"><ele>426.0</ele><time>2026-04-19T08:09:41.664Z</time></trkpt><trkpt lat="45.5148082" lon="11.1479441"><ele>429.1428571428571</ele><time>2026-04-19T08:09:47.601Z</time></trkpt><trkpt lat="45.5148537" lon="11.1478812"><ele>432.2857142857143</ele><time>2026-04-19T08:09:51.668Z</time></trkpt><trkpt lat="45.5149289" lon="11.1478615"><ele>435.42857142857144</ele><time>2026-04-19T08:09:56.557Z</time></trkpt><trkpt lat="45.5149913" lon="11.1478759"><ele>438.57142857142856</ele><time>2026-04-19T08:10:01.56Z</time></trkpt><trkpt lat="45.5150643" lon="11.1478589"><ele>441.7142857142857</ele><time>2026-04-19T08:10:07.565Z</time></trkpt><trkpt lat="45.5151246" lon="11.1478102"><ele>444.85714285714283</ele><time>2026-04-19T08:10:13.56Z</time></trkpt><trkpt lat="45.5151891" lon="11.1477832"><ele>448.0</ele><time>2026-04-19T08:10:17.561Z</time></trkpt><trkpt lat="45.5151284" lon="11.1477311"><ele>448.00000000000006</ele><time>2026-04-19T08:10:53.562Z</time></trkpt><trkpt lat="45.5150549" lon="11.1477225"><ele>448.0</ele><time>2026-04-19T08:10:58.655Z</time></trkpt><trkpt lat="45.5149824" lon="11.1477259"><ele>448.0</ele><time>2026-04-19T08:11:03.56Z</time></trkpt><trkpt lat="45.5149124" lon="11.1476856"><ele>448.0</ele><time>2026-04-19T08:11:08.655Z</time></trkpt><trkpt lat="45.5148203" lon="11.1476534"><ele>448.00000000000006</ele><time>2026-04-19T08:11:14.574Z</time></trkpt><trkpt lat="45.5147584" lon="11.1476323"><ele>448.0</ele><time>2026-04-19T08:11:18.559Z</time></trkpt><trkpt lat="45.5146859" lon="11.1476159"><ele>448.00000000000006</ele><time>2026-04-19T08:11:23.661Z</time></trkpt><trkpt lat="45.5146139" lon="11.1476051"><ele>448.0</ele><time>2026-04-19T08:11:28.652Z</time></trkpt><trkpt lat="45.5145271" lon="11.1476063"><ele>448.0</ele><time>2026-04-19T08:11:34.561Z</time></trkpt><trkpt lat="45.5144537" lon="11.1475966"><ele>448.0</ele><time>2026-04-19T08:11:39.64Z</time></trkpt><trkpt lat="45.5143786" lon="11.1475724"><ele>448.00000000000006</ele><time>2026-04-19T08:11:44.56Z</time></trkpt><trkpt lat="45.5143074" lon="11.1475555"><ele>448.0</ele><time>2026-04-19T08:11:49.557Z</time></trkpt><trkpt lat="45.5142329" lon="11.1475432"><ele>448.57142857142856</ele><time>2026-04-19T08:11:54.562Z</time></trkpt><trkpt lat="45.5141614" lon="11.1475269"><ele>449.1428571428571</ele><time>2026-04-19T08:11:59.656Z</time></trkpt><trkpt lat="45.5140879" lon="11.1475085"><ele>449.7142857142857</ele><time>2026-04-19T08:12:04.569Z</time></trkpt><trkpt lat="45.5140228" lon="11.1475013"><ele>450.2857142857143</ele><time>2026-04-19T08:12:08.562Z</time></trkpt><trkpt lat="45.5139589" lon="11.1475059"><ele>450.85714285714283</ele><time>2026-04-19T08:12:12.583Z</time></trkpt><trkpt lat="45.5138942" lon="11.1475065"><ele>451.42857142857144</ele><time>2026-04-19T08:12:16.562Z</time></trkpt><trkpt lat="45.5138258" lon="11.1475203"><ele>452.0</ele><time>2026-04-19T08:12:21.569Z</time></trkpt><trkpt lat="45.5137473" lon="11.1475432"><ele>453.3333333333333</ele><time>2026-04-19T08:12:26.568Z</time></trkpt><trkpt lat="45.5136794" lon="11.1475807"><ele>454.66666666666663</ele><time>2026-04-19T08:12:30.565Z</time></trkpt><trkpt lat="45.513604" lon="11.1476402"><ele>456.0</ele><time>2026-04-19T08:12:35.56Z</time></trkpt><trkpt lat="45.5135463" lon="11.1476856"><ele>457.33333333333337</ele><time>2026-04-19T08:12:38.568Z</time></trkpt><trkpt lat="45.5134822" lon="11.1477373"><ele>458.6666666666667</ele><time>2026-04-19T08:12:41.572Z</time></trkpt><trkpt lat="45.5134185" lon="11.1477941"><ele>460.0</ele><time>2026-04-19T08:12:44.564Z</time></trkpt><trkpt lat="45.5133506" lon="11.147851"><ele>459.99999999999994</ele><time>2026-04-19T08:12:47.562Z</time></trkpt><trkpt lat="45.5132813" lon="11.1478958"><ele>460.0</ele><time>2026-04-19T08:12:50.575Z</time></trkpt><trkpt lat="45.513225" lon="11.1479495"><ele>459.99999999999994</ele><time>2026-04-19T08:12:54.576Z</time></trkpt><trkpt lat="45.5131655" lon="11.148"><ele>459.99999999999994</ele><time>2026-04-19T08:12:58.566Z</time></trkpt><trkpt lat="45.5130993" lon="11.1480523"><ele>460.0</ele><time>2026-04-19T08:13:02.571Z</time></trkpt><trkpt lat="45.5130368" lon="11.1481172"><ele>459.99999999999994</ele><time>2026-04-19T08:13:06.563Z</time></trkpt><trkpt lat="45.512982" lon="11.1481671"><ele>459.99999999999994</ele><time>2026-04-19T08:13:09.568Z</time></trkpt><trkpt lat="45.5129148" lon="11.1482411"><ele>460.1428571428571</ele><time>2026-04-19T08:13:13.565Z</time></trkpt><trkpt lat="45.5128555" lon="11.1483176"><ele>460.2857142857143</ele><time>2026-04-19T08:13:17.664Z</time></trkpt><trkpt lat="45.5128058" lon="11.1484054"><ele>460.42857142857144</ele><time>2026-04-19T08:13:21.561Z</time></trkpt><trkpt lat="45.5127583" lon="11.1484699"><ele>460.57142857142856</ele><time>2026-04-19T08:13:24.562Z</time></trkpt><trkpt lat="45.5127013" lon="11.1485276"><ele>460.7142857142858</ele><time>2026-04-19T08:13:27.663Z</time></trkpt><trkpt lat="45.5126562" lon="11.1485912"><ele>460.8571428571429</ele><time>2026-04-19T08:13:30.561Z</time></trkpt><trkpt lat="45.5125885" lon="11.1486593"><ele>461.0</ele><time>2026-04-19T08:13:34.559Z</time></trkpt><trkpt lat="45.5125349" lon="11.1487125"><ele>460.99999999999994</ele><time>2026-04-19T08:13:37.571Z</time></trkpt><trkpt lat="45.5124667" lon="11.1487792"><ele>461.0</ele><time>2026-04-19T08:13:41.57Z</time></trkpt><trkpt lat="45.5123918" lon="11.1488324"><ele>461.0</ele><time>2026-04-19T08:13:45.563Z</time></trkpt><trkpt lat="45.5123253" lon="11.148891"><ele>461.0</ele><time>2026-04-19T08:13:49.651Z</time></trkpt><trkpt lat="45.5122613" lon="11.1489486"><ele>460.99999999999994</ele><time>2026-04-19T08:13:54.567Z</time></trkpt><trkpt lat="45.5121881" lon="11.1489463"><ele>461.0</ele><time>2026-04-19T08:14:00.66Z</time></trkpt><trkpt lat="45.5121543" lon="11.1488616"><ele>460.99999999999994</ele><time>2026-04-19T08:14:04.672Z</time></trkpt><trkpt lat="45.512101" lon="11.1488124"><ele>461.0</ele><time>2026-04-19T08:14:07.563Z</time></trkpt><trkpt lat="45.5120379" lon="11.1487557"><ele>461.0</ele><time>2026-04-19T08:14:10.569Z</time></trkpt><trkpt lat="45.511961" lon="11.1486791"><ele>461.0</ele><time>2026-04-19T08:14:14.564Z</time></trkpt><trkpt lat="45.5118792" lon="11.1485795"><ele>460.99999999999994</ele><time>2026-04-19T08:14:19.563Z</time></trkpt><trkpt lat="45.5118234" lon="11.1485113"><ele>461.0</ele><time>2026-04-19T08:14:22.562Z</time></trkpt><trkpt lat="45.5117759" lon="11.1484302"><ele>460.8571428571429</ele><time>2026-04-19T08:14:25.561Z</time></trkpt><trkpt lat="45.5117278" lon="11.1483497"><ele>460.7142857142858</ele><time>2026-04-19T08:14:28.637Z</time></trkpt><trkpt lat="45.5116836" lon="11.1482689"><ele>460.57142857142856</ele><time>2026-04-19T08:14:31.566Z</time></trkpt><trkpt lat="45.5116444" lon="11.1481822"><ele>460.42857142857144</ele><time>2026-04-19T08:14:34.57Z</time></trkpt><trkpt lat="45.5116108" lon="11.1480823"><ele>460.2857142857143</ele><time>2026-04-19T08:14:37.571Z</time></trkpt><trkpt lat="45.5115804" lon="11.1479844"><ele>460.1428571428571</ele><time>2026-04-19T08:14:40.563Z</time></trkpt><trkpt lat="45.5115488" lon="11.1478961"><ele>459.99999999999994</ele><time>2026-04-19T08:14:43.557Z</time></trkpt><trkpt lat="45.5115371" lon="11.147796"><ele>460.00000000000006</ele><time>2026-04-19T08:14:46.561Z</time></trkpt><trkpt lat="45.5115197" lon="11.1476848"><ele>460.0</ele><time>2026-04-19T08:14:49.56Z</time></trkpt><trkpt lat="45.5114851" lon="11.1475893"><ele>460.0</ele><time>2026-04-19T08:14:54.56Z</time></trkpt><trkpt lat="45.5114184" lon="11.1475555"><ele>460.0</ele><time>2026-04-19T08:14:56.56Z</time></trkpt><trkpt lat="45.5113433" lon="11.1475144"><ele>460.00000000000006</ele><time>2026-04-19T08:14:58.555Z</time></trkpt><trkpt lat="45.5112802" lon="11.1474444"><ele>460.0</ele><time>2026-04-19T08:15:00.569Z</time></trkpt><trkpt lat="45.5112372" lon="11.1473605"><ele>459.33333333333337</ele><time>2026-04-19T08:15:02.559Z</time></trkpt><trkpt lat="45.5112068" lon="11.1472801"><ele>458.6666666666667</ele><time>2026-04-19T08:15:04.557Z</time></trkpt><trkpt lat="45.5111601" lon="11.1471745"><ele>458.0</ele><time>2026-04-19T08:15:07.564Z</time></trkpt><trkpt lat="45.5111118" lon="11.1471018"><ele>457.33333333333337</ele><time>2026-04-19T08:15:10.559Z</time></trkpt><trkpt lat="45.5110501" lon="11.1470694"><ele>456.6666666666667</ele><time>2026-04-19T08:15:12.562Z</time></trkpt><trkpt lat="45.510965" lon="11.1470263"><ele>456.0</ele><time>2026-04-19T08:15:14.566Z</time></trkpt><trkpt lat="45.510876" lon="11.1470055"><ele>456.0</ele><time>2026-04-19T08:15:16.567Z</time></trkpt><trkpt lat="45.5107685" lon="11.1469443"><ele>456.0</ele><time>2026-04-19T08:15:18.558Z</time></trkpt><trkpt lat="45.5107079" lon="11.1469182"><ele>456.0</ele><time>2026-04-19T08:15:19.562Z</time></trkpt><trkpt lat="45.5105981" lon="11.1468571"><ele>456.0</ele><time>2026-04-19T08:15:21.557Z</time></trkpt><trkpt lat="45.5105089" lon="11.1467635"><ele>456.0</ele><time>2026-04-19T08:15:23.56Z</time></trkpt><trkpt lat="45.5104911" lon="11.1466485"><ele>456.0</ele><time>2026-04-19T08:15:25.56Z</time></trkpt><trkpt lat="45.5104892" lon="11.1465468"><ele>456.0</ele><time>2026-04-19T08:15:27.557Z</time></trkpt><trkpt lat="45.5105181" lon="11.1464395"><ele>456.0</ele><time>2026-04-19T08:15:30.561Z</time></trkpt><trkpt lat="45.5105571" lon="11.1463424"><ele>456.0</ele><time>2026-04-19T08:15:33.555Z</time></trkpt><trkpt lat="45.5105932" lon="11.1462524"><ele>456.0</ele><time>2026-04-19T08:15:36.56Z</time></trkpt><trkpt lat="45.5106113" lon="11.1461384"><ele>456.0</ele><time>2026-04-19T08:15:39.556Z</time></trkpt><trkpt lat="45.5106302" lon="11.1460208"><ele>456.3333333333333</ele><time>2026-04-19T08:15:42.559Z</time></trkpt><trkpt lat="45.5106767" lon="11.1459417"><ele>456.66666666666663</ele><time>2026-04-19T08:15:45.556Z</time></trkpt><trkpt lat="45.5107478" lon="11.1459075"><ele>457.0</ele><time>2026-04-19T08:15:48.565Z</time></trkpt><trkpt lat="45.5108259" lon="11.1459096"><ele>457.3333333333333</ele><time>2026-04-19T08:15:51.556Z</time></trkpt><trkpt lat="45.5109178" lon="11.1459293"><ele>457.66666666666663</ele><time>2026-04-19T08:15:54.558Z</time></trkpt><trkpt lat="45.5110123" lon="11.1459362"><ele>458.0</ele><time>2026-04-19T08:15:57.558Z</time></trkpt><trkpt lat="45.5110785" lon="11.1459442"><ele>457.99999999999994</ele><time>2026-04-19T08:15:59.56Z</time></trkpt><trkpt lat="45.5111649" lon="11.1459471"><ele>458.0</ele><time>2026-04-19T08:16:02.568Z</time></trkpt><trkpt lat="45.5112516" lon="11.1459642"><ele>458.0</ele><time>2026-04-19T08:16:05.558Z</time></trkpt><trkpt lat="45.5113279" lon="11.1459669"><ele>458.0</ele><time>2026-04-19T08:16:08.555Z</time></trkpt><trkpt lat="45.5114019" lon="11.1459652"><ele>457.99999999999994</ele><time>2026-04-19T08:16:11.558Z</time></trkpt><trkpt lat="45.5114418" lon="11.1458954"><ele>458.0</ele><time>2026-04-19T08:16:15.564Z</time></trkpt><trkpt lat="45.5113768" lon="11.1458445"><ele>458.0</ele><time>2026-04-19T08:16:20.555Z</time></trkpt><trkpt lat="45.5113118" lon="11.1458275"><ele>458.0</ele><time>2026-04-19T08:16:25.561Z</time></trkpt><trkpt lat="45.5112391" lon="11.1458042"><ele>458.0</ele><time>2026-04-19T08:16:31.564Z</time></trkpt><trkpt lat="45.5111718" lon="11.1457864"><ele>458.0</ele><time>2026-04-19T08:16:36.562Z</time></trkpt><trkpt lat="45.5111053" lon="11.1457831"><ele>458.0</ele><time>2026-04-19T08:16:42.557Z</time></trkpt><trkpt lat="45.5110334" lon="11.1457542"><ele>458.0</ele><time>2026-04-19T08:16:48.57Z</time></trkpt><trkpt lat="45.5109718" lon="11.1457278"><ele>458.0</ele><time>2026-04-19T08:16:52.556Z</time></trkpt><trkpt lat="45.5109141" lon="11.1456824"><ele>458.57142857142856</ele><time>2026-04-19T08:16:56.566Z</time></trkpt><trkpt lat="45.5108461" lon="11.145656"><ele>459.14285714285717</ele><time>2026-04-19T08:17:01.635Z</time></trkpt><trkpt lat="45.5107802" lon="11.1456332"><ele>459.7142857142857</ele><time>2026-04-19T08:17:05.658Z</time></trkpt><trkpt lat="45.5107171" lon="11.1455883"><ele>460.2857142857143</ele><time>2026-04-19T08:17:10.653Z</time></trkpt><trkpt lat="45.5106978" lon="11.1454959"><ele>460.8571428571429</ele><time>2026-04-19T08:17:16.565Z</time></trkpt><trkpt lat="45.5107465" lon="11.1454291"><ele>461.42857142857144</ele><time>2026-04-19T08:17:21.562Z</time></trkpt><trkpt lat="45.5107973" lon="11.1453554"><ele>462.0</ele><time>2026-04-19T08:17:26.57Z</time></trkpt><trkpt lat="45.5108734" lon="11.1453003"><ele>462.0</ele><time>2026-04-19T08:17:31.56Z</time></trkpt><trkpt lat="45.5109317" lon="11.1453503"><ele>462.0</ele><time>2026-04-19T08:17:36.675Z</time></trkpt><trkpt lat="45.5109592" lon="11.1454458"><ele>462.0</ele><time>2026-04-19T08:17:41.697Z</time></trkpt><trkpt lat="45.5110216" lon="11.1454144"><ele>462.0</ele><time>2026-04-19T08:20:14.561Z</time></trkpt><trkpt lat="45.5110847" lon="11.1454109"><ele>462.0</ele><time>2026-04-19T08:20:17.562Z</time></trkpt><trkpt lat="45.5111595" lon="11.1454207"><ele>462.0</ele><time>2026-04-19T08:20:22.566Z</time></trkpt><trkpt lat="45.5112315" lon="11.1454166"><ele>462.0</ele><time>2026-04-19T08:20:28.705Z</time></trkpt><trkpt lat="45.511311" lon="11.1453878"><ele>460.0</ele><time>2026-04-19T08:20:35.565Z</time></trkpt><trkpt lat="45.5113777" lon="11.1453783"><ele>458.00000000000006</ele><time>2026-04-19T08:20:40.564Z</time></trkpt><trkpt lat="45.5114493" lon="11.1453796"><ele>456.00000000000006</ele><time>2026-04-19T08:20:43.667Z</time></trkpt><trkpt lat="45.511521" lon="11.1453788"><ele>454.0</ele><time>2026-04-19T08:20:53.565Z</time></trkpt><trkpt lat="45.5115908" lon="11.1453651"><ele>452.0</ele><time>2026-04-19T08:21:01.569Z</time></trkpt><trkpt lat="45.5141614" lon="11.1475269"><ele>452.0</ele><time>2026-04-19T08:11:59.656Z</time></trkpt><trkpt lat="45.5140879" lon="11.1475085"><ele>452.0</ele><time>2026-04-19T08:12:04.569Z</time></trkpt><trkpt lat="45.5140228" lon="11.1475013"><ele>452.0</ele><time>2026-04-19T08:12:08.562Z</time></trkpt><trkpt lat="45.5139589" lon="11.1475059"><ele>452.0</ele><time>2026-04-19T08:12:12.583Z</time></trkpt><trkpt lat="45.5138942" lon="11.1475065"><ele>452.0</ele><time>2026-04-19T08:12:16.562Z</time></trkpt><trkpt lat="45.5138258" lon="11.1475203"><ele>452.0</ele><time>2026-04-19T08:12:21.569Z</time></trkpt><trkpt lat="45.5137473" lon="11.1475432"><ele>452.0</ele><time>2026-04-19T08:12:26.568Z</time></trkpt><trkpt lat="45.5136794" lon="11.1475807"><ele>453.3333333333333</ele><time>2026-04-19T08:12:30.565Z</time></trkpt><trkpt lat="45.513604" lon="11.1476402"><ele>454.66666666666663</ele><time>2026-04-19T08:12:35.56Z</time></trkpt><trkpt lat="45.5135463" lon="11.1476856"><ele>456.0</ele><time>2026-04-19T08:12:38.568Z</time></trkpt><trkpt lat="45.5134822" lon="11.1477373"><ele>457.33333333333337</ele><time>2026-04-19T08:12:41.572Z</time></trkpt><trkpt lat="45.5134185" lon="11.1477941"><ele>458.6666666666667</ele><time>2026-04-19T08:12:44.564Z</time></trkpt><trkpt lat="45.5133506" lon="11.147851"><ele>460.0</ele><time>2026-04-19T08:12:47.562Z</time></trkpt><trkpt lat="45.5132813" lon="11.1478958"><ele>459.99999999999994</ele><time>2026-04-19T08:12:50.575Z</time></trkpt><trkpt lat="45.513225" lon="11.1479495"><ele>460.0</ele><time>2026-04-19T08:12:54.576Z</time></trkpt><trkpt lat="45.5131655" lon="11.148"><ele>459.99999999999994</ele><time>2026-04-19T08:12:58.566Z</time></trkpt><trkpt lat="45.5130993" lon="11.1480523"><ele>459.99999999999994</ele><time>2026-04-19T08:13:02.571Z</time></trkpt><trkpt lat="45.5130368" lon="11.1481172"><ele>460.0</ele><time>2026-04-19T08:13:06.563Z</time></trkpt><trkpt lat="45.512982" lon="11.1481671"><ele>459.99999999999994</ele><time>2026-04-19T08:13:09.568Z</time></trkpt><trkpt lat="45.5129148" lon="11.1482411"><ele>459.99999999999994</ele><time>2026-04-19T08:13:13.565Z</time></trkpt><trkpt lat="45.5128555" lon="11.1483176"><ele>460.1428571428571</ele><time>2026-04-19T08:13:17.664Z</time></trkpt><trkpt lat="45.5128058" lon="11.1484054"><ele>460.2857142857143</ele><time>2026-04-19T08:13:21.561Z</time></trkpt><trkpt lat="45.5127583" lon="11.1484699"><ele>460.42857142857144</ele><time>2026-04-19T08:13:24.562Z</time></trkpt><trkpt lat="45.5127013" lon="11.1485276"><ele>460.57142857142856</ele><time>2026-04-19T08:13:27.663Z</time></trkpt><trkpt lat="45.5126562" lon="11.1485912"><ele>460.7142857142858</ele><time>2026-04-19T08:13:30.561Z</time></trkpt><trkpt lat="45.5125885" lon="11.1486593"><ele>460.8571428571429</ele><time>2026-04-19T08:13:34.559Z</time></trkpt><trkpt lat="45.5125349" lon="11.1487125"><ele>461.0</ele><time>2026-04-19T08:13:37.571Z</time></trkpt><trkpt lat="45.5124667" lon="11.1487792"><ele>461.0</ele><time>2026-04-19T08:13:41.57Z</time></trkpt><trkpt lat="45.5123918" lon="11.1488324"><ele>461.00000000000006</ele><time>2026-04-19T08:13:45.563Z</time></trkpt><trkpt lat="45.5123253" lon="11.148891"><ele>461.0</ele><time>2026-04-19T08:13:49.651Z</time></trkpt><trkpt lat="45.5122613" lon="11.1489486"><ele>461.0</ele><time>2026-04-19T08:13:54.567Z</time></trkpt><trkpt lat="45.5121881" lon="11.1489463"><ele>461.00000000000006</ele><time>2026-04-19T08:14:00.66Z</time></trkpt><trkpt lat="45.5121543" lon="11.1488616"><ele>461.0</ele><time>2026-04-19T08:14:04.672Z</time></trkpt><trkpt lat="45.512101" lon="11.1488124"><ele>461.0</ele><time>2026-04-19T08:14:07.563Z</time></trkpt><trkpt lat="45.5120379" lon="11.1487557"><ele>460.16666666666663</ele><time>2026-04-19T08:14:10.569Z</time></trkpt><trkpt lat="45.511961" lon="11.1486791"><ele>459.3333333333333</ele><time>2026-04-19T08:14:14.564Z</time></trkpt><trkpt lat="45.5118792" lon="11.1485795"><ele>458.5</ele><time>2026-04-19T08:14:19.563Z</time></trkpt><trkpt lat="45.5118234" lon="11.1485113"><ele>457.66666666666663</ele><time>2026-04-19T08:14:22.562Z</time></trkpt><trkpt lat="45.5117759" lon="11.1484302"><ele>456.8333333333333</ele><time>2026-04-19T08:14:25.561Z</time></trkpt><trkpt lat="45.5117278" lon="11.1483497"><ele>456.0</ele><time>2026-04-19T08:14:28.637Z</time></trkpt><trkpt lat="45.5116836" lon="11.1482689"><ele>456.57142857142856</ele><time>2026-04-19T08:14:31.566Z</time></trkpt><trkpt lat="45.5116444" lon="11.1481822"><ele>457.1428571428571</ele><time>2026-04-19T08:14:34.57Z</time></trkpt><trkpt lat="45.5116108" lon="11.1480823"><ele>457.71428571428567</ele><time>2026-04-19T08:14:37.571Z</time></trkpt><trkpt lat="45.5115804" lon="11.1479844"><ele>458.2857142857142</ele><time>2026-04-19T08:14:40.563Z</time></trkpt><trkpt lat="45.5115488" lon="11.1478961"><ele>458.85714285714283</ele><time>2026-04-19T08:14:43.557Z</time></trkpt><trkpt lat="45.5115371" lon="11.147796"><ele>459.42857142857133</ele><time>2026-04-19T08:14:46.561Z</time></trkpt><trkpt lat="45.5115197" lon="11.1476848"><ele>459.99999999999994</ele><time>2026-04-19T08:14:49.56Z</time></trkpt><trkpt lat="45.5114851" lon="11.1475893"><ele>460.00000000000006</ele><time>2026-04-19T08:14:54.56Z</time></trkpt><trkpt lat="45.5114184" lon="11.1475555"><ele>460.0</ele><time>2026-04-19T08:14:56.56Z</time></trkpt><trkpt lat="45.5113433" lon="11.1475144"><ele>460.0</ele><time>2026-04-19T08:14:58.555Z</time></trkpt><trkpt lat="45.5112802" lon="11.1474444"><ele>460.0</ele><time>2026-04-19T08:15:00.569Z</time></trkpt><trkpt lat="45.5112372" lon="11.1473605"><ele>460.00000000000006</ele><time>2026-04-19T08:15:02.559Z</time></trkpt><trkpt lat="45.5112068" lon="11.1472801"><ele>460.0</ele><time>2026-04-19T08:15:04.557Z</time></trkpt><trkpt lat="45.5111601" lon="11.1471745"><ele>459.33333333333337</ele><time>2026-04-19T08:15:07.564Z</time></trkpt><trkpt lat="45.5111118" lon="11.1471018"><ele>458.6666666666667</ele><time>2026-04-19T08:15:10.559Z</time></trkpt><trkpt lat="45.5110501" lon="11.1470694"><ele>458.0</ele><time>2026-04-19T08:15:12.562Z</time></trkpt><trkpt lat="45.510965" lon="11.1470263"><ele>457.33333333333337</ele><time>2026-04-19T08:15:14.566Z</time></trkpt><trkpt lat="45.510876" lon="11.1470055"><ele>456.6666666666667</ele><time>2026-04-19T08:15:16.567Z</time></trkpt><trkpt lat="45.5107685" lon="11.1469443"><ele>456.0</ele><time>2026-04-19T08:15:18.558Z</time></trkpt><trkpt lat="45.5107079" lon="11.1469182"><ele>456.0</ele><time>2026-04-19T08:15:19.562Z</time></trkpt><trkpt lat="45.5105981" lon="11.1468571"><ele>456.0</ele><time>2026-04-19T08:15:21.557Z</time></trkpt><trkpt lat="45.5105089" lon="11.1467635"><ele>456.0</ele><time>2026-04-19T08:15:23.56Z</time></trkpt><trkpt lat="45.5104911" lon="11.1466485"><ele>456.0</ele><time>2026-04-19T08:15:25.56Z</time></trkpt><trkpt lat="45.5104892" lon="11.1465468"><ele>456.0</ele><time>2026-04-19T08:15:27.557Z</time></trkpt><trkpt lat="45.5105181" lon="11.1464395"><ele>456.3333333333333</ele><time>2026-04-19T08:15:30.561Z</time></trkpt><trkpt lat="45.5105571" lon="11.1463424"><ele>456.66666666666663</ele><time>2026-04-19T08:15:33.555Z</time></trkpt><trkpt lat="45.5105932" lon="11.1462524"><ele>457.0</ele><time>2026-04-19T08:15:36.56Z</time></trkpt><trkpt lat="45.5106113" lon="11.1461384"><ele>457.3333333333333</ele><time>2026-04-19T08:15:39.556Z</time></trkpt><trkpt lat="45.5106302" lon="11.1460208"><ele>457.66666666666663</ele><time>2026-04-19T08:15:42.559Z</time></trkpt><trkpt lat="45.5106767" lon="11.1459417"><ele>458.0</ele><time>2026-04-19T08:15:45.556Z</time></trkpt><trkpt lat="45.5107478" lon="11.1459075"><ele>457.99999999999994</ele><time>2026-04-19T08:15:48.565Z</time></trkpt><trkpt lat="45.5108259" lon="11.1459096"><ele>458.0</ele><time>2026-04-19T08:15:51.556Z</time></trkpt><trkpt lat="45.5109178" lon="11.1459293"><ele>458.0</ele><time>2026-04-19T08:15:54.558Z</time></trkpt><trkpt lat="45.5110123" lon="11.1459362"><ele>458.0</ele><time>2026-04-19T08:15:57.558Z</time></trkpt><trkpt lat="45.5110785" lon="11.1459442"><ele>457.99999999999994</ele><time>2026-04-19T08:15:59.56Z</time></trkpt><trkpt lat="45.5111649" lon="11.1459471"><ele>458.0</ele><time>2026-04-19T08:16:02.568Z</time></trkpt><trkpt lat="45.5112516" lon="11.1459642"><ele>458.0</ele><time>2026-04-19T08:16:05.558Z</time></trkpt><trkpt lat="45.5113279" lon="11.1459669"><ele>458.0</ele><time>2026-04-19T08:16:08.555Z</time></trkpt><trkpt lat="45.5114019" lon="11.1459652"><ele>458.0</ele><time>2026-04-19T08:16:11.558Z</time></trkpt><trkpt lat="45.5114418" lon="11.1458954"><ele>458.0</ele><time>2026-04-19T08:16:15.564Z</time></trkpt><trkpt lat="45.5113768" lon="11.1458445"><ele>458.0</ele><time>2026-04-19T08:16:20.555Z</time></trkpt><trkpt lat="45.5113118" lon="11.1458275"><ele>458.0</ele><time>2026-04-19T08:16:25.561Z</time></trkpt><trkpt lat="45.5112391" lon="11.1458042"><ele>458.0</ele><time>2026-04-19T08:16:31.564Z</time></trkpt><trkpt lat="45.5111718" lon="11.1457864"><ele>458.0</ele><time>2026-04-19T08:16:36.562Z</time></trkpt><trkpt lat="45.5111053" lon="11.1457831"><ele>458.0</ele><time>2026-04-19T08:16:42.557Z</time></trkpt><trkpt lat="45.5110334" lon="11.1457542"><ele>458.0</ele><time>2026-04-19T08:16:48.57Z</time></trkpt><trkpt lat="45.5109718" lon="11.1457278"><ele>458.0</ele><time>2026-04-19T08:16:52.556Z</time></trkpt><trkpt lat="45.5109141" lon="11.1456824"><ele>458.0</ele><time>2026-04-19T08:16:56.566Z</time></trkpt><trkpt lat="45.5108461" lon="11.145656"><ele>458.0</ele><time>2026-04-19T08:17:01.635Z</time></trkpt><trkpt lat="45.5107802" lon="11.1456332"><ele>458.0</ele><time>2026-04-19T08:17:05.658Z</time></trkpt><trkpt lat="45.5107171" lon="11.1455883"><ele>458.57142857142856</ele><time>2026-04-19T08:17:10.653Z</time></trkpt><trkpt lat="45.5106978" lon="11.1454959"><ele>459.14285714285717</ele><time>2026-04-19T08:17:16.565Z</time></trkpt><trkpt lat="45.5107465" lon="11.1454291"><ele>459.7142857142857</ele><time>2026-04-19T08:17:21.562Z</time></trkpt><trkpt lat="45.5107973" lon="11.1453554"><ele>460.2857142857143</ele><time>2026-04-19T08:17:26.57Z</time></trkpt><trkpt lat="45.5108734" lon="11.1453003"><ele>460.8571428571429</ele><time>2026-04-19T08:17:31.56Z</time></trkpt><trkpt lat="45.5109317" lon="11.1453503"><ele>461.42857142857144</ele><time>2026-04-19T08:17:36.675Z</time></trkpt><trkpt lat="45.5109592" lon="11.1454458"><ele>462.0</ele><time>2026-04-19T08:17:41.697Z</time></trkpt><trkpt lat="45.5110216" lon="11.1454144"><ele>462.0</ele><time>2026-04-19T08:20:14.561Z</time></trkpt><trkpt lat="45.5110847" lon="11.1454109"><ele>462.0</ele><time>2026-04-19T08:20:17.562Z</time></trkpt><trkpt lat="45.5111595" lon="11.1454207"><ele>462.0</ele><time>2026-04-19T08:20:22.566Z</time></trkpt><trkpt lat="45.5112315" lon="11.1454166"><ele>462.0</ele><time>2026-04-19T08:20:28.705Z</time></trkpt><trkpt lat="45.511311" lon="11.1453878"><ele>462.0</ele><time>2026-04-19T08:20:35.565Z</time></trkpt><trkpt lat="45.5113777" lon="11.1453783"><ele>462.0</ele><time>2026-04-19T08:20:40.564Z</time></trkpt><trkpt lat="45.5114493" lon="11.1453796"><ele>462.0</ele><time>2026-04-19T08:20:43.667Z</time></trkpt><trkpt lat="45.511521" lon="11.1453788"><ele>463.7142857142857</ele><time>2026-04-19T08:20:53.565Z</time></trkpt><trkpt lat="45.5115908" lon="11.1453651"><ele>465.42857142857144</ele><time>2026-04-19T08:21:01.569Z</time></trkpt><trkpt lat="45.5116528" lon="11.145348"><ele>467.1428571428571</ele><time>2026-04-19T08:38:14.569Z</time></trkpt><trkpt lat="45.5115967" lon="11.1453037"><ele>468.85714285714283</ele><time>2026-04-19T08:39:22.562Z</time></trkpt><trkpt lat="45.5116587" lon="11.1453324"><ele>470.57142857142856</ele><time>2026-04-19T08:42:55.561Z</time></trkpt><trkpt lat="45.5117136" lon="11.1452773"><ele>472.2857142857142</ele><time>2026-04-19T08:42:59.559Z</time></trkpt><trkpt lat="45.5117698" lon="11.1452359"><ele>473.99999999999994</ele><time>2026-04-19T08:43:02.558Z</time></trkpt><trkpt lat="45.5118451" lon="11.1452242"><ele>473.99999999999994</ele><time>2026-04-19T08:43:06.569Z</time></trkpt><trkpt lat="45.5119138" lon="11.1452289"><ele>474.0</ele><time>2026-04-19T08:43:11.56Z</time></trkpt><trkpt lat="45.5119862" lon="11.1452062"><ele>473.99999999999994</ele><time>2026-04-19T08:43:17.564Z</time></trkpt><trkpt lat="45.5120462" lon="11.1451653"><ele>473.99999999999994</ele><time>2026-04-19T08:43:22.638Z</time></trkpt><trkpt lat="45.512101" lon="11.1450925"><ele>474.0</ele><time>2026-04-19T08:43:27.564Z</time></trkpt><trkpt lat="45.5121582" lon="11.145017"><ele>473.99999999999994</ele><time>2026-04-19T08:43:32.557Z</time></trkpt><trkpt lat="45.5121996" lon="11.1449457"><ele>473.99999999999994</ele><time>2026-04-19T08:43:36.568Z</time></trkpt><trkpt lat="45.5122662" lon="11.1448697"><ele>475.42857142857133</ele><time>2026-04-19T08:43:41.58Z</time></trkpt><trkpt lat="45.5123198" lon="11.1448034"><ele>476.85714285714283</ele><time>2026-04-19T08:43:45.568Z</time></trkpt><trkpt lat="45.5123772" lon="11.1447215"><ele>478.2857142857142</ele><time>2026-04-19T08:43:50.578Z</time></trkpt><trkpt lat="45.5124146" lon="11.1446259"><ele>479.71428571428567</ele><time>2026-04-19T08:43:55.671Z</time></trkpt><trkpt lat="45.5124693" lon="11.1445654"><ele>481.1428571428571</ele><time>2026-04-19T08:44:01.563Z</time></trkpt><trkpt lat="45.5125408" lon="11.144529"><ele>482.57142857142856</ele><time>2026-04-19T08:44:06.565Z</time></trkpt><trkpt lat="45.5126019" lon="11.1445044"><ele>484.0</ele><time>2026-04-19T08:44:11.564Z</time></trkpt><trkpt lat="45.5126591" lon="11.144444"><ele>484.0</ele><time>2026-04-19T08:44:17.565Z</time></trkpt><trkpt lat="45.5127113" lon="11.144369"><ele>483.99999999999994</ele><time>2026-04-19T08:44:23.567Z</time></trkpt><trkpt lat="45.5127602" lon="11.1442927"><ele>484.0</ele><time>2026-04-19T08:44:29.564Z</time></trkpt><trkpt lat="45.5128151" lon="11.144238"><ele>484.0</ele><time>2026-04-19T08:44:34.562Z</time></trkpt><trkpt lat="45.5128834" lon="11.1442232"><ele>483.99999999999994</ele><time>2026-04-19T08:44:41.565Z</time></trkpt><trkpt lat="45.5129458" lon="11.1442092"><ele>484.0</ele><time>2026-04-19T08:44:47.56Z</time></trkpt><trkpt lat="45.5130086" lon="11.1441912"><ele>484.0</ele><time>2026-04-19T08:44:52.556Z</time></trkpt><trkpt lat="45.513074" lon="11.1441662"><ele>486.0</ele><time>2026-04-19T08:44:58.563Z</time></trkpt><trkpt lat="45.5131399" lon="11.1441462"><ele>487.99999999999994</ele><time>2026-04-19T08:45:05.563Z</time></trkpt><trkpt lat="45.5132017" lon="11.1441252"><ele>490.0</ele><time>2026-04-19T08:45:10.565Z</time></trkpt><trkpt lat="45.5132677" lon="11.1441141"><ele>492.0</ele><time>2026-04-19T08:45:16.567Z</time></trkpt><trkpt lat="45.5133361" lon="11.1441271"><ele>493.99999999999994</ele><time>2026-04-19T08:45:22.568Z</time></trkpt><trkpt lat="45.5134044" lon="11.1441501"><ele>496.0</ele><time>2026-04-19T08:45:28.564Z</time></trkpt><trkpt lat="45.5134734" lon="11.144184"><ele>498.0</ele><time>2026-04-19T08:45:34.565Z</time></trkpt><trkpt lat="45.5135466" lon="11.1442193"><ele>498.0</ele><time>2026-04-19T08:45:40.641Z</time></trkpt><trkpt lat="45.5136036" lon="11.1442745"><ele>497.99999999999994</ele><time>2026-04-19T08:45:45.568Z</time></trkpt><trkpt lat="45.5136625" lon="11.144339"><ele>498.0</ele><time>2026-04-19T08:45:50.563Z</time></trkpt><trkpt lat="45.5137218" lon="11.14438"><ele>498.0</ele><time>2026-04-19T08:45:54.571Z</time></trkpt><trkpt lat="45.5137904" lon="11.1444356"><ele>497.99999999999994</ele><time>2026-04-19T08:45:58.564Z</time></trkpt><trkpt lat="45.5138541" lon="11.1444904"><ele>498.0</ele><time>2026-04-19T08:46:01.559Z</time></trkpt><trkpt lat="45.5139227" lon="11.1445462"><ele>498.0</ele><time>2026-04-19T08:46:05.58Z</time></trkpt><trkpt lat="45.5139961" lon="11.1446231"><ele>499.71428571428567</ele><time>2026-04-19T08:46:10.567Z</time></trkpt><trkpt lat="45.514068" lon="11.1446009"><ele>501.4285714285714</ele><time>2026-04-19T08:46:14.569Z</time></trkpt><trkpt lat="45.5141319" lon="11.1445563"><ele>503.1428571428571</ele><time>2026-04-19T08:46:17.57Z</time></trkpt><trkpt lat="45.5142075" lon="11.1445461"><ele>504.8571428571429</ele><time>2026-04-19T08:46:21.567Z</time></trkpt><trkpt lat="45.5142742" lon="11.1445126"><ele>506.5714285714286</ele><time>2026-04-19T08:46:25.569Z</time></trkpt><trkpt lat="45.51435" lon="11.1444861"><ele>508.28571428571433</ele><time>2026-04-19T08:46:29.588Z</time></trkpt><trkpt lat="45.5144279" lon="11.1444687"><ele>510.0</ele><time>2026-04-19T08:46:33.567Z</time></trkpt><trkpt lat="45.5145052" lon="11.1444524"><ele>510.3333333333333</ele><time>2026-04-19T08:46:37.609Z</time></trkpt><trkpt lat="45.5145801" lon="11.1444342"><ele>510.66666666666663</ele><time>2026-04-19T08:46:41.567Z</time></trkpt><trkpt lat="45.5146654" lon="11.1444139"><ele>511.0</ele><time>2026-04-19T08:46:47.575Z</time></trkpt><trkpt lat="45.5147486" lon="11.1444094"><ele>511.3333333333333</ele><time>2026-04-19T08:47:00.567Z</time></trkpt><trkpt lat="45.5148229" lon="11.1444189"><ele>511.66666666666663</ele><time>2026-04-19T08:47:42.571Z</time></trkpt><trkpt lat="45.5149045" lon="11.1443754"><ele>512.0</ele><time>2026-04-19T08:47:46.561Z</time></trkpt><trkpt lat="45.5149827" lon="11.1443495"><ele>512.0</ele><time>2026-04-19T08:47:49.571Z</time></trkpt><trkpt lat="45.515047" lon="11.1443232"><ele>511.99999999999994</ele><time>2026-04-19T08:47:51.563Z</time></trkpt><trkpt lat="45.5151186" lon="11.1442977"><ele>512.0</ele><time>2026-04-19T08:47:53.563Z</time></trkpt><trkpt lat="45.5151901" lon="11.1442712"><ele>512.0</ele><time>2026-04-19T08:47:55.568Z</time></trkpt><trkpt lat="45.5152602" lon="11.1442423"><ele>511.99999999999994</ele><time>2026-04-19T08:47:57.577Z</time></trkpt><trkpt lat="45.5153271" lon="11.1442044"><ele>512.0</ele><time>2026-04-19T08:47:59.563Z</time></trkpt><trkpt lat="45.5153911" lon="11.1441707"><ele>512.0</ele><time>2026-04-19T08:48:01.728Z</time></trkpt><trkpt lat="45.5154793" lon="11.1441318"><ele>511.49999999999994</ele><time>2026-04-19T08:48:04.564Z</time></trkpt><trkpt lat="45.5155618" lon="11.144094"><ele>511.0</ele><time>2026-04-19T08:48:07.678Z</time></trkpt><trkpt lat="45.5156425" lon="11.1440628"><ele>510.5</ele><time>2026-04-19T08:48:10.568Z</time></trkpt><trkpt lat="45.5157158" lon="11.1440278"><ele>510.0</ele><time>2026-04-19T08:48:13.569Z</time></trkpt><trkpt lat="45.5157988" lon="11.1440003"><ele>509.49999999999994</ele><time>2026-04-19T08:48:16.569Z</time></trkpt><trkpt lat="45.5158757" lon="11.1439676"><ele>509.0</ele><time>2026-04-19T08:48:19.564Z</time></trkpt><trkpt lat="45.5159513" lon="11.1439157"><ele>508.5714285714285</ele><time>2026-04-19T08:48:22.562Z</time></trkpt><trkpt lat="45.5160209" lon="11.1438745"><ele>508.1428571428571</ele><time>2026-04-19T08:48:25.57Z</time></trkpt><trkpt lat="45.5160889" lon="11.1438473"><ele>507.7142857142857</ele><time>2026-04-19T08:48:28.57Z</time></trkpt><trkpt lat="45.5161571" lon="11.1438153"><ele>507.2857142857143</ele><time>2026-04-19T08:48:31.563Z</time></trkpt><trkpt lat="45.5162265" lon="11.143783"><ele>506.8571428571429</ele><time>2026-04-19T08:48:34.567Z</time></trkpt><trkpt lat="45.516299" lon="11.1437483"><ele>506.4285714285715</ele><time>2026-04-19T08:48:37.572Z</time></trkpt><trkpt lat="45.5163669" lon="11.1437059"><ele>506.00000000000006</ele><time>2026-04-19T08:48:40.568Z</time></trkpt><trkpt lat="45.5164412" lon="11.1436463"><ele>505.99999999999994</ele><time>2026-04-19T08:48:44.571Z</time></trkpt><trkpt lat="45.516494" lon="11.1435629"><ele>506.0</ele><time>2026-04-19T08:48:47.571Z</time></trkpt><trkpt lat="45.5165523" lon="11.1435195"><ele>506.0</ele><time>2026-04-19T08:48:49.574Z</time></trkpt><trkpt lat="45.5166326" lon="11.1434885"><ele>506.0</ele><time>2026-04-19T08:48:52.579Z</time></trkpt><trkpt lat="45.5167138" lon="11.1434828"><ele>505.99999999999994</ele><time>2026-04-19T08:48:55.58Z</time></trkpt><trkpt lat="45.5167924" lon="11.1434541"><ele>506.0</ele><time>2026-04-19T08:48:58.578Z</time></trkpt><trkpt lat="45.5168597" lon="11.1434301"><ele>505.99999999999994</ele><time>2026-04-19T08:49:01.57Z</time></trkpt><trkpt lat="45.5169425" lon="11.1434137"><ele>506.0</ele><time>2026-04-19T08:49:04.569Z</time></trkpt><trkpt lat="45.517013" lon="11.1433878"><ele>506.0</ele><time>2026-04-19T08:49:07.575Z</time></trkpt><trkpt lat="45.5170812" lon="11.1433612"><ele>506.0</ele><time>2026-04-19T08:49:10.571Z</time></trkpt><trkpt lat="45.5171799" lon="11.1433151"><ele>505.99999999999994</ele><time>2026-04-19T08:49:14.567Z</time></trkpt><trkpt lat="45.5172417" lon="11.1432835"><ele>506.0</ele><time>2026-04-19T08:49:17.569Z</time></trkpt><trkpt lat="45.5173176" lon="11.1432531"><ele>505.3333333333333</ele><time>2026-04-19T08:49:20.57Z</time></trkpt><trkpt lat="45.5174043" lon="11.143221"><ele>504.66666666666663</ele><time>2026-04-19T08:49:23.563Z</time></trkpt><trkpt lat="45.5174908" lon="11.1431878"><ele>504.0</ele><time>2026-04-19T08:49:26.578Z</time></trkpt><trkpt lat="45.5175793" lon="11.1431538"><ele>503.33333333333337</ele><time>2026-04-19T08:49:29.571Z</time></trkpt><trkpt lat="45.5176404" lon="11.1431315"><ele>502.6666666666667</ele><time>2026-04-19T08:49:31.571Z</time></trkpt><trkpt lat="45.5177315" lon="11.1430987"><ele>502.0</ele><time>2026-04-19T08:49:34.575Z</time></trkpt><trkpt lat="45.5178186" lon="11.1430629"><ele>502.00000000000006</ele><time>2026-04-19T08:49:37.663Z</time></trkpt><trkpt lat="45.5178807" lon="11.1430423"><ele>502.0</ele><time>2026-04-19T08:49:39.675Z</time></trkpt><trkpt lat="45.5179663" lon="11.1430146"><ele>502.0</ele><time>2026-04-19T08:49:42.68Z</time></trkpt><trkpt lat="45.5180531" lon="11.1429854"><ele>502.0</ele><time>2026-04-19T08:49:45.576Z</time></trkpt><trkpt lat="45.5181329" lon="11.1429537"><ele>502.00000000000006</ele><time>2026-04-19T08:49:48.677Z</time></trkpt><trkpt lat="45.5182199" lon="11.1429325"><ele>502.0</ele><time>2026-04-19T08:49:51.576Z</time></trkpt><trkpt lat="45.5182807" lon="11.1429052"><ele>503.33333333333337</ele><time>2026-04-19T08:49:53.678Z</time></trkpt><trkpt lat="45.5183441" lon="11.1428479"><ele>504.6666666666667</ele><time>2026-04-19T08:49:56.575Z</time></trkpt><trkpt lat="45.518413" lon="11.1427714"><ele>506.0</ele><time>2026-04-19T08:49:59.679Z</time></trkpt><trkpt lat="45.5185074" lon="11.1427469"><ele>507.33333333333337</ele><time>2026-04-19T08:50:02.573Z</time></trkpt><trkpt lat="45.5185699" lon="11.1427232"><ele>508.6666666666667</ele><time>2026-04-19T08:50:04.694Z</time></trkpt><trkpt lat="45.5186529" lon="11.1426542"><ele>510.0</ele><time>2026-04-19T08:50:07.566Z</time></trkpt><trkpt lat="45.518704" lon="11.1425983"><ele>510.3333333333333</ele><time>2026-04-19T08:50:09.675Z</time></trkpt><trkpt lat="45.5187869" lon="11.1425419"><ele>510.66666666666663</ele><time>2026-04-19T08:50:12.572Z</time></trkpt><trkpt lat="45.518841" lon="11.1424499"><ele>511.0</ele><time>2026-04-19T08:50:15.678Z</time></trkpt><trkpt lat="45.5188893" lon="11.1423853"><ele>511.3333333333333</ele><time>2026-04-19T08:50:18.582Z</time></trkpt><trkpt lat="45.5189546" lon="11.1423173"><ele>511.66666666666663</ele><time>2026-04-19T08:50:22.577Z</time></trkpt><trkpt lat="45.5190141" lon="11.142279"><ele>512.0</ele><time>2026-04-19T08:50:26.671Z</time></trkpt><trkpt lat="45.5190849" lon="11.1422239"><ele>512.0</ele><time>2026-04-19T08:50:29.571Z</time></trkpt><trkpt lat="45.5191453" lon="11.1421665"><ele>512.0</ele><time>2026-04-19T08:50:31.569Z</time></trkpt><trkpt lat="45.5192659" lon="11.1420731"><ele>512.0</ele><time>2026-04-19T08:50:34.562Z</time></trkpt><trkpt lat="45.5193337" lon="11.1419742"><ele>512.0</ele><time>2026-04-19T08:50:36.571Z</time></trkpt><trkpt lat="45.5194214" lon="11.141894"><ele>512.0</ele><time>2026-04-19T08:50:38.572Z</time></trkpt><trkpt lat="45.5194747" lon="11.141844"><ele>512.0</ele><time>2026-04-19T08:50:40.572Z</time></trkpt><trkpt lat="45.5195219" lon="11.1417799"><ele>511.99999999999994</ele><time>2026-04-19T08:52:04.668Z</time></trkpt><trkpt lat="45.5195965" lon="11.1417482"><ele>512.0</ele><time>2026-04-19T08:52:08.578Z</time></trkpt><trkpt lat="45.5196694" lon="11.1417069"><ele>512.0</ele><time>2026-04-19T08:52:12.594Z</time></trkpt><trkpt lat="45.5197363" lon="11.1416841"><ele>511.99999999999994</ele><time>2026-04-19T08:52:16.571Z</time></trkpt><trkpt lat="45.5198054" lon="11.1416492"><ele>512.0</ele><time>2026-04-19T08:52:20.573Z</time></trkpt><trkpt lat="45.5198773" lon="11.1416008"><ele>512.0</ele><time>2026-04-19T08:52:24.565Z</time></trkpt><trkpt lat="45.5199328" lon="11.1415549"><ele>510.99999999999994</ele><time>2026-04-19T08:52:27.669Z</time></trkpt><trkpt lat="45.5200038" lon="11.1415107"><ele>510.0</ele><time>2026-04-19T08:52:31.569Z</time></trkpt><trkpt lat="45.5200647" lon="11.141457"><ele>509.0</ele><time>2026-04-19T08:52:35.663Z</time></trkpt><trkpt lat="45.5201329" lon="11.1414091"><ele>508.0</ele><time>2026-04-19T08:52:39.576Z</time></trkpt><trkpt lat="45.5202078" lon="11.141352"><ele>506.99999999999994</ele><time>2026-04-19T08:52:43.573Z</time></trkpt><trkpt lat="45.5202751" lon="11.141305"><ele>506.0</ele><time>2026-04-19T08:52:46.565Z</time></trkpt><trkpt lat="45.5203345" lon="11.1412656"><ele>506.00000000000006</ele><time>2026-04-19T08:52:49.667Z</time></trkpt><trkpt lat="45.5203962" lon="11.1412418"><ele>506.0</ele><time>2026-04-19T08:52:52.599Z</time></trkpt><trkpt lat="45.5204713" lon="11.1411937"><ele>506.00000000000006</ele><time>2026-04-19T08:52:56.577Z</time></trkpt><trkpt lat="45.5205333" lon="11.1411731"><ele>506.00000000000006</ele><time>2026-04-19T08:52:59.57Z</time></trkpt><trkpt lat="45.5205958" lon="11.1411517"><ele>506.0</ele><time>2026-04-19T08:53:03.579Z</time></trkpt><trkpt lat="45.5206646" lon="11.1411243"><ele>506.00000000000006</ele><time>2026-04-19T08:53:07.67Z</time></trkpt><trkpt lat="45.5207274" lon="11.1411013"><ele>506.00000000000006</ele><time>2026-04-19T08:53:11.67Z</time></trkpt><trkpt lat="45.5207911" lon="11.1410712"><ele>507.7142857142858</ele><time>2026-04-19T08:53:15.573Z</time></trkpt><trkpt lat="45.5208654" lon="11.1410336"><ele>509.42857142857144</ele><time>2026-04-19T08:53:20.677Z</time></trkpt><trkpt lat="45.520938" lon="11.140987"><ele>511.14285714285717</ele><time>2026-04-19T08:53:25.571Z</time></trkpt><trkpt lat="45.5210017" lon="11.1409523"><ele>512.8571428571429</ele><time>2026-04-19T08:53:30.566Z</time></trkpt><trkpt lat="45.5210613" lon="11.1409045"><ele>514.5714285714286</ele><time>2026-04-19T08:54:34.571Z</time></trkpt><trkpt lat="45.5211203" lon="11.1408651"><ele>516.2857142857143</ele><time>2026-04-19T08:54:39.571Z</time></trkpt><trkpt lat="45.5211799" lon="11.1408243"><ele>518.0</ele><time>2026-04-19T08:54:43.67Z</time></trkpt><trkpt lat="45.5212498" lon="11.1407805"><ele>517.8571428571429</ele><time>2026-04-19T08:54:48.668Z</time></trkpt><trkpt lat="45.5213185" lon="11.1407592"><ele>517.7142857142858</ele><time>2026-04-19T08:54:52.575Z</time></trkpt><trkpt lat="45.5213877" lon="11.1407245"><ele>517.5714285714286</ele><time>2026-04-19T08:54:56.672Z</time></trkpt><trkpt lat="45.521452" lon="11.1406957"><ele>517.4285714285714</ele><time>2026-04-19T08:55:00.564Z</time></trkpt><trkpt lat="45.5215418" lon="11.1406762"><ele>517.2857142857143</ele><time>2026-04-19T08:55:05.56Z</time></trkpt><trkpt lat="45.5216097" lon="11.1406532"><ele>517.1428571428571</ele><time>2026-04-19T08:55:09.606Z</time></trkpt><trkpt lat="45.5216851" lon="11.1406515"><ele>517.0</ele><time>2026-04-19T08:55:13.566Z</time></trkpt><trkpt lat="45.5217488" lon="11.1406167"><ele>517.0</ele><time>2026-04-19T08:55:17.685Z</time></trkpt><trkpt lat="45.5218078" lon="11.140584"><ele>517.0</ele><time>2026-04-19T08:55:21.569Z</time></trkpt><trkpt lat="45.5218666" lon="11.1405385"><ele>517.0</ele><time>2026-04-19T08:55:25.683Z</time></trkpt><trkpt lat="45.5219336" lon="11.1404956"><ele>517.0</ele><time>2026-04-19T08:55:29.575Z</time></trkpt><trkpt lat="45.5220072" lon="11.1404479"><ele>517.0</ele><time>2026-04-19T08:55:34.565Z</time></trkpt><trkpt lat="45.5220695" lon="11.1404246"><ele>517.0</ele><time>2026-04-19T08:55:38.662Z</time></trkpt><trkpt lat="45.5221315" lon="11.1403656"><ele>517.0</ele><time>2026-04-19T08:55:42.573Z</time></trkpt><trkpt lat="45.5221936" lon="11.1402975"><ele>520.1666666666667</ele><time>2026-04-19T08:55:46.568Z</time></trkpt><trkpt lat="45.5222644" lon="11.1402243"><ele>523.3333333333334</ele><time>2026-04-19T08:55:51.672Z</time></trkpt><trkpt lat="45.5223291" lon="11.1401619"><ele>526.5</ele><time>2026-04-19T08:55:55.575Z</time></trkpt><trkpt lat="45.5223944" lon="11.1401016"><ele>529.6666666666666</ele><time>2026-04-19T08:55:59.576Z</time></trkpt><trkpt lat="45.52245" lon="11.1400583"><ele>532.8333333333333</ele><time>2026-04-19T08:56:02.686Z</time></trkpt><trkpt lat="45.5225354" lon="11.1399903"><ele>536.0</ele><time>2026-04-19T08:56:07.569Z</time></trkpt><trkpt lat="45.5225915" lon="11.1399414"><ele>536.3333333333333</ele><time>2026-04-19T08:56:11.682Z</time></trkpt><trkpt lat="45.5226528" lon="11.1398772"><ele>536.6666666666666</ele><time>2026-04-19T08:56:15.575Z</time></trkpt><trkpt lat="45.5227203" lon="11.1398151"><ele>537.0</ele><time>2026-04-19T08:56:19.665Z</time></trkpt><trkpt lat="45.522777" lon="11.139742"><ele>537.3333333333334</ele><time>2026-04-19T08:56:23.572Z</time></trkpt><trkpt lat="45.5228275" lon="11.1396503"><ele>537.6666666666667</ele><time>2026-04-19T08:56:27.584Z</time></trkpt><trkpt lat="45.522876" lon="11.1395653"><ele>538.0</ele><time>2026-04-19T08:56:31.569Z</time></trkpt><trkpt lat="45.5229381" lon="11.1394861"><ele>538.0</ele><time>2026-04-19T08:56:35.578Z</time></trkpt><trkpt lat="45.5230016" lon="11.1394286"><ele>538.0</ele><time>2026-04-19T08:56:39.572Z</time></trkpt><trkpt lat="45.523063" lon="11.1393942"><ele>538.0</ele><time>2026-04-19T08:56:42.568Z</time></trkpt><trkpt lat="45.5231344" lon="11.13936"><ele>538.0</ele><time>2026-04-19T08:56:45.569Z</time></trkpt><trkpt lat="45.5232023" lon="11.1393077"><ele>538.0</ele><time>2026-04-19T08:56:49.574Z</time></trkpt><trkpt lat="45.5232703" lon="11.13926"><ele>538.0</ele><time>2026-04-19T08:56:53.563Z</time></trkpt><trkpt lat="45.5233356" lon="11.1392019"><ele>538.0</ele><time>2026-04-19T08:56:57.573Z</time></trkpt><trkpt lat="45.5233944" lon="11.1391606"><ele>538.0</ele><time>2026-04-19T08:57:00.573Z</time></trkpt><trkpt lat="45.5234501" lon="11.1391184"><ele>538.0</ele><time>2026-04-19T08:57:03.568Z</time></trkpt><trkpt lat="45.5235206" lon="11.1390774"><ele>538.0</ele><time>2026-04-19T08:57:07.573Z</time></trkpt><trkpt lat="45.523597" lon="11.1390573"><ele>538.0</ele><time>2026-04-19T08:57:11.571Z</time></trkpt><trkpt lat="45.5236651" lon="11.1390431"><ele>538.0</ele><time>2026-04-19T08:57:14.565Z</time></trkpt><trkpt lat="45.5237332" lon="11.1390358"><ele>538.0</ele><time>2026-04-19T08:57:17.568Z</time></trkpt><trkpt lat="45.5238079" lon="11.1390376"><ele>538.0</ele><time>2026-04-19T08:57:20.57Z</time></trkpt><trkpt lat="45.5238798" lon="11.1390346"><ele>536.6666666666667</ele><time>2026-04-19T08:57:23.572Z</time></trkpt><trkpt lat="45.5239641" lon="11.1390199"><ele>535.3333333333334</ele><time>2026-04-19T08:57:27.567Z</time></trkpt><trkpt lat="45.5240356" lon="11.1389978"><ele>534.0</ele><time>2026-04-19T08:57:30.572Z</time></trkpt><trkpt lat="45.5241113" lon="11.1389757"><ele>532.6666666666666</ele><time>2026-04-19T08:57:33.573Z</time></trkpt><trkpt lat="45.5241913" lon="11.1389508"><ele>531.3333333333333</ele><time>2026-04-19T08:57:36.571Z</time></trkpt><trkpt lat="45.5242754" lon="11.1389239"><ele>530.0</ele><time>2026-04-19T08:57:39.642Z</time></trkpt><trkpt lat="45.5243632" lon="11.1389196"><ele>530.0</ele><time>2026-04-19T08:57:42.653Z</time></trkpt><trkpt lat="45.5244471" lon="11.1389098"><ele>530.0</ele><time>2026-04-19T08:57:45.568Z</time></trkpt><trkpt lat="45.5245262" lon="11.1389019"><ele>530.0</ele><time>2026-04-19T08:57:48.65Z</time></trkpt><trkpt lat="45.5246096" lon="11.1388855"><ele>530.0</ele><time>2026-04-19T08:57:51.659Z</time></trkpt><trkpt lat="45.5246945" lon="11.1388562"><ele>530.0</ele><time>2026-04-19T08:57:54.574Z</time></trkpt><trkpt lat="45.5247763" lon="11.1388044"><ele>530.0</ele><time>2026-04-19T08:57:57.567Z</time></trkpt><trkpt lat="45.5248451" lon="11.1387287"><ele>530.5</ele><time>2026-04-19T08:58:00.568Z</time></trkpt><trkpt lat="45.5249201" lon="11.1386027"><ele>531.0</ele><time>2026-04-19T08:58:04.58Z</time></trkpt><trkpt lat="45.5249652" lon="11.1385085"><ele>531.5</ele><time>2026-04-19T08:58:07.576Z</time></trkpt><trkpt lat="45.5250054" lon="11.1384151"><ele>532.0</ele><time>2026-04-19T08:58:10.656Z</time></trkpt><trkpt lat="45.5250411" lon="11.1383221"><ele>532.5</ele><time>2026-04-19T08:58:13.574Z</time></trkpt><trkpt lat="45.5250812" lon="11.1382264"><ele>533.0</ele><time>2026-04-19T08:58:16.566Z</time></trkpt><trkpt lat="45.5251321" lon="11.1381516"><ele>533.0</ele><time>2026-04-19T08:58:19.669Z</time></trkpt><trkpt lat="45.5251825" lon="11.1380797"><ele>533.0</ele><time>2026-04-19T08:58:22.568Z</time></trkpt><trkpt lat="45.5252441" lon="11.1380094"><ele>533.0</ele><time>2026-04-19T08:58:25.654Z</time></trkpt><trkpt lat="45.5253008" lon="11.1379218"><ele>533.0</ele><time>2026-04-19T08:58:28.566Z</time></trkpt><trkpt lat="45.5253623" lon="11.1378406"><ele>533.0</ele><time>2026-04-19T08:58:31.572Z</time></trkpt><trkpt lat="45.52542" lon="11.1377578"><ele>533.0</ele><time>2026-04-19T08:58:34.669Z</time></trkpt><trkpt lat="45.5254898" lon="11.1376755"><ele>533.1666666666666</ele><time>2026-04-19T08:58:37.579Z</time></trkpt><trkpt lat="45.525559" lon="11.1376044"><ele>533.3333333333333</ele><time>2026-04-19T08:58:40.571Z</time></trkpt><trkpt lat="45.5256302" lon="11.1375353"><ele>533.5</ele><time>2026-04-19T08:58:43.575Z</time></trkpt><trkpt lat="45.525699" lon="11.1374697"><ele>533.6666666666666</ele><time>2026-04-19T08:58:46.722Z</time></trkpt><trkpt lat="45.5257696" lon="11.1374151"><ele>533.8333333333334</ele><time>2026-04-19T08:58:49.59Z</time></trkpt><trkpt lat="45.5258445" lon="11.1373635"><ele>534.0</ele><time>2026-04-19T08:58:52.572Z</time></trkpt><trkpt lat="45.5259198" lon="11.1373197"><ele>534.0</ele><time>2026-04-19T08:58:55.69Z</time></trkpt><trkpt lat="45.525987" lon="11.1372793"><ele>534.0</ele><time>2026-04-19T08:58:58.576Z</time></trkpt><trkpt lat="45.5260508" lon="11.1372446"><ele>534.0</ele><time>2026-04-19T08:59:01.571Z</time></trkpt><trkpt lat="45.5261282" lon="11.1372055"><ele>534.0</ele><time>2026-04-19T08:59:05.566Z</time></trkpt><trkpt lat="45.5261939" lon="11.1371854"><ele>534.0</ele><time>2026-04-19T08:59:08.669Z</time></trkpt><trkpt lat="45.5262936" lon="11.1371308"><ele>534.0</ele><time>2026-04-19T08:59:13.583Z</time></trkpt><trkpt lat="45.5263655" lon="11.1371066"><ele>536.5714285714287</ele><time>2026-04-19T08:59:17.664Z</time></trkpt><trkpt lat="45.5264387" lon="11.1370741"><ele>539.1428571428571</ele><time>2026-04-19T08:59:21.574Z</time></trkpt><trkpt lat="45.5264993" lon="11.137041"><ele>541.7142857142858</ele><time>2026-04-19T08:59:25.573Z</time></trkpt><trkpt lat="45.5265574" lon="11.1369779"><ele>544.2857142857143</ele><time>2026-04-19T08:59:30.575Z</time></trkpt><trkpt lat="45.526605" lon="11.1369044"><ele>546.8571428571429</ele><time>2026-04-19T08:59:34.67Z</time></trkpt><trkpt lat="45.5266683" lon="11.136848"><ele>549.4285714285714</ele><time>2026-04-19T08:59:39.57Z</time></trkpt><trkpt lat="45.5267269" lon="11.136807"><ele>552.0</ele><time>2026-04-19T08:59:44.583Z</time></trkpt><trkpt lat="45.5267905" lon="11.1367669"><ele>552.0</ele><time>2026-04-19T08:59:49.706Z</time></trkpt><trkpt lat="45.5268534" lon="11.1367317"><ele>552.0</ele><time>2026-04-19T08:59:54.668Z</time></trkpt><trkpt lat="45.5269211" lon="11.1367275"><ele>552.0</ele><time>2026-04-19T08:59:59.571Z</time></trkpt><trkpt lat="45.5269938" lon="11.1367588"><ele>552.0</ele><time>2026-04-19T09:00:04.719Z</time></trkpt><trkpt lat="45.527062" lon="11.1367439"><ele>552.0</ele><time>2026-04-19T09:00:09.574Z</time></trkpt><trkpt lat="45.5271239" lon="11.1367224"><ele>552.0</ele><time>2026-04-19T09:00:14.575Z</time></trkpt><trkpt lat="45.5271862" lon="11.1366824"><ele>552.0</ele><time>2026-04-19T09:00:19.578Z</time></trkpt><trkpt lat="45.5272456" lon="11.136648"><ele>553.1428571428571</ele><time>2026-04-19T09:00:24.688Z</time></trkpt><trkpt lat="45.527304" lon="11.1366037"><ele>554.2857142857143</ele><time>2026-04-19T09:00:29.666Z</time></trkpt><trkpt lat="45.5273743" lon="11.1365686"><ele>555.4285714285714</ele><time>2026-04-19T09:00:34.601Z</time></trkpt><trkpt lat="45.5274442" lon="11.1365398"><ele>556.5714285714286</ele><time>2026-04-19T09:00:40.566Z</time></trkpt><trkpt lat="45.5275091" lon="11.1365133"><ele>557.7142857142858</ele><time>2026-04-19T09:00:45.658Z</time></trkpt><trkpt lat="45.5275693" lon="11.1364773"><ele>558.8571428571429</ele><time>2026-04-19T09:00:49.571Z</time></trkpt><trkpt lat="45.5276373" lon="11.1364254"><ele>560.0</ele><time>2026-04-19T09:00:54.66Z</time></trkpt><trkpt lat="45.5276828" lon="11.1363414"><ele>560.0</ele><time>2026-04-19T09:00:59.559Z</time></trkpt><trkpt lat="45.5276894" lon="11.1362488"><ele>560.0</ele><time>2026-04-19T09:01:03.571Z</time></trkpt><trkpt lat="45.5276939" lon="11.1361587"><ele>560.0</ele><time>2026-04-19T09:01:07.568Z</time></trkpt><trkpt lat="45.5276949" lon="11.1360615"><ele>560.0</ele><time>2026-04-19T09:01:12.574Z</time></trkpt><trkpt lat="45.5277291" lon="11.1359777"><ele>560.0</ele><time>2026-04-19T09:01:17.575Z</time></trkpt><trkpt lat="45.5277692" lon="11.1358931"><ele>560.0</ele><time>2026-04-19T09:01:22.572Z</time></trkpt><trkpt lat="45.5278009" lon="11.1357996"><ele>560.0</ele><time>2026-04-19T09:01:27.681Z</time></trkpt><trkpt lat="45.5278401" lon="11.1357105"><ele>562.0</ele><time>2026-04-19T09:01:32.584Z</time></trkpt><trkpt lat="45.5278943" lon="11.135632"><ele>564.0</ele><time>2026-04-19T09:01:37.577Z</time></trkpt><trkpt lat="45.5279336" lon="11.1355594"><ele>566.0</ele><time>2026-04-19T09:01:41.572Z</time></trkpt><trkpt lat="45.5279849" lon="11.1354808"><ele>568.0</ele><time>2026-04-19T09:01:46.57Z</time></trkpt><trkpt lat="45.5280378" lon="11.135399"><ele>570.0</ele><time>2026-04-19T09:01:51.594Z</time></trkpt><trkpt lat="45.5280918" lon="11.1353279"><ele>572.0</ele><time>2026-04-19T09:01:56.666Z</time></trkpt><trkpt lat="45.5281467" lon="11.1352651"><ele>574.0</ele><time>2026-04-19T09:02:01.578Z</time></trkpt><trkpt lat="45.5282104" lon="11.1352107"><ele>574.0</ele><time>2026-04-19T09:02:07.666Z</time></trkpt><trkpt lat="45.5282799" lon="11.1351549"><ele>574.0</ele><time>2026-04-19T09:02:12.569Z</time></trkpt><trkpt lat="45.5283426" lon="11.1351194"><ele>574.0</ele><time>2026-04-19T09:02:16.69Z</time></trkpt><trkpt lat="45.528409" lon="11.1350863"><ele>574.0</ele><time>2026-04-19T09:02:20.574Z</time></trkpt><trkpt lat="45.5284759" lon="11.1350556"><ele>574.0</ele><time>2026-04-19T09:02:24.576Z</time></trkpt><trkpt lat="45.5285383" lon="11.1350235"><ele>574.0</ele><time>2026-04-19T09:02:28.597Z</time></trkpt><trkpt lat="45.5286005" lon="11.1349821"><ele>574.0</ele><time>2026-04-19T09:02:32.578Z</time></trkpt><trkpt lat="45.5286607" lon="11.1349311"><ele>575.3333333333334</ele><time>2026-04-19T09:02:36.668Z</time></trkpt><trkpt lat="45.5287212" lon="11.1348827"><ele>576.6666666666667</ele><time>2026-04-19T09:02:40.583Z</time></trkpt><trkpt lat="45.5287805" lon="11.1348282"><ele>578.0</ele><time>2026-04-19T09:02:44.58Z</time></trkpt><trkpt lat="45.5288438" lon="11.1347679"><ele>579.3333333333334</ele><time>2026-04-19T09:02:49.569Z</time></trkpt><trkpt lat="45.528905" lon="11.134717"><ele>580.6666666666666</ele><time>2026-04-19T09:02:54.575Z</time></trkpt><trkpt lat="45.5289625" lon="11.1346461"><ele>582.0</ele><time>2026-04-19T09:02:58.571Z</time></trkpt><trkpt lat="45.5290146" lon="11.1345393"><ele>582.0</ele><time>2026-04-19T09:03:03.574Z</time></trkpt><trkpt lat="45.5290478" lon="11.1344437"><ele>582.0</ele><time>2026-04-19T09:03:06.583Z</time></trkpt><trkpt lat="45.5290788" lon="11.1343407"><ele>582.0</ele><time>2026-04-19T09:03:11.631Z</time></trkpt><trkpt lat="45.5291232" lon="11.134254"><ele>582.0</ele><time>2026-04-19T09:03:15.579Z</time></trkpt><trkpt lat="45.5291808" lon="11.1341836"><ele>582.0</ele><time>2026-04-19T09:03:19.579Z</time></trkpt><trkpt lat="45.5292478" lon="11.134121"><ele>582.0</ele><time>2026-04-19T09:03:23.58Z</time></trkpt><trkpt lat="45.5293166" lon="11.1341029"><ele>582.0</ele><time>2026-04-19T09:03:26.578Z</time></trkpt><trkpt lat="45.5293871" lon="11.1340924"><ele>582.0</ele><time>2026-04-19T09:03:29.568Z</time></trkpt><trkpt lat="45.5294647" lon="11.1340863"><ele>582.0</ele><time>2026-04-19T09:03:32.661Z</time></trkpt><trkpt lat="45.5295367" lon="11.1341052"><ele>582.0</ele><time>2026-04-19T09:03:35.572Z</time></trkpt><trkpt lat="45.5296058" lon="11.134112"><ele>582.0</ele><time>2026-04-19T09:03:38.569Z</time></trkpt><trkpt lat="45.5296788" lon="11.1341179"><ele>582.0</ele><time>2026-04-19T09:03:41.648Z</time></trkpt><trkpt lat="45.5297541" lon="11.1341183"><ele>582.0</ele><time>2026-04-19T09:03:44.579Z</time></trkpt><trkpt lat="45.5298249" lon="11.1341093"><ele>583.1428571428571</ele><time>2026-04-19T09:03:47.574Z</time></trkpt><trkpt lat="45.5298903" lon="11.1341097"><ele>584.2857142857142</ele><time>2026-04-19T09:03:50.657Z</time></trkpt><trkpt lat="45.5299561" lon="11.1341214"><ele>585.4285714285714</ele><time>2026-04-19T09:03:53.577Z</time></trkpt><trkpt lat="45.5300396" lon="11.1341363"><ele>586.5714285714286</ele><time>2026-04-19T09:03:57.665Z</time></trkpt><trkpt lat="45.5301124" lon="11.134158"><ele>587.7142857142858</ele><time>2026-04-19T09:04:00.575Z</time></trkpt><trkpt lat="45.5301809" lon="11.1341833"><ele>588.8571428571429</ele><time>2026-04-19T09:04:03.653Z</time></trkpt><trkpt lat="45.5302431" lon="11.1342141"><ele>590.0</ele><time>2026-04-19T09:04:06.659Z</time></trkpt><trkpt lat="45.5303061" lon="11.1342399"><ele>590.0</ele><time>2026-04-19T09:04:09.57Z</time></trkpt><trkpt lat="45.5303685" lon="11.134255"><ele>590.0</ele><time>2026-04-19T09:04:12.669Z</time></trkpt><trkpt lat="45.5304511" lon="11.1342585"><ele>590.0</ele><time>2026-04-19T09:04:16.577Z</time></trkpt><trkpt lat="45.530515" lon="11.134262"><ele>590.0</ele><time>2026-04-19T09:04:19.676Z</time></trkpt><trkpt lat="45.5305949" lon="11.1342369"><ele>590.0</ele><time>2026-04-19T09:04:23.575Z</time></trkpt><trkpt lat="45.5306804" lon="11.1342581"><ele>590.0</ele><time>2026-04-19T09:04:27.658Z</time></trkpt><trkpt lat="45.5307538" lon="11.1342715"><ele>589.5</ele><time>2026-04-19T09:04:30.577Z</time></trkpt><trkpt lat="45.5308382" lon="11.1343022"><ele>589.0</ele><time>2026-04-19T09:04:34.598Z</time></trkpt><trkpt lat="45.5309076" lon="11.134334"><ele>588.5</ele><time>2026-04-19T09:04:37.58Z</time></trkpt><trkpt lat="45.5309738" lon="11.1343637"><ele>588.0</ele><time>2026-04-19T09:04:40.668Z</time></trkpt><trkpt lat="45.5310446" lon="11.1343928"><ele>587.5</ele><time>2026-04-19T09:04:43.577Z</time></trkpt><trkpt lat="45.5311286" lon="11.1344123"><ele>587.0</ele><time>2026-04-19T09:04:47.663Z</time></trkpt><trkpt lat="45.5311955" lon="11.1344831"><ele>585.3333333333333</ele><time>2026-04-19T09:04:50.669Z</time></trkpt><trkpt lat="45.5312503" lon="11.1345327"><ele>583.6666666666666</ele><time>2026-04-19T09:04:52.575Z</time></trkpt><trkpt lat="45.5313217" lon="11.1345902"><ele>582.0</ele><time>2026-04-19T09:04:55.572Z</time></trkpt><trkpt lat="45.5314242" lon="11.1346397"><ele>580.3333333333334</ele><time>2026-04-19T09:04:59.565Z</time></trkpt><trkpt lat="45.5315013" lon="11.134666"><ele>578.6666666666667</ele><time>2026-04-19T09:05:02.688Z</time></trkpt><trkpt lat="45.5315764" lon="11.13469"><ele>577.0</ele><time>2026-04-19T09:05:05.722Z</time></trkpt><trkpt lat="45.5316665" lon="11.1347136"><ele>577.0</ele><time>2026-04-19T09:05:08.577Z</time></trkpt><trkpt lat="45.5317497" lon="11.134728"><ele>577.0</ele><time>2026-04-19T09:05:11.692Z</time></trkpt><trkpt lat="45.531834" lon="11.1347359"><ele>577.0</ele><time>2026-04-19T09:05:14.588Z</time></trkpt><trkpt lat="45.5319107" lon="11.134739"><ele>577.0</ele><time>2026-04-19T09:05:17.572Z</time></trkpt><trkpt lat="45.531982" lon="11.134747"><ele>577.0</ele><time>2026-04-19T09:05:20.57Z</time></trkpt><trkpt lat="45.5320598" lon="11.1347474"><ele>577.0</ele><time>2026-04-19T09:05:23.668Z</time></trkpt><trkpt lat="45.5321235" lon="11.1347534"><ele>577.5</ele><time>2026-04-19T09:05:26.689Z</time></trkpt><trkpt lat="45.5322036" lon="11.1347593"><ele>578.0</ele><time>2026-04-19T09:05:29.569Z</time></trkpt><trkpt lat="45.5322827" lon="11.1347345"><ele>578.5</ele><time>2026-04-19T09:05:32.657Z</time></trkpt><trkpt lat="45.5323615" lon="11.1346894"><ele>579.0</ele><time>2026-04-19T09:05:35.647Z</time></trkpt><trkpt lat="45.5324332" lon="11.1346356"><ele>579.5</ele><time>2026-04-19T09:05:38.577Z</time></trkpt><trkpt lat="45.5325025" lon="11.1345867"><ele>580.0</ele><time>2026-04-19T09:05:41.666Z</time></trkpt><trkpt lat="45.5325791" lon="11.134543"><ele>580.0</ele><time>2026-04-19T09:05:44.565Z</time></trkpt><trkpt lat="45.5326541" lon="11.1345174"><ele>580.0</ele><time>2026-04-19T09:05:47.661Z</time></trkpt><trkpt lat="45.5327332" lon="11.1344844"><ele>580.0</ele><time>2026-04-19T09:05:50.576Z</time></trkpt><trkpt lat="45.5328184" lon="11.1344555"><ele>580.0</ele><time>2026-04-19T09:05:53.577Z</time></trkpt><trkpt lat="45.5328996" lon="11.1344301"><ele>580.0</ele><time>2026-04-19T09:05:56.675Z</time></trkpt><trkpt lat="45.5330063" lon="11.1344026"><ele>580.0</ele><time>2026-04-19T09:06:00.57Z</time></trkpt><trkpt lat="45.5330869" lon="11.1343758"><ele>581.6666666666667</ele><time>2026-04-19T09:06:03.602Z</time></trkpt><trkpt lat="45.5331687" lon="11.1343579"><ele>583.3333333333334</ele><time>2026-04-19T09:06:06.571Z</time></trkpt><trkpt lat="45.5332547" lon="11.1343378"><ele>585.0</ele><time>2026-04-19T09:06:09.658Z</time></trkpt><trkpt lat="45.5333418" lon="11.1343347"><ele>586.6666666666666</ele><time>2026-04-19T09:06:12.572Z</time></trkpt><trkpt lat="45.5334264" lon="11.134334"><ele>588.3333333333333</ele><time>2026-04-19T09:06:15.576Z</time></trkpt><trkpt lat="45.5335051" lon="11.1343281"><ele>590.0</ele><time>2026-04-19T09:06:18.655Z</time></trkpt><trkpt lat="45.5335813" lon="11.1343261"><ele>590.0</ele><time>2026-04-19T09:06:21.582Z</time></trkpt><trkpt lat="45.5336554" lon="11.1343098"><ele>590.0</ele><time>2026-04-19T09:06:24.578Z</time></trkpt><trkpt lat="45.5337637" lon="11.1342825"><ele>590.0</ele><time>2026-04-19T09:06:28.563Z</time></trkpt><trkpt lat="45.5338454" lon="11.1342368"><ele>590.0</ele><time>2026-04-19T09:06:31.577Z</time></trkpt><trkpt lat="45.5339024" lon="11.1341937"><ele>590.0</ele><time>2026-04-19T09:06:33.583Z</time></trkpt><trkpt lat="45.5339773" lon="11.1341233"><ele>590.0</ele><time>2026-04-19T09:06:36.572Z</time></trkpt><trkpt lat="45.5340461" lon="11.1340501"><ele>588.5</ele><time>2026-04-19T09:06:39.662Z</time></trkpt><trkpt lat="45.5341112" lon="11.1339668"><ele>587.0</ele><time>2026-04-19T09:06:42.58Z</time></trkpt><trkpt lat="45.5341567" lon="11.1339037"><ele>585.5</ele><time>2026-04-19T09:06:44.579Z</time></trkpt><trkpt lat="45.5342179" lon="11.1338156"><ele>584.0</ele><time>2026-04-19T09:06:47.669Z</time></trkpt><trkpt lat="45.5342899" lon="11.133731"><ele>582.5</ele><time>2026-04-19T09:06:50.562Z</time></trkpt><trkpt lat="45.5343637" lon="11.1336529"><ele>581.0</ele><time>2026-04-19T09:06:53.573Z</time></trkpt><trkpt lat="45.5344448" lon="11.1336045"><ele>581.0</ele><time>2026-04-19T09:06:56.568Z</time></trkpt><trkpt lat="45.5345162" lon="11.1335902"><ele>581.0</ele><time>2026-04-19T09:06:59.567Z</time></trkpt><trkpt lat="45.5345938" lon="11.1335955"><ele>581.0</ele><time>2026-04-19T09:07:02.682Z</time></trkpt><trkpt lat="45.5346763" lon="11.1335994"><ele>581.0</ele><time>2026-04-19T09:07:05.567Z</time></trkpt><trkpt lat="45.5347431" lon="11.1336066"><ele>581.0</ele><time>2026-04-19T09:07:08.572Z</time></trkpt><trkpt lat="45.53483" lon="11.133625"><ele>581.0</ele><time>2026-04-19T09:07:12.573Z</time></trkpt><trkpt lat="45.5348985" lon="11.1336717"><ele>581.5</ele><time>2026-04-19T09:07:15.574Z</time></trkpt><trkpt lat="45.5349687" lon="11.1337363"><ele>582.0</ele><time>2026-04-19T09:07:19.574Z</time></trkpt><trkpt lat="45.5350252" lon="11.1338057"><ele>582.5</ele><time>2026-04-19T09:07:22.561Z</time></trkpt><trkpt lat="45.5350921" lon="11.1338551"><ele>583.0</ele><time>2026-04-19T09:07:25.574Z</time></trkpt><trkpt lat="45.5351553" lon="11.1339043"><ele>583.5</ele><time>2026-04-19T09:07:28.563Z</time></trkpt><trkpt lat="45.5352215" lon="11.133978"><ele>584.0</ele><time>2026-04-19T09:07:31.562Z</time></trkpt><trkpt lat="45.5352917" lon="11.1340381"><ele>586.5</ele><time>2026-04-19T09:07:34.57Z</time></trkpt><trkpt lat="45.5353662" lon="11.1340719"><ele>589.0</ele><time>2026-04-19T09:07:36.575Z</time></trkpt><trkpt lat="45.5354408" lon="11.134098"><ele>591.5</ele><time>2026-04-19T09:07:38.576Z</time></trkpt><trkpt lat="45.5355043" lon="11.1341142"><ele>594.0</ele><time>2026-04-19T09:07:40.575Z</time></trkpt><trkpt lat="45.5355881" lon="11.1341374"><ele>596.5</ele><time>2026-04-19T09:07:43.567Z</time></trkpt><trkpt lat="45.5356799" lon="11.1341302"><ele>599.0</ele><time>2026-04-19T09:07:46.657Z</time></trkpt><trkpt lat="45.5357439" lon="11.1341217"><ele>599.0</ele><time>2026-04-19T09:07:48.666Z</time></trkpt><trkpt lat="45.5358342" lon="11.1341059"><ele>599.0</ele><time>2026-04-19T09:07:51.584Z</time></trkpt><trkpt lat="45.535913" lon="11.1340721"><ele>599.0</ele><time>2026-04-19T09:07:54.645Z</time></trkpt><trkpt lat="45.5359836" lon="11.1340449"><ele>599.0</ele><time>2026-04-19T09:07:57.579Z</time></trkpt><trkpt lat="45.5360478" lon="11.1340074"><ele>599.0</ele><time>2026-04-19T09:08:00.571Z</time></trkpt><trkpt lat="45.5361159" lon="11.1339757"><ele>599.0</ele><time>2026-04-19T09:08:03.658Z</time></trkpt><trkpt lat="45.5361863" lon="11.133944"><ele>598.5</ele><time>2026-04-19T09:08:06.583Z</time></trkpt><trkpt lat="45.5362558" lon="11.1339092"><ele>598.0</ele><time>2026-04-19T09:08:09.585Z</time></trkpt><trkpt lat="45.5363324" lon="11.1338838"><ele>597.5</ele><time>2026-04-19T09:08:12.573Z</time></trkpt><trkpt lat="45.5364147" lon="11.1338588"><ele>597.0</ele><time>2026-04-19T09:08:15.573Z</time></trkpt><trkpt lat="45.5364906" lon="11.13384"><ele>596.5</ele><time>2026-04-19T09:08:18.585Z</time></trkpt><trkpt lat="45.5365673" lon="11.1338244"><ele>596.0</ele><time>2026-04-19T09:08:21.576Z</time></trkpt><trkpt lat="45.5366479" lon="11.1338257"><ele>596.0</ele><time>2026-04-19T09:08:24.676Z</time></trkpt><trkpt lat="45.5367332" lon="11.1338294"><ele>596.0</ele><time>2026-04-19T09:08:27.566Z</time></trkpt><trkpt lat="45.5368065" lon="11.1338138"><ele>596.0</ele><time>2026-04-19T09:08:30.569Z</time></trkpt><trkpt lat="45.5368718" lon="11.1338108"><ele>596.0</ele><time>2026-04-19T09:08:33.575Z</time></trkpt><trkpt lat="45.5369572" lon="11.1338423"><ele>596.0</ele><time>2026-04-19T09:08:36.581Z</time></trkpt><trkpt lat="45.537048" lon="11.1338594"><ele>596.0</ele><time>2026-04-19T09:08:39.575Z</time></trkpt><trkpt lat="45.5371396" lon="11.1338794"><ele>595.8333333333333</ele><time>2026-04-19T09:08:42.571Z</time></trkpt><trkpt lat="45.5372017" lon="11.1339095"><ele>595.6666666666666</ele><time>2026-04-19T09:08:44.677Z</time></trkpt><trkpt lat="45.5372621" lon="11.1339367"><ele>595.5</ele><time>2026-04-19T09:08:46.669Z</time></trkpt><trkpt lat="45.5373249" lon="11.1339723"><ele>595.3333333333334</ele><time>2026-04-19T09:08:49.576Z</time></trkpt><trkpt lat="45.5374064" lon="11.1340449"><ele>595.1666666666667</ele><time>2026-04-19T09:08:54.575Z</time></trkpt><trkpt lat="45.5374745" lon="11.1340683"><ele>595.0</ele><time>2026-04-19T09:08:58.582Z</time></trkpt><trkpt lat="45.5375622" lon="11.1340736"><ele>595.0</ele><time>2026-04-19T09:09:01.665Z</time></trkpt><trkpt lat="45.5376523" lon="11.1340482"><ele>595.0</ele><time>2026-04-19T09:09:04.583Z</time></trkpt><trkpt lat="45.5377337" lon="11.1340094"><ele>595.0</ele><time>2026-04-19T09:09:07.579Z</time></trkpt><trkpt lat="45.537815" lon="11.1339741"><ele>595.0</ele><time>2026-04-19T09:09:10.568Z</time></trkpt><trkpt lat="45.5378944" lon="11.1339361"><ele>595.0</ele><time>2026-04-19T09:09:13.677Z</time></trkpt><trkpt lat="45.5379664" lon="11.1338931"><ele>595.0</ele><time>2026-04-19T09:09:16.69Z</time></trkpt><trkpt lat="45.538037" lon="11.1338457"><ele>595.1666666666667</ele><time>2026-04-19T09:09:19.582Z</time></trkpt><trkpt lat="45.5381039" lon="11.1337914"><ele>595.3333333333334</ele><time>2026-04-19T09:09:22.667Z</time></trkpt><trkpt lat="45.5381766" lon="11.1337379"><ele>595.5</ele><time>2026-04-19T09:09:25.58Z</time></trkpt><trkpt lat="45.5382411" lon="11.1336774"><ele>595.6666666666666</ele><time>2026-04-19T09:09:28.579Z</time></trkpt><trkpt lat="45.5383034" lon="11.1336166"><ele>595.8333333333333</ele><time>2026-04-19T09:09:31.646Z</time></trkpt><trkpt lat="45.5383653" lon="11.1335537"><ele>596.0</ele><time>2026-04-19T09:09:34.718Z</time></trkpt><trkpt lat="45.5384194" lon="11.1334971"><ele>596.0</ele><time>2026-04-19T09:09:37.662Z</time></trkpt><trkpt lat="45.5384956" lon="11.1334004"><ele>596.0</ele><time>2026-04-19T09:09:41.593Z</time></trkpt><trkpt lat="45.5385562" lon="11.1333377"><ele>596.0</ele><time>2026-04-19T09:09:44.573Z</time></trkpt><trkpt lat="45.5386099" lon="11.1332742"><ele>596.0</ele><time>2026-04-19T09:09:47.576Z</time></trkpt><trkpt lat="45.5386723" lon="11.1332066"><ele>596.0</ele><time>2026-04-19T09:09:50.582Z</time></trkpt><trkpt lat="45.5387288" lon="11.1331443"><ele>596.0</ele><time>2026-04-19T09:09:53.574Z</time></trkpt><trkpt lat="45.5388009" lon="11.1330857"><ele>596.7142857142857</ele><time>2026-04-19T09:09:56.575Z</time></trkpt><trkpt lat="45.5388591" lon="11.1330137"><ele>597.4285714285713</ele><time>2026-04-19T09:09:59.577Z</time></trkpt><trkpt lat="45.5389039" lon="11.132944"><ele>598.1428571428571</ele><time>2026-04-19T09:10:02.573Z</time></trkpt><trkpt lat="45.5389574" lon="11.1328594"><ele>598.8571428571429</ele><time>2026-04-19T09:10:06.573Z</time></trkpt><trkpt lat="45.5390267" lon="11.1328142"><ele>599.5714285714287</ele><time>2026-04-19T09:10:10.577Z</time></trkpt><trkpt lat="45.5391086" lon="11.1328115"><ele>600.2857142857142</ele><time>2026-04-19T09:10:14.579Z</time></trkpt><trkpt lat="45.5391682" lon="11.1327696"><ele>601.0</ele><time>2026-04-19T09:10:18.565Z</time></trkpt><trkpt lat="45.5392097" lon="11.1328541"><ele>601.0</ele><time>2026-04-19T09:10:26.579Z</time></trkpt><trkpt lat="45.539233" lon="11.1329439"><ele>601.0</ele><time>2026-04-19T09:10:31.579Z</time></trkpt><trkpt lat="45.5392964" lon="11.1329782"><ele>601.0</ele><time>2026-04-19T09:10:38.574Z</time></trkpt><trkpt lat="45.5393569" lon="11.1329295"><ele>601.0</ele><time>2026-04-19T09:10:46.609Z</time></trkpt><trkpt lat="45.5394169" lon="11.1328733"><ele>601.0</ele><time>2026-04-19T09:10:51.572Z</time></trkpt><trkpt lat="45.5394666" lon="11.1328102"><ele>601.0</ele><time>2026-04-19T09:10:57.568Z</time></trkpt><trkpt lat="45.5395253" lon="11.132753"><ele>601.0</ele><time>2026-04-19T09:11:03.577Z</time></trkpt><trkpt lat="45.5395726" lon="11.1326718"><ele>604.2857142857142</ele><time>2026-04-19T09:11:10.572Z</time></trkpt><trkpt lat="45.539632" lon="11.132613"><ele>607.5714285714287</ele><time>2026-04-19T09:11:17.571Z</time></trkpt><trkpt lat="45.53969" lon="11.1325608"><ele>610.8571428571429</ele><time>2026-04-19T09:11:21.569Z</time></trkpt><trkpt lat="45.5397581" lon="11.132528"><ele>614.1428571428571</ele><time>2026-04-19T09:11:27.573Z</time></trkpt><trkpt lat="45.5398244" lon="11.1325075"><ele>617.4285714285713</ele><time>2026-04-19T09:11:33.574Z</time></trkpt><trkpt lat="45.5398975" lon="11.1324941"><ele>620.7142857142858</ele><time>2026-04-19T09:11:39.574Z</time></trkpt><trkpt lat="45.5399622" lon="11.1324983"><ele>624.0</ele><time>2026-04-19T09:11:43.655Z</time></trkpt><trkpt lat="45.5400225" lon="11.1325265"><ele>624.0</ele><time>2026-04-19T09:11:47.576Z</time></trkpt><trkpt lat="45.5400875" lon="11.1325429"><ele>624.0</ele><time>2026-04-19T09:11:52.567Z</time></trkpt><trkpt lat="45.5401526" lon="11.1325514"><ele>624.0</ele><time>2026-04-19T09:11:58.574Z</time></trkpt><trkpt lat="45.5402155" lon="11.1325618"><ele>624.0</ele><time>2026-04-19T09:12:03.576Z</time></trkpt><trkpt lat="45.5402818" lon="11.1325915"><ele>624.0</ele><time>2026-04-19T09:12:09.568Z</time></trkpt><trkpt lat="45.5403535" lon="11.1326103"><ele>624.0</ele><time>2026-04-19T09:12:15.577Z</time></trkpt><trkpt lat="45.5404234" lon="11.1326233"><ele>624.0</ele><time>2026-04-19T09:12:21.573Z</time></trkpt><trkpt lat="45.5404857" lon="11.1326441"><ele>626.5714285714286</ele><time>2026-04-19T09:12:27.576Z</time></trkpt><trkpt lat="45.5405458" lon="11.1326873"><ele>629.1428571428571</ele><time>2026-04-19T09:12:34.57Z</time></trkpt><trkpt lat="45.5406088" lon="11.13274"><ele>631.7142857142857</ele><time>2026-04-19T09:12:53.697Z</time></trkpt><trkpt lat="45.5406766" lon="11.1327855"><ele>634.2857142857142</ele><time>2026-04-19T09:12:58.57Z</time></trkpt><trkpt lat="45.5407452" lon="11.1328133"><ele>636.8571428571429</ele><time>2026-04-19T09:13:02.571Z</time></trkpt><trkpt lat="45.5408108" lon="11.1328609"><ele>639.4285714285713</ele><time>2026-04-19T09:13:06.566Z</time></trkpt><trkpt lat="45.5408868" lon="11.132897"><ele>642.0</ele><time>2026-04-19T09:13:11.597Z</time></trkpt><trkpt lat="45.5409491" lon="11.1329473"><ele>642.0</ele><time>2026-04-19T09:13:14.627Z</time></trkpt><trkpt lat="45.5410151" lon="11.1330012"><ele>642.0</ele><time>2026-04-19T09:13:18.685Z</time></trkpt><trkpt lat="45.5410723" lon="11.1330492"><ele>642.0</ele><time>2026-04-19T09:13:21.68Z</time></trkpt><trkpt lat="45.5411425" lon="11.133091"><ele>642.0</ele><time>2026-04-19T09:13:25.681Z</time></trkpt><trkpt lat="45.5412435" lon="11.1331487"><ele>642.0</ele><time>2026-04-19T09:13:30.653Z</time></trkpt><trkpt lat="45.5413144" lon="11.1332006"><ele>642.0</ele><time>2026-04-19T09:13:33.661Z</time></trkpt><trkpt lat="45.5413748" lon="11.1332434"><ele>641.1666666666666</ele><time>2026-04-19T09:13:36.686Z</time></trkpt><trkpt lat="45.5414491" lon="11.1332734"><ele>640.3333333333334</ele><time>2026-04-19T09:13:39.697Z</time></trkpt><trkpt lat="45.5415319" lon="11.1333127"><ele>639.5</ele><time>2026-04-19T09:13:42.652Z</time></trkpt><trkpt lat="45.5416087" lon="11.1333448"><ele>638.6666666666667</ele><time>2026-04-19T09:13:45.702Z</time></trkpt><trkpt lat="45.5416838" lon="11.1333833"><ele>637.8333333333334</ele><time>2026-04-19T09:13:48.574Z</time></trkpt><trkpt lat="45.5417545" lon="11.1334386"><ele>637.0</ele><time>2026-04-19T09:13:51.573Z</time></trkpt><trkpt lat="45.5418135" lon="11.1334998"><ele>637.0</ele><time>2026-04-19T09:13:54.704Z</time></trkpt><trkpt lat="45.5418958" lon="11.1335818"><ele>637.0</ele><time>2026-04-19T09:13:58.583Z</time></trkpt><trkpt lat="45.5419802" lon="11.133634"><ele>637.0</ele><time>2026-04-19T09:14:01.671Z</time></trkpt><trkpt lat="45.5420617" lon="11.133683"><ele>637.0</ele><time>2026-04-19T09:14:04.675Z</time></trkpt><trkpt lat="45.542119" lon="11.1337254"><ele>637.0</ele><time>2026-04-19T09:14:06.628Z</time></trkpt><trkpt lat="45.5421839" lon="11.1337662"><ele>637.0</ele><time>2026-04-19T09:14:08.658Z</time></trkpt><trkpt lat="45.5422544" lon="11.1337758"><ele>637.8571428571429</ele><time>2026-04-19T09:14:10.671Z</time></trkpt><trkpt lat="45.5423185" lon="11.133795"><ele>638.7142857142858</ele><time>2026-04-19T09:14:12.699Z</time></trkpt><trkpt lat="45.5423806" lon="11.133819"><ele>639.5714285714286</ele><time>2026-04-19T09:14:14.709Z</time></trkpt><trkpt lat="45.5424431" lon="11.1338419"><ele>640.4285714285714</ele><time>2026-04-19T09:14:16.684Z</time></trkpt><trkpt lat="45.5425059" lon="11.1338654"><ele>641.2857142857143</ele><time>2026-04-19T09:14:18.675Z</time></trkpt><trkpt lat="45.5425798" lon="11.1338944"><ele>642.1428571428571</ele><time>2026-04-19T09:14:20.694Z</time></trkpt><trkpt lat="45.5426544" lon="11.1338787"><ele>643.0</ele><time>2026-04-19T09:14:22.688Z</time></trkpt><trkpt lat="45.5427404" lon="11.1338493"><ele>643.0</ele><time>2026-04-19T09:14:25.676Z</time></trkpt><trkpt lat="45.542807" lon="11.1338441"><ele>643.0</ele><time>2026-04-19T09:14:28.694Z</time></trkpt><trkpt lat="45.5428845" lon="11.1338461"><ele>643.0</ele><time>2026-04-19T09:14:31.587Z</time></trkpt><trkpt lat="45.5429574" lon="11.1338486"><ele>643.0</ele><time>2026-04-19T09:14:34.58Z</time></trkpt><trkpt lat="45.5430258" lon="11.1338489"><ele>643.0</ele><time>2026-04-19T09:14:37.568Z</time></trkpt><trkpt lat="45.5430894" lon="11.1338279"><ele>643.0</ele><time>2026-04-19T09:14:40.581Z</time></trkpt><trkpt lat="45.5431693" lon="11.1338132"><ele>643.0</ele><time>2026-04-19T09:14:44.684Z</time></trkpt><trkpt lat="45.5432399" lon="11.1338024"><ele>643.1666666666667</ele><time>2026-04-19T09:14:47.714Z</time></trkpt><trkpt lat="45.5433228" lon="11.13378"><ele>643.3333333333334</ele><time>2026-04-19T09:14:51.682Z</time></trkpt><trkpt lat="45.5433905" lon="11.1337514"><ele>643.5</ele><time>2026-04-19T09:14:54.693Z</time></trkpt><trkpt lat="45.5434565" lon="11.1337376"><ele>643.6666666666666</ele><time>2026-04-19T09:14:57.587Z</time></trkpt><trkpt lat="45.5435493" lon="11.1337005"><ele>643.8333333333333</ele><time>2026-04-19T09:15:02.579Z</time></trkpt><trkpt lat="45.5436233" lon="11.1336767"><ele>644.0</ele><time>2026-04-19T09:15:05.587Z</time></trkpt><trkpt lat="45.5436985" lon="11.1336593"><ele>644.5</ele><time>2026-04-19T09:15:08.706Z</time></trkpt><trkpt lat="45.5437718" lon="11.1336545"><ele>645.0</ele><time>2026-04-19T09:15:11.621Z</time></trkpt><trkpt lat="45.5438565" lon="11.1336571"><ele>645.5</ele><time>2026-04-19T09:15:14.575Z</time></trkpt><trkpt lat="45.5439467" lon="11.1336645"><ele>646.0</ele><time>2026-04-19T09:15:17.691Z</time></trkpt><trkpt lat="45.5440291" lon="11.1336747"><ele>646.5</ele><time>2026-04-19T09:15:20.584Z</time></trkpt><trkpt lat="45.5441125" lon="11.1336861"><ele>647.0</ele><time>2026-04-19T09:15:24.579Z</time></trkpt><trkpt lat="45.5441883" lon="11.1336955"><ele>647.0</ele><time>2026-04-19T09:15:29.641Z</time></trkpt><trkpt lat="45.5442491" lon="11.1336611"><ele>647.0</ele><time>2026-04-19T09:15:36.598Z</time></trkpt><trkpt lat="45.5442519" lon="11.1335652"><ele>647.0</ele><time>2026-04-19T09:15:43.578Z</time></trkpt><trkpt lat="45.5442683" lon="11.1334725"><ele>647.0</ele><time>2026-04-19T09:15:48.574Z</time></trkpt><trkpt lat="45.5442787" lon="11.1333735"><ele>647.0</ele><time>2026-04-19T09:15:54.649Z</time></trkpt><trkpt lat="45.544325" lon="11.1332962"><ele>647.0</ele><time>2026-04-19T09:16:01.585Z</time></trkpt><trkpt lat="45.5443598" lon="11.1332044"><ele>647.0</ele><time>2026-04-19T09:16:07.575Z</time></trkpt><trkpt lat="45.5443999" lon="11.1331299"><ele>645.6666666666666</ele><time>2026-04-19T09:16:11.59Z</time></trkpt><trkpt lat="45.5444421" lon="11.1330438"><ele>644.3333333333333</ele><time>2026-04-19T09:16:15.589Z</time></trkpt><trkpt lat="45.5445066" lon="11.1329873"><ele>643.0</ele><time>2026-04-19T09:16:19.666Z</time></trkpt><trkpt lat="45.5445591" lon="11.1329013"><ele>641.6666666666666</ele><time>2026-04-19T09:16:22.578Z</time></trkpt><trkpt lat="45.5446156" lon="11.132796"><ele>640.3333333333334</ele><time>2026-04-19T09:16:25.576Z</time></trkpt><trkpt lat="45.54466" lon="11.132723"><ele>639.0</ele><time>2026-04-19T09:16:27.575Z</time></trkpt><trkpt lat="45.5447001" lon="11.1326483"><ele>639.0</ele><time>2026-04-19T09:16:29.578Z</time></trkpt><trkpt lat="45.5447734" lon="11.1325673"><ele>639.0</ele><time>2026-04-19T09:16:31.592Z</time></trkpt><trkpt lat="45.5448646" lon="11.1324563"><ele>639.0</ele><time>2026-04-19T09:16:33.58Z</time></trkpt><trkpt lat="45.5449595" lon="11.1323472"><ele>639.0</ele><time>2026-04-19T09:16:35.579Z</time></trkpt><trkpt lat="45.5450208" lon="11.1322223"><ele>639.0</ele><time>2026-04-19T09:16:37.578Z</time></trkpt><trkpt lat="45.5450747" lon="11.1320983"><ele>639.4285714285714</ele><time>2026-04-19T09:16:39.572Z</time></trkpt><trkpt lat="45.5450997" lon="11.1320068"><ele>639.8571428571429</ele><time>2026-04-19T09:16:41.571Z</time></trkpt><trkpt lat="45.5451078" lon="11.1318961"><ele>640.2857142857142</ele><time>2026-04-19T09:16:45.574Z</time></trkpt><trkpt lat="45.5451286" lon="11.1318058"><ele>640.7142857142858</ele><time>2026-04-19T09:16:48.575Z</time></trkpt><trkpt lat="45.5451535" lon="11.1316972"><ele>641.1428571428571</ele><time>2026-04-19T09:16:52.574Z</time></trkpt><trkpt lat="45.5451571" lon="11.1315815"><ele>641.5714285714286</ele><time>2026-04-19T09:16:56.575Z</time></trkpt><trkpt lat="45.5451525" lon="11.1314819"><ele>642.0</ele><time>2026-04-19T09:17:00.579Z</time></trkpt><trkpt lat="45.5451508" lon="11.1313382"><ele>642.0</ele><time>2026-04-19T09:17:03.686Z</time></trkpt><trkpt lat="45.5451345" lon="11.1312065"><ele>642.0</ele><time>2026-04-19T09:17:05.677Z</time></trkpt><trkpt lat="45.5451158" lon="11.1310592"><ele>642.0</ele><time>2026-04-19T09:17:07.651Z</time></trkpt><trkpt lat="45.5450695" lon="11.1308988"><ele>642.0</ele><time>2026-04-19T09:17:09.661Z</time></trkpt><trkpt lat="45.5450325" lon="11.1308025"><ele>642.0</ele><time>2026-04-19T09:17:10.659Z</time></trkpt><trkpt lat="45.5450079" lon="11.1307096"><ele>642.0</ele><time>2026-04-19T09:17:11.644Z</time></trkpt><trkpt lat="45.5449749" lon="11.1306299"><ele>642.0</ele><time>2026-04-19T09:17:12.649Z</time></trkpt><trkpt lat="45.5449508" lon="11.1305401"><ele>642.0</ele><time>2026-04-19T09:17:13.666Z</time></trkpt><trkpt lat="45.5449406" lon="11.1303958"><ele>642.0</ele><time>2026-04-19T09:17:15.669Z</time></trkpt><trkpt lat="45.5449823" lon="11.1303019"><ele>642.0</ele><time>2026-04-19T09:17:17.702Z</time></trkpt><trkpt lat="45.5449936" lon="11.1302034"><ele>642.0</ele><time>2026-04-19T09:17:20.684Z</time></trkpt><trkpt lat="45.5450252" lon="11.1300416"><ele>641.9999999999999</ele><time>2026-04-19T09:17:24.588Z</time></trkpt><trkpt lat="45.5450409" lon="11.1299326"><ele>642.0</ele><time>2026-04-19T09:17:27.648Z</time></trkpt><trkpt lat="45.5450497" lon="11.1298397"><ele>642.0</ele><time>2026-04-19T09:17:30.681Z</time></trkpt><trkpt lat="45.5450569" lon="11.129734"><ele>642.0</ele><time>2026-04-19T09:17:34.655Z</time></trkpt><trkpt lat="45.545065" lon="11.1296189"><ele>642.0</ele><time>2026-04-19T09:17:38.678Z</time></trkpt><trkpt lat="45.545077" lon="11.1295268"><ele>641.9999999999999</ele><time>2026-04-19T09:17:41.694Z</time></trkpt><trkpt lat="45.5450818" lon="11.1294312"><ele>642.0</ele><time>2026-04-19T09:17:44.686Z</time></trkpt><trkpt lat="45.5450786" lon="11.1293197"><ele>642.5</ele><time>2026-04-19T09:17:48.67Z</time></trkpt><trkpt lat="45.5450998" lon="11.1292263"><ele>643.0</ele><time>2026-04-19T09:17:52.667Z</time></trkpt><trkpt lat="45.5451299" lon="11.1291364"><ele>643.5</ele><time>2026-04-19T09:17:55.684Z</time></trkpt><trkpt lat="45.5451776" lon="11.1290341"><ele>644.0</ele><time>2026-04-19T09:17:59.566Z</time></trkpt><trkpt lat="45.5452221" lon="11.1289545"><ele>644.5</ele><time>2026-04-19T09:18:02.573Z</time></trkpt><trkpt lat="45.5452673" lon="11.128861"><ele>645.0</ele><time>2026-04-19T09:18:05.577Z</time></trkpt><trkpt lat="45.5453103" lon="11.1287403"><ele>646.0</ele><time>2026-04-19T09:18:08.568Z</time></trkpt><trkpt lat="45.545344" lon="11.128625"><ele>647.0</ele><time>2026-04-19T09:18:11.688Z</time></trkpt><trkpt lat="45.5453719" lon="11.1285084"><ele>648.0</ele><time>2026-04-19T09:18:14.685Z</time></trkpt><trkpt lat="45.5453912" lon="11.1284059"><ele>649.0</ele><time>2026-04-19T09:18:17.654Z</time></trkpt><trkpt lat="45.545418" lon="11.1283182"><ele>650.0</ele><time>2026-04-19T09:18:20.658Z</time></trkpt><trkpt lat="45.5454466" lon="11.1282261"><ele>651.0</ele><time>2026-04-19T09:18:23.662Z</time></trkpt><trkpt lat="45.5454733" lon="11.1281348"><ele>648.8571428571429</ele><time>2026-04-19T09:18:27.666Z</time></trkpt><trkpt lat="45.5454928" lon="11.1280425"><ele>646.7142857142858</ele><time>2026-04-19T09:18:31.675Z</time></trkpt><trkpt lat="45.545507" lon="11.1279523"><ele>644.5714285714286</ele><time>2026-04-19T09:18:36.679Z</time></trkpt><trkpt lat="45.5455034" lon="11.1278434"><ele>642.4285714285714</ele><time>2026-04-19T09:18:40.691Z</time></trkpt><trkpt lat="45.5455138" lon="11.1277453"><ele>640.2857142857143</ele><time>2026-04-19T09:18:43.676Z</time></trkpt><trkpt lat="45.5455181" lon="11.1276273"><ele>638.1428571428571</ele><time>2026-04-19T09:18:47.68Z</time></trkpt><trkpt lat="45.5455174" lon="11.1275267"><ele>636.0</ele><time>2026-04-19T09:18:50.663Z</time></trkpt><trkpt lat="45.5455194" lon="11.1274021"><ele>635.2</ele><time>2026-04-19T09:18:53.664Z</time></trkpt><trkpt lat="45.5455206" lon="11.1272808"><ele>634.4000000000001</ele><time>2026-04-19T09:18:55.694Z</time></trkpt><trkpt lat="45.545496" lon="11.1270862"><ele>633.6</ele><time>2026-04-19T09:18:58.581Z</time></trkpt><trkpt lat="45.54547" lon="11.1269983"><ele>632.8000000000001</ele><time>2026-04-19T09:19:00.676Z</time></trkpt><trkpt lat="45.5454445" lon="11.1268835"><ele>632.0</ele><time>2026-04-19T09:19:03.677Z</time></trkpt><trkpt lat="45.5454143" lon="11.1267736"><ele>632.0000000000001</ele><time>2026-04-19T09:19:06.702Z</time></trkpt><trkpt lat="45.5453907" lon="11.1266743"><ele>632.0</ele><time>2026-04-19T09:19:09.572Z</time></trkpt><trkpt lat="45.5453845" lon="11.126565"><ele>632.0</ele><time>2026-04-19T09:19:12.575Z</time></trkpt><trkpt lat="45.5453773" lon="11.1264695"><ele>632.0</ele><time>2026-04-19T09:19:15.577Z</time></trkpt><trkpt lat="45.5453447" lon="11.1263884"><ele>632.0</ele><time>2026-04-19T09:19:18.579Z</time></trkpt><trkpt lat="45.5453184" lon="11.1262949"><ele>632.0000000000001</ele><time>2026-04-19T09:19:22.58Z</time></trkpt><trkpt lat="45.5452935" lon="11.1261819"><ele>632.0</ele><time>2026-04-19T09:19:26.573Z</time></trkpt><trkpt lat="45.5452592" lon="11.1260985"><ele>634.6666666666666</ele><time>2026-04-19T09:19:29.588Z</time></trkpt><trkpt lat="45.5452302" lon="11.126004"><ele>637.3333333333333</ele><time>2026-04-19T09:19:32.587Z</time></trkpt><trkpt lat="45.5452041" lon="11.1259215"><ele>640.0</ele><time>2026-04-19T09:19:35.583Z</time></trkpt><trkpt lat="45.5451603" lon="11.1258327"><ele>642.6666666666666</ele><time>2026-04-19T09:19:39.589Z</time></trkpt><trkpt lat="45.545124" lon="11.1257324"><ele>645.3333333333334</ele><time>2026-04-19T09:19:43.7Z</time></trkpt><trkpt lat="45.5451048" lon="11.1256236"><ele>648.0</ele><time>2026-04-19T09:19:48.674Z</time></trkpt><trkpt lat="45.545107" lon="11.1254753"><ele>648.4285714285714</ele><time>2026-04-19T09:19:53.658Z</time></trkpt><trkpt lat="45.5451029" lon="11.1253686"><ele>648.8571428571429</ele><time>2026-04-19T09:19:56.66Z</time></trkpt><trkpt lat="45.5450861" lon="11.125263"><ele>649.2857142857142</ele><time>2026-04-19T09:19:59.571Z</time></trkpt><trkpt lat="45.5450674" lon="11.1251739"><ele>649.7142857142858</ele><time>2026-04-19T09:20:02.652Z</time></trkpt><trkpt lat="45.5450462" lon="11.1250884"><ele>650.1428571428571</ele><time>2026-04-19T09:20:05.704Z</time></trkpt><trkpt lat="45.5450136" lon="11.1249991"><ele>650.5714285714286</ele><time>2026-04-19T09:20:08.676Z</time></trkpt><trkpt lat="45.5449711" lon="11.1249102"><ele>651.0</ele><time>2026-04-19T09:20:11.651Z</time></trkpt><trkpt lat="45.5449297" lon="11.124821"><ele>651.5714285714286</ele><time>2026-04-19T09:20:14.673Z</time></trkpt><trkpt lat="45.5448861" lon="11.124718"><ele>652.1428571428571</ele><time>2026-04-19T09:20:18.683Z</time></trkpt><trkpt lat="45.5448558" lon="11.1246348"><ele>652.7142857142858</ele><time>2026-04-19T09:20:21.678Z</time></trkpt><trkpt lat="45.5448289" lon="11.1245515"><ele>653.2857142857142</ele><time>2026-04-19T09:20:24.612Z</time></trkpt><trkpt lat="45.5447923" lon="11.1244768"><ele>653.8571428571429</ele><time>2026-04-19T09:20:27.655Z</time></trkpt><trkpt lat="45.5447825" lon="11.1243855"><ele>654.4285714285714</ele><time>2026-04-19T09:20:31.689Z</time></trkpt><trkpt lat="45.5448341" lon="11.1243321"><ele>655.0</ele><time>2026-04-19T09:20:37.694Z</time></trkpt><trkpt lat="45.5449067" lon="11.124298"><ele>655.0</ele><time>2026-04-19T09:20:42.668Z</time></trkpt><trkpt lat="45.5449686" lon="11.1242799"><ele>655.0</ele><time>2026-04-19T09:20:46.705Z</time></trkpt><trkpt lat="45.5450376" lon="11.124228"><ele>655.0</ele><time>2026-04-19T09:20:51.675Z</time></trkpt><trkpt lat="45.5451029" lon="11.1241666"><ele>655.0</ele><time>2026-04-19T09:20:57.57Z</time></trkpt><trkpt lat="45.5451676" lon="11.1241165"><ele>655.0</ele><time>2026-04-19T09:21:02.659Z</time></trkpt><trkpt lat="45.545226" lon="11.124057"><ele>655.0</ele><time>2026-04-19T09:21:07.672Z</time></trkpt><trkpt lat="45.5452583" lon="11.1239616"><ele>655.0</ele><time>2026-04-19T09:21:14.576Z</time></trkpt><trkpt lat="45.5453117" lon="11.1238828"><ele>655.1428571428571</ele><time>2026-04-19T09:21:19.664Z</time></trkpt><trkpt lat="45.5453543" lon="11.1237942"><ele>655.2857142857142</ele><time>2026-04-19T09:21:24.678Z</time></trkpt><trkpt lat="45.545375" lon="11.1237082"><ele>655.4285714285713</ele><time>2026-04-19T09:21:28.676Z</time></trkpt><trkpt lat="45.5453891" lon="11.123605"><ele>655.5714285714286</ele><time>2026-04-19T09:21:32.683Z</time></trkpt><trkpt lat="45.5453894" lon="11.1234933"><ele>655.7142857142857</ele><time>2026-04-19T09:21:36.666Z</time></trkpt><trkpt lat="45.5453662" lon="11.1234089"><ele>655.8571428571428</ele><time>2026-04-19T09:21:40.584Z</time></trkpt><trkpt lat="45.545396" lon="11.123301"><ele>656.0</ele><time>2026-04-19T09:21:44.683Z</time></trkpt><trkpt lat="45.5454517" lon="11.1232268"><ele>657.4285714285713</ele><time>2026-04-19T09:21:47.683Z</time></trkpt><trkpt lat="45.5455144" lon="11.1231728"><ele>658.8571428571429</ele><time>2026-04-19T09:21:50.579Z</time></trkpt><trkpt lat="45.5455696" lon="11.1231159"><ele>660.2857142857142</ele><time>2026-04-19T09:21:54.667Z</time></trkpt><trkpt lat="45.5456299" lon="11.1230666"><ele>661.7142857142857</ele><time>2026-04-19T09:21:57.673Z</time></trkpt><trkpt lat="45.5456974" lon="11.1230375"><ele>663.1428571428571</ele><time>2026-04-19T09:22:00.681Z</time></trkpt><trkpt lat="45.5457821" lon="11.1229914"><ele>664.5714285714286</ele><time>2026-04-19T09:22:04.71Z</time></trkpt><trkpt lat="45.5458504" lon="11.1229628"><ele>666.0</ele><time>2026-04-19T09:22:07.699Z</time></trkpt><trkpt lat="45.5459294" lon="11.1229031"><ele>666.0</ele><time>2026-04-19T09:22:11.671Z</time></trkpt><trkpt lat="45.5459963" lon="11.1228641"><ele>666.0</ele><time>2026-04-19T09:22:14.687Z</time></trkpt><trkpt lat="45.5460693" lon="11.1228238"><ele>666.0</ele><time>2026-04-19T09:22:17.619Z</time></trkpt><trkpt lat="45.5461305" lon="11.1227858"><ele>666.0</ele><time>2026-04-19T09:22:20.657Z</time></trkpt><trkpt lat="45.5462064" lon="11.1227425"><ele>666.0</ele><time>2026-04-19T09:22:24.667Z</time></trkpt><trkpt lat="45.5462768" lon="11.1226946"><ele>666.0</ele><time>2026-04-19T09:22:28.574Z</time></trkpt><trkpt lat="45.5463428" lon="11.1226549"><ele>666.0</ele><time>2026-04-19T09:22:32.569Z</time></trkpt><trkpt lat="45.5463994" lon="11.1226123"><ele>666.1666666666666</ele><time>2026-04-19T09:22:36.588Z</time></trkpt><trkpt lat="45.5464748" lon="11.1225813"><ele>666.3333333333334</ele><time>2026-04-19T09:22:40.586Z</time></trkpt><trkpt lat="45.5465474" lon="11.1225657"><ele>666.5</ele><time>2026-04-19T09:22:44.68Z</time></trkpt><trkpt lat="45.5466126" lon="11.1224751"><ele>666.6666666666667</ele><time>2026-04-19T09:22:50.663Z</time></trkpt><trkpt lat="45.546594" lon="11.1223824"><ele>666.8333333333334</ele><time>2026-04-19T09:22:54.686Z</time></trkpt><trkpt lat="45.5465737" lon="11.1222872"><ele>667.0</ele><time>2026-04-19T09:22:58.578Z</time></trkpt><trkpt lat="45.5465734" lon="11.1221818"><ele>667.4285714285714</ele><time>2026-04-19T09:23:02.667Z</time></trkpt><trkpt lat="45.5465705" lon="11.122086"><ele>667.8571428571429</ele><time>2026-04-19T09:23:06.674Z</time></trkpt><trkpt lat="45.5466291" lon="11.1220316"><ele>668.2857142857142</ele><time>2026-04-19T09:23:11.662Z</time></trkpt><trkpt lat="45.546698" lon="11.1220371"><ele>668.7142857142858</ele><time>2026-04-19T09:23:15.689Z</time></trkpt><trkpt lat="45.5467725" lon="11.1220343"><ele>669.1428571428571</ele><time>2026-04-19T09:23:19.689Z</time></trkpt><trkpt lat="45.5468536" lon="11.1220343"><ele>669.5714285714286</ele><time>2026-04-19T09:23:23.667Z</time></trkpt><trkpt lat="45.5469309" lon="11.1220359"><ele>670.0</ele><time>2026-04-19T09:23:27.674Z</time></trkpt><trkpt lat="45.5469919" lon="11.1220076"><ele>670.8571428571428</ele><time>2026-04-19T09:23:30.671Z</time></trkpt><trkpt lat="45.5470679" lon="11.1219844"><ele>671.7142857142857</ele><time>2026-04-19T09:23:34.659Z</time></trkpt><trkpt lat="45.5471349" lon="11.1219655"><ele>672.5714285714286</ele><time>2026-04-19T09:23:37.647Z</time></trkpt><trkpt lat="45.5472025" lon="11.1219514"><ele>673.4285714285713</ele><time>2026-04-19T09:23:40.673Z</time></trkpt><trkpt lat="45.5472654" lon="11.1219361"><ele>674.2857142857142</ele><time>2026-04-19T09:23:43.667Z</time></trkpt><trkpt lat="45.5473375" lon="11.1219105"><ele>675.1428571428571</ele><time>2026-04-19T09:23:47.667Z</time></trkpt><trkpt lat="45.5474138" lon="11.1218903"><ele>676.0</ele><time>2026-04-19T09:23:51.671Z</time></trkpt><trkpt lat="45.5474796" lon="11.1218745"><ele>676.0</ele><time>2026-04-19T09:23:54.668Z</time></trkpt><trkpt lat="45.5475497" lon="11.121856"><ele>676.0</ele><time>2026-04-19T09:23:57.576Z</time></trkpt><trkpt lat="45.5476167" lon="11.1218389"><ele>676.0</ele><time>2026-04-19T09:24:00.619Z</time></trkpt><trkpt lat="45.5476905" lon="11.1218279"><ele>676.0</ele><time>2026-04-19T09:24:03.667Z</time></trkpt><trkpt lat="45.5477583" lon="11.1218095"><ele>676.0</ele><time>2026-04-19T09:24:06.654Z</time></trkpt><trkpt lat="45.547838" lon="11.1218009"><ele>676.0</ele><time>2026-04-19T09:24:10.688Z</time></trkpt><trkpt lat="45.5479032" lon="11.1217953"><ele>676.0</ele><time>2026-04-19T09:24:13.682Z</time></trkpt><trkpt lat="45.547979" lon="11.1218057"><ele>676.4285714285714</ele><time>2026-04-19T09:24:16.668Z</time></trkpt><trkpt lat="45.5480529" lon="11.1218117"><ele>676.8571428571429</ele><time>2026-04-19T09:24:19.694Z</time></trkpt><trkpt lat="45.5481225" lon="11.1218077"><ele>677.2857142857142</ele><time>2026-04-19T09:24:22.573Z</time></trkpt><trkpt lat="45.5481929" lon="11.1218185"><ele>677.7142857142858</ele><time>2026-04-19T09:24:25.688Z</time></trkpt><trkpt lat="45.5482659" lon="11.1218359"><ele>678.1428571428571</ele><time>2026-04-19T09:24:28.689Z</time></trkpt><trkpt lat="45.5483318" lon="11.1218441"><ele>678.5714285714286</ele><time>2026-04-19T09:24:31.678Z</time></trkpt><trkpt lat="45.5484153" lon="11.121853"><ele>679.0</ele><time>2026-04-19T09:24:34.669Z</time></trkpt><trkpt lat="45.5484929" lon="11.1218625"><ele>679.0</ele><time>2026-04-19T09:24:37.688Z</time></trkpt><trkpt lat="45.5485654" lon="11.1218663"><ele>679.0</ele><time>2026-04-19T09:24:40.692Z</time></trkpt><trkpt lat="45.5486419" lon="11.1218718"><ele>679.0</ele><time>2026-04-19T09:24:43.695Z</time></trkpt><trkpt lat="45.5487154" lon="11.1218733"><ele>679.0</ele><time>2026-04-19T09:24:46.659Z</time></trkpt><trkpt lat="45.5487825" lon="11.121871"><ele>679.0</ele><time>2026-04-19T09:24:49.588Z</time></trkpt><trkpt lat="45.5488611" lon="11.1218553"><ele>679.0</ele><time>2026-04-19T09:24:52.68Z</time></trkpt><trkpt lat="45.5489339" lon="11.1218406"><ele>679.0</ele><time>2026-04-19T09:24:55.649Z</time></trkpt><trkpt lat="45.5489986" lon="11.121822"><ele>679.3333333333334</ele><time>2026-04-19T09:24:58.668Z</time></trkpt><trkpt lat="45.5490678" lon="11.121794"><ele>679.6666666666667</ele><time>2026-04-19T09:25:01.67Z</time></trkpt><trkpt lat="45.5491623" lon="11.1217545"><ele>680.0</ele><time>2026-04-19T09:25:06.582Z</time></trkpt><trkpt lat="45.5492252" lon="11.1217291"><ele>680.3333333333334</ele><time>2026-04-19T09:25:09.685Z</time></trkpt><trkpt lat="45.5492937" lon="11.1216979"><ele>680.6666666666666</ele><time>2026-04-19T09:25:12.605Z</time></trkpt><trkpt lat="45.5493644" lon="11.1216799"><ele>681.0</ele><time>2026-04-19T09:25:15.683Z</time></trkpt><trkpt lat="45.5494358" lon="11.1216633"><ele>681.0</ele><time>2026-04-19T09:25:18.678Z</time></trkpt><trkpt lat="45.5495062" lon="11.1216358"><ele>681.0</ele><time>2026-04-19T09:25:21.673Z</time></trkpt><trkpt lat="45.5495677" lon="11.1215973"><ele>681.0</ele><time>2026-04-19T09:25:24.68Z</time></trkpt><trkpt lat="45.5496455" lon="11.1215673"><ele>681.0</ele><time>2026-04-19T09:25:28.665Z</time></trkpt><trkpt lat="45.5497022" lon="11.1215231"><ele>681.0</ele><time>2026-04-19T09:25:31.679Z</time></trkpt><trkpt lat="45.549793" lon="11.1214676"><ele>681.0</ele><time>2026-04-19T09:25:36.686Z</time></trkpt><trkpt lat="45.5498566" lon="11.1214288"><ele>682.3333333333334</ele><time>2026-04-19T09:25:39.673Z</time></trkpt><trkpt lat="45.5499296" lon="11.1213796"><ele>683.6666666666666</ele><time>2026-04-19T09:25:43.666Z</time></trkpt><trkpt lat="45.5500036" lon="11.1213209"><ele>685.0</ele><time>2026-04-19T09:25:47.666Z</time></trkpt><trkpt lat="45.5500749" lon="11.1212827"><ele>686.3333333333333</ele><time>2026-04-19T09:25:50.643Z</time></trkpt><trkpt lat="45.550178" lon="11.1212377"><ele>687.6666666666666</ele><time>2026-04-19T09:25:55.584Z</time></trkpt><trkpt lat="45.5502353" lon="11.1211963"><ele>689.0</ele><time>2026-04-19T09:25:58.578Z</time></trkpt><trkpt lat="45.5502976" lon="11.1211823"><ele>689.0</ele><time>2026-04-19T09:26:01.67Z</time></trkpt><trkpt lat="45.550372" lon="11.1211782"><ele>689.0</ele><time>2026-04-19T09:26:05.694Z</time></trkpt><trkpt lat="45.5504353" lon="11.1211676"><ele>689.0</ele><time>2026-04-19T09:26:08.631Z</time></trkpt><trkpt lat="45.5505145" lon="11.1211425"><ele>689.0</ele><time>2026-04-19T09:26:12.695Z</time></trkpt><trkpt lat="45.5505844" lon="11.1211177"><ele>689.0</ele><time>2026-04-19T09:26:16.689Z</time></trkpt><trkpt lat="45.5506527" lon="11.1211059"><ele>689.0</ele><time>2026-04-19T09:26:20.67Z</time></trkpt><trkpt lat="45.5507303" lon="11.1211034"><ele>689.0</ele><time>2026-04-19T09:26:24.659Z</time></trkpt><trkpt lat="45.5507934" lon="11.1211063"><ele>690.0</ele><time>2026-04-19T09:26:27.657Z</time></trkpt><trkpt lat="45.5508729" lon="11.1211129"><ele>691.0</ele><time>2026-04-19T09:26:31.674Z</time></trkpt><trkpt lat="45.5509446" lon="11.1211114"><ele>692.0</ele><time>2026-04-19T09:26:35.598Z</time></trkpt><trkpt lat="45.5510118" lon="11.1211097"><ele>693.0</ele><time>2026-04-19T09:26:38.667Z</time></trkpt><trkpt lat="45.5510931" lon="11.1211096"><ele>694.0</ele><time>2026-04-19T09:26:42.677Z</time></trkpt><trkpt lat="45.5511708" lon="11.1211078"><ele>695.0</ele><time>2026-04-19T09:26:46.582Z</time></trkpt><trkpt lat="45.5512466" lon="11.1210914"><ele>695.4285714285714</ele><time>2026-04-19T09:26:50.659Z</time></trkpt><trkpt lat="45.5513243" lon="11.1210936"><ele>695.8571428571429</ele><time>2026-04-19T09:26:54.586Z</time></trkpt><trkpt lat="45.5514055" lon="11.1210976"><ele>696.2857142857142</ele><time>2026-04-19T09:26:58.58Z</time></trkpt><trkpt lat="45.55147" lon="11.1211105"><ele>696.7142857142858</ele><time>2026-04-19T09:27:01.587Z</time></trkpt><trkpt lat="45.5515478" lon="11.1211115"><ele>697.1428571428571</ele><time>2026-04-19T09:27:05.582Z</time></trkpt><trkpt lat="45.55162" lon="11.1211251"><ele>697.5714285714286</ele><time>2026-04-19T09:27:09.583Z</time></trkpt><trkpt lat="45.5516869" lon="11.1211469"><ele>698.0</ele><time>2026-04-19T09:27:13.58Z</time></trkpt><trkpt lat="45.5517627" lon="11.1211341"><ele>698.0</ele><time>2026-04-19T09:27:17.585Z</time></trkpt><trkpt lat="45.5518168" lon="11.1210686"><ele>698.0</ele><time>2026-04-19T09:27:21.693Z</time></trkpt><trkpt lat="45.5517953" lon="11.1209596"><ele>698.0</ele><time>2026-04-19T09:27:25.59Z</time></trkpt><trkpt lat="45.5516924" lon="11.1209386"><ele>698.0</ele><time>2026-04-19T09:27:30.583Z</time></trkpt><trkpt lat="45.551627" lon="11.1209385"><ele>698.0</ele><time>2026-04-19T09:27:33.583Z</time></trkpt><trkpt lat="45.551547" lon="11.12091"><ele>698.0</ele><time>2026-04-19T09:27:37.581Z</time></trkpt><trkpt lat="45.5514543" lon="11.1208788"><ele>697.9999999999999</ele><time>2026-04-19T09:27:42.581Z</time></trkpt><trkpt lat="45.5513782" lon="11.1208636"><ele>698.0</ele><time>2026-04-19T09:27:47.581Z</time></trkpt><trkpt lat="45.5513116" lon="11.1208454"><ele>698.0</ele><time>2026-04-19T09:27:51.575Z</time></trkpt><trkpt lat="45.5512418" lon="11.1208284"><ele>698.0</ele><time>2026-04-19T09:27:55.578Z</time></trkpt><trkpt lat="45.5511667" lon="11.1207857"><ele>698.0</ele><time>2026-04-19T09:27:59.58Z</time></trkpt><trkpt lat="45.5511024" lon="11.1207425"><ele>697.9999999999999</ele><time>2026-04-19T09:28:03.574Z</time></trkpt><trkpt lat="45.5510299" lon="11.1206934"><ele>698.0</ele><time>2026-04-19T09:28:07.578Z</time></trkpt><trkpt lat="45.5509918" lon="11.1206117"><ele>697.5714285714286</ele><time>2026-04-19T09:28:12.57Z</time></trkpt><trkpt lat="45.5509909" lon="11.1205201"><ele>697.1428571428571</ele><time>2026-04-19T09:28:16.574Z</time></trkpt><trkpt lat="45.5510208" lon="11.1204317"><ele>696.7142857142858</ele><time>2026-04-19T09:28:21.674Z</time></trkpt><trkpt lat="45.5510546" lon="11.1203488"><ele>696.2857142857142</ele><time>2026-04-19T09:28:25.655Z</time></trkpt><trkpt lat="45.5511118" lon="11.1202871"><ele>695.8571428571429</ele><time>2026-04-19T09:28:30.654Z</time></trkpt><trkpt lat="45.5511615" lon="11.1202256"><ele>695.4285714285714</ele><time>2026-04-19T09:28:34.671Z</time></trkpt><trkpt lat="45.5512295" lon="11.1201756"><ele>695.0</ele><time>2026-04-19T09:28:38.654Z</time></trkpt><trkpt lat="45.5512978" lon="11.1201633"><ele>696.7142857142858</ele><time>2026-04-19T09:28:42.689Z</time></trkpt><trkpt lat="45.5513716" lon="11.1201386"><ele>698.4285714285714</ele><time>2026-04-19T09:28:48.682Z</time></trkpt><trkpt lat="45.5514459" lon="11.1201336"><ele>700.1428571428571</ele><time>2026-04-19T09:28:54.58Z</time></trkpt><trkpt lat="45.5515123" lon="11.1201077"><ele>701.8571428571429</ele><time>2026-04-19T09:28:59.577Z</time></trkpt><trkpt lat="45.5515837" lon="11.1200898"><ele>703.5714285714286</ele><time>2026-04-19T09:29:05.583Z</time></trkpt><trkpt lat="45.5516423" lon="11.1200504"><ele>705.2857142857143</ele><time>2026-04-19T09:29:11.584Z</time></trkpt><trkpt lat="45.5517122" lon="11.1200337"><ele>707.0</ele><time>2026-04-19T09:29:17.583Z</time></trkpt><trkpt lat="45.5517796" lon="11.1199879"><ele>707.0</ele><time>2026-04-19T09:29:23.573Z</time></trkpt><trkpt lat="45.5518289" lon="11.1199152"><ele>707.0</ele><time>2026-04-19T09:29:29.589Z</time></trkpt><trkpt lat="45.5519001" lon="11.1198855"><ele>707.0</ele><time>2026-04-19T09:29:35.586Z</time></trkpt><trkpt lat="45.551934" lon="11.1198013"><ele>707.0</ele><time>2026-04-19T09:29:40.584Z</time></trkpt><trkpt lat="45.5519907" lon="11.1197525"><ele>707.0</ele><time>2026-04-19T09:29:45.586Z</time></trkpt><trkpt lat="45.5520181" lon="11.119664"><ele>707.0</ele><time>2026-04-19T09:29:50.577Z</time></trkpt><trkpt lat="45.552043" lon="11.1195752"><ele>707.0</ele><time>2026-04-19T09:29:55.598Z</time></trkpt><trkpt lat="45.5520616" lon="11.1194773"><ele>708.8571428571429</ele><time>2026-04-19T09:30:00.575Z</time></trkpt><trkpt lat="45.5520759" lon="11.1193855"><ele>710.7142857142858</ele><time>2026-04-19T09:30:05.578Z</time></trkpt><trkpt lat="45.5520979" lon="11.1192943"><ele>712.5714285714286</ele><time>2026-04-19T09:30:10.58Z</time></trkpt><trkpt lat="45.5521312" lon="11.1192099"><ele>714.4285714285714</ele><time>2026-04-19T09:30:15.585Z</time></trkpt><trkpt lat="45.5521762" lon="11.1191388"><ele>716.2857142857143</ele><time>2026-04-19T09:30:20.577Z</time></trkpt><trkpt lat="45.5522337" lon="11.1190617"><ele>718.1428571428571</ele><time>2026-04-19T09:30:26.578Z</time></trkpt><trkpt lat="45.5522857" lon="11.118984"><ele>720.0</ele><time>2026-04-19T09:30:31.68Z</time></trkpt><trkpt lat="45.5523352" lon="11.1189054"><ele>720.7142857142857</ele><time>2026-04-19T09:30:36.688Z</time></trkpt><trkpt lat="45.5523844" lon="11.1188411"><ele>721.4285714285714</ele><time>2026-04-19T09:30:41.665Z</time></trkpt><trkpt lat="45.5524494" lon="11.1187922"><ele>722.1428571428571</ele><time>2026-04-19T09:30:46.578Z</time></trkpt><trkpt lat="45.5525205" lon="11.1187218"><ele>722.8571428571429</ele><time>2026-04-19T09:30:52.577Z</time></trkpt><trkpt lat="45.5525743" lon="11.1186641"><ele>723.5714285714287</ele><time>2026-04-19T09:30:57.687Z</time></trkpt><trkpt lat="45.5526319" lon="11.1186256"><ele>724.2857142857143</ele><time>2026-04-19T09:31:02.587Z</time></trkpt><trkpt lat="45.5526916" lon="11.118589"><ele>725.0</ele><time>2026-04-19T09:31:07.685Z</time></trkpt><trkpt lat="45.55276" lon="11.1185665"><ele>725.0</ele><time>2026-04-19T09:31:12.685Z</time></trkpt><trkpt lat="45.5528239" lon="11.1185299"><ele>725.0</ele><time>2026-04-19T09:31:18.594Z</time></trkpt><trkpt lat="45.5528976" lon="11.118517"><ele>725.0</ele><time>2026-04-19T09:31:24.572Z</time></trkpt><trkpt lat="45.5529618" lon="11.1184583"><ele>725.0</ele><time>2026-04-19T09:31:30.591Z</time></trkpt><trkpt lat="45.553031" lon="11.1184349"><ele>725.0</ele><time>2026-04-19T09:31:35.657Z</time></trkpt><trkpt lat="45.5530992" lon="11.1183893"><ele>725.0</ele><time>2026-04-19T09:31:40.582Z</time></trkpt><trkpt lat="45.5531753" lon="11.118377"><ele>725.0</ele><time>2026-04-19T09:31:45.675Z</time></trkpt><trkpt lat="45.5532491" lon="11.1183494"><ele>725.7142857142858</ele><time>2026-04-19T09:31:50.672Z</time></trkpt><trkpt lat="45.5533152" lon="11.1183316"><ele>726.4285714285714</ele><time>2026-04-19T09:31:54.686Z</time></trkpt><trkpt lat="45.5533889" lon="11.1183065"><ele>727.1428571428571</ele><time>2026-04-19T09:32:01.628Z</time></trkpt><trkpt lat="45.5534559" lon="11.1182749"><ele>727.8571428571429</ele><time>2026-04-19T09:32:06.685Z</time></trkpt><trkpt lat="45.5535193" lon="11.1182484"><ele>728.5714285714286</ele><time>2026-04-19T09:32:11.682Z</time></trkpt><trkpt lat="45.5535801" lon="11.1182145"><ele>729.2857142857143</ele><time>2026-04-19T09:32:16.667Z</time></trkpt><trkpt lat="45.5536537" lon="11.1181827"><ele>730.0</ele><time>2026-04-19T09:32:21.672Z</time></trkpt><trkpt lat="45.5537333" lon="11.1181624"><ele>730.1428571428572</ele><time>2026-04-19T09:32:25.672Z</time></trkpt><trkpt lat="45.5537962" lon="11.1181278"><ele>730.2857142857143</ele><time>2026-04-19T09:32:29.687Z</time></trkpt><trkpt lat="45.5538623" lon="11.1180911"><ele>730.4285714285714</ele><time>2026-04-19T09:32:33.681Z</time></trkpt><trkpt lat="45.553921" lon="11.1180531"><ele>730.5714285714287</ele><time>2026-04-19T09:32:37.666Z</time></trkpt><trkpt lat="45.553984" lon="11.118014"><ele>730.7142857142857</ele><time>2026-04-19T09:32:41.684Z</time></trkpt><trkpt lat="45.5540435" lon="11.1179589"><ele>730.8571428571429</ele><time>2026-04-19T09:32:45.665Z</time></trkpt><trkpt lat="45.5541258" lon="11.1179508"><ele>731.0</ele><time>2026-04-19T09:32:51.575Z</time></trkpt><trkpt lat="45.5541982" lon="11.1179739"><ele>731.0</ele><time>2026-04-19T09:32:56.579Z</time></trkpt><trkpt lat="45.5542703" lon="11.1179734"><ele>731.0</ele><time>2026-04-19T09:33:01.58Z</time></trkpt><trkpt lat="45.554348" lon="11.1179583"><ele>731.0</ele><time>2026-04-19T09:33:06.668Z</time></trkpt><trkpt lat="45.5544166" lon="11.1179629"><ele>731.0</ele><time>2026-04-19T09:33:10.66Z</time></trkpt><trkpt lat="45.5544843" lon="11.1179686"><ele>731.0</ele><time>2026-04-19T09:33:14.649Z</time></trkpt><trkpt lat="45.5545517" lon="11.1179772"><ele>731.0</ele><time>2026-04-19T09:33:18.703Z</time></trkpt><trkpt lat="45.5546182" lon="11.1179867"><ele>731.0</ele><time>2026-04-19T09:33:22.675Z</time></trkpt><trkpt lat="45.5546911" lon="11.1180041"><ele>731.7142857142857</ele><time>2026-04-19T09:33:27.677Z</time></trkpt><trkpt lat="45.5547637" lon="11.1180081"><ele>732.4285714285713</ele><time>2026-04-19T09:33:32.681Z</time></trkpt><trkpt lat="45.5548371" lon="11.1180127"><ele>733.1428571428571</ele><time>2026-04-19T09:33:37.658Z</time></trkpt><trkpt lat="45.5548951" lon="11.1180556"><ele>733.8571428571429</ele><time>2026-04-19T09:33:41.657Z</time></trkpt><trkpt lat="45.5549624" lon="11.1180861"><ele>734.5714285714286</ele><time>2026-04-19T09:33:45.687Z</time></trkpt><trkpt lat="45.5550324" lon="11.1180883"><ele>735.2857142857143</ele><time>2026-04-19T09:33:49.637Z</time></trkpt><trkpt lat="45.5551033" lon="11.1180956"><ele>736.0</ele><time>2026-04-19T09:33:53.678Z</time></trkpt><trkpt lat="45.5551725" lon="11.1180831"><ele>736.0</ele><time>2026-04-19T09:33:57.694Z</time></trkpt><trkpt lat="45.5552449" lon="11.1180828"><ele>736.0</ele><time>2026-04-19T09:34:01.706Z</time></trkpt><trkpt lat="45.5553158" lon="11.1180975"><ele>736.0</ele><time>2026-04-19T09:34:05.579Z</time></trkpt><trkpt lat="45.5553873" lon="11.1181226"><ele>736.0</ele><time>2026-04-19T09:34:09.696Z</time></trkpt><trkpt lat="45.5554537" lon="11.1181454"><ele>736.0</ele><time>2026-04-19T09:34:13.677Z</time></trkpt><trkpt lat="45.5555193" lon="11.1181345"><ele>736.0</ele><time>2026-04-19T09:34:17.657Z</time></trkpt><trkpt lat="45.5555823" lon="11.1181137"><ele>736.0</ele><time>2026-04-19T09:34:21.643Z</time></trkpt><trkpt lat="45.5556544" lon="11.1180809"><ele>737.8571428571429</ele><time>2026-04-19T09:34:26.687Z</time></trkpt><trkpt lat="45.5557193" lon="11.118049"><ele>739.7142857142857</ele><time>2026-04-19T09:34:31.68Z</time></trkpt><trkpt lat="45.5557894" lon="11.1180236"><ele>741.5714285714286</ele><time>2026-04-19T09:34:36.66Z</time></trkpt><trkpt lat="45.5558594" lon="11.1179965"><ele>743.4285714285714</ele><time>2026-04-19T09:34:41.678Z</time></trkpt><trkpt lat="45.5559244" lon="11.1179681"><ele>745.2857142857142</ele><time>2026-04-19T09:34:46.685Z</time></trkpt><trkpt lat="45.5559973" lon="11.1179424"><ele>747.1428571428571</ele><time>2026-04-19T09:34:51.692Z</time></trkpt><trkpt lat="45.5560707" lon="11.1179238"><ele>749.0</ele><time>2026-04-19T09:34:56.682Z</time></trkpt><trkpt lat="45.5561387" lon="11.1178957"><ele>749.0</ele><time>2026-04-19T09:35:01.719Z</time></trkpt><trkpt lat="45.556199" lon="11.1178698"><ele>749.0</ele><time>2026-04-19T09:35:05.67Z</time></trkpt><trkpt lat="45.5562606" lon="11.1178425"><ele>749.0</ele><time>2026-04-19T09:35:09.689Z</time></trkpt><trkpt lat="45.5563317" lon="11.1178105"><ele>749.0</ele><time>2026-04-19T09:35:14.694Z</time></trkpt><trkpt lat="45.5563923" lon="11.1177726"><ele>749.0</ele><time>2026-04-19T09:35:19.675Z</time></trkpt><trkpt lat="45.5564543" lon="11.1177281"><ele>749.0</ele><time>2026-04-19T09:35:24.667Z</time></trkpt><trkpt lat="45.5565186" lon="11.1176794"><ele>749.0</ele><time>2026-04-19T09:35:29.665Z</time></trkpt><trkpt lat="45.5565904" lon="11.1176387"><ele>751.2857142857143</ele><time>2026-04-19T09:35:34.658Z</time></trkpt><trkpt lat="45.5566507" lon="11.1175735"><ele>753.5714285714286</ele><time>2026-04-19T09:35:39.684Z</time></trkpt><trkpt lat="45.5566965" lon="11.1175044"><ele>755.8571428571429</ele><time>2026-04-19T09:35:44.677Z</time></trkpt><trkpt lat="45.5567477" lon="11.1175595"><ele>758.1428571428571</ele><time>2026-04-19T09:35:51.584Z</time></trkpt><trkpt lat="45.5567032" lon="11.1176274"><ele>760.4285714285714</ele><time>2026-04-19T09:35:56.586Z</time></trkpt><trkpt lat="45.5566648" lon="11.1177053"><ele>762.7142857142858</ele><time>2026-04-19T09:36:01.588Z</time></trkpt><trkpt lat="45.5566285" lon="11.1177882"><ele>765.0</ele><time>2026-04-19T09:36:06.583Z</time></trkpt><trkpt lat="45.5565938" lon="11.117876"><ele>765.0</ele><time>2026-04-19T09:36:10.582Z</time></trkpt><trkpt lat="45.5565336" lon="11.1179264"><ele>765.0</ele><time>2026-04-19T09:36:15.588Z</time></trkpt><trkpt lat="45.5564932" lon="11.118001"><ele>765.0</ele><time>2026-04-19T09:36:19.653Z</time></trkpt><trkpt lat="45.55644" lon="11.1180817"><ele>765.0</ele><time>2026-04-19T09:36:23.665Z</time></trkpt><trkpt lat="45.556396" lon="11.1181577"><ele>765.0</ele><time>2026-04-19T09:36:26.696Z</time></trkpt><trkpt lat="45.5563496" lon="11.1182403"><ele>765.0</ele><time>2026-04-19T09:36:29.574Z</time></trkpt><trkpt lat="45.5562766" lon="11.1183602"><ele>765.1428571428572</ele><time>2026-04-19T09:36:33.678Z</time></trkpt><trkpt lat="45.5562263" lon="11.118442"><ele>765.2857142857143</ele><time>2026-04-19T09:36:36.679Z</time></trkpt><trkpt lat="45.5561754" lon="11.1185166"><ele>765.4285714285714</ele><time>2026-04-19T09:36:39.693Z</time></trkpt><trkpt lat="45.5561285" lon="11.1185885"><ele>765.5714285714287</ele><time>2026-04-19T09:36:42.667Z</time></trkpt><trkpt lat="45.5560837" lon="11.1186664"><ele>765.7142857142857</ele><time>2026-04-19T09:36:45.667Z</time></trkpt><trkpt lat="45.5560391" lon="11.1187432"><ele>765.8571428571429</ele><time>2026-04-19T09:36:48.67Z</time></trkpt><trkpt lat="45.5559921" lon="11.1188317"><ele>766.0</ele><time>2026-04-19T09:36:51.711Z</time></trkpt><trkpt lat="45.5559528" lon="11.1189169"><ele>766.0</ele><time>2026-04-19T09:36:54.686Z</time></trkpt><trkpt lat="45.5559169" lon="11.1190001"><ele>766.0</ele><time>2026-04-19T09:36:57.687Z</time></trkpt><trkpt lat="45.555881" lon="11.1190792"><ele>766.0</ele><time>2026-04-19T09:37:00.693Z</time></trkpt><trkpt lat="45.5558338" lon="11.1191598"><ele>766.0</ele><time>2026-04-19T09:37:03.668Z</time></trkpt><trkpt lat="45.5557936" lon="11.119235"><ele>766.0</ele><time>2026-04-19T09:37:06.668Z</time></trkpt><trkpt lat="45.5558164" lon="11.1193244"><ele>766.0</ele><time>2026-04-19T09:37:10.666Z</time></trkpt><trkpt lat="45.5558831" lon="11.1193225"><ele>766.0</ele><time>2026-04-19T09:37:17.672Z</time></trkpt><trkpt lat="45.5559124" lon="11.1192351"><ele>766.7142857142857</ele><time>2026-04-19T09:37:52.577Z</time></trkpt><trkpt lat="45.5558926" lon="11.1191452"><ele>767.4285714285713</ele><time>2026-04-19T09:50:07.591Z</time></trkpt><trkpt lat="45.555934" lon="11.1192205"><ele>768.1428571428571</ele><time>2026-04-19T09:58:41.579Z</time></trkpt><trkpt lat="45.5558739" lon="11.1192574"><ele>768.8571428571429</ele><time>2026-04-19T09:59:16.576Z</time></trkpt><trkpt lat="45.5558686" lon="11.1193627"><ele>769.5714285714286</ele><time>2026-04-19T09:59:39.592Z</time></trkpt><trkpt lat="45.5558853" lon="11.119452"><ele>770.2857142857143</ele><time>2026-04-19T09:59:44.588Z</time></trkpt><trkpt lat="45.5559579" lon="11.1194747"><ele>771.0</ele><time>2026-04-19T09:59:50.67Z</time></trkpt><trkpt lat="45.5560245" lon="11.1194583"><ele>771.0</ele><time>2026-04-19T09:59:55.576Z</time></trkpt><trkpt lat="45.5560938" lon="11.1194083"><ele>771.0</ele><time>2026-04-19T10:00:00.676Z</time></trkpt><trkpt lat="45.5561384" lon="11.1193387"><ele>771.0</ele><time>2026-04-19T10:00:04.574Z</time></trkpt><trkpt lat="45.5562156" lon="11.1192712"><ele>771.0</ele><time>2026-04-19T10:00:10.577Z</time></trkpt><trkpt lat="45.556273" lon="11.1192088"><ele>771.0</ele><time>2026-04-19T10:00:15.675Z</time></trkpt><trkpt lat="45.5563341" lon="11.1191607"><ele>771.0</ele><time>2026-04-19T10:00:20.58Z</time></trkpt><trkpt lat="45.5563925" lon="11.1191095"><ele>771.0</ele><time>2026-04-19T10:00:25.587Z</time></trkpt><trkpt lat="45.5564408" lon="11.1190506"><ele>772.1428571428572</ele><time>2026-04-19T10:00:30.702Z</time></trkpt><trkpt lat="45.5564995" lon="11.1190027"><ele>773.2857142857142</ele><time>2026-04-19T10:00:35.576Z</time></trkpt><trkpt lat="45.5565511" lon="11.118948"><ele>774.4285714285714</ele><time>2026-04-19T10:00:40.574Z</time></trkpt><trkpt lat="45.5566078" lon="11.1188924"><ele>775.5714285714287</ele><time>2026-04-19T10:00:45.573Z</time></trkpt><trkpt lat="45.5566725" lon="11.1188589"><ele>776.7142857142858</ele><time>2026-04-19T10:00:50.573Z</time></trkpt><trkpt lat="45.5567331" lon="11.1188315"><ele>777.8571428571429</ele><time>2026-04-19T10:00:55.585Z</time></trkpt><trkpt lat="45.5567948" lon="11.1187911"><ele>779.0</ele><time>2026-04-19T10:01:01.578Z</time></trkpt><trkpt lat="45.5568526" lon="11.1187465"><ele>779.0000000000001</ele><time>2026-04-19T10:01:07.577Z</time></trkpt><trkpt lat="45.5569171" lon="11.1187202"><ele>779.0</ele><time>2026-04-19T10:01:13.57Z</time></trkpt><trkpt lat="45.5569802" lon="11.1186788"><ele>779.0</ele><time>2026-04-19T10:01:19.586Z</time></trkpt><trkpt lat="45.5570442" lon="11.1186398"><ele>779.0</ele><time>2026-04-19T10:01:25.58Z</time></trkpt><trkpt lat="45.5571071" lon="11.1185975"><ele>779.0</ele><time>2026-04-19T10:01:31.579Z</time></trkpt><trkpt lat="45.5571749" lon="11.118559"><ele>779.0000000000001</ele><time>2026-04-19T10:01:37.582Z</time></trkpt><trkpt lat="45.557235" lon="11.1185259"><ele>779.0</ele><time>2026-04-19T10:01:43.668Z</time></trkpt><trkpt lat="45.5573012" lon="11.1184914"><ele>781.4285714285714</ele><time>2026-04-19T10:01:49.679Z</time></trkpt><trkpt lat="45.5573613" lon="11.1184559"><ele>783.8571428571429</ele><time>2026-04-19T10:01:54.574Z</time></trkpt><trkpt lat="45.5574332" lon="11.1184369"><ele>786.2857142857142</ele><time>2026-04-19T10:02:00.579Z</time></trkpt><trkpt lat="45.5575032" lon="11.1184319"><ele>788.7142857142858</ele><time>2026-04-19T10:02:06.657Z</time></trkpt><trkpt lat="45.5575709" lon="11.1184557"><ele>791.1428571428571</ele><time>2026-04-19T10:02:12.577Z</time></trkpt><trkpt lat="45.5576344" lon="11.1184523"><ele>793.5714285714286</ele><time>2026-04-19T10:02:18.659Z</time></trkpt><trkpt lat="45.5576948" lon="11.118415"><ele>796.0</ele><time>2026-04-19T10:02:24.659Z</time></trkpt><trkpt lat="45.5577512" lon="11.1183562"><ele>795.9999999999999</ele><time>2026-04-19T10:02:31.588Z</time></trkpt><trkpt lat="45.5578133" lon="11.1183368"><ele>796.0</ele><time>2026-04-19T10:02:37.587Z</time></trkpt><trkpt lat="45.557879" lon="11.118322"><ele>796.0</ele><time>2026-04-19T10:02:45.581Z</time></trkpt><trkpt lat="45.5579392" lon="11.1182873"><ele>796.0</ele><time>2026-04-19T10:02:52.574Z</time></trkpt><trkpt lat="45.5580027" lon="11.1182794"><ele>796.0</ele><time>2026-04-19T10:02:59.586Z</time></trkpt><trkpt lat="45.5580732" lon="11.1182559"><ele>795.9999999999999</ele><time>2026-04-19T10:03:07.58Z</time></trkpt><trkpt lat="45.5581453" lon="11.1182478"><ele>796.0</ele><time>2026-04-19T10:03:15.585Z</time></trkpt><trkpt lat="45.5582123" lon="11.1182463"><ele>796.1428571428571</ele><time>2026-04-19T10:03:22.585Z</time></trkpt><trkpt lat="45.5582818" lon="11.1182214"><ele>796.2857142857142</ele><time>2026-04-19T10:03:29.583Z</time></trkpt><trkpt lat="45.5583482" lon="11.1182149"><ele>796.4285714285713</ele><time>2026-04-19T10:03:36.597Z</time></trkpt><trkpt lat="45.5584166" lon="11.1181877"><ele>796.5714285714286</ele><time>2026-04-19T10:03:43.584Z</time></trkpt><trkpt lat="45.5584833" lon="11.1181937"><ele>796.7142857142858</ele><time>2026-04-19T10:03:50.581Z</time></trkpt><trkpt lat="45.5585523" lon="11.1181744"><ele>796.8571428571428</ele><time>2026-04-19T10:03:58.58Z</time></trkpt><trkpt lat="45.5586171" lon="11.1181259"><ele>797.0</ele><time>2026-04-19T10:04:05.586Z</time></trkpt><trkpt lat="45.5586821" lon="11.1181208"><ele>799.1428571428571</ele><time>2026-04-19T10:04:12.689Z</time></trkpt><trkpt lat="45.5587491" lon="11.1180797"><ele>801.2857142857143</ele><time>2026-04-19T10:04:20.58Z</time></trkpt><trkpt lat="45.5588099" lon="11.1180458"><ele>803.4285714285714</ele><time>2026-04-19T10:04:58.674Z</time></trkpt><trkpt lat="45.5588842" lon="11.1180421"><ele>805.5714285714286</ele><time>2026-04-19T10:05:03.698Z</time></trkpt><trkpt lat="45.5589576" lon="11.1180288"><ele>807.7142857142858</ele><time>2026-04-19T10:05:07.578Z</time></trkpt><trkpt lat="45.5590387" lon="11.1180096"><ele>809.8571428571429</ele><time>2026-04-19T10:05:11.688Z</time></trkpt><trkpt lat="45.5591012" lon="11.1179976"><ele>812.0</ele><time>2026-04-19T10:05:14.697Z</time></trkpt><trkpt lat="45.5591653" lon="11.1180037"><ele>812.0</ele><time>2026-04-19T10:05:17.591Z</time></trkpt><trkpt lat="45.5592286" lon="11.1180318"><ele>812.0</ele><time>2026-04-19T10:05:20.689Z</time></trkpt><trkpt lat="45.5592933" lon="11.1180556"><ele>812.0</ele><time>2026-04-19T10:05:23.578Z</time></trkpt><trkpt lat="45.5593663" lon="11.1180673"><ele>812.0</ele><time>2026-04-19T10:05:27.692Z</time></trkpt><trkpt lat="45.5594249" lon="11.1180095"><ele>812.0</ele><time>2026-04-19T10:05:31.586Z</time></trkpt><trkpt lat="45.5594934" lon="11.1180315"><ele>812.0</ele><time>2026-04-19T10:05:35.688Z</time></trkpt><trkpt lat="45.5595553" lon="11.1180541"><ele>812.0</ele><time>2026-04-19T10:05:40.581Z</time></trkpt><trkpt lat="45.5596153" lon="11.1180922"><ele>812.2857142857143</ele><time>2026-04-19T10:05:45.674Z</time></trkpt><trkpt lat="45.5596895" lon="11.1181469"><ele>812.5714285714286</ele><time>2026-04-19T10:05:52.581Z</time></trkpt><trkpt lat="45.5597489" lon="11.1181955"><ele>812.8571428571429</ele><time>2026-04-19T10:05:58.577Z</time></trkpt><trkpt lat="45.5598128" lon="11.1182542"><ele>813.1428571428571</ele><time>2026-04-19T10:06:04.584Z</time></trkpt><trkpt lat="45.5598633" lon="11.1183257"><ele>813.4285714285714</ele><time>2026-04-19T10:06:09.584Z</time></trkpt><trkpt lat="45.559933" lon="11.1183682"><ele>813.7142857142858</ele><time>2026-04-19T10:06:15.582Z</time></trkpt><trkpt lat="45.5599806" lon="11.1184468"><ele>814.0</ele><time>2026-04-19T10:06:23.584Z</time></trkpt><trkpt lat="45.5599751" lon="11.1185575"><ele>817.2857142857143</ele><time>2026-04-19T10:06:32.584Z</time></trkpt><trkpt lat="45.5599559" lon="11.1186446"><ele>820.5714285714286</ele><time>2026-04-19T10:06:37.657Z</time></trkpt><trkpt lat="45.55993" lon="11.1187455"><ele>823.8571428571429</ele><time>2026-04-19T10:06:44.571Z</time></trkpt><trkpt lat="45.5598837" lon="11.118808"><ele>827.1428571428571</ele><time>2026-04-19T10:06:49.586Z</time></trkpt><trkpt lat="45.5598679" lon="11.1188974"><ele>830.4285714285714</ele><time>2026-04-19T10:06:56.659Z</time></trkpt><trkpt lat="45.5598604" lon="11.1189938"><ele>833.7142857142858</ele><time>2026-04-19T10:07:02.577Z</time></trkpt><trkpt lat="45.559875" lon="11.119088"><ele>837.0</ele><time>2026-04-19T10:07:08.588Z</time></trkpt><trkpt lat="45.5598465" lon="11.1191811"><ele>839.5714285714286</ele><time>2026-04-19T10:07:15.681Z</time></trkpt><trkpt lat="45.5598516" lon="11.119274"><ele>842.1428571428571</ele><time>2026-04-19T10:07:23.688Z</time></trkpt><trkpt lat="45.5598728" lon="11.1193673"><ele>844.7142857142858</ele><time>2026-04-19T10:07:30.58Z</time></trkpt><trkpt lat="45.5598946" lon="11.119463"><ele>847.2857142857142</ele><time>2026-04-19T10:07:35.587Z</time></trkpt><trkpt lat="45.5599268" lon="11.119546"><ele>849.8571428571428</ele><time>2026-04-19T10:07:40.676Z</time></trkpt><trkpt lat="45.559961" lon="11.1196291"><ele>852.4285714285714</ele><time>2026-04-19T10:07:48.582Z</time></trkpt><trkpt lat="45.5600026" lon="11.1197175"><ele>855.0</ele><time>2026-04-19T10:07:53.585Z</time></trkpt><trkpt lat="45.5600427" lon="11.1197898"><ele>855.0</ele><time>2026-04-19T10:07:59.589Z</time></trkpt><trkpt lat="45.5601003" lon="11.1198538"><ele>855.0</ele><time>2026-04-19T10:08:05.581Z</time></trkpt><trkpt lat="45.5601457" lon="11.1199516"><ele>855.0</ele><time>2026-04-19T10:08:12.593Z</time></trkpt><trkpt lat="45.5601881" lon="11.1200304"><ele>855.0</ele><time>2026-04-19T10:08:18.689Z</time></trkpt><trkpt lat="45.560244" lon="11.1200758"><ele>855.0</ele><time>2026-04-19T10:08:25.578Z</time></trkpt><trkpt lat="45.5603028" lon="11.120129"><ele>855.0</ele><time>2026-04-19T10:08:31.578Z</time></trkpt><trkpt lat="45.5603548" lon="11.1201811"><ele>855.0</ele><time>2026-04-19T10:08:38.581Z</time></trkpt><trkpt lat="45.5604147" lon="11.1202165"><ele>858.0</ele><time>2026-04-19T10:08:46.687Z</time></trkpt><trkpt lat="45.5604788" lon="11.1202192"><ele>861.0</ele><time>2026-04-19T10:08:51.578Z</time></trkpt><trkpt lat="45.5605413" lon="11.1202355"><ele>864.0</ele><time>2026-04-19T10:08:57.581Z</time></trkpt><trkpt lat="45.5606149" lon="11.1202401"><ele>867.0</ele><time>2026-04-19T10:09:06.588Z</time></trkpt><trkpt lat="45.5606764" lon="11.1202762"><ele>870.0</ele><time>2026-04-19T10:09:10.58Z</time></trkpt><trkpt lat="45.5607425" lon="11.1203051"><ele>873.0</ele><time>2026-04-19T10:09:15.582Z</time></trkpt><trkpt lat="45.5608226" lon="11.1202905"><ele>876.0</ele><time>2026-04-19T10:09:22.704Z</time></trkpt><trkpt lat="45.5608869" lon="11.1203095"><ele>876.0</ele><time>2026-04-19T10:09:28.578Z</time></trkpt><trkpt lat="45.5609605" lon="11.1203278"><ele>876.0</ele><time>2026-04-19T10:09:34.589Z</time></trkpt><trkpt lat="45.5610309" lon="11.1203195"><ele>876.0</ele><time>2026-04-19T10:09:40.578Z</time></trkpt><trkpt lat="45.5611055" lon="11.1203058"><ele>876.0</ele><time>2026-04-19T10:09:46.584Z</time></trkpt><trkpt lat="45.5611707" lon="11.120283"><ele>876.0</ele><time>2026-04-19T10:09:51.664Z</time></trkpt><trkpt lat="45.5612393" lon="11.120243"><ele>876.0</ele><time>2026-04-19T10:09:56.661Z</time></trkpt><trkpt lat="45.5613002" lon="11.1201807"><ele>876.0</ele><time>2026-04-19T10:10:01.683Z</time></trkpt><trkpt lat="45.5613651" lon="11.1201522"><ele>877.1666666666666</ele><time>2026-04-19T10:10:05.657Z</time></trkpt><trkpt lat="45.5614316" lon="11.1201199"><ele>878.3333333333333</ele><time>2026-04-19T10:10:10.714Z</time></trkpt><trkpt lat="45.5614939" lon="11.1200776"><ele>879.5</ele><time>2026-04-19T10:10:14.664Z</time></trkpt><trkpt lat="45.5615886" lon="11.1200388"><ele>880.6666666666666</ele><time>2026-04-19T10:10:19.584Z</time></trkpt><trkpt lat="45.5616578" lon="11.1199888"><ele>881.8333333333333</ele><time>2026-04-19T10:10:23.58Z</time></trkpt><trkpt lat="45.5617209" lon="11.1199388"><ele>883.0</ele><time>2026-04-19T10:10:27.579Z</time></trkpt><trkpt lat="45.5617858" lon="11.1199065"><ele>881.7142857142858</ele><time>2026-04-19T10:10:31.635Z</time></trkpt><trkpt lat="45.5618507" lon="11.1198993"><ele>880.4285714285713</ele><time>2026-04-19T10:10:35.683Z</time></trkpt><trkpt lat="45.5619229" lon="11.119852"><ele>879.1428571428571</ele><time>2026-04-19T10:10:40.579Z</time></trkpt><trkpt lat="45.561981" lon="11.1198089"><ele>877.8571428571429</ele><time>2026-04-19T10:10:44.58Z</time></trkpt><trkpt lat="45.5620522" lon="11.119777"><ele>876.5714285714287</ele><time>2026-04-19T10:10:49.583Z</time></trkpt><trkpt lat="45.5621112" lon="11.1197453"><ele>875.2857142857142</ele><time>2026-04-19T10:10:53.579Z</time></trkpt><trkpt lat="45.5621738" lon="11.1197232"><ele>874.0</ele><time>2026-04-19T10:10:57.572Z</time></trkpt><trkpt lat="45.5622475" lon="11.1197176"><ele>874.0</ele><time>2026-04-19T10:11:02.581Z</time></trkpt><trkpt lat="45.5623036" lon="11.1197735"><ele>874.0</ele><time>2026-04-19T10:11:07.584Z</time></trkpt><trkpt lat="45.5623256" lon="11.1198626"><ele>874.0</ele><time>2026-04-19T10:11:11.585Z</time></trkpt><trkpt lat="45.5622888" lon="11.1199458"><ele>874.0</ele><time>2026-04-19T10:11:34.578Z</time></trkpt><trkpt lat="45.5623157" lon="11.1198553"><ele>874.0</ele><time>2026-04-19T10:14:41.585Z</time></trkpt><trkpt lat="45.562299" lon="11.1197549"><ele>874.0</ele><time>2026-04-19T10:31:51.394Z</time></trkpt><trkpt lat="45.5623484" lon="11.1196986"><ele>874.0</ele><time>2026-04-19T10:31:54.59Z</time></trkpt><trkpt lat="45.5623952" lon="11.1196199"><ele>874.0</ele><time>2026-04-19T10:31:58.586Z</time></trkpt><trkpt lat="45.5624678" lon="11.1195929"><ele>874.0</ele><time>2026-04-19T10:32:03.584Z</time></trkpt><trkpt lat="45.5625284" lon="11.1195652"><ele>874.0</ele><time>2026-04-19T10:32:07.585Z</time></trkpt><trkpt lat="45.5625948" lon="11.1195496"><ele>874.0</ele><time>2026-04-19T10:32:11.582Z</time></trkpt><trkpt lat="45.5626637" lon="11.1195096"><ele>874.0</ele><time>2026-04-19T10:32:15.579Z</time></trkpt><trkpt lat="45.5627264" lon="11.1194977"><ele>874.0</ele><time>2026-04-19T10:32:18.583Z</time></trkpt><trkpt lat="45.5628214" lon="11.1195422"><ele>874.0</ele><time>2026-04-19T10:32:23.584Z</time></trkpt><trkpt lat="45.5628847" lon="11.1195471"><ele>876.0</ele><time>2026-04-19T10:32:29.596Z</time></trkpt><trkpt lat="45.5629518" lon="11.119532"><ele>878.0</ele><time>2026-04-19T10:32:34.595Z</time></trkpt><trkpt lat="45.5630199" lon="11.1195242"><ele>880.0</ele><time>2026-04-19T10:32:39.585Z</time></trkpt><trkpt lat="45.5630816" lon="11.1194746"><ele>882.0</ele><time>2026-04-19T10:32:44.588Z</time></trkpt><trkpt lat="45.563148" lon="11.1194406"><ele>884.0</ele><time>2026-04-19T10:32:50.587Z</time></trkpt><trkpt lat="45.5632204" lon="11.1194088"><ele>886.0</ele><time>2026-04-19T10:32:55.582Z</time></trkpt><trkpt lat="45.56328" lon="11.1193549"><ele>888.0</ele><time>2026-04-19T10:33:00.716Z</time></trkpt><trkpt lat="45.5633259" lon="11.1192748"><ele>888.0</ele><time>2026-04-19T10:33:05.677Z</time></trkpt><trkpt lat="45.5633706" lon="11.1192101"><ele>888.0</ele><time>2026-04-19T10:33:09.685Z</time></trkpt><trkpt lat="45.5634298" lon="11.119144"><ele>888.0</ele><time>2026-04-19T10:33:15.576Z</time></trkpt><trkpt lat="45.5634954" lon="11.1191115"><ele>888.0</ele><time>2026-04-19T10:33:20.594Z</time></trkpt><trkpt lat="45.5635585" lon="11.1190871"><ele>888.0</ele><time>2026-04-19T10:33:25.689Z</time></trkpt><trkpt lat="45.5636247" lon="11.1190386"><ele>888.0</ele><time>2026-04-19T10:33:31.586Z</time></trkpt><trkpt lat="45.5636932" lon="11.119008"><ele>888.0</ele><time>2026-04-19T10:33:36.705Z</time></trkpt><trkpt lat="45.5637674" lon="11.1190094"><ele>888.0</ele><time>2026-04-19T10:33:41.596Z</time></trkpt><trkpt lat="45.5637374" lon="11.1191085"><ele>888.0</ele><time>2026-04-19T10:33:47.684Z</time></trkpt><trkpt lat="45.5636884" lon="11.1191829"><ele>888.0</ele><time>2026-04-19T10:33:52.588Z</time></trkpt><trkpt lat="45.5636496" lon="11.1192716"><ele>888.0</ele><time>2026-04-19T10:33:57.699Z</time></trkpt><trkpt lat="45.5636154" lon="11.1193688"><ele>888.0</ele><time>2026-04-19T10:34:02.577Z</time></trkpt><trkpt lat="45.5635875" lon="11.119451"><ele>888.0</ele><time>2026-04-19T10:34:07.587Z</time></trkpt><trkpt lat="45.5635672" lon="11.1195375"><ele>888.0</ele><time>2026-04-19T10:34:11.583Z</time></trkpt><trkpt lat="45.5635408" lon="11.1196247"><ele>888.0</ele><time>2026-04-19T10:34:15.588Z</time></trkpt><trkpt lat="45.5635227" lon="11.1197173"><ele>888.0</ele><time>2026-04-19T10:34:20.59Z</time></trkpt><trkpt lat="45.5634929" lon="11.1198055"><ele>888.0</ele><time>2026-04-19T10:34:25.681Z</time></trkpt><trkpt lat="45.563473" lon="11.1198955"><ele>888.0</ele><time>2026-04-19T10:34:30.582Z</time></trkpt><trkpt lat="45.5634554" lon="11.1199834"><ele>888.0</ele><time>2026-04-19T10:34:35.682Z</time></trkpt><trkpt lat="45.5634518" lon="11.1200792"><ele>888.0</ele><time>2026-04-19T10:34:40.583Z</time></trkpt><trkpt lat="45.5634367" lon="11.120167"><ele>888.0</ele><time>2026-04-19T10:34:44.686Z</time></trkpt><trkpt lat="45.5634359" lon="11.1202622"><ele>890.1428571428571</ele><time>2026-04-19T10:34:48.682Z</time></trkpt><trkpt lat="45.5634368" lon="11.1203685"><ele>892.2857142857143</ele><time>2026-04-19T10:34:53.717Z</time></trkpt><trkpt lat="45.5634465" lon="11.1204643"><ele>894.4285714285714</ele><time>2026-04-19T10:34:58.657Z</time></trkpt><trkpt lat="45.5634649" lon="11.120554"><ele>896.5714285714286</ele><time>2026-04-19T10:35:02.677Z</time></trkpt><trkpt lat="45.5634909" lon="11.1206577"><ele>898.7142857142858</ele><time>2026-04-19T10:35:07.629Z</time></trkpt><trkpt lat="45.5635186" lon="11.1207438"><ele>900.8571428571429</ele><time>2026-04-19T10:35:11.669Z</time></trkpt><trkpt lat="45.5635443" lon="11.1208283"><ele>903.0</ele><time>2026-04-19T10:35:15.709Z</time></trkpt><trkpt lat="45.5635725" lon="11.1209168"><ele>903.4285714285714</ele><time>2026-04-19T10:35:19.627Z</time></trkpt><trkpt lat="45.5636083" lon="11.1209912"><ele>903.8571428571429</ele><time>2026-04-19T10:35:23.735Z</time></trkpt><trkpt lat="45.5636691" lon="11.1210752"><ele>904.2857142857142</ele><time>2026-04-19T10:35:28.7Z</time></trkpt><trkpt lat="45.5637308" lon="11.1211301"><ele>904.7142857142857</ele><time>2026-04-19T10:35:33.617Z</time></trkpt><trkpt lat="45.5638004" lon="11.1211793"><ele>905.1428571428571</ele><time>2026-04-19T10:35:37.591Z</time></trkpt><trkpt lat="45.5638588" lon="11.1212265"><ele>905.5714285714284</ele><time>2026-04-19T10:35:41.601Z</time></trkpt><trkpt lat="45.563924" lon="11.1212735"><ele>905.9999999999999</ele><time>2026-04-19T10:35:45.59Z</time></trkpt><trkpt lat="45.5640067" lon="11.1213464"><ele>906.5</ele><time>2026-04-19T10:35:50.6Z</time></trkpt><trkpt lat="45.5640698" lon="11.1213874"><ele>907.0</ele><time>2026-04-19T10:35:54.594Z</time></trkpt><trkpt lat="45.5641376" lon="11.1214429"><ele>907.5</ele><time>2026-04-19T10:35:58.593Z</time></trkpt><trkpt lat="45.5642024" lon="11.1215039"><ele>908.0</ele><time>2026-04-19T10:36:02.586Z</time></trkpt><trkpt lat="45.5642686" lon="11.1215693"><ele>908.5</ele><time>2026-04-19T10:36:06.595Z</time></trkpt><trkpt lat="45.564358" lon="11.1216417"><ele>909.0</ele><time>2026-04-19T10:36:11.589Z</time></trkpt><trkpt lat="45.5644091" lon="11.1216963"><ele>909.0</ele><time>2026-04-19T10:36:14.593Z</time></trkpt><trkpt lat="45.5644744" lon="11.1217668"><ele>909.0</ele><time>2026-04-19T10:36:18.591Z</time></trkpt><trkpt lat="45.5645361" lon="11.1218152"><ele>909.0</ele><time>2026-04-19T10:36:22.7Z</time></trkpt><trkpt lat="45.5645992" lon="11.1218499"><ele>909.0</ele><time>2026-04-19T10:36:26.597Z</time></trkpt><trkpt lat="45.5646717" lon="11.1219125"><ele>909.0</ele><time>2026-04-19T10:36:30.689Z</time></trkpt><trkpt lat="45.5647302" lon="11.1219671"><ele>909.0</ele><time>2026-04-19T10:36:34.726Z</time></trkpt><trkpt lat="45.5647958" lon="11.1220141"><ele>909.0</ele><time>2026-04-19T10:36:38.718Z</time></trkpt><trkpt lat="45.5648653" lon="11.1220554"><ele>912.3333333333334</ele><time>2026-04-19T10:36:42.63Z</time></trkpt><trkpt lat="45.5649336" lon="11.1221024"><ele>915.6666666666667</ele><time>2026-04-19T10:36:46.598Z</time></trkpt><trkpt lat="45.565001" lon="11.1221379"><ele>919.0</ele><time>2026-04-19T10:36:49.582Z</time></trkpt><trkpt lat="45.5650894" lon="11.122186"><ele>922.3333333333334</ele><time>2026-04-19T10:36:53.595Z</time></trkpt><trkpt lat="45.5651647" lon="11.1222319"><ele>925.6666666666667</ele><time>2026-04-19T10:36:58.706Z</time></trkpt><trkpt lat="45.5652377" lon="11.1222549"><ele>929.0</ele><time>2026-04-19T10:37:02.595Z</time></trkpt><trkpt lat="45.5653159" lon="11.1222594"><ele>930.0000000000001</ele><time>2026-04-19T10:37:06.592Z</time></trkpt><trkpt lat="45.5653905" lon="11.1222727"><ele>931.0</ele><time>2026-04-19T10:37:10.587Z</time></trkpt><trkpt lat="45.5654686" lon="11.1222599"><ele>932.0</ele><time>2026-04-19T10:37:14.613Z</time></trkpt><trkpt lat="45.5655531" lon="11.1222577"><ele>933.0</ele><time>2026-04-19T10:37:18.686Z</time></trkpt><trkpt lat="45.565623" lon="11.1222556"><ele>934.0000000000001</ele><time>2026-04-19T10:37:21.667Z</time></trkpt><trkpt lat="45.5657073" lon="11.122254"><ele>935.0</ele><time>2026-04-19T10:37:25.6Z</time></trkpt><trkpt lat="45.5657809" lon="11.1222116"><ele>935.0000000000001</ele><time>2026-04-19T10:37:29.591Z</time></trkpt><trkpt lat="45.5658498" lon="11.1221823"><ele>935.0</ele><time>2026-04-19T10:37:32.69Z</time></trkpt><trkpt lat="45.5659156" lon="11.1221587"><ele>935.0000000000001</ele><time>2026-04-19T10:37:35.683Z</time></trkpt><trkpt lat="45.5659909" lon="11.1221102"><ele>935.0000000000001</ele><time>2026-04-19T10:37:39.577Z</time></trkpt><trkpt lat="45.5660679" lon="11.1220541"><ele>935.0</ele><time>2026-04-19T10:37:43.585Z</time></trkpt><trkpt lat="45.5661256" lon="11.1220003"><ele>935.0000000000001</ele><time>2026-04-19T10:37:46.585Z</time></trkpt><trkpt lat="45.5661866" lon="11.1219474"><ele>935.0000000000001</ele><time>2026-04-19T10:37:49.584Z</time></trkpt><trkpt lat="45.5662585" lon="11.1218804"><ele>935.8333333333334</ele><time>2026-04-19T10:37:53.595Z</time></trkpt><trkpt lat="45.5663288" lon="11.1217974"><ele>936.6666666666667</ele><time>2026-04-19T10:37:56.58Z</time></trkpt><trkpt lat="45.5663844" lon="11.1217422"><ele>937.5</ele><time>2026-04-19T10:37:59.588Z</time></trkpt><trkpt lat="45.5664389" lon="11.1216932"><ele>938.3333333333333</ele><time>2026-04-19T10:38:02.615Z</time></trkpt><trkpt lat="45.5665075" lon="11.1216275"><ele>939.1666666666666</ele><time>2026-04-19T10:38:06.596Z</time></trkpt><trkpt lat="45.5665743" lon="11.1215569"><ele>940.0</ele><time>2026-04-19T10:38:10.589Z</time></trkpt><trkpt lat="45.5666379" lon="11.1214938"><ele>939.9999999999999</ele><time>2026-04-19T10:38:14.669Z</time></trkpt><trkpt lat="45.5666909" lon="11.121424"><ele>940.0</ele><time>2026-04-19T10:38:17.58Z</time></trkpt><trkpt lat="45.5667554" lon="11.1213508"><ele>940.0</ele><time>2026-04-19T10:38:20.709Z</time></trkpt><trkpt lat="45.5668195" lon="11.1212865"><ele>940.0</ele><time>2026-04-19T10:38:23.59Z</time></trkpt><trkpt lat="45.5668934" lon="11.1212171"><ele>939.9999999999999</ele><time>2026-04-19T10:38:27.585Z</time></trkpt><trkpt lat="45.5669542" lon="11.1211569"><ele>940.0</ele><time>2026-04-19T10:38:30.592Z</time></trkpt><trkpt lat="45.5670194" lon="11.1210899"><ele>938.8571428571428</ele><time>2026-04-19T10:38:33.595Z</time></trkpt><trkpt lat="45.567085" lon="11.1210333"><ele>937.7142857142856</ele><time>2026-04-19T10:38:36.646Z</time></trkpt><trkpt lat="45.5671435" lon="11.1209766"><ele>936.5714285714286</ele><time>2026-04-19T10:38:39.598Z</time></trkpt><trkpt lat="45.5672067" lon="11.1209268"><ele>935.4285714285713</ele><time>2026-04-19T10:38:42.589Z</time></trkpt><trkpt lat="45.5672717" lon="11.1208747"><ele>934.2857142857142</ele><time>2026-04-19T10:38:45.601Z</time></trkpt><trkpt lat="45.5673265" lon="11.1208267"><ele>933.1428571428571</ele><time>2026-04-19T10:38:48.582Z</time></trkpt><trkpt lat="45.5673966" lon="11.1207796"><ele>932.0</ele><time>2026-04-19T10:38:52.598Z</time></trkpt><trkpt lat="45.567465" lon="11.1207321"><ele>932.0</ele><time>2026-04-19T10:38:56.592Z</time></trkpt><trkpt lat="45.5675279" lon="11.1206735"><ele>932.0</ele><time>2026-04-19T10:39:00.594Z</time></trkpt><trkpt lat="45.5675902" lon="11.1206189"><ele>932.0</ele><time>2026-04-19T10:39:04.594Z</time></trkpt><trkpt lat="45.5676458" lon="11.1205668"><ele>932.0</ele><time>2026-04-19T10:39:07.694Z</time></trkpt><trkpt lat="45.5676999" lon="11.1205108"><ele>932.0</ele><time>2026-04-19T10:39:10.602Z</time></trkpt><trkpt lat="45.5677516" lon="11.1204396"><ele>932.0</ele><time>2026-04-19T10:39:13.591Z</time></trkpt><trkpt lat="45.5678048" lon="11.1203564"><ele>932.0</ele><time>2026-04-19T10:39:17.595Z</time></trkpt><trkpt lat="45.567857" lon="11.1202873"><ele>929.5000000000001</ele><time>2026-04-19T10:39:20.595Z</time></trkpt><trkpt lat="45.5679005" lon="11.1202142"><ele>927.0</ele><time>2026-04-19T10:39:23.679Z</time></trkpt><trkpt lat="45.5679589" lon="11.1200988"><ele>924.5</ele><time>2026-04-19T10:39:31.59Z</time></trkpt><trkpt lat="45.5680031" lon="11.1200346"><ele>922.0</ele><time>2026-04-19T10:39:34.589Z</time></trkpt><trkpt lat="45.5680673" lon="11.1199387"><ele>919.5000000000001</ele><time>2026-04-19T10:39:37.59Z</time></trkpt><trkpt lat="45.5681374" lon="11.1198446"><ele>917.0</ele><time>2026-04-19T10:39:40.698Z</time></trkpt><trkpt lat="45.5681818" lon="11.1197791"><ele>917.0</ele><time>2026-04-19T10:39:42.615Z</time></trkpt><trkpt lat="45.5682307" lon="11.1197112"><ele>917.0</ele><time>2026-04-19T10:39:45.632Z</time></trkpt><trkpt lat="45.5683875" lon="11.1197539"><ele>917.0</ele><time>2026-04-19T10:39:49.599Z</time></trkpt><trkpt lat="45.5684901" lon="11.1197333"><ele>917.0</ele><time>2026-04-19T10:39:51.595Z</time></trkpt><trkpt lat="45.5686033" lon="11.1196561"><ele>914.8</ele><time>2026-04-19T10:39:53.706Z</time></trkpt><trkpt lat="45.5687403" lon="11.1195697"><ele>912.6</ele><time>2026-04-19T10:39:55.591Z</time></trkpt><trkpt lat="45.5688133" lon="11.1195274"><ele>910.3999999999999</ele><time>2026-04-19T10:39:56.6Z</time></trkpt><trkpt lat="45.5688859" lon="11.1194858"><ele>908.1999999999999</ele><time>2026-04-19T10:39:57.6Z</time></trkpt><trkpt lat="45.5689601" lon="11.1194507"><ele>906.0</ele><time>2026-04-19T10:39:58.597Z</time></trkpt><trkpt lat="45.5690399" lon="11.1194111"><ele>906.0</ele><time>2026-04-19T10:39:59.592Z</time></trkpt><trkpt lat="45.5691258" lon="11.1193767"><ele>906.0</ele><time>2026-04-19T10:40:00.595Z</time></trkpt><trkpt lat="45.5692044" lon="11.1193548"><ele>906.0</ele><time>2026-04-19T10:40:01.593Z</time></trkpt><trkpt lat="45.5692887" lon="11.1193377"><ele>906.0</ele><time>2026-04-19T10:40:02.604Z</time></trkpt><trkpt lat="45.5693787" lon="11.1193452"><ele>906.0</ele><time>2026-04-19T10:40:03.603Z</time></trkpt><trkpt lat="45.5694772" lon="11.1193699"><ele>906.0</ele><time>2026-04-19T10:40:04.599Z</time></trkpt><trkpt lat="45.5695771" lon="11.1194028"><ele>904.5999999999999</ele><time>2026-04-19T10:40:05.601Z</time></trkpt><trkpt lat="45.5696765" lon="11.1194382"><ele>903.1999999999999</ele><time>2026-04-19T10:40:06.608Z</time></trkpt><trkpt lat="45.5697877" lon="11.1194682"><ele>901.8000000000001</ele><time>2026-04-19T10:40:07.6Z</time></trkpt><trkpt lat="45.5698959" lon="11.1195005"><ele>900.4000000000001</ele><time>2026-04-19T10:40:08.599Z</time></trkpt><trkpt lat="45.5700017" lon="11.1195427"><ele>899.0</ele><time>2026-04-19T10:40:09.599Z</time></trkpt><trkpt lat="45.5701097" lon="11.1195837"><ele>899.0</ele><time>2026-04-19T10:40:10.608Z</time></trkpt><trkpt lat="45.5702153" lon="11.1196179"><ele>899.0000000000001</ele><time>2026-04-19T10:40:11.605Z</time></trkpt><trkpt lat="45.5703127" lon="11.1196607"><ele>899.0000000000001</ele><time>2026-04-19T10:40:12.596Z</time></trkpt><trkpt lat="45.5704095" lon="11.1196915"><ele>899.0</ele><time>2026-04-19T10:40:13.686Z</time></trkpt><trkpt lat="45.5704953" lon="11.1197264"><ele>899.0</ele><time>2026-04-19T10:40:14.682Z</time></trkpt><trkpt lat="45.5705777" lon="11.1197586"><ele>898.8000000000001</ele><time>2026-04-19T10:40:15.592Z</time></trkpt><trkpt lat="45.5706578" lon="11.1197893"><ele>898.6000000000001</ele><time>2026-04-19T10:40:16.596Z</time></trkpt><trkpt lat="45.5707232" lon="11.1198172"><ele>898.4</ele><time>2026-04-19T10:40:17.586Z</time></trkpt><trkpt lat="45.5707849" lon="11.1198416"><ele>898.2</ele><time>2026-04-19T10:40:18.612Z</time></trkpt><trkpt lat="45.5708998" lon="11.1198901"><ele>898.0</ele><time>2026-04-19T10:40:20.703Z</time></trkpt><trkpt lat="45.5710101" lon="11.1200109"><ele>898.0</ele><time>2026-04-19T10:40:23.595Z</time></trkpt><trkpt lat="45.5711061" lon="11.1200946"><ele>898.0</ele><time>2026-04-19T10:40:26.587Z</time></trkpt><trkpt lat="45.5711742" lon="11.1201446"><ele>898.0</ele><time>2026-04-19T10:40:28.584Z</time></trkpt><trkpt lat="45.5713083" lon="11.1202154"><ele>898.0</ele><time>2026-04-19T10:40:31.579Z</time></trkpt><trkpt lat="45.5714113" lon="11.1202325"><ele>898.0</ele><time>2026-04-19T10:40:33.594Z</time></trkpt><trkpt lat="45.5715171" lon="11.1202549"><ele>898.75</ele><time>2026-04-19T10:40:35.601Z</time></trkpt><trkpt lat="45.57162" lon="11.1202514"><ele>899.5</ele><time>2026-04-19T10:40:37.723Z</time></trkpt><trkpt lat="45.5717379" lon="11.1202519"><ele>900.25</ele><time>2026-04-19T10:40:39.601Z</time></trkpt><trkpt lat="45.5719173" lon="11.1202472"><ele>901.0</ele><time>2026-04-19T10:40:42.587Z</time></trkpt><trkpt lat="45.5720348" lon="11.1202122"><ele>899.5999999999999</ele><time>2026-04-19T10:40:44.589Z</time></trkpt><trkpt lat="45.5721476" lon="11.1201718"><ele>898.1999999999999</ele><time>2026-04-19T10:40:46.631Z</time></trkpt><trkpt lat="45.572234" lon="11.1201518"><ele>896.8000000000001</ele><time>2026-04-19T10:40:48.68Z</time></trkpt><trkpt lat="45.5723411" lon="11.12013"><ele>895.4000000000001</ele><time>2026-04-19T10:40:50.587Z</time></trkpt><trkpt lat="45.5724263" lon="11.1201264"><ele>894.0</ele><time>2026-04-19T10:40:52.589Z</time></trkpt><trkpt lat="45.5724932" lon="11.1201189"><ele>894.0</ele><time>2026-04-19T10:40:54.597Z</time></trkpt><trkpt lat="45.5726134" lon="11.120118"><ele>894.0</ele><time>2026-04-19T10:40:58.594Z</time></trkpt><trkpt lat="45.5726765" lon="11.1201487"><ele>894.0</ele><time>2026-04-19T10:41:00.701Z</time></trkpt><trkpt lat="45.5727449" lon="11.1201721"><ele>894.0</ele><time>2026-04-19T10:41:02.583Z</time></trkpt><trkpt lat="45.5728321" lon="11.120195"><ele>894.0</ele><time>2026-04-19T10:41:05.731Z</time></trkpt><trkpt lat="45.5729075" lon="11.120222"><ele>894.0</ele><time>2026-04-19T10:41:08.591Z</time></trkpt><trkpt lat="45.5729809" lon="11.1202485"><ele>893.9999999999999</ele><time>2026-04-19T10:41:11.594Z</time></trkpt><trkpt lat="45.573053" lon="11.1202608"><ele>894.0</ele><time>2026-04-19T10:41:14.599Z</time></trkpt><trkpt lat="45.5731216" lon="11.1202801"><ele>894.0</ele><time>2026-04-19T10:41:17.596Z</time></trkpt><trkpt lat="45.5731875" lon="11.120319"><ele>894.0</ele><time>2026-04-19T10:41:20.6Z</time></trkpt><trkpt lat="45.573252" lon="11.1203543"><ele>894.0</ele><time>2026-04-19T10:41:23.707Z</time></trkpt><trkpt lat="45.5733114" lon="11.1203883"><ele>893.9999999999999</ele><time>2026-04-19T10:41:26.592Z</time></trkpt><trkpt lat="45.5733855" lon="11.1203832"><ele>894.0</ele><time>2026-04-19T10:41:30.589Z</time></trkpt><trkpt lat="45.5734511" lon="11.1204282"><ele>893.9999999999999</ele><time>2026-04-19T10:41:34.592Z</time></trkpt><trkpt lat="45.5734975" lon="11.1205111"><ele>894.0</ele><time>2026-04-19T10:41:39.604Z</time></trkpt><trkpt lat="45.5734772" lon="11.1204098"><ele>894.0</ele><time>2026-04-19T10:41:43.684Z</time></trkpt><trkpt lat="45.5734895" lon="11.1203047"><ele>894.0</ele><time>2026-04-19T10:41:47.693Z</time></trkpt><trkpt lat="45.5734668" lon="11.1202189"><ele>894.0</ele><time>2026-04-19T10:41:51.594Z</time></trkpt><trkpt lat="45.5734319" lon="11.1201311"><ele>893.9999999999999</ele><time>2026-04-19T10:41:55.586Z</time></trkpt><trkpt lat="45.5733734" lon="11.1200746"><ele>894.0</ele><time>2026-04-19T10:42:00.701Z</time></trkpt><trkpt lat="45.5733105" lon="11.1200602"><ele>893.9999999999999</ele><time>2026-04-19T10:42:05.696Z</time></trkpt><trkpt lat="45.5732442" lon="11.1200896"><ele>894.0</ele><time>2026-04-19T10:42:09.62Z</time></trkpt><trkpt lat="45.5733059" lon="11.1200508"><ele>894.0</ele><time>2026-04-19T10:42:18.672Z</time></trkpt><trkpt lat="45.5733808" lon="11.1200521"><ele>894.0</ele><time>2026-04-19T10:42:33.584Z</time></trkpt><trkpt lat="45.5734179" lon="11.1201271"><ele>894.0</ele><time>2026-04-19T10:42:38.673Z</time></trkpt><trkpt lat="45.5734129" lon="11.1202326"><ele>893.9999999999999</ele><time>2026-04-19T10:42:42.687Z</time></trkpt><trkpt lat="45.5734568" lon="11.120323"><ele>894.0</ele><time>2026-04-19T10:42:47.681Z</time></trkpt><trkpt lat="45.57347" lon="11.1204184"><ele>894.0</ele><time>2026-04-19T10:42:52.694Z</time></trkpt><trkpt lat="45.5734759" lon="11.1205186"><ele>894.0</ele><time>2026-04-19T10:42:56.688Z</time></trkpt><trkpt lat="45.5735717" lon="11.1205864"><ele>894.0</ele><time>2026-04-19T10:43:01.703Z</time></trkpt><trkpt lat="45.5736337" lon="11.1206384"><ele>894.0</ele><time>2026-04-19T10:43:04.689Z</time></trkpt><trkpt lat="45.5736961" lon="11.1206853"><ele>894.0</ele><time>2026-04-19T10:43:07.727Z</time></trkpt><trkpt lat="45.5737646" lon="11.1207523"><ele>894.0</ele><time>2026-04-19T10:43:11.59Z</time></trkpt><trkpt lat="45.5738311" lon="11.1208007"><ele>896.0</ele><time>2026-04-19T10:43:15.596Z</time></trkpt><trkpt lat="45.5738984" lon="11.1208559"><ele>898.0</ele><time>2026-04-19T10:43:19.703Z</time></trkpt><trkpt lat="45.5739682" lon="11.1209106"><ele>900.0</ele><time>2026-04-19T10:43:23.708Z</time></trkpt><trkpt lat="45.5740327" lon="11.1209557"><ele>902.0</ele><time>2026-04-19T10:43:27.692Z</time></trkpt><trkpt lat="45.5741026" lon="11.1209948"><ele>904.0000000000001</ele><time>2026-04-19T10:43:31.699Z</time></trkpt><trkpt lat="45.5741705" lon="11.1210379"><ele>906.0</ele><time>2026-04-19T10:43:35.689Z</time></trkpt><trkpt lat="45.5742347" lon="11.1210681"><ele>908.0</ele><time>2026-04-19T10:43:39.699Z</time></trkpt><trkpt lat="45.5742993" lon="11.1211404"><ele>908.0000000000001</ele><time>2026-04-19T10:43:43.656Z</time></trkpt><trkpt lat="45.5743687" lon="11.1212004"><ele>908.0</ele><time>2026-04-19T10:43:45.674Z</time></trkpt><trkpt lat="45.5744475" lon="11.1212601"><ele>908.0</ele><time>2026-04-19T10:43:47.665Z</time></trkpt><trkpt lat="45.5745312" lon="11.1213156"><ele>908.0</ele><time>2026-04-19T10:43:49.693Z</time></trkpt><trkpt lat="45.5745985" lon="11.1213461"><ele>908.0000000000001</ele><time>2026-04-19T10:43:51.584Z</time></trkpt><trkpt lat="45.5746746" lon="11.1213404"><ele>908.0</ele><time>2026-04-19T10:43:54.595Z</time></trkpt><trkpt lat="45.5747431" lon="11.1213329"><ele>909.0000000000001</ele><time>2026-04-19T10:43:57.688Z</time></trkpt><trkpt lat="45.5748373" lon="11.1213325"><ele>910.0</ele><time>2026-04-19T10:44:01.684Z</time></trkpt><trkpt lat="45.5749054" lon="11.1213295"><ele>911.0</ele><time>2026-04-19T10:44:48.691Z</time></trkpt><trkpt lat="45.5749783" lon="11.1213354"><ele>912.0</ele><time>2026-04-19T10:44:52.584Z</time></trkpt><trkpt lat="45.5750518" lon="11.1213258"><ele>913.0000000000001</ele><time>2026-04-19T10:44:56.703Z</time></trkpt><trkpt lat="45.5751319" lon="11.1213016"><ele>914.0</ele><time>2026-04-19T10:45:00.701Z</time></trkpt><trkpt lat="45.5752089" lon="11.1212853"><ele>914.0000000000001</ele><time>2026-04-19T10:45:04.689Z</time></trkpt><trkpt lat="45.5752839" lon="11.1212564"><ele>914.0</ele><time>2026-04-19T10:45:08.672Z</time></trkpt><trkpt lat="45.5753565" lon="11.1212051"><ele>914.0000000000001</ele><time>2026-04-19T10:45:12.684Z</time></trkpt><trkpt lat="45.5754245" lon="11.1211487"><ele>914.0000000000001</ele><time>2026-04-19T10:45:16.681Z</time></trkpt><trkpt lat="45.5754824" lon="11.1210886"><ele>914.0</ele><time>2026-04-19T10:45:19.67Z</time></trkpt><trkpt lat="45.5755383" lon="11.121027"><ele>914.0000000000001</ele><time>2026-04-19T10:45:22.682Z</time></trkpt><trkpt lat="45.5755917" lon="11.1209716"><ele>914.0000000000001</ele><time>2026-04-19T10:45:25.692Z</time></trkpt><trkpt lat="45.5756604" lon="11.120905"><ele>914.857142857143</ele><time>2026-04-19T10:45:29.701Z</time></trkpt><trkpt lat="45.5757149" lon="11.1208502"><ele>915.7142857142858</ele><time>2026-04-19T10:45:32.72Z</time></trkpt><trkpt lat="45.5757667" lon="11.1207945"><ele>916.5714285714286</ele><time>2026-04-19T10:45:35.672Z</time></trkpt><trkpt lat="45.5758146" lon="11.1207343"><ele>917.4285714285714</ele><time>2026-04-19T10:45:38.665Z</time></trkpt><trkpt lat="45.575864" lon="11.1206473"><ele>918.2857142857142</ele><time>2026-04-19T10:45:42.694Z</time></trkpt><trkpt lat="45.5758918" lon="11.1205645"><ele>919.142857142857</ele><time>2026-04-19T10:45:45.665Z</time></trkpt><trkpt lat="45.5759434" lon="11.1204704"><ele>919.9999999999999</ele><time>2026-04-19T10:45:49.726Z</time></trkpt><trkpt lat="45.5759845" lon="11.120399"><ele>919.9999999999999</ele><time>2026-04-19T10:45:52.697Z</time></trkpt><trkpt lat="45.5760323" lon="11.1203252"><ele>920.0</ele><time>2026-04-19T10:45:55.586Z</time></trkpt><trkpt lat="45.5760762" lon="11.1202366"><ele>919.9999999999999</ele><time>2026-04-19T10:45:58.597Z</time></trkpt><trkpt lat="45.5761185" lon="11.1201508"><ele>919.9999999999999</ele><time>2026-04-19T10:46:01.592Z</time></trkpt><trkpt lat="45.5761524" lon="11.1200699"><ele>920.0</ele><time>2026-04-19T10:46:04.589Z</time></trkpt><trkpt lat="45.5761904" lon="11.1199794"><ele>919.9999999999999</ele><time>2026-04-19T10:46:07.588Z</time></trkpt><trkpt lat="45.5762288" lon="11.1199059"><ele>919.9999999999999</ele><time>2026-04-19T10:46:10.592Z</time></trkpt><trkpt lat="45.5762783" lon="11.1198165"><ele>920.2857142857142</ele><time>2026-04-19T10:46:14.591Z</time></trkpt><trkpt lat="45.5763236" lon="11.1197406"><ele>920.5714285714286</ele><time>2026-04-19T10:46:17.676Z</time></trkpt><trkpt lat="45.5763764" lon="11.1196619"><ele>920.8571428571429</ele><time>2026-04-19T10:46:20.703Z</time></trkpt><trkpt lat="45.5764389" lon="11.1196068"><ele>921.1428571428571</ele><time>2026-04-19T10:46:23.704Z</time></trkpt><trkpt lat="45.5765015" lon="11.1195551"><ele>921.4285714285716</ele><time>2026-04-19T10:46:26.72Z</time></trkpt><trkpt lat="45.5765647" lon="11.1195036"><ele>921.7142857142858</ele><time>2026-04-19T10:46:29.714Z</time></trkpt><trkpt lat="45.5766215" lon="11.1194588"><ele>922.0</ele><time>2026-04-19T10:46:32.689Z</time></trkpt><trkpt lat="45.5766831" lon="11.1194136"><ele>922.0</ele><time>2026-04-19T10:46:35.693Z</time></trkpt><trkpt lat="45.5767428" lon="11.119375"><ele>922.0000000000001</ele><time>2026-04-19T10:46:38.592Z</time></trkpt><trkpt lat="45.5768121" lon="11.1193334"><ele>922.0</ele><time>2026-04-19T10:46:41.669Z</time></trkpt><trkpt lat="45.5768761" lon="11.1192861"><ele>922.0</ele><time>2026-04-19T10:46:44.671Z</time></trkpt><trkpt lat="45.5769467" lon="11.1192422"><ele>922.0000000000001</ele><time>2026-04-19T10:46:47.666Z</time></trkpt><trkpt lat="45.5770106" lon="11.1192105"><ele>922.0</ele><time>2026-04-19T10:46:50.644Z</time></trkpt><trkpt lat="45.5770727" lon="11.1191713"><ele>922.0</ele><time>2026-04-19T10:46:53.694Z</time></trkpt><trkpt lat="45.5771431" lon="11.1191256"><ele>922.8571428571429</ele><time>2026-04-19T10:46:57.695Z</time></trkpt><trkpt lat="45.5772177" lon="11.1190658"><ele>923.7142857142858</ele><time>2026-04-19T10:47:01.677Z</time></trkpt><trkpt lat="45.5772792" lon="11.1190173"><ele>924.5714285714287</ele><time>2026-04-19T10:47:04.704Z</time></trkpt><trkpt lat="45.5773479" lon="11.1189709"><ele>925.4285714285716</ele><time>2026-04-19T10:47:08.721Z</time></trkpt><trkpt lat="45.5774084" lon="11.1189115"><ele>926.2857142857143</ele><time>2026-04-19T10:47:12.705Z</time></trkpt><trkpt lat="45.5774704" lon="11.118856"><ele>927.1428571428573</ele><time>2026-04-19T10:47:16.696Z</time></trkpt><trkpt lat="45.5775207" lon="11.1187968"><ele>928.0000000000001</ele><time>2026-04-19T10:47:21.694Z</time></trkpt><trkpt lat="45.5775749" lon="11.118745"><ele>928.0000000000001</ele><time>2026-04-19T10:47:25.699Z</time></trkpt><trkpt lat="45.5776367" lon="11.1186784"><ele>928.0</ele><time>2026-04-19T10:47:29.71Z</time></trkpt><trkpt lat="45.577694" lon="11.1186236"><ele>928.0000000000001</ele><time>2026-04-19T10:47:33.703Z</time></trkpt><trkpt lat="45.5777451" lon="11.1185618"><ele>928.0000000000001</ele><time>2026-04-19T10:47:37.583Z</time></trkpt><trkpt lat="45.5778015" lon="11.1184988"><ele>928.0</ele><time>2026-04-19T10:47:41.59Z</time></trkpt><trkpt lat="45.5778435" lon="11.1184292"><ele>928.0000000000001</ele><time>2026-04-19T10:47:45.592Z</time></trkpt><trkpt lat="45.5779033" lon="11.1183845"><ele>928.0000000000001</ele><time>2026-04-19T10:47:50.701Z</time></trkpt><trkpt lat="45.5779607" lon="11.1183122"><ele>928.5714285714287</ele><time>2026-04-19T10:47:55.59Z</time></trkpt><trkpt lat="45.5780096" lon="11.1182446"><ele>929.1428571428571</ele><time>2026-04-19T10:47:58.592Z</time></trkpt><trkpt lat="45.5780721" lon="11.1181763"><ele>929.7142857142858</ele><time>2026-04-19T10:48:03.59Z</time></trkpt><trkpt lat="45.5781296" lon="11.1181062"><ele>930.2857142857143</ele><time>2026-04-19T10:48:08.586Z</time></trkpt><trkpt lat="45.5781704" lon="11.1180163"><ele>930.8571428571429</ele><time>2026-04-19T10:48:12.587Z</time></trkpt><trkpt lat="45.5782115" lon="11.1179375"><ele>931.4285714285714</ele><time>2026-04-19T10:48:16.674Z</time></trkpt><trkpt lat="45.5782519" lon="11.1178515"><ele>932.0</ele><time>2026-04-19T10:48:21.694Z</time></trkpt><trkpt lat="45.5783084" lon="11.1177704"><ele>932.0</ele><time>2026-04-19T10:48:25.679Z</time></trkpt><trkpt lat="45.5783623" lon="11.1176937"><ele>932.0</ele><time>2026-04-19T10:48:29.704Z</time></trkpt><trkpt lat="45.5784051" lon="11.1176207"><ele>932.0</ele><time>2026-04-19T10:48:32.589Z</time></trkpt><trkpt lat="45.5784446" lon="11.1175478"><ele>932.0</ele><time>2026-04-19T10:49:15.6Z</time></trkpt><trkpt lat="45.5785001" lon="11.1174725"><ele>932.0</ele><time>2026-04-19T10:49:20.589Z</time></trkpt><trkpt lat="45.5785693" lon="11.117399"><ele>932.0</ele><time>2026-04-19T10:49:25.603Z</time></trkpt><trkpt lat="45.5786343" lon="11.1173386"><ele>932.0</ele><time>2026-04-19T10:49:28.701Z</time></trkpt><trkpt lat="45.5786881" lon="11.1172875"><ele>932.1666666666667</ele><time>2026-04-19T10:49:31.592Z</time></trkpt><trkpt lat="45.5787641" lon="11.1172521"><ele>932.3333333333334</ele><time>2026-04-19T10:49:35.709Z</time></trkpt><trkpt lat="45.5788374" lon="11.1172155"><ele>932.5</ele><time>2026-04-19T10:49:39.594Z</time></trkpt><trkpt lat="45.5789097" lon="11.1171537"><ele>932.6666666666667</ele><time>2026-04-19T10:49:43.598Z</time></trkpt><trkpt lat="45.5789843" lon="11.11713"><ele>932.8333333333334</ele><time>2026-04-19T10:49:47.601Z</time></trkpt><trkpt lat="45.5790704" lon="11.1171107"><ele>933.0</ele><time>2026-04-19T10:49:51.593Z</time></trkpt><trkpt lat="45.579156" lon="11.1170764"><ele>933.0</ele><time>2026-04-19T10:49:55.598Z</time></trkpt><trkpt lat="45.5792282" lon="11.1170372"><ele>933.0</ele><time>2026-04-19T10:49:58.6Z</time></trkpt><trkpt lat="45.5792984" lon="11.1169844"><ele>933.0</ele><time>2026-04-19T10:50:01.703Z</time></trkpt><trkpt lat="45.5793649" lon="11.1169473"><ele>933.0</ele><time>2026-04-19T10:50:04.602Z</time></trkpt><trkpt lat="45.5794205" lon="11.1168975"><ele>933.0</ele><time>2026-04-19T10:50:07.597Z</time></trkpt><trkpt lat="45.5794996" lon="11.1168318"><ele>933.0</ele><time>2026-04-19T10:50:10.695Z</time></trkpt><trkpt lat="45.5795703" lon="11.1167933"><ele>932.5</ele><time>2026-04-19T10:50:12.693Z</time></trkpt><trkpt lat="45.5796366" lon="11.1167603"><ele>932.0</ele><time>2026-04-19T10:50:14.714Z</time></trkpt><trkpt lat="45.5797013" lon="11.1167213"><ele>931.5</ele><time>2026-04-19T10:50:16.594Z</time></trkpt><trkpt lat="45.5797652" lon="11.1166672"><ele>931.0</ele><time>2026-04-19T10:50:20.597Z</time></trkpt><trkpt lat="45.5798574" lon="11.1165759"><ele>930.5</ele><time>2026-04-19T10:50:28.606Z</time></trkpt><trkpt lat="45.5799238" lon="11.1164732"><ele>930.0</ele><time>2026-04-19T10:50:33.603Z</time></trkpt><trkpt lat="45.5799758" lon="11.1164196"><ele>930.0</ele><time>2026-04-19T10:50:37.6Z</time></trkpt><trkpt lat="45.5800328" lon="11.1163496"><ele>930.0</ele><time>2026-04-19T10:50:41.596Z</time></trkpt><trkpt lat="45.5800858" lon="11.1162768"><ele>930.0</ele><time>2026-04-19T10:50:44.604Z</time></trkpt><trkpt lat="45.5801393" lon="11.116205"><ele>930.0</ele><time>2026-04-19T10:50:47.597Z</time></trkpt><trkpt lat="45.5801876" lon="11.1161407"><ele>930.0</ele><time>2026-04-19T10:50:50.599Z</time></trkpt><trkpt lat="45.5802353" lon="11.1160684"><ele>930.0</ele><time>2026-04-19T10:50:53.67Z</time></trkpt><trkpt lat="45.5802893" lon="11.1160106"><ele>930.0</ele><time>2026-04-19T10:50:55.605Z</time></trkpt><trkpt lat="45.5803501" lon="11.1159452"><ele>930.3333333333334</ele><time>2026-04-19T10:50:57.601Z</time></trkpt><trkpt lat="45.5803958" lon="11.1158819"><ele>930.6666666666667</ele><time>2026-04-19T10:50:59.602Z</time></trkpt><trkpt lat="45.580448" lon="11.1158052"><ele>931.0</ele><time>2026-04-19T10:51:01.594Z</time></trkpt><trkpt lat="45.5805041" lon="11.1157346"><ele>931.3333333333334</ele><time>2026-04-19T10:51:03.6Z</time></trkpt><trkpt lat="45.5805758" lon="11.1156671"><ele>931.6666666666667</ele><time>2026-04-19T10:51:05.59Z</time></trkpt><trkpt lat="45.5806424" lon="11.1156048"><ele>932.0</ele><time>2026-04-19T10:51:07.593Z</time></trkpt><trkpt lat="45.5807056" lon="11.1155576"><ele>932.0000000000001</ele><time>2026-04-19T10:51:09.681Z</time></trkpt><trkpt lat="45.580792" lon="11.1155317"><ele>932.0</ele><time>2026-04-19T10:51:12.585Z</time></trkpt><trkpt lat="45.5808745" lon="11.1155142"><ele>932.0</ele><time>2026-04-19T10:51:15.597Z</time></trkpt><trkpt lat="45.5809667" lon="11.1155123"><ele>932.0</ele><time>2026-04-19T10:51:18.581Z</time></trkpt><trkpt lat="45.5810617" lon="11.1155294"><ele>932.0000000000001</ele><time>2026-04-19T10:51:21.591Z</time></trkpt><trkpt lat="45.5811246" lon="11.1155461"><ele>932.0</ele><time>2026-04-19T10:51:23.592Z</time></trkpt><trkpt lat="45.5811889" lon="11.1155574"><ele>931.8333333333334</ele><time>2026-04-19T10:51:25.597Z</time></trkpt><trkpt lat="45.5812601" lon="11.1155666"><ele>931.6666666666667</ele><time>2026-04-19T10:51:27.588Z</time></trkpt><trkpt lat="45.5813311" lon="11.1155839"><ele>931.5</ele><time>2026-04-19T10:51:29.59Z</time></trkpt><trkpt lat="45.5813975" lon="11.1155948"><ele>931.3333333333333</ele><time>2026-04-19T10:51:31.588Z</time></trkpt><trkpt lat="45.581491" lon="11.1156029"><ele>931.1666666666666</ele><time>2026-04-19T10:51:34.59Z</time></trkpt><trkpt lat="45.5815812" lon="11.1156011"><ele>931.0</ele><time>2026-04-19T10:51:37.591Z</time></trkpt><trkpt lat="45.5816554" lon="11.1156064"><ele>930.9999999999999</ele><time>2026-04-19T10:51:39.59Z</time></trkpt><trkpt lat="45.5817256" lon="11.1156049"><ele>931.0</ele><time>2026-04-19T10:51:41.589Z</time></trkpt><trkpt lat="45.5818146" lon="11.1156069"><ele>931.0</ele><time>2026-04-19T10:51:44.594Z</time></trkpt><trkpt lat="45.5819031" lon="11.1156166"><ele>931.0</ele><time>2026-04-19T10:51:47.592Z</time></trkpt><trkpt lat="45.5819868" lon="11.1156242"><ele>930.9999999999999</ele><time>2026-04-19T10:51:50.591Z</time></trkpt><trkpt lat="45.5820599" lon="11.1156375"><ele>931.0</ele><time>2026-04-19T10:51:53.594Z</time></trkpt><trkpt lat="45.5821331" lon="11.1156529"><ele>930.4999999999999</ele><time>2026-04-19T10:51:56.589Z</time></trkpt><trkpt lat="45.5822181" lon="11.1156749"><ele>930.0</ele><time>2026-04-19T10:52:00.709Z</time></trkpt><trkpt lat="45.582316" lon="11.1156909"><ele>929.5</ele><time>2026-04-19T10:52:04.711Z</time></trkpt><trkpt lat="45.5824126" lon="11.1156851"><ele>929.0</ele><time>2026-04-19T10:52:33.601Z</time></trkpt><trkpt lat="45.5824957" lon="11.1156958"><ele>928.4999999999999</ele><time>2026-04-19T10:52:38.718Z</time></trkpt><trkpt lat="45.5825795" lon="11.1156847"><ele>928.0</ele><time>2026-04-19T10:52:42.705Z</time></trkpt><trkpt lat="45.5826513" lon="11.1156677"><ele>927.9999999999999</ele><time>2026-04-19T10:52:45.693Z</time></trkpt><trkpt lat="45.5827336" lon="11.1156443"><ele>928.0</ele><time>2026-04-19T10:52:48.71Z</time></trkpt><trkpt lat="45.5827998" lon="11.1156371"><ele>928.0</ele><time>2026-04-19T10:52:51.663Z</time></trkpt><trkpt lat="45.5828837" lon="11.1156059"><ele>928.0</ele><time>2026-04-19T10:52:55.67Z</time></trkpt><trkpt lat="45.5829623" lon="11.1155859"><ele>927.9999999999999</ele><time>2026-04-19T10:52:58.683Z</time></trkpt><trkpt lat="45.5830393" lon="11.1155372"><ele>928.0</ele><time>2026-04-19T10:53:01.687Z</time></trkpt><trkpt lat="45.5831094" lon="11.1154767"><ele>927.3333333333333</ele><time>2026-04-19T10:53:04.696Z</time></trkpt><trkpt lat="45.5831638" lon="11.115428"><ele>926.6666666666666</ele><time>2026-04-19T10:53:06.706Z</time></trkpt><trkpt lat="45.5832407" lon="11.1153819"><ele>926.0</ele><time>2026-04-19T10:53:09.697Z</time></trkpt><trkpt lat="45.5833172" lon="11.1153428"><ele>925.3333333333333</ele><time>2026-04-19T10:53:12.707Z</time></trkpt><trkpt lat="45.5833894" lon="11.1152934"><ele>924.6666666666666</ele><time>2026-04-19T10:53:15.7Z</time></trkpt><trkpt lat="45.5834554" lon="11.1152274"><ele>924.0</ele><time>2026-04-19T10:53:18.754Z</time></trkpt><trkpt lat="45.5835204" lon="11.1151772"><ele>924.0</ele><time>2026-04-19T10:53:21.688Z</time></trkpt><trkpt lat="45.5836133" lon="11.1151149"><ele>924.0</ele><time>2026-04-19T10:53:25.718Z</time></trkpt><trkpt lat="45.5836837" lon="11.1150648"><ele>924.0</ele><time>2026-04-19T10:53:28.698Z</time></trkpt><trkpt lat="45.5837553" lon="11.1150163"><ele>924.0</ele><time>2026-04-19T10:53:31.707Z</time></trkpt><trkpt lat="45.5838162" lon="11.1149722"><ele>924.0</ele><time>2026-04-19T10:53:34.689Z</time></trkpt><trkpt lat="45.5838877" lon="11.1149155"><ele>924.0</ele><time>2026-04-19T10:53:37.697Z</time></trkpt><trkpt lat="45.5839568" lon="11.1148643"><ele>924.0</ele><time>2026-04-19T10:53:41.714Z</time></trkpt><trkpt lat="45.5840231" lon="11.1148218"><ele>924.0</ele><time>2026-04-19T10:53:45.713Z</time></trkpt><trkpt lat="45.5841001" lon="11.1148044"><ele>924.0</ele><time>2026-04-19T10:53:49.713Z</time></trkpt><trkpt lat="45.5841593" lon="11.1147494"><ele>924.0</ele><time>2026-04-19T10:54:56.589Z</time></trkpt><trkpt lat="45.5842251" lon="11.1147357"><ele>924.0</ele><time>2026-04-19T10:55:02.585Z</time></trkpt><trkpt lat="45.5843125" lon="11.1147163"><ele>924.0</ele><time>2026-04-19T10:55:09.59Z</time></trkpt><trkpt lat="45.5843867" lon="11.1147001"><ele>924.0</ele><time>2026-04-19T10:55:14.707Z</time></trkpt><trkpt lat="45.5844574" lon="11.1146891"><ele>924.0</ele><time>2026-04-19T10:55:19.699Z</time></trkpt><trkpt lat="45.5845202" lon="11.1146778"><ele>924.0</ele><time>2026-04-19T10:55:23.692Z</time></trkpt><trkpt lat="45.5845892" lon="11.114667"><ele>924.0</ele><time>2026-04-19T10:55:27.704Z</time></trkpt><trkpt lat="45.5846606" lon="11.1146574"><ele>924.0</ele><time>2026-04-19T10:55:31.695Z</time></trkpt><trkpt lat="45.5847285" lon="11.1146493"><ele>924.0</ele><time>2026-04-19T10:55:35.7Z</time></trkpt><trkpt lat="45.5847995" lon="11.1146405"><ele>924.0</ele><time>2026-04-19T10:55:39.713Z</time></trkpt><trkpt lat="45.584863" lon="11.1146284"><ele>923.7142857142858</ele><time>2026-04-19T10:55:43.701Z</time></trkpt><trkpt lat="45.5849286" lon="11.114619"><ele>923.4285714285714</ele><time>2026-04-19T10:55:47.695Z</time></trkpt><trkpt lat="45.5849953" lon="11.1146162"><ele>923.1428571428571</ele><time>2026-04-19T10:55:51.692Z</time></trkpt><trkpt lat="45.5850632" lon="11.1145977"><ele>922.8571428571429</ele><time>2026-04-19T10:55:56.699Z</time></trkpt><trkpt lat="45.5851301" lon="11.1145916"><ele>922.5714285714287</ele><time>2026-04-19T10:56:00.693Z</time></trkpt><trkpt lat="45.5851985" lon="11.1145926"><ele>922.2857142857143</ele><time>2026-04-19T10:56:04.675Z</time></trkpt><trkpt lat="45.5852693" lon="11.1145812"><ele>922.0</ele><time>2026-04-19T10:56:09.674Z</time></trkpt><trkpt lat="45.5853422" lon="11.1145608"><ele>923.5714285714287</ele><time>2026-04-19T10:56:14.68Z</time></trkpt><trkpt lat="45.5854134" lon="11.1145592"><ele>925.1428571428572</ele><time>2026-04-19T10:56:19.696Z</time></trkpt><trkpt lat="45.5854843" lon="11.1145459"><ele>926.7142857142858</ele><time>2026-04-19T10:56:24.706Z</time></trkpt><trkpt lat="45.5855488" lon="11.1144931"><ele>928.2857142857142</ele><time>2026-04-19T10:56:29.694Z</time></trkpt><trkpt lat="45.5856197" lon="11.1144997"><ele>929.8571428571428</ele><time>2026-04-19T10:56:34.694Z</time></trkpt><trkpt lat="45.5856822" lon="11.1144738"><ele>931.4285714285713</ele><time>2026-04-19T10:56:39.695Z</time></trkpt><trkpt lat="45.585753" lon="11.1144642"><ele>933.0</ele><time>2026-04-19T10:56:44.702Z</time></trkpt><trkpt lat="45.5858365" lon="11.1144624"><ele>933.0</ele><time>2026-04-19T10:56:50.631Z</time></trkpt><trkpt lat="45.5859166" lon="11.1144267"><ele>932.9999999999999</ele><time>2026-04-19T10:56:56.653Z</time></trkpt><trkpt lat="45.5859798" lon="11.1143987"><ele>933.0</ele><time>2026-04-19T10:57:01.603Z</time></trkpt><trkpt lat="45.5860485" lon="11.1143516"><ele>933.0</ele><time>2026-04-19T10:57:06.71Z</time></trkpt><trkpt lat="45.5861247" lon="11.1143513"><ele>932.9999999999999</ele><time>2026-04-19T10:57:11.704Z</time></trkpt><trkpt lat="45.5861936" lon="11.1143339"><ele>933.0</ele><time>2026-04-19T10:57:16.709Z</time></trkpt><trkpt lat="45.5862608" lon="11.11431"><ele>933.0</ele><time>2026-04-19T10:57:21.712Z</time></trkpt><trkpt lat="45.5863341" lon="11.1142794"><ele>935.2857142857142</ele><time>2026-04-19T10:57:26.663Z</time></trkpt><trkpt lat="45.5863983" lon="11.1142608"><ele>937.5714285714284</ele><time>2026-04-19T10:57:30.684Z</time></trkpt><trkpt lat="45.5864673" lon="11.1142418"><ele>939.8571428571429</ele><time>2026-04-19T10:57:34.646Z</time></trkpt><trkpt lat="45.5865331" lon="11.1142235"><ele>942.1428571428571</ele><time>2026-04-19T10:57:38.674Z</time></trkpt><trkpt lat="45.5865997" lon="11.1142142"><ele>944.4285714285714</ele><time>2026-04-19T10:57:42.729Z</time></trkpt><trkpt lat="45.5866645" lon="11.1141911"><ele>946.7142857142858</ele><time>2026-04-19T10:57:46.699Z</time></trkpt><trkpt lat="45.5867303" lon="11.1141868"><ele>949.0000000000001</ele><time>2026-04-19T10:57:50.712Z</time></trkpt><trkpt lat="45.5867957" lon="11.1141825"><ele>949.0000000000001</ele><time>2026-04-19T10:57:54.704Z</time></trkpt><trkpt lat="45.586867" lon="11.1141711"><ele>949.0</ele><time>2026-04-19T10:57:58.701Z</time></trkpt><trkpt lat="45.5869345" lon="11.1141589"><ele>949.0000000000001</ele><time>2026-04-19T10:58:02.687Z</time></trkpt><trkpt lat="45.5870003" lon="11.1141566"><ele>949.0000000000001</ele><time>2026-04-19T10:58:06.702Z</time></trkpt><trkpt lat="45.5870659" lon="11.1141419"><ele>949.0</ele><time>2026-04-19T10:58:10.709Z</time></trkpt><trkpt lat="45.5871287" lon="11.1141235"><ele>949.0000000000001</ele><time>2026-04-19T10:58:14.699Z</time></trkpt><trkpt lat="45.5871928" lon="11.1141066"><ele>949.0000000000001</ele><time>2026-04-19T10:58:18.719Z</time></trkpt><trkpt lat="45.5872628" lon="11.1141008"><ele>948.7142857142858</ele><time>2026-04-19T10:58:22.603Z</time></trkpt><trkpt lat="45.5873422" lon="11.1140884"><ele>948.4285714285714</ele><time>2026-04-19T10:58:27.724Z</time></trkpt><trkpt lat="45.5874078" lon="11.1140646"><ele>948.1428571428571</ele><time>2026-04-19T10:58:31.606Z</time></trkpt><trkpt lat="45.5874994" lon="11.1140414"><ele>947.8571428571429</ele><time>2026-04-19T10:58:37.595Z</time></trkpt><trkpt lat="45.5875641" lon="11.1140143"><ele>947.5714285714284</ele><time>2026-04-19T10:58:41.71Z</time></trkpt><trkpt lat="45.5876293" lon="11.113993"><ele>947.2857142857142</ele><time>2026-04-19T10:58:45.708Z</time></trkpt><trkpt lat="45.5876918" lon="11.1139672"><ele>947.0</ele><time>2026-04-19T10:58:49.708Z</time></trkpt><trkpt lat="45.5877563" lon="11.1139425"><ele>947.0</ele><time>2026-04-19T10:58:53.701Z</time></trkpt><trkpt lat="45.587821" lon="11.1139132"><ele>946.9999999999999</ele><time>2026-04-19T10:58:57.587Z</time></trkpt><trkpt lat="45.5878906" lon="11.1138817"><ele>947.0</ele><time>2026-04-19T10:59:01.596Z</time></trkpt><trkpt lat="45.5879581" lon="11.1138659"><ele>947.0</ele><time>2026-04-19T10:59:05.592Z</time></trkpt><trkpt lat="45.5880285" lon="11.1138393"><ele>946.9999999999999</ele><time>2026-04-19T10:59:09.595Z</time></trkpt><trkpt lat="45.5880984" lon="11.1138143"><ele>947.0</ele><time>2026-04-19T10:59:13.599Z</time></trkpt><trkpt lat="45.5881627" lon="11.1137912"><ele>947.0</ele><time>2026-04-19T10:59:17.587Z</time></trkpt><trkpt lat="45.5882348" lon="11.1137886"><ele>949.4285714285713</ele><time>2026-04-19T10:59:21.597Z</time></trkpt><trkpt lat="45.5882918" lon="11.1138372"><ele>951.8571428571428</ele><time>2026-04-19T10:59:30.595Z</time></trkpt><trkpt lat="45.5883604" lon="11.1138549"><ele>954.2857142857142</ele><time>2026-04-19T10:59:43.682Z</time></trkpt><trkpt lat="45.5884236" lon="11.1138774"><ele>956.7142857142858</ele><time>2026-04-19T10:59:47.622Z</time></trkpt><trkpt lat="45.5885029" lon="11.113902"><ele>959.1428571428572</ele><time>2026-04-19T10:59:51.683Z</time></trkpt><trkpt lat="45.5885643" lon="11.1139534"><ele>961.5714285714287</ele><time>2026-04-19T10:59:54.688Z</time></trkpt><trkpt lat="45.5886131" lon="11.1140663"><ele>964.0</ele><time>2026-04-19T10:59:57.688Z</time></trkpt><trkpt lat="45.5886251" lon="11.1141709"><ele>963.9999999999999</ele><time>2026-04-19T10:59:59.7Z</time></trkpt><trkpt lat="45.5886356" lon="11.1142773"><ele>964.0</ele><time>2026-04-19T11:00:01.699Z</time></trkpt><trkpt lat="45.588641" lon="11.1143813"><ele>964.0</ele><time>2026-04-19T11:00:03.707Z</time></trkpt><trkpt lat="45.5886415" lon="11.1144896"><ele>964.0</ele><time>2026-04-19T11:00:06.694Z</time></trkpt><trkpt lat="45.5886913" lon="11.1145931"><ele>963.9999999999999</ele><time>2026-04-19T11:00:53.603Z</time></trkpt><trkpt lat="45.5887269" lon="11.1146931"><ele>964.0</ele><time>2026-04-19T11:00:56.705Z</time></trkpt><trkpt lat="45.5887738" lon="11.1148007"><ele>966.0</ele><time>2026-04-19T11:00:59.693Z</time></trkpt><trkpt lat="45.5888147" lon="11.1148861"><ele>968.0000000000001</ele><time>2026-04-19T11:01:01.709Z</time></trkpt><trkpt lat="45.5888501" lon="11.115004"><ele>970.0000000000001</ele><time>2026-04-19T11:01:03.708Z</time></trkpt><trkpt lat="45.5889051" lon="11.1151267"><ele>972.0</ele><time>2026-04-19T11:01:05.714Z</time></trkpt><trkpt lat="45.5889736" lon="11.1152555"><ele>974.0</ele><time>2026-04-19T11:01:07.695Z</time></trkpt><trkpt lat="45.58904" lon="11.1154004"><ele>974.0</ele><time>2026-04-19T11:01:09.705Z</time></trkpt><trkpt lat="45.5890733" lon="11.1154804"><ele>974.0</ele><time>2026-04-19T11:01:10.709Z</time></trkpt><trkpt lat="45.5891071" lon="11.1155619"><ele>974.0</ele><time>2026-04-19T11:01:11.702Z</time></trkpt><trkpt lat="45.5891422" lon="11.1156452"><ele>974.0</ele><time>2026-04-19T11:01:12.705Z</time></trkpt><trkpt lat="45.5891812" lon="11.1157339"><ele>974.0</ele><time>2026-04-19T11:01:13.676Z</time></trkpt><trkpt lat="45.589221" lon="11.1158212"><ele>974.0</ele><time>2026-04-19T11:01:14.687Z</time></trkpt><trkpt lat="45.5892597" lon="11.1159095"><ele>974.0</ele><time>2026-04-19T11:01:15.654Z</time></trkpt><trkpt lat="45.5893065" lon="11.1160015"><ele>973.6666666666667</ele><time>2026-04-19T11:01:16.665Z</time></trkpt><trkpt lat="45.5893534" lon="11.1160861"><ele>973.3333333333334</ele><time>2026-04-19T11:01:17.663Z</time></trkpt><trkpt lat="45.5894097" lon="11.1161711"><ele>973.0</ele><time>2026-04-19T11:01:18.672Z</time></trkpt><trkpt lat="45.5894504" lon="11.1162542"><ele>972.6666666666667</ele><time>2026-04-19T11:01:19.691Z</time></trkpt><trkpt lat="45.5894793" lon="11.1163403"><ele>972.3333333333334</ele><time>2026-04-19T11:01:20.693Z</time></trkpt><trkpt lat="45.5895237" lon="11.1164807"><ele>972.0</ele><time>2026-04-19T11:01:22.683Z</time></trkpt><trkpt lat="45.5895544" lon="11.1165927"><ele>972.0</ele><time>2026-04-19T11:01:24.702Z</time></trkpt><trkpt lat="45.5895779" lon="11.1166804"><ele>972.0</ele><time>2026-04-19T11:01:26.591Z</time></trkpt><trkpt lat="45.5896201" lon="11.1167903"><ele>972.0</ele><time>2026-04-19T11:01:29.713Z</time></trkpt><trkpt lat="45.5896523" lon="11.1168754"><ele>972.0</ele><time>2026-04-19T11:01:32.597Z</time></trkpt><trkpt lat="45.5896985" lon="11.1169669"><ele>972.0</ele><time>2026-04-19T11:01:36.706Z</time></trkpt><trkpt lat="45.5897529" lon="11.1170697"><ele>972.0</ele><time>2026-04-19T11:01:41.605Z</time></trkpt><trkpt lat="45.5898061" lon="11.1171401"><ele>972.0</ele><time>2026-04-19T11:01:45.704Z</time></trkpt><trkpt lat="45.5898583" lon="11.1172239"><ele>972.0</ele><time>2026-04-19T11:01:49.701Z</time></trkpt><trkpt lat="45.5899178" lon="11.1173"><ele>972.0</ele><time>2026-04-19T11:01:53.705Z</time></trkpt><trkpt lat="45.5899802" lon="11.1173627"><ele>972.0</ele><time>2026-04-19T11:01:57.69Z</time></trkpt><trkpt lat="45.590038" lon="11.1174237"><ele>972.0</ele><time>2026-04-19T11:02:01.701Z</time></trkpt><trkpt lat="45.5900963" lon="11.1174792"><ele>972.0</ele><time>2026-04-19T11:02:05.706Z</time></trkpt><trkpt lat="45.5901557" lon="11.1175615"><ele>970.8333333333334</ele><time>2026-04-19T11:02:09.697Z</time></trkpt><trkpt lat="45.590213" lon="11.1176353"><ele>969.6666666666667</ele><time>2026-04-19T11:02:13.706Z</time></trkpt><trkpt lat="45.5902575" lon="11.1177296"><ele>968.5</ele><time>2026-04-19T11:02:17.702Z</time></trkpt><trkpt lat="45.5902966" lon="11.1178211"><ele>967.3333333333334</ele><time>2026-04-19T11:02:21.71Z</time></trkpt><trkpt lat="45.5903392" lon="11.1179106"><ele>966.1666666666667</ele><time>2026-04-19T11:02:25.678Z</time></trkpt><trkpt lat="45.5903804" lon="11.1180011"><ele>965.0</ele><time>2026-04-19T11:02:29.646Z</time></trkpt><trkpt lat="45.5904075" lon="11.1180918"><ele>967.8333333333334</ele><time>2026-04-19T11:02:33.594Z</time></trkpt><trkpt lat="45.5904283" lon="11.1181959"><ele>970.6666666666667</ele><time>2026-04-19T11:02:37.599Z</time></trkpt><trkpt lat="45.5904504" lon="11.1183051"><ele>973.5</ele><time>2026-04-19T11:02:42.701Z</time></trkpt><trkpt lat="45.5904566" lon="11.1184175"><ele>976.3333333333333</ele><time>2026-04-19T11:02:46.685Z</time></trkpt><trkpt lat="45.5904606" lon="11.1185227"><ele>979.1666666666666</ele><time>2026-04-19T11:02:50.69Z</time></trkpt><trkpt lat="45.5904683" lon="11.1186232"><ele>982.0</ele><time>2026-04-19T11:02:54.603Z</time></trkpt><trkpt lat="45.5904783" lon="11.1187334"><ele>981.9999999999999</ele><time>2026-04-19T11:02:58.698Z</time></trkpt><trkpt lat="45.5904741" lon="11.1188462"><ele>982.0</ele><time>2026-04-19T11:03:03.703Z</time></trkpt><trkpt lat="45.5904675" lon="11.1189456"><ele>982.0</ele><time>2026-04-19T11:03:07.702Z</time></trkpt><trkpt lat="45.590474" lon="11.1190483"><ele>982.0</ele><time>2026-04-19T11:03:11.698Z</time></trkpt><trkpt lat="45.5904924" lon="11.1191633"><ele>981.9999999999999</ele><time>2026-04-19T11:03:16.597Z</time></trkpt><trkpt lat="45.5905306" lon="11.1192452"><ele>982.0</ele><time>2026-04-19T11:05:21.59Z</time></trkpt><trkpt lat="45.5905907" lon="11.1193156"><ele>981.8571428571428</ele><time>2026-04-19T11:05:24.68Z</time></trkpt><trkpt lat="45.5906496" lon="11.1193651"><ele>981.7142857142856</ele><time>2026-04-19T11:05:27.707Z</time></trkpt><trkpt lat="45.5907097" lon="11.1194083"><ele>981.5714285714286</ele><time>2026-04-19T11:05:29.704Z</time></trkpt><trkpt lat="45.5907748" lon="11.1194486"><ele>981.4285714285713</ele><time>2026-04-19T11:05:31.695Z</time></trkpt><trkpt lat="45.5908489" lon="11.1194885"><ele>981.2857142857142</ele><time>2026-04-19T11:05:33.691Z</time></trkpt><trkpt lat="45.5909269" lon="11.1195379"><ele>981.1428571428571</ele><time>2026-04-19T11:05:35.708Z</time></trkpt><trkpt lat="45.5909978" lon="11.1195856"><ele>981.0</ele><time>2026-04-19T11:05:37.693Z</time></trkpt><trkpt lat="45.5910557" lon="11.1196524"><ele>981.0</ele><time>2026-04-19T11:05:39.68Z</time></trkpt><trkpt lat="45.5910891" lon="11.119748"><ele>981.0</ele><time>2026-04-19T11:05:41.708Z</time></trkpt><trkpt lat="45.5911077" lon="11.11985"><ele>981.0</ele><time>2026-04-19T11:05:43.7Z</time></trkpt><trkpt lat="45.591113" lon="11.1199547"><ele>981.0</ele><time>2026-04-19T11:05:45.713Z</time></trkpt><trkpt lat="45.5911285" lon="11.1200576"><ele>981.0</ele><time>2026-04-19T11:05:47.69Z</time></trkpt><trkpt lat="45.5911369" lon="11.1201618"><ele>981.0</ele><time>2026-04-19T11:05:49.691Z</time></trkpt><trkpt lat="45.5911585" lon="11.1202717"><ele>981.0</ele><time>2026-04-19T11:05:51.697Z</time></trkpt><trkpt lat="45.591209" lon="11.1204235"><ele>981.5714285714287</ele><time>2026-04-19T11:05:54.609Z</time></trkpt><trkpt lat="45.5912465" lon="11.1205078"><ele>982.1428571428571</ele><time>2026-04-19T11:05:56.66Z</time></trkpt><trkpt lat="45.5912967" lon="11.1205692"><ele>982.7142857142858</ele><time>2026-04-19T11:05:58.708Z</time></trkpt><trkpt lat="45.5913573" lon="11.1206315"><ele>983.2857142857143</ele><time>2026-04-19T11:06:00.708Z</time></trkpt><trkpt lat="45.5914219" lon="11.1206805"><ele>983.8571428571429</ele><time>2026-04-19T11:06:02.695Z</time></trkpt><trkpt lat="45.591488" lon="11.1207243"><ele>984.4285714285714</ele><time>2026-04-19T11:06:04.717Z</time></trkpt><trkpt lat="45.5915537" lon="11.1207565"><ele>985.0</ele><time>2026-04-19T11:06:06.729Z</time></trkpt><trkpt lat="45.5916221" lon="11.1207831"><ele>984.9999999999999</ele><time>2026-04-19T11:06:08.707Z</time></trkpt><trkpt lat="45.5916889" lon="11.1208138"><ele>985.0</ele><time>2026-04-19T11:06:10.708Z</time></trkpt><trkpt lat="45.5917571" lon="11.1208401"><ele>985.0</ele><time>2026-04-19T11:06:12.601Z</time></trkpt><trkpt lat="45.5918407" lon="11.120857"><ele>985.0</ele><time>2026-04-19T11:06:14.595Z</time></trkpt><trkpt lat="45.5919279" lon="11.1208625"><ele>984.9999999999999</ele><time>2026-04-19T11:06:16.593Z</time></trkpt><trkpt lat="45.5920168" lon="11.1208758"><ele>985.0</ele><time>2026-04-19T11:06:18.594Z</time></trkpt><trkpt lat="45.5921051" lon="11.1208958"><ele>986.1666666666666</ele><time>2026-04-19T11:06:20.649Z</time></trkpt><trkpt lat="45.5921867" lon="11.1209167"><ele>987.3333333333333</ele><time>2026-04-19T11:06:22.596Z</time></trkpt><trkpt lat="45.5922626" lon="11.1209373"><ele>988.5</ele><time>2026-04-19T11:06:24.678Z</time></trkpt><trkpt lat="45.5923416" lon="11.1209598"><ele>989.6666666666667</ele><time>2026-04-19T11:06:26.682Z</time></trkpt><trkpt lat="45.5924223" lon="11.120973"><ele>990.8333333333334</ele><time>2026-04-19T11:06:28.689Z</time></trkpt><trkpt lat="45.5925036" lon="11.1209847"><ele>992.0</ele><time>2026-04-19T11:06:30.692Z</time></trkpt><trkpt lat="45.5925795" lon="11.1209925"><ele>992.0000000000001</ele><time>2026-04-19T11:06:32.616Z</time></trkpt><trkpt lat="45.5926486" lon="11.1210065"><ele>992.0</ele><time>2026-04-19T11:06:34.589Z</time></trkpt><trkpt lat="45.5927125" lon="11.1210084"><ele>992.0</ele><time>2026-04-19T11:06:36.59Z</time></trkpt><trkpt lat="45.5928032" lon="11.1210096"><ele>992.0</ele><time>2026-04-19T11:06:39.585Z</time></trkpt><trkpt lat="45.5928923" lon="11.120989"><ele>992.0000000000001</ele><time>2026-04-19T11:06:42.581Z</time></trkpt><trkpt lat="45.5929807" lon="11.1209816"><ele>992.0</ele><time>2026-04-19T11:06:45.593Z</time></trkpt><trkpt lat="45.5930655" lon="11.1209951"><ele>993.5000000000001</ele><time>2026-04-19T11:06:48.597Z</time></trkpt><trkpt lat="45.5931389" lon="11.120986"><ele>995.0</ele><time>2026-04-19T11:06:51.6Z</time></trkpt><trkpt lat="45.5932278" lon="11.1209828"><ele>996.5</ele><time>2026-04-19T11:06:54.585Z</time></trkpt><trkpt lat="45.5933035" lon="11.1209878"><ele>998.0</ele><time>2026-04-19T11:06:57.598Z</time></trkpt><trkpt lat="45.5932663" lon="11.1209011"><ele>999.5000000000001</ele><time>2026-04-19T11:07:05.601Z</time></trkpt><trkpt lat="45.5931717" lon="11.1208454"><ele>1001.0</ele><time>2026-04-19T11:07:08.598Z</time></trkpt><trkpt lat="45.593093" lon="11.1207876"><ele>1001.0000000000001</ele><time>2026-04-19T11:07:10.599Z</time></trkpt><trkpt lat="45.5930143" lon="11.1207469"><ele>1001.0</ele><time>2026-04-19T11:07:12.599Z</time></trkpt><trkpt lat="45.5929398" lon="11.120686"><ele>1001.0</ele><time>2026-04-19T11:07:14.592Z</time></trkpt><trkpt lat="45.5928798" lon="11.1206204"><ele>1001.0</ele><time>2026-04-19T11:07:16.585Z</time></trkpt><trkpt lat="45.592809" lon="11.1205246"><ele>1001.0000000000001</ele><time>2026-04-19T11:07:19.601Z</time></trkpt><trkpt lat="45.5927546" lon="11.1204639"><ele>1001.0</ele><time>2026-04-19T11:07:21.596Z</time></trkpt><trkpt lat="45.5927003" lon="11.1204165"><ele>1002.0000000000001</ele><time>2026-04-19T11:07:23.587Z</time></trkpt><trkpt lat="45.5926374" lon="11.1203491"><ele>1003.0</ele><time>2026-04-19T11:07:26.596Z</time></trkpt><trkpt lat="45.5925811" lon="11.1202854"><ele>1004.0</ele><time>2026-04-19T11:07:29.599Z</time></trkpt><trkpt lat="45.5925289" lon="11.1202339"><ele>1005.0</ele><time>2026-04-19T11:07:32.595Z</time></trkpt><trkpt lat="45.5924615" lon="11.1201729"><ele>1006.0000000000001</ele><time>2026-04-19T11:07:36.594Z</time></trkpt><trkpt lat="45.5923981" lon="11.1201006"><ele>1007.0</ele><time>2026-04-19T11:07:40.594Z</time></trkpt><trkpt lat="45.5923404" lon="11.1200221"><ele>1007.0</ele><time>2026-04-19T11:07:44.594Z</time></trkpt><trkpt lat="45.592287" lon="11.1199468"><ele>1007.0</ele><time>2026-04-19T11:07:48.597Z</time></trkpt><trkpt lat="45.592243" lon="11.1198563"><ele>1007.0</ele><time>2026-04-19T11:07:52.603Z</time></trkpt><trkpt lat="45.5921973" lon="11.1197769"><ele>1007.0</ele><time>2026-04-19T11:07:56.606Z</time></trkpt><trkpt lat="45.5921591" lon="11.1197032"><ele>1007.0</ele><time>2026-04-19T11:08:00.593Z</time></trkpt><trkpt lat="45.5921447" lon="11.1196018"><ele>1007.0</ele><time>2026-04-19T11:08:05.602Z</time></trkpt><trkpt lat="45.5921287" lon="11.1195114"><ele>1007.0</ele><time>2026-04-19T11:08:09.6Z</time></trkpt><trkpt lat="45.592138" lon="11.1194053"><ele>1008.3333333333334</ele><time>2026-04-19T11:08:14.603Z</time></trkpt><trkpt lat="45.5921734" lon="11.1193296"><ele>1009.6666666666667</ele><time>2026-04-19T11:09:33.602Z</time></trkpt><trkpt lat="45.5922159" lon="11.1192378"><ele>1011.0</ele><time>2026-04-19T11:09:38.706Z</time></trkpt><trkpt lat="45.5922688" lon="11.1191473"><ele>1012.3333333333333</ele><time>2026-04-19T11:09:45.587Z</time></trkpt><trkpt lat="45.5923311" lon="11.1190672"><ele>1013.6666666666666</ele><time>2026-04-19T11:09:52.587Z</time></trkpt><trkpt lat="45.5923761" lon="11.1189759"><ele>1015.0</ele><time>2026-04-19T11:10:00.6Z</time></trkpt><trkpt lat="45.5924406" lon="11.1189667"><ele>1015.0</ele><time>2026-04-19T11:10:04.712Z</time></trkpt><trkpt lat="45.5925056" lon="11.1189737"><ele>1015.0</ele><time>2026-04-19T11:10:10.599Z</time></trkpt><trkpt lat="45.5925713" lon="11.1189879"><ele>1015.0</ele><time>2026-04-19T11:10:15.709Z</time></trkpt><trkpt lat="45.5926311" lon="11.1190243"><ele>1015.0</ele><time>2026-04-19T11:10:20.702Z</time></trkpt><trkpt lat="45.5926977" lon="11.1190673"><ele>1015.0</ele><time>2026-04-19T11:10:26.709Z</time></trkpt><trkpt lat="45.5927595" lon="11.1191002"><ele>1015.0</ele><time>2026-04-19T11:10:31.689Z</time></trkpt><trkpt lat="45.592831" lon="11.1191176"><ele>1015.0</ele><time>2026-04-19T11:10:37.679Z</time></trkpt><trkpt lat="45.5928986" lon="11.1191219"><ele>1017.2857142857142</ele><time>2026-04-19T11:10:42.675Z</time></trkpt><trkpt lat="45.5929592" lon="11.1191574"><ele>1019.5714285714286</ele><time>2026-04-19T11:10:47.596Z</time></trkpt><trkpt lat="45.5930293" lon="11.1191507"><ele>1021.8571428571429</ele><time>2026-04-19T11:10:52.693Z</time></trkpt><trkpt lat="45.5930958" lon="11.1191625"><ele>1024.142857142857</ele><time>2026-04-19T11:10:57.713Z</time></trkpt><trkpt lat="45.5931681" lon="11.119153"><ele>1026.4285714285713</ele><time>2026-04-19T11:11:02.599Z</time></trkpt><trkpt lat="45.5932372" lon="11.1191542"><ele>1028.7142857142858</ele><time>2026-04-19T11:11:07.59Z</time></trkpt><trkpt lat="45.5932906" lon="11.1192061"><ele>1031.0</ele><time>2026-04-19T11:11:12.724Z</time></trkpt><trkpt lat="45.5933577" lon="11.119201"><ele>1031.0</ele><time>2026-04-19T11:11:17.642Z</time></trkpt><trkpt lat="45.5934322" lon="11.1192193"><ele>1031.0</ele><time>2026-04-19T11:11:22.693Z</time></trkpt><trkpt lat="45.5934928" lon="11.1192737"><ele>1031.0</ele><time>2026-04-19T11:11:27.706Z</time></trkpt><trkpt lat="45.5935545" lon="11.1193131"><ele>1031.0</ele><time>2026-04-19T11:11:32.747Z</time></trkpt><trkpt lat="45.593623" lon="11.1193084"><ele>1031.0</ele><time>2026-04-19T11:11:37.715Z</time></trkpt><trkpt lat="45.5936866" lon="11.1193122"><ele>1031.0</ele><time>2026-04-19T11:11:41.593Z</time></trkpt><trkpt lat="45.593756" lon="11.119334"><ele>1031.0</ele><time>2026-04-19T11:11:46.634Z</time></trkpt><trkpt lat="45.593826" lon="11.1193337"><ele>1032.7142857142858</ele><time>2026-04-19T11:11:51.693Z</time></trkpt><trkpt lat="45.5939086" lon="11.1193513"><ele>1034.4285714285713</ele><time>2026-04-19T11:11:57.717Z</time></trkpt><trkpt lat="45.5939695" lon="11.1193741"><ele>1036.142857142857</ele><time>2026-04-19T11:12:02.719Z</time></trkpt><trkpt lat="45.5940318" lon="11.119389"><ele>1037.857142857143</ele><time>2026-04-19T11:12:07.664Z</time></trkpt><trkpt lat="45.5941006" lon="11.119404"><ele>1039.5714285714284</ele><time>2026-04-19T11:12:12.694Z</time></trkpt><trkpt lat="45.5941604" lon="11.1193623"><ele>1041.2857142857142</ele><time>2026-04-19T11:12:18.593Z</time></trkpt><trkpt lat="45.5941426" lon="11.1192699"><ele>1043.0</ele><time>2026-04-19T11:12:24.68Z</time></trkpt><trkpt lat="45.5940912" lon="11.1192176"><ele>1043.0</ele><time>2026-04-19T11:12:29.713Z</time></trkpt><trkpt lat="45.5940284" lon="11.1191599"><ele>1043.0</ele><time>2026-04-19T11:12:35.709Z</time></trkpt><trkpt lat="45.5939819" lon="11.1190947"><ele>1043.0</ele><time>2026-04-19T11:12:40.719Z</time></trkpt><trkpt lat="45.5939264" lon="11.1190326"><ele>1043.0</ele><time>2026-04-19T11:12:45.713Z</time></trkpt><trkpt lat="45.593874" lon="11.1189646"><ele>1043.0</ele><time>2026-04-19T11:12:50.706Z</time></trkpt><trkpt lat="45.5938802" lon="11.1188573"><ele>1043.0</ele><time>2026-04-19T11:12:56.71Z</time></trkpt><trkpt lat="45.5939492" lon="11.1188428"><ele>1043.0</ele><time>2026-04-19T11:13:02.674Z</time></trkpt><trkpt lat="45.5940027" lon="11.1187848"><ele>1043.5714285714287</ele><time>2026-04-19T11:13:08.607Z</time></trkpt><trkpt lat="45.5940489" lon="11.1187017"><ele>1044.142857142857</ele><time>2026-04-19T11:13:14.697Z</time></trkpt><trkpt lat="45.5941084" lon="11.1186649"><ele>1044.7142857142858</ele><time>2026-04-19T11:13:19.592Z</time></trkpt><trkpt lat="45.5941801" lon="11.1186388"><ele>1045.2857142857142</ele><time>2026-04-19T11:13:25.719Z</time></trkpt><trkpt lat="45.5942485" lon="11.1186104"><ele>1045.857142857143</ele><time>2026-04-19T11:13:31.68Z</time></trkpt><trkpt lat="45.5943165" lon="11.1186021"><ele>1046.4285714285716</ele><time>2026-04-19T11:13:37.593Z</time></trkpt><trkpt lat="45.5943894" lon="11.1185793"><ele>1047.0</ele><time>2026-04-19T11:13:43.651Z</time></trkpt><trkpt lat="45.5944599" lon="11.1185662"><ele>1048.4285714285716</ele><time>2026-04-19T11:13:48.601Z</time></trkpt><trkpt lat="45.5945311" lon="11.1185505"><ele>1049.857142857143</ele><time>2026-04-19T11:13:53.709Z</time></trkpt><trkpt lat="45.594605" lon="11.1185477"><ele>1051.2857142857142</ele><time>2026-04-19T11:13:58.7Z</time></trkpt><trkpt lat="45.5946744" lon="11.1185568"><ele>1052.7142857142858</ele><time>2026-04-19T11:14:03.714Z</time></trkpt><trkpt lat="45.5947544" lon="11.1185937"><ele>1054.142857142857</ele><time>2026-04-19T11:14:09.721Z</time></trkpt><trkpt lat="45.5948221" lon="11.1185948"><ele>1055.5714285714287</ele><time>2026-04-19T11:14:14.71Z</time></trkpt><trkpt lat="45.5948837" lon="11.1186159"><ele>1057.0</ele><time>2026-04-19T11:14:19.698Z</time></trkpt><trkpt lat="45.5949479" lon="11.1186363"><ele>1057.0</ele><time>2026-04-19T11:14:24.598Z</time></trkpt><trkpt lat="45.5950129" lon="11.1186547"><ele>1057.0</ele><time>2026-04-19T11:14:29.742Z</time></trkpt><trkpt lat="45.5950764" lon="11.1186868"><ele>1057.0</ele><time>2026-04-19T11:14:34.595Z</time></trkpt><trkpt lat="45.5951422" lon="11.1187277"><ele>1057.0</ele><time>2026-04-19T11:14:39.719Z</time></trkpt><trkpt lat="45.5952154" lon="11.1187618"><ele>1057.0</ele><time>2026-04-19T11:14:44.608Z</time></trkpt><trkpt lat="45.5952863" lon="11.1187968"><ele>1057.0</ele><time>2026-04-19T11:14:49.713Z</time></trkpt><trkpt lat="45.5953448" lon="11.1188319"><ele>1057.0</ele><time>2026-04-19T11:14:53.686Z</time></trkpt><trkpt lat="45.5954053" lon="11.1188624"><ele>1057.5714285714287</ele><time>2026-04-19T11:14:57.696Z</time></trkpt><trkpt lat="45.5954719" lon="11.1189055"><ele>1058.142857142857</ele><time>2026-04-19T11:15:01.638Z</time></trkpt><trkpt lat="45.5955424" lon="11.1189528"><ele>1058.7142857142858</ele><time>2026-04-19T11:15:05.708Z</time></trkpt><trkpt lat="45.5956027" lon="11.1189824"><ele>1059.2857142857142</ele><time>2026-04-19T11:15:09.694Z</time></trkpt><trkpt lat="45.5956636" lon="11.1190299"><ele>1059.857142857143</ele><time>2026-04-19T11:15:13.723Z</time></trkpt><trkpt lat="45.5957245" lon="11.1190849"><ele>1060.4285714285716</ele><time>2026-04-19T11:15:17.707Z</time></trkpt><trkpt lat="45.5957823" lon="11.1191408"><ele>1061.0</ele><time>2026-04-19T11:15:21.726Z</time></trkpt><trkpt lat="45.5958439" lon="11.1192009"><ele>1061.1428571428573</ele><time>2026-04-19T11:15:25.714Z</time></trkpt><trkpt lat="45.5959033" lon="11.1192601"><ele>1061.2857142857142</ele><time>2026-04-19T11:15:29.716Z</time></trkpt><trkpt lat="45.595954" lon="11.1193253"><ele>1061.4285714285716</ele><time>2026-04-19T11:15:33.693Z</time></trkpt><trkpt lat="45.5960058" lon="11.1193942"><ele>1061.5714285714287</ele><time>2026-04-19T11:15:37.593Z</time></trkpt><trkpt lat="45.5960637" lon="11.1194557"><ele>1061.7142857142858</ele><time>2026-04-19T11:15:41.718Z</time></trkpt><trkpt lat="45.5961091" lon="11.1195269"><ele>1061.857142857143</ele><time>2026-04-19T11:15:46.712Z</time></trkpt><trkpt lat="45.5961575" lon="11.1195951"><ele>1062.0</ele><time>2026-04-19T11:15:51.691Z</time></trkpt><trkpt lat="45.5962037" lon="11.1196594"><ele>1062.0</ele><time>2026-04-19T11:15:55.585Z</time></trkpt><trkpt lat="45.5962639" lon="11.1197102"><ele>1062.0</ele><time>2026-04-19T11:15:59.605Z</time></trkpt><trkpt lat="45.5963212" lon="11.1197783"><ele>1062.0</ele><time>2026-04-19T11:16:04.599Z</time></trkpt><trkpt lat="45.5963746" lon="11.1198604"><ele>1062.0</ele><time>2026-04-19T11:16:09.597Z</time></trkpt><trkpt lat="45.5964319" lon="11.1199312"><ele>1062.0</ele><time>2026-04-19T11:16:14.602Z</time></trkpt><trkpt lat="45.5964915" lon="11.1199738"><ele>1062.0</ele><time>2026-04-19T11:16:18.67Z</time></trkpt><trkpt lat="45.5965518" lon="11.1200236"><ele>1062.0</ele><time>2026-04-19T11:16:22.692Z</time></trkpt><trkpt lat="45.5965964" lon="11.1200871"><ele>1062.0</ele><time>2026-04-19T11:16:26.704Z</time></trkpt><trkpt lat="45.5965672" lon="11.1201771"><ele>1062.0</ele><time>2026-04-19T11:25:23.593Z</time></trkpt><trkpt lat="45.5966298" lon="11.120132"><ele>1062.0</ele><time>2026-04-19T11:36:44.591Z</time></trkpt><trkpt lat="45.5966595" lon="11.1200284"><ele>1062.0</ele><time>2026-04-19T11:36:50.593Z</time></trkpt><trkpt lat="45.5967152" lon="11.1199604"><ele>1062.0</ele><time>2026-04-19T11:36:55.71Z</time></trkpt><trkpt lat="45.5967865" lon="11.1198931"><ele>1062.0</ele><time>2026-04-19T11:37:01.598Z</time></trkpt><trkpt lat="45.596847" lon="11.1198576"><ele>1062.0</ele><time>2026-04-19T11:37:05.61Z</time></trkpt><trkpt lat="45.5969162" lon="11.1198438"><ele>1062.0</ele><time>2026-04-19T11:37:09.703Z</time></trkpt><trkpt lat="45.5969921" lon="11.119823"><ele>1062.0</ele><time>2026-04-19T11:37:14.717Z</time></trkpt><trkpt lat="45.597064" lon="11.1198097"><ele>1062.0</ele><time>2026-04-19T11:37:19.626Z</time></trkpt><trkpt lat="45.5971312" lon="11.1197866"><ele>1062.0</ele><time>2026-04-19T11:37:24.604Z</time></trkpt><trkpt lat="45.5971979" lon="11.1197816"><ele>1062.0</ele><time>2026-04-19T11:37:29.713Z</time></trkpt><trkpt lat="45.5972745" lon="11.119805"><ele>1062.0</ele><time>2026-04-19T11:37:34.731Z</time></trkpt><trkpt lat="45.5973382" lon="11.1198361"><ele>1062.0</ele><time>2026-04-19T11:37:38.695Z</time></trkpt><trkpt lat="45.5974124" lon="11.1198583"><ele>1061.5</ele><time>2026-04-19T11:37:43.608Z</time></trkpt><trkpt lat="45.5974813" lon="11.1198639"><ele>1061.0</ele><time>2026-04-19T11:37:48.706Z</time></trkpt><trkpt lat="45.5975663" lon="11.1199043"><ele>1060.5</ele><time>2026-04-19T11:37:53.598Z</time></trkpt><trkpt lat="45.5976372" lon="11.1199408"><ele>1060.0</ele><time>2026-04-19T11:37:56.638Z</time></trkpt><trkpt lat="45.5977221" lon="11.1199775"><ele>1059.5</ele><time>2026-04-19T11:37:59.684Z</time></trkpt><trkpt lat="45.5978163" lon="11.1199918"><ele>1059.0</ele><time>2026-04-19T11:38:02.6Z</time></trkpt><trkpt lat="45.5978818" lon="11.1200097"><ele>1057.5</ele><time>2026-04-19T11:38:04.601Z</time></trkpt><trkpt lat="45.5979444" lon="11.1200394"><ele>1056.0</ele><time>2026-04-19T11:38:06.684Z</time></trkpt><trkpt lat="45.598006" lon="11.1200721"><ele>1054.5</ele><time>2026-04-19T11:38:08.591Z</time></trkpt><trkpt lat="45.5980956" lon="11.1200832"><ele>1053.0</ele><time>2026-04-19T11:38:11.707Z</time></trkpt><trkpt lat="45.59818" lon="11.1200805"><ele>1051.5</ele><time>2026-04-19T11:38:14.605Z</time></trkpt><trkpt lat="45.5982655" lon="11.1200898"><ele>1050.0</ele><time>2026-04-19T11:38:17.595Z</time></trkpt><trkpt lat="45.5983411" lon="11.1200856"><ele>1050.0</ele><time>2026-04-19T11:38:21.649Z</time></trkpt><trkpt lat="45.5984025" lon="11.1201216"><ele>1050.0</ele><time>2026-04-19T11:38:26.613Z</time></trkpt><trkpt lat="45.5984674" lon="11.1201541"><ele>1050.0</ele><time>2026-04-19T11:38:29.593Z</time></trkpt><trkpt lat="45.5985259" lon="11.1202011"><ele>1050.0</ele><time>2026-04-19T11:38:31.712Z</time></trkpt><trkpt lat="45.5985962" lon="11.120266"><ele>1050.0</ele><time>2026-04-19T11:38:33.608Z</time></trkpt><trkpt lat="45.5986683" lon="11.120342"><ele>1050.0</ele><time>2026-04-19T11:38:35.712Z</time></trkpt><trkpt lat="45.5987403" lon="11.1203952"><ele>1032.0</ele><time>2026-04-19T11:38:38.593Z</time></trkpt><trkpt lat="45.599227" lon="11.1205986"><ele>1032.0</ele><time>2026-04-19T11:38:43.601Z</time></trkpt><trkpt lat="45.5993045" lon="11.1206184"><ele>1032.0</ele><time>2026-04-19T11:38:44.711Z</time></trkpt><trkpt lat="45.5994759" lon="11.120663"><ele>1032.0</ele><time>2026-04-19T11:38:46.605Z</time></trkpt><trkpt lat="45.5995648" lon="11.1206904"><ele>1032.0</ele><time>2026-04-19T11:38:47.609Z</time></trkpt><trkpt lat="45.5996504" lon="11.1207172"><ele>1032.0</ele><time>2026-04-19T11:38:48.602Z</time></trkpt><trkpt lat="45.5997337" lon="11.1207446"><ele>1031.8333333333333</ele><time>2026-04-19T11:38:49.604Z</time></trkpt><trkpt lat="45.5998379" lon="11.1207736"><ele>1031.6666666666667</ele><time>2026-04-19T11:38:51.601Z</time></trkpt><trkpt lat="45.5999104" lon="11.1207687"><ele>1031.5</ele><time>2026-04-19T11:38:53.601Z</time></trkpt><trkpt lat="45.5999752" lon="11.1207199"><ele>1031.3333333333335</ele><time>2026-04-19T11:38:57.735Z</time></trkpt><trkpt lat="45.6000271" lon="11.1206681"><ele>1031.1666666666667</ele><time>2026-04-19T11:39:00.6Z</time></trkpt><trkpt lat="45.6000825" lon="11.120603"><ele>1031.0</ele><time>2026-04-19T11:39:03.62Z</time></trkpt><trkpt lat="45.6001516" lon="11.120566"><ele>1030.0</ele><time>2026-04-19T11:39:06.598Z</time></trkpt><trkpt lat="45.6002623" lon="11.1205257"><ele>1029.0</ele><time>2026-04-19T11:39:11.597Z</time></trkpt><trkpt lat="45.6003619" lon="11.1204991"><ele>1028.0</ele><time>2026-04-19T11:39:16.597Z</time></trkpt><trkpt lat="45.6004185" lon="11.1204575"><ele>1027.0</ele><time>2026-04-19T11:39:19.717Z</time></trkpt><trkpt lat="45.6005213" lon="11.1204457"><ele>1026.0</ele><time>2026-04-19T11:39:24.718Z</time></trkpt><trkpt lat="45.6005967" lon="11.1204402"><ele>1026.0000000000002</ele><time>2026-04-19T11:39:28.761Z</time></trkpt><trkpt lat="45.6006634" lon="11.1204286"><ele>1026.0</ele><time>2026-04-19T11:39:32.709Z</time></trkpt><trkpt lat="45.6007402" lon="11.1203969"><ele>1026.0</ele><time>2026-04-19T11:39:37.593Z</time></trkpt><trkpt lat="45.6008068" lon="11.1203937"><ele>1026.0</ele><time>2026-04-19T11:39:42.607Z</time></trkpt><trkpt lat="45.6008724" lon="11.1203812"><ele>1026.0</ele><time>2026-04-19T11:39:46.722Z</time></trkpt><trkpt lat="45.600941" lon="11.1203716"><ele>1026.0000000000002</ele><time>2026-04-19T11:39:50.73Z</time></trkpt><trkpt lat="45.6010028" lon="11.1203985"><ele>1026.0</ele><time>2026-04-19T11:39:54.603Z</time></trkpt><trkpt lat="45.6010769" lon="11.1204512"><ele>1026.0</ele><time>2026-04-19T11:39:59.594Z</time></trkpt><trkpt lat="45.6011102" lon="11.1205562"><ele>1026.0</ele><time>2026-04-19T11:40:03.606Z</time></trkpt><trkpt lat="45.6011502" lon="11.1206602"><ele>1026.0</ele><time>2026-04-19T11:40:06.684Z</time></trkpt><trkpt lat="45.6011816" lon="11.120751"><ele>1026.0</ele><time>2026-04-19T11:40:08.692Z</time></trkpt><trkpt lat="45.6012304" lon="11.1208655"><ele>1026.0</ele><time>2026-04-19T11:40:10.602Z</time></trkpt><trkpt lat="45.6013187" lon="11.1209618"><ele>1026.0</ele><time>2026-04-19T11:40:12.696Z</time></trkpt><trkpt lat="45.601416" lon="11.1210484"><ele>1027.2</ele><time>2026-04-19T11:40:14.613Z</time></trkpt><trkpt lat="45.601522" lon="11.1211474"><ele>1028.3999999999999</ele><time>2026-04-19T11:40:16.714Z</time></trkpt><trkpt lat="45.6016138" lon="11.1212494"><ele>1029.6</ele><time>2026-04-19T11:40:18.687Z</time></trkpt><trkpt lat="45.6016673" lon="11.1213153"><ele>1030.8</ele><time>2026-04-19T11:40:19.715Z</time></trkpt><trkpt lat="45.6017591" lon="11.1214072"><ele>1032.0</ele><time>2026-04-19T11:40:21.713Z</time></trkpt><trkpt lat="45.601797" lon="11.12148"><ele>1027.6666666666667</ele><time>2026-04-19T11:40:22.705Z</time></trkpt><trkpt lat="45.6018147" lon="11.1215725"><ele>1023.3333333333334</ele><time>2026-04-19T11:40:23.74Z</time></trkpt><trkpt lat="45.6018344" lon="11.1217586"><ele>1019.0</ele><time>2026-04-19T11:40:29.911Z</time></trkpt><trkpt lat="45.6019919" lon="11.1222261"><ele>1018.6</ele><time>2026-04-19T11:40:31.71Z</time></trkpt><trkpt lat="45.6020463" lon="11.1223257"><ele>1018.2</ele><time>2026-04-19T11:40:33.749Z</time></trkpt><trkpt lat="45.6021158" lon="11.1224376"><ele>1017.8000000000001</ele><time>2026-04-19T11:40:36.593Z</time></trkpt><trkpt lat="45.6021587" lon="11.1225468"><ele>1017.4000000000001</ele><time>2026-04-19T11:40:38.685Z</time></trkpt><trkpt lat="45.6022082" lon="11.1226633"><ele>1017.0</ele><time>2026-04-19T11:40:40.71Z</time></trkpt><trkpt lat="45.6022651" lon="11.1228217"><ele>1014.1666666666666</ele><time>2026-04-19T11:40:42.72Z</time></trkpt><trkpt lat="45.6023034" lon="11.122911"><ele>1011.3333333333333</ele><time>2026-04-19T11:40:43.711Z</time></trkpt><trkpt lat="45.6023495" lon="11.1229934"><ele>1008.5</ele><time>2026-04-19T11:40:44.641Z</time></trkpt><trkpt lat="45.6023968" lon="11.1230874"><ele>1005.6666666666666</ele><time>2026-04-19T11:40:45.718Z</time></trkpt><trkpt lat="45.602457" lon="11.1231742"><ele>1002.8333333333333</ele><time>2026-04-19T11:40:46.719Z</time></trkpt><trkpt lat="45.6025264" lon="11.1232412"><ele>1000.0</ele><time>2026-04-19T11:40:47.724Z</time></trkpt><trkpt lat="45.6026568" lon="11.1233305"><ele>999.4</ele><time>2026-04-19T11:40:49.599Z</time></trkpt><trkpt lat="45.6027211" lon="11.1233574"><ele>998.8</ele><time>2026-04-19T11:40:50.727Z</time></trkpt><trkpt lat="45.602789" lon="11.1233737"><ele>998.2</ele><time>2026-04-19T11:40:51.721Z</time></trkpt><trkpt lat="45.6028915" lon="11.123375"><ele>997.6</ele><time>2026-04-19T11:40:53.72Z</time></trkpt><trkpt lat="45.6030131" lon="11.1234128"><ele>997.0</ele><time>2026-04-19T11:40:57.608Z</time></trkpt><trkpt lat="45.6031177" lon="11.1234397"><ele>996.9999999999999</ele><time>2026-04-19T11:41:01.602Z</time></trkpt><trkpt lat="45.6031938" lon="11.1234515"><ele>997.0</ele><time>2026-04-19T11:41:04.704Z</time></trkpt><trkpt lat="45.6032631" lon="11.1234797"><ele>996.9999999999999</ele><time>2026-04-19T11:41:07.695Z</time></trkpt><trkpt lat="45.6033172" lon="11.1235277"><ele>996.9999999999999</ele><time>2026-04-19T11:41:10.669Z</time></trkpt><trkpt lat="45.6033379" lon="11.1236391"><ele>997.0</ele><time>2026-04-19T11:41:14.689Z</time></trkpt><trkpt lat="45.6033508" lon="11.1237448"><ele>996.9999999999999</ele><time>2026-04-19T11:41:18.705Z</time></trkpt><trkpt lat="45.603375" lon="11.1238404"><ele>996.9999999999999</ele><time>2026-04-19T11:41:25.598Z</time></trkpt><trkpt lat="45.6033879" lon="11.1239298"><ele>997.75</ele><time>2026-04-19T11:41:32.602Z</time></trkpt><trkpt lat="45.6034461" lon="11.1242881"><ele>998.5</ele><time>2026-04-19T11:41:38.588Z</time></trkpt><trkpt lat="45.6034683" lon="11.1243727"><ele>999.25</ele><time>2026-04-19T11:41:41.593Z</time></trkpt><trkpt lat="45.6034719" lon="11.1244835"><ele>1000.0</ele><time>2026-04-19T11:41:44.607Z</time></trkpt><trkpt lat="45.6034787" lon="11.1245746"><ele>999.9999999999999</ele><time>2026-04-19T11:41:46.622Z</time></trkpt><trkpt lat="45.6034936" lon="11.1246832"><ele>1000.0</ele><time>2026-04-19T11:41:48.607Z</time></trkpt><trkpt lat="45.6035219" lon="11.1248197"><ele>1000.0</ele><time>2026-04-19T11:41:50.608Z</time></trkpt><trkpt lat="45.6035763" lon="11.1249494"><ele>1000.0</ele><time>2026-04-19T11:41:52.595Z</time></trkpt><trkpt lat="45.6036085" lon="11.125032"><ele>999.9999999999999</ele><time>2026-04-19T11:41:53.592Z</time></trkpt><trkpt lat="45.6036453" lon="11.1251104"><ele>1000.0</ele><time>2026-04-19T11:41:54.597Z</time></trkpt><trkpt lat="45.6037077" lon="11.1252352"><ele>998.8571428571429</ele><time>2026-04-19T11:41:56.591Z</time></trkpt><trkpt lat="45.6037192" lon="11.1253294"><ele>997.7142857142858</ele><time>2026-04-19T11:42:00.586Z</time></trkpt><trkpt lat="45.6037033" lon="11.1254284"><ele>996.5714285714287</ele><time>2026-04-19T11:42:23.607Z</time></trkpt><trkpt lat="45.6036396" lon="11.1254619"><ele>995.4285714285714</ele><time>2026-04-19T11:42:44.595Z</time></trkpt><trkpt lat="45.6037055" lon="11.1254401"><ele>994.2857142857144</ele><time>2026-04-19T11:43:32.594Z</time></trkpt><trkpt lat="45.603763" lon="11.1254928"><ele>993.1428571428572</ele><time>2026-04-19T11:43:36.602Z</time></trkpt><trkpt lat="45.603791" lon="11.1255848"><ele>992.0</ele><time>2026-04-19T11:43:39.602Z</time></trkpt><trkpt lat="45.6038239" lon="11.1256751"><ele>992.1666666666667</ele><time>2026-04-19T11:43:42.7Z</time></trkpt><trkpt lat="45.6038843" lon="11.125807"><ele>992.3333333333334</ele><time>2026-04-19T11:43:46.608Z</time></trkpt><trkpt lat="45.6039168" lon="11.1258878"><ele>992.5</ele><time>2026-04-19T11:43:48.599Z</time></trkpt><trkpt lat="45.6039537" lon="11.1259831"><ele>992.6666666666667</ele><time>2026-04-19T11:43:50.586Z</time></trkpt><trkpt lat="45.6039864" lon="11.1260923"><ele>992.8333333333334</ele><time>2026-04-19T11:43:52.598Z</time></trkpt><trkpt lat="45.6040333" lon="11.126204"><ele>993.0</ele><time>2026-04-19T11:43:54.696Z</time></trkpt><trkpt lat="45.6041007" lon="11.126313"><ele>993.0</ele><time>2026-04-19T11:43:56.686Z</time></trkpt><trkpt lat="45.6041487" lon="11.1264401"><ele>993.0</ele><time>2026-04-19T11:43:58.604Z</time></trkpt><trkpt lat="45.6041998" lon="11.1265526"><ele>993.0</ele><time>2026-04-19T11:44:00.598Z</time></trkpt><trkpt lat="45.6042446" lon="11.1266659"><ele>993.0</ele><time>2026-04-19T11:44:02.605Z</time></trkpt><trkpt lat="45.6042865" lon="11.1267332"><ele>993.0</ele><time>2026-04-19T11:44:04.596Z</time></trkpt><trkpt lat="45.6043255" lon="11.1268051"><ele>993.0</ele><time>2026-04-19T11:44:07.609Z</time></trkpt><trkpt lat="45.604355" lon="11.1268895"><ele>992.7142857142857</ele><time>2026-04-19T11:44:10.596Z</time></trkpt><trkpt lat="45.604388" lon="11.1269771"><ele>992.4285714285716</ele><time>2026-04-19T11:44:13.709Z</time></trkpt><trkpt lat="45.6044085" lon="11.1270693"><ele>992.1428571428572</ele><time>2026-04-19T11:44:17.594Z</time></trkpt><trkpt lat="45.604437" lon="11.1271592"><ele>991.8571428571429</ele><time>2026-04-19T11:44:21.605Z</time></trkpt><trkpt lat="45.6044677" lon="11.1272382"><ele>991.5714285714287</ele><time>2026-04-19T11:44:25.638Z</time></trkpt><trkpt lat="45.6045131" lon="11.1273125"><ele>991.2857142857144</ele><time>2026-04-19T11:44:30.605Z</time></trkpt><trkpt lat="45.6045588" lon="11.1273818"><ele>991.0000000000001</ele><time>2026-04-19T11:44:35.709Z</time></trkpt><trkpt lat="45.6046084" lon="11.1274402"><ele>992.2857142857144</ele><time>2026-04-19T11:44:39.742Z</time></trkpt><trkpt lat="45.604684" lon="11.1275296"><ele>993.5714285714287</ele><time>2026-04-19T11:44:44.603Z</time></trkpt><trkpt lat="45.6047473" lon="11.1275872"><ele>994.8571428571429</ele><time>2026-04-19T11:44:49.732Z</time></trkpt><trkpt lat="45.6048011" lon="11.1276393"><ele>996.1428571428572</ele><time>2026-04-19T11:44:53.605Z</time></trkpt><trkpt lat="45.6048569" lon="11.1276863"><ele>997.4285714285716</ele><time>2026-04-19T11:44:57.694Z</time></trkpt><trkpt lat="45.6049154" lon="11.1277365"><ele>998.7142857142857</ele><time>2026-04-19T11:45:01.599Z</time></trkpt><trkpt lat="45.6049752" lon="11.1277763"><ele>1000.0</ele><time>2026-04-19T11:45:07.607Z</time></trkpt><trkpt lat="45.6050444" lon="11.1277999"><ele>1000.0</ele><time>2026-04-19T11:45:11.687Z</time></trkpt><trkpt lat="45.6051096" lon="11.1277815"><ele>1000.0</ele><time>2026-04-19T11:45:15.602Z</time></trkpt><trkpt lat="45.6051756" lon="11.1277556"><ele>1000.0</ele><time>2026-04-19T11:45:18.59Z</time></trkpt><trkpt lat="45.6052534" lon="11.1277446"><ele>1000.0</ele><time>2026-04-19T11:45:21.692Z</time></trkpt><trkpt lat="45.6053424" lon="11.1277858"><ele>1000.0</ele><time>2026-04-19T11:45:24.592Z</time></trkpt><trkpt lat="45.6054037" lon="11.1278305"><ele>1000.0</ele><time>2026-04-19T11:45:26.626Z</time></trkpt><trkpt lat="45.6054598" lon="11.1278881"><ele>1000.0</ele><time>2026-04-19T11:45:28.706Z</time></trkpt><trkpt lat="45.6054849" lon="11.1279809"><ele>1000.0</ele><time>2026-04-19T11:45:31.598Z</time></trkpt><trkpt lat="45.6054305" lon="11.1280605"><ele>1000.0</ele><time>2026-04-19T11:45:34.689Z</time></trkpt><trkpt lat="45.6053328" lon="11.1281102"><ele>1000.0</ele><time>2026-04-19T11:45:37.71Z</time></trkpt><trkpt lat="45.6052232" lon="11.1281342"><ele>1000.0</ele><time>2026-04-19T11:45:39.603Z</time></trkpt><trkpt lat="45.6051178" lon="11.1281589"><ele>1000.0</ele><time>2026-04-19T11:45:41.6Z</time></trkpt><trkpt lat="45.6050448" lon="11.1281848"><ele>1000.0</ele><time>2026-04-19T11:45:43.701Z</time></trkpt><trkpt lat="45.6049755" lon="11.1282307"><ele>1000.0</ele><time>2026-04-19T11:45:47.713Z</time></trkpt><trkpt lat="45.6049163" lon="11.1282707"><ele>1000.0</ele><time>2026-04-19T11:45:51.606Z</time></trkpt><trkpt lat="45.6048456" lon="11.1282665"><ele>1000.0</ele><time>2026-04-19T11:46:18.688Z</time></trkpt><trkpt lat="45.604774" lon="11.128257"><ele>1000.0</ele><time>2026-04-19T11:46:22.602Z</time></trkpt><trkpt lat="45.6047008" lon="11.1282474"><ele>1000.0</ele><time>2026-04-19T11:46:25.699Z</time></trkpt><trkpt lat="45.6046257" lon="11.1282302"><ele>1000.0</ele><time>2026-04-19T11:46:28.592Z</time></trkpt><trkpt lat="45.6045564" lon="11.1282048"><ele>998.4999999999999</ele><time>2026-04-19T11:46:31.605Z</time></trkpt><trkpt lat="45.6044956" lon="11.1281686"><ele>997.0</ele><time>2026-04-19T11:46:34.59Z</time></trkpt><trkpt lat="45.6044189" lon="11.1281273"><ele>995.5</ele><time>2026-04-19T11:46:38.709Z</time></trkpt><trkpt lat="45.6043442" lon="11.1280759"><ele>994.0</ele><time>2026-04-19T11:46:42.593Z</time></trkpt><trkpt lat="45.6042861" lon="11.1280287"><ele>992.4999999999999</ele><time>2026-04-19T11:46:45.702Z</time></trkpt><trkpt lat="45.6042164" lon="11.1279635"><ele>991.0</ele><time>2026-04-19T11:46:49.607Z</time></trkpt><trkpt lat="45.6041596" lon="11.1278595"><ele>991.0000000000001</ele><time>2026-04-19T11:46:54.598Z</time></trkpt><trkpt lat="45.6041295" lon="11.1277566"><ele>991.0</ele><time>2026-04-19T11:46:59.597Z</time></trkpt><trkpt lat="45.6041338" lon="11.1276552"><ele>991.0000000000001</ele><time>2026-04-19T11:47:04.711Z</time></trkpt><trkpt lat="45.6040941" lon="11.1275793"><ele>991.0000000000001</ele><time>2026-04-19T11:47:11.718Z</time></trkpt><trkpt lat="45.6040107" lon="11.1275454"><ele>991.0</ele><time>2026-04-19T11:47:14.594Z</time></trkpt><trkpt lat="45.6039477" lon="11.1275295"><ele>991.0000000000001</ele><time>2026-04-19T11:47:16.592Z</time></trkpt><trkpt lat="45.6038724" lon="11.1275014"><ele>991.0000000000001</ele><time>2026-04-19T11:47:18.689Z</time></trkpt><trkpt lat="45.603781" lon="11.1274609"><ele>990.9999999999999</ele><time>2026-04-19T11:47:20.587Z</time></trkpt><trkpt lat="45.6036837" lon="11.1274221"><ele>991.0</ele><time>2026-04-19T11:47:22.594Z</time></trkpt><trkpt lat="45.6035766" lon="11.1273742"><ele>991.0</ele><time>2026-04-19T11:47:24.609Z</time></trkpt><trkpt lat="45.6035114" lon="11.1273444"><ele>991.0</ele><time>2026-04-19T11:47:25.609Z</time></trkpt><trkpt lat="45.6034411" lon="11.1273216"><ele>990.9999999999999</ele><time>2026-04-19T11:47:26.606Z</time></trkpt><trkpt lat="45.603369" lon="11.127296"><ele>991.0</ele><time>2026-04-19T11:47:27.606Z</time></trkpt><trkpt lat="45.6033001" lon="11.1272712"><ele>988.1999999999999</ele><time>2026-04-19T11:47:28.599Z</time></trkpt><trkpt lat="45.6032386" lon="11.1272466"><ele>985.3999999999999</ele><time>2026-04-19T11:47:29.599Z</time></trkpt><trkpt lat="45.6031755" lon="11.1272284"><ele>982.6</ele><time>2026-04-19T11:47:30.594Z</time></trkpt><trkpt lat="45.6030842" lon="11.1272733"><ele>979.8</ele><time>2026-04-19T11:47:32.692Z</time></trkpt><trkpt lat="45.6029858" lon="11.1273309"><ele>977.0</ele><time>2026-04-19T11:47:34.607Z</time></trkpt><trkpt lat="45.6028849" lon="11.1274324"><ele>971.2</ele><time>2026-04-19T11:47:36.599Z</time></trkpt><trkpt lat="45.602809" lon="11.1275334"><ele>965.4000000000001</ele><time>2026-04-19T11:47:38.599Z</time></trkpt><trkpt lat="45.6027289" lon="11.1276166"><ele>959.5999999999999</ele><time>2026-04-19T11:47:40.61Z</time></trkpt><trkpt lat="45.6026724" lon="11.1276947"><ele>953.8</ele><time>2026-04-19T11:47:42.6Z</time></trkpt><trkpt lat="45.6026215" lon="11.1277724"><ele>948.0</ele><time>2026-04-19T11:47:44.598Z</time></trkpt><trkpt lat="45.6025557" lon="11.1278809"><ele>948.0</ele><time>2026-04-19T11:47:48.609Z</time></trkpt><trkpt lat="45.6025091" lon="11.1279663"><ele>948.0</ele><time>2026-04-19T11:47:50.623Z</time></trkpt><trkpt lat="45.6024523" lon="11.1280241"><ele>948.0</ele><time>2026-04-19T11:47:52.602Z</time></trkpt><trkpt lat="45.6024028" lon="11.128087"><ele>948.0</ele><time>2026-04-19T11:47:55.608Z</time></trkpt><trkpt lat="45.6024507" lon="11.1282061"><ele>948.0</ele><time>2026-04-19T11:48:12.605Z</time></trkpt><trkpt lat="45.6024868" lon="11.1282977"><ele>948.0</ele><time>2026-04-19T11:48:14.616Z</time></trkpt><trkpt lat="45.6024995" lon="11.128396"><ele>947.142857142857</ele><time>2026-04-19T11:48:16.602Z</time></trkpt><trkpt lat="45.6024997" lon="11.1284871"><ele>946.2857142857142</ele><time>2026-04-19T11:48:18.6Z</time></trkpt><trkpt lat="45.6024851" lon="11.1285824"><ele>945.4285714285714</ele><time>2026-04-19T11:48:20.597Z</time></trkpt><trkpt lat="45.6024661" lon="11.1286883"><ele>944.5714285714286</ele><time>2026-04-19T11:48:22.601Z</time></trkpt><trkpt lat="45.6024477" lon="11.1287877"><ele>943.7142857142858</ele><time>2026-04-19T11:48:24.605Z</time></trkpt><trkpt lat="45.6024275" lon="11.1288743"><ele>942.857142857143</ele><time>2026-04-19T11:48:26.597Z</time></trkpt><trkpt lat="45.6024144" lon="11.1289686"><ele>942.0000000000001</ele><time>2026-04-19T11:48:28.597Z</time></trkpt><trkpt lat="45.6024063" lon="11.1290896"><ele>939.8</ele><time>2026-04-19T11:48:30.595Z</time></trkpt><trkpt lat="45.6023899" lon="11.1292098"><ele>937.6</ele><time>2026-04-19T11:48:32.67Z</time></trkpt><trkpt lat="45.6023619" lon="11.1293321"><ele>935.3999999999999</ele><time>2026-04-19T11:48:34.604Z</time></trkpt><trkpt lat="45.6023246" lon="11.1294942"><ele>933.1999999999999</ele><time>2026-04-19T11:48:36.612Z</time></trkpt><trkpt lat="45.602307" lon="11.1295836"><ele>931.0</ele><time>2026-04-19T11:48:37.606Z</time></trkpt><trkpt lat="45.6022794" lon="11.1297491"><ele>931.0</ele><time>2026-04-19T11:48:39.6Z</time></trkpt><trkpt lat="45.6022173" lon="11.1298827"><ele>930.9999999999999</ele><time>2026-04-19T11:48:41.597Z</time></trkpt><trkpt lat="45.6021268" lon="11.1300101"><ele>930.9999999999999</ele><time>2026-04-19T11:48:43.64Z</time></trkpt><trkpt lat="45.6020983" lon="11.1301078"><ele>931.0</ele><time>2026-04-19T11:48:44.6Z</time></trkpt><trkpt lat="45.6020591" lon="11.1302116"><ele>931.0</ele><time>2026-04-19T11:48:45.61Z</time></trkpt><trkpt lat="45.6020244" lon="11.1303047"><ele>928.8333333333333</ele><time>2026-04-19T11:48:46.598Z</time></trkpt><trkpt lat="45.6019962" lon="11.1304055"><ele>926.6666666666666</ele><time>2026-04-19T11:48:47.608Z</time></trkpt><trkpt lat="45.6019558" lon="11.1305174"><ele>924.5</ele><time>2026-04-19T11:48:48.599Z</time></trkpt><trkpt lat="45.6019271" lon="11.130619"><ele>922.3333333333333</ele><time>2026-04-19T11:48:49.599Z</time></trkpt><trkpt lat="45.6019032" lon="11.1307483"><ele>920.1666666666666</ele><time>2026-04-19T11:48:50.691Z</time></trkpt><trkpt lat="45.6018733" lon="11.1308784"><ele>918.0</ele><time>2026-04-19T11:48:51.613Z</time></trkpt><trkpt lat="45.6018509" lon="11.1309953"><ele>915.6666666666666</ele><time>2026-04-19T11:48:52.608Z</time></trkpt><trkpt lat="45.6018257" lon="11.1311035"><ele>913.3333333333333</ele><time>2026-04-19T11:48:53.706Z</time></trkpt><trkpt lat="45.6017985" lon="11.1312057"><ele>911.0</ele><time>2026-04-19T11:48:54.609Z</time></trkpt><trkpt lat="45.601768" lon="11.1313055"><ele>908.6666666666666</ele><time>2026-04-19T11:48:55.616Z</time></trkpt><trkpt lat="45.6017374" lon="11.1314054"><ele>906.3333333333333</ele><time>2026-04-19T11:48:56.698Z</time></trkpt><trkpt lat="45.6017025" lon="11.1314924"><ele>904.0</ele><time>2026-04-19T11:48:57.602Z</time></trkpt><trkpt lat="45.6016581" lon="11.131629"><ele>903.0</ele><time>2026-04-19T11:48:59.685Z</time></trkpt><trkpt lat="45.6016244" lon="11.1317184"><ele>902.0</ele><time>2026-04-19T11:49:01.594Z</time></trkpt><trkpt lat="45.6016335" lon="11.1318121"><ele>901.0</ele><time>2026-04-19T11:49:05.595Z</time></trkpt><trkpt lat="45.6016785" lon="11.1318955"><ele>900.0</ele><time>2026-04-19T11:49:29.603Z</time></trkpt><trkpt lat="45.6017018" lon="11.1319889"><ele>899.0</ele><time>2026-04-19T11:49:32.594Z</time></trkpt><trkpt lat="45.6017426" lon="11.1320807"><ele>898.0</ele><time>2026-04-19T11:49:35.592Z</time></trkpt><trkpt lat="45.6017952" lon="11.1321654"><ele>897.0</ele><time>2026-04-19T11:49:39.744Z</time></trkpt><trkpt lat="45.6018484" lon="11.1322299"><ele>897.0</ele><time>2026-04-19T11:49:43.601Z</time></trkpt><trkpt lat="45.6019021" lon="11.1322849"><ele>897.0</ele><time>2026-04-19T11:49:46.707Z</time></trkpt><trkpt lat="45.6019803" lon="11.1323876"><ele>897.0</ele><time>2026-04-19T11:49:50.608Z</time></trkpt><trkpt lat="45.60202" lon="11.1324621"><ele>897.0</ele><time>2026-04-19T11:49:53.604Z</time></trkpt><trkpt lat="45.6020382" lon="11.1325658"><ele>897.0</ele><time>2026-04-19T11:49:58.592Z</time></trkpt><trkpt lat="45.6020057" lon="11.1326447"><ele>897.0</ele><time>2026-04-19T11:50:23.593Z</time></trkpt><trkpt lat="45.6019408" lon="11.1327187"><ele>896.2857142857143</ele><time>2026-04-19T11:50:26.741Z</time></trkpt><trkpt lat="45.601869" lon="11.1327953"><ele>895.5714285714286</ele><time>2026-04-19T11:50:30.598Z</time></trkpt><trkpt lat="45.6018438" lon="11.1328959"><ele>894.8571428571429</ele><time>2026-04-19T11:50:33.633Z</time></trkpt><trkpt lat="45.6018217" lon="11.1329822"><ele>894.1428571428571</ele><time>2026-04-19T11:50:36.712Z</time></trkpt><trkpt lat="45.6017821" lon="11.1330726"><ele>893.4285714285713</ele><time>2026-04-19T11:50:40.596Z</time></trkpt><trkpt lat="45.6017616" lon="11.1331795"><ele>892.7142857142857</ele><time>2026-04-19T11:50:45.616Z</time></trkpt><trkpt lat="45.6017504" lon="11.1332752"><ele>892.0</ele><time>2026-04-19T11:50:49.704Z</time></trkpt><trkpt lat="45.6017452" lon="11.1333893"><ele>891.5714285714286</ele><time>2026-04-19T11:50:53.599Z</time></trkpt><trkpt lat="45.601746" lon="11.1334874"><ele>891.1428571428571</ele><time>2026-04-19T11:50:57.719Z</time></trkpt><trkpt lat="45.6017769" lon="11.1335752"><ele>890.7142857142858</ele><time>2026-04-19T11:51:03.592Z</time></trkpt><trkpt lat="45.6018322" lon="11.1336449"><ele>890.2857142857142</ele><time>2026-04-19T11:51:07.595Z</time></trkpt><trkpt lat="45.6018787" lon="11.1337118"><ele>889.8571428571429</ele><time>2026-04-19T11:51:09.591Z</time></trkpt><trkpt lat="45.6019427" lon="11.1338095"><ele>889.4285714285714</ele><time>2026-04-19T11:51:12.595Z</time></trkpt><trkpt lat="45.6019997" lon="11.1338748"><ele>889.0</ele><time>2026-04-19T11:51:14.6Z</time></trkpt><trkpt lat="45.6020558" lon="11.133944"><ele>892.3333333333333</ele><time>2026-04-19T11:51:16.6Z</time></trkpt><trkpt lat="45.6020981" lon="11.1340403"><ele>895.6666666666666</ele><time>2026-04-19T11:51:19.582Z</time></trkpt><trkpt lat="45.6021102" lon="11.1341595"><ele>899.0</ele><time>2026-04-19T11:51:22.606Z</time></trkpt><trkpt lat="45.602123" lon="11.1342519"><ele>902.3333333333333</ele><time>2026-04-19T11:51:24.686Z</time></trkpt><trkpt lat="45.6021333" lon="11.1343467"><ele>905.6666666666666</ele><time>2026-04-19T11:51:26.732Z</time></trkpt><trkpt lat="45.602165" lon="11.1344407"><ele>909.0</ele><time>2026-04-19T11:51:28.603Z</time></trkpt><trkpt lat="45.6021997" lon="11.134544"><ele>909.0</ele><time>2026-04-19T11:51:30.722Z</time></trkpt><trkpt lat="45.6022481" lon="11.1347136"><ele>909.0</ele><time>2026-04-19T11:51:32.605Z</time></trkpt><trkpt lat="45.6022729" lon="11.1348061"><ele>909.0</ele><time>2026-04-19T11:51:33.603Z</time></trkpt><trkpt lat="45.6022939" lon="11.134901"><ele>909.0</ele><time>2026-04-19T11:51:34.711Z</time></trkpt><trkpt lat="45.6023141" lon="11.1349962"><ele>909.0</ele><time>2026-04-19T11:51:35.708Z</time></trkpt><trkpt lat="45.602338" lon="11.1350838"><ele>909.0</ele><time>2026-04-19T11:51:36.699Z</time></trkpt><trkpt lat="45.6023906" lon="11.1352097"><ele>905.7142857142857</ele><time>2026-04-19T11:51:38.698Z</time></trkpt><trkpt lat="45.6024347" lon="11.1352846"><ele>902.4285714285714</ele><time>2026-04-19T11:51:40.605Z</time></trkpt><trkpt lat="45.602493" lon="11.1353348"><ele>899.1428571428571</ele><time>2026-04-19T11:51:42.731Z</time></trkpt><trkpt lat="45.6025602" lon="11.1353792"><ele>895.8571428571429</ele><time>2026-04-19T11:51:46.612Z</time></trkpt><trkpt lat="45.602631" lon="11.135462"><ele>892.5714285714287</ele><time>2026-04-19T11:51:49.725Z</time></trkpt><trkpt lat="45.602679" lon="11.1355221"><ele>889.2857142857143</ele><time>2026-04-19T11:51:51.601Z</time></trkpt><trkpt lat="45.6027294" lon="11.1355862"><ele>886.0</ele><time>2026-04-19T11:51:53.61Z</time></trkpt><trkpt lat="45.6027719" lon="11.1356534"><ele>886.0</ele><time>2026-04-19T11:51:56.614Z</time></trkpt><trkpt lat="45.6028279" lon="11.1357106"><ele>886.0</ele><time>2026-04-19T11:51:59.724Z</time></trkpt><trkpt lat="45.602891" lon="11.1357525"><ele>886.0</ele><time>2026-04-19T11:52:02.616Z</time></trkpt><trkpt lat="45.6029519" lon="11.1358043"><ele>886.0</ele><time>2026-04-19T11:52:05.765Z</time></trkpt><trkpt lat="45.6030081" lon="11.1358869"><ele>886.0</ele><time>2026-04-19T11:52:08.718Z</time></trkpt><trkpt lat="45.6030657" lon="11.1359441"><ele>886.0</ele><time>2026-04-19T11:52:11.604Z</time></trkpt><trkpt lat="45.6031252" lon="11.1359748"><ele>886.0</ele><time>2026-04-19T11:52:14.668Z</time></trkpt><trkpt lat="45.6031952" lon="11.1360243"><ele>886.5714285714286</ele><time>2026-04-19T11:52:18.607Z</time></trkpt><trkpt lat="45.603247" lon="11.1360976"><ele>887.1428571428571</ele><time>2026-04-19T11:52:22.707Z</time></trkpt><trkpt lat="45.6032977" lon="11.136153"><ele>887.7142857142858</ele><time>2026-04-19T11:52:26.599Z</time></trkpt><trkpt lat="45.6033539" lon="11.1362115"><ele>888.2857142857142</ele><time>2026-04-19T11:52:30.699Z</time></trkpt><trkpt lat="45.6034239" lon="11.1362622"><ele>888.8571428571428</ele><time>2026-04-19T11:52:35.614Z</time></trkpt><trkpt lat="45.6034912" lon="11.1362952"><ele>889.4285714285714</ele><time>2026-04-19T11:52:40.697Z</time></trkpt><trkpt lat="45.6035656" lon="11.1363062"><ele>890.0</ele><time>2026-04-19T11:52:45.606Z</time></trkpt><trkpt lat="45.6036317" lon="11.1362895"><ele>887.4285714285714</ele><time>2026-04-19T11:52:53.713Z</time></trkpt><trkpt lat="45.6037019" lon="11.1362958"><ele>884.8571428571428</ele><time>2026-04-19T11:54:16.603Z</time></trkpt><trkpt lat="45.6037134" lon="11.1363866"><ele>882.2857142857142</ele><time>2026-04-19T11:54:25.608Z</time></trkpt><trkpt lat="45.6037756" lon="11.1363646"><ele>879.7142857142858</ele><time>2026-04-19T11:54:30.724Z</time></trkpt><trkpt lat="45.6038007" lon="11.1362705"><ele>877.1428571428571</ele><time>2026-04-19T11:54:37.6Z</time></trkpt><trkpt lat="45.6037415" lon="11.136311"><ele>874.5714285714286</ele><time>2026-04-19T11:55:19.607Z</time></trkpt><trkpt lat="45.6037334" lon="11.1364082"><ele>872.0</ele><time>2026-04-19T11:55:31.597Z</time></trkpt><trkpt lat="45.603791" lon="11.1363457"><ele>872.0</ele><time>2026-04-19T11:55:56.597Z</time></trkpt><trkpt lat="45.6038447" lon="11.1362576"><ele>872.0</ele><time>2026-04-19T11:56:04.602Z</time></trkpt><trkpt lat="45.6038938" lon="11.1362006"><ele>872.0</ele><time>2026-04-19T11:56:09.699Z</time></trkpt><trkpt lat="45.6039461" lon="11.1361499"><ele>872.0</ele><time>2026-04-19T11:56:12.618Z</time></trkpt><trkpt lat="45.6040065" lon="11.136114"><ele>872.0</ele><time>2026-04-19T11:56:16.598Z</time></trkpt><trkpt lat="45.6040538" lon="11.1360539"><ele>872.0</ele><time>2026-04-19T11:56:20.707Z</time></trkpt><trkpt lat="45.6041172" lon="11.1360004"><ele>872.0</ele><time>2026-04-19T11:56:24.613Z</time></trkpt><trkpt lat="45.6041669" lon="11.1359256"><ele>872.0</ele><time>2026-04-19T11:56:29.702Z</time></trkpt><trkpt lat="45.6042328" lon="11.1358883"><ele>872.0</ele><time>2026-04-19T11:56:34.602Z</time></trkpt><trkpt lat="45.604303" lon="11.1358536"><ele>872.0</ele><time>2026-04-19T11:56:38.721Z</time></trkpt><trkpt lat="45.6043806" lon="11.1358709"><ele>872.0</ele><time>2026-04-19T11:56:41.605Z</time></trkpt><trkpt lat="45.604447" lon="11.135855"><ele>872.0</ele><time>2026-04-19T11:56:43.718Z</time></trkpt><trkpt lat="45.604508" lon="11.1358139"><ele>872.0</ele><time>2026-04-19T11:56:44.714Z</time></trkpt><trkpt lat="45.6045729" lon="11.1357881"><ele>872.0</ele><time>2026-04-19T11:56:46.611Z</time></trkpt><trkpt lat="45.6046606" lon="11.1357403"><ele>874.3333333333334</ele><time>2026-04-19T11:56:48.603Z</time></trkpt><trkpt lat="45.6047436" lon="11.1357156"><ele>876.6666666666667</ele><time>2026-04-19T11:56:51.596Z</time></trkpt><trkpt lat="45.6048077" lon="11.1356874"><ele>879.0</ele><time>2026-04-19T11:56:55.6Z</time></trkpt><trkpt lat="45.6048532" lon="11.1356154"><ele>881.3333333333333</ele><time>2026-04-19T11:57:19.715Z</time></trkpt><trkpt lat="45.6049378" lon="11.1355219"><ele>883.6666666666666</ele><time>2026-04-19T11:57:30.611Z</time></trkpt><trkpt lat="45.6050045" lon="11.1354676"><ele>886.0</ele><time>2026-04-19T11:57:33.725Z</time></trkpt><trkpt lat="45.6050606" lon="11.1353736"><ele>885.9999999999999</ele><time>2026-04-19T11:57:36.6Z</time></trkpt><trkpt lat="45.6051345" lon="11.1353022"><ele>886.0</ele><time>2026-04-19T11:57:42.597Z</time></trkpt><trkpt lat="45.6052106" lon="11.1352675"><ele>886.0</ele><time>2026-04-19T11:57:47.601Z</time></trkpt><trkpt lat="45.6052716" lon="11.1351797"><ele>886.0</ele><time>2026-04-19T11:57:59.587Z</time></trkpt><trkpt lat="45.6053443" lon="11.1351429"><ele>885.9999999999999</ele><time>2026-04-19T11:58:03.605Z</time></trkpt><trkpt lat="45.6054086" lon="11.1351186"><ele>886.0</ele><time>2026-04-19T11:58:06.712Z</time></trkpt><trkpt lat="45.6054687" lon="11.1350779"><ele>880.6666666666666</ele><time>2026-04-19T11:58:09.607Z</time></trkpt><trkpt lat="45.6055529" lon="11.1350468"><ele>875.3333333333333</ele><time>2026-04-19T11:58:15.594Z</time></trkpt><trkpt lat="45.6056201" lon="11.1350374"><ele>870.0</ele><time>2026-04-19T11:58:18.726Z</time></trkpt><trkpt lat="45.6056956" lon="11.1350014"><ele>864.6666666666667</ele><time>2026-04-19T11:58:22.696Z</time></trkpt><trkpt lat="45.6057723" lon="11.1350406"><ele>859.3333333333334</ele><time>2026-04-19T11:58:26.606Z</time></trkpt><trkpt lat="45.6058455" lon="11.1350331"><ele>854.0</ele><time>2026-04-19T11:58:29.719Z</time></trkpt><trkpt lat="45.6059243" lon="11.1350222"><ele>854.0</ele><time>2026-04-19T11:58:32.73Z</time></trkpt><trkpt lat="45.6059832" lon="11.1349518"><ele>854.0</ele><time>2026-04-19T11:58:36.591Z</time></trkpt><trkpt lat="45.6060268" lon="11.1348683"><ele>854.0</ele><time>2026-04-19T11:58:39.692Z</time></trkpt><trkpt lat="45.606069" lon="11.1347842"><ele>854.0</ele><time>2026-04-19T11:58:43.705Z</time></trkpt><trkpt lat="45.606132" lon="11.134763"><ele>854.0</ele><time>2026-04-19T11:58:46.591Z</time></trkpt><trkpt lat="45.6062025" lon="11.1347062"><ele>854.0</ele><time>2026-04-19T11:58:53.593Z</time></trkpt><trkpt lat="45.6062789" lon="11.1346931"><ele>854.0</ele><time>2026-04-19T11:58:57.7Z</time></trkpt><trkpt lat="45.6063175" lon="11.1346198"><ele>854.8333333333334</ele><time>2026-04-19T11:59:01.599Z</time></trkpt><trkpt lat="45.6063645" lon="11.1345478"><ele>855.6666666666667</ele><time>2026-04-19T11:59:05.735Z</time></trkpt><trkpt lat="45.6064378" lon="11.1344904"><ele>856.5</ele><time>2026-04-19T11:59:09.592Z</time></trkpt><trkpt lat="45.6065078" lon="11.134479"><ele>857.3333333333333</ele><time>2026-04-19T11:59:12.705Z</time></trkpt><trkpt lat="45.606604" lon="11.1344715"><ele>858.1666666666666</ele><time>2026-04-19T11:59:55.589Z</time></trkpt><trkpt lat="45.6067003" lon="11.1344785"><ele>859.0</ele><time>2026-04-19T12:00:00.588Z</time></trkpt><trkpt lat="45.6067593" lon="11.1344366"><ele>858.9999999999999</ele><time>2026-04-19T12:00:03.678Z</time></trkpt><trkpt lat="45.6068305" lon="11.1344329"><ele>859.0</ele><time>2026-04-19T12:00:06.702Z</time></trkpt><trkpt lat="45.6068973" lon="11.1344062"><ele>859.0</ele><time>2026-04-19T12:00:27.593Z</time></trkpt><trkpt lat="45.6069822" lon="11.1343368"><ele>859.0</ele><time>2026-04-19T12:00:39.705Z</time></trkpt><trkpt lat="45.6070698" lon="11.1342881"><ele>858.9999999999999</ele><time>2026-04-19T12:00:44.605Z</time></trkpt><trkpt lat="45.6071477" lon="11.1341948"><ele>859.0</ele><time>2026-04-19T12:00:49.593Z</time></trkpt><trkpt lat="45.6072056" lon="11.1341593"><ele>853.1666666666666</ele><time>2026-04-19T12:00:53.727Z</time></trkpt><trkpt lat="45.6072891" lon="11.1341485"><ele>847.3333333333333</ele><time>2026-04-19T12:00:57.703Z</time></trkpt><trkpt lat="45.6073541" lon="11.1341314"><ele>841.5</ele><time>2026-04-19T12:01:00.697Z</time></trkpt><trkpt lat="45.6074791" lon="11.1341438"><ele>835.6666666666667</ele><time>2026-04-19T12:02:06.6Z</time></trkpt><trkpt lat="45.6074972" lon="11.1342547"><ele>829.8333333333334</ele><time>2026-04-19T12:02:35.597Z</time></trkpt><trkpt lat="45.6075575" lon="11.1343257"><ele>824.0</ele><time>2026-04-19T12:03:10.68Z</time></trkpt><trkpt lat="45.6076133" lon="11.134404"><ele>823.9999999999999</ele><time>2026-04-19T12:03:14.702Z</time></trkpt><trkpt lat="45.6076677" lon="11.1344614"><ele>824.0</ele><time>2026-04-19T12:03:23.64Z</time></trkpt><trkpt lat="45.6077277" lon="11.1345215"><ele>824.0</ele><time>2026-04-19T12:03:27.703Z</time></trkpt><trkpt lat="45.607818" lon="11.1344322"><ele>824.0</ele><time>2026-04-19T12:04:53.596Z</time></trkpt><trkpt lat="45.6077706" lon="11.1344916"><ele>824.0</ele><time>2026-04-19T12:06:36.597Z</time></trkpt><trkpt lat="45.6077092" lon="11.1344496"><ele>823.9999999999999</ele><time>2026-04-19T12:06:49.589Z</time></trkpt><trkpt lat="45.6076547" lon="11.134397"><ele>824.0</ele><time>2026-04-19T12:06:59.681Z</time></trkpt><trkpt lat="45.607597" lon="11.1343582"><ele>823.9999999999999</ele><time>2026-04-19T12:07:12.601Z</time></trkpt><trkpt lat="45.6075439" lon="11.1343073"><ele>824.0</ele><time>2026-04-19T12:08:08.6Z</time></trkpt><trkpt lat="45.607596" lon="11.1342469"><ele>824.0</ele><time>2026-04-19T12:08:52.594Z</time></trkpt><trkpt lat="45.6075643" lon="11.1341654"><ele>824.0</ele><time>2026-04-19T12:10:15.608Z</time></trkpt><trkpt lat="45.6075736" lon="11.1340708"><ele>824.0</ele><time>2026-04-19T12:10:42.549Z</time></trkpt><trkpt lat="45.6075903" lon="11.1339419"><ele>823.9999999999999</ele><time>2026-04-19T12:10:52.606Z</time></trkpt><trkpt lat="45.607617" lon="11.1338326"><ele>824.0</ele><time>2026-04-19T12:10:56.609Z</time></trkpt><trkpt lat="45.6076662" lon="11.1337587"><ele>827.2857142857142</ele><time>2026-04-19T12:11:02.607Z</time></trkpt><trkpt lat="45.6077107" lon="11.1336926"><ele>830.5714285714286</ele><time>2026-04-19T12:11:14.592Z</time></trkpt><trkpt lat="45.6077277" lon="11.133599"><ele>833.8571428571429</ele><time>2026-04-19T12:11:21.6Z</time></trkpt><trkpt lat="45.6077301" lon="11.1335033"><ele>837.1428571428571</ele><time>2026-04-19T12:11:26.595Z</time></trkpt><trkpt lat="45.6077579" lon="11.1334006"><ele>840.4285714285714</ele><time>2026-04-19T12:11:31.602Z</time></trkpt><trkpt lat="45.6077749" lon="11.1333129"><ele>843.7142857142857</ele><time>2026-04-19T12:11:36.594Z</time></trkpt><trkpt lat="45.6077136" lon="11.1332338"><ele>847.0</ele><time>2026-04-19T12:11:41.604Z</time></trkpt><trkpt lat="45.6076601" lon="11.1331587"><ele>847.7142857142857</ele><time>2026-04-19T12:11:45.607Z</time></trkpt><trkpt lat="45.6076652" lon="11.1330685"><ele>848.4285714285714</ele><time>2026-04-19T12:11:49.599Z</time></trkpt><trkpt lat="45.6076293" lon="11.1329697"><ele>849.1428571428571</ele><time>2026-04-19T12:11:53.603Z</time></trkpt><trkpt lat="45.607618" lon="11.1328676"><ele>849.8571428571429</ele><time>2026-04-19T12:11:57.596Z</time></trkpt><trkpt lat="45.6076114" lon="11.1327648"><ele>850.5714285714286</ele><time>2026-04-19T12:12:02.597Z</time></trkpt><trkpt lat="45.6075803" lon="11.1326498"><ele>851.2857142857142</ele><time>2026-04-19T12:12:05.601Z</time></trkpt><trkpt lat="45.6075747" lon="11.1325547"><ele>852.0</ele><time>2026-04-19T12:12:08.613Z</time></trkpt><trkpt lat="45.6076076" lon="11.1324767"><ele>852.5714285714286</ele><time>2026-04-19T12:12:14.599Z</time></trkpt><trkpt lat="45.6076051" lon="11.1323766"><ele>853.1428571428571</ele><time>2026-04-19T12:12:25.595Z</time></trkpt><trkpt lat="45.6076118" lon="11.1322815"><ele>853.7142857142858</ele><time>2026-04-19T12:12:33.593Z</time></trkpt><trkpt lat="45.6076223" lon="11.1321834"><ele>854.2857142857142</ele><time>2026-04-19T12:12:43.593Z</time></trkpt><trkpt lat="45.607669" lon="11.1321104"><ele>854.8571428571429</ele><time>2026-04-19T12:12:51.597Z</time></trkpt><trkpt lat="45.6077149" lon="11.1320378"><ele>855.4285714285714</ele><time>2026-04-19T12:12:58.609Z</time></trkpt><trkpt lat="45.6077178" lon="11.1319192"><ele>856.0</ele><time>2026-04-19T12:13:10.619Z</time></trkpt><trkpt lat="45.6077306" lon="11.1318155"><ele>856.0000000000001</ele><time>2026-04-19T12:13:14.601Z</time></trkpt><trkpt lat="45.6077347" lon="11.1317092"><ele>856.0</ele><time>2026-04-19T12:13:15.596Z</time></trkpt><trkpt lat="45.6077548" lon="11.1315957"><ele>856.0</ele><time>2026-04-19T12:13:19.609Z</time></trkpt><trkpt lat="45.607784" lon="11.1315141"><ele>856.0</ele><time>2026-04-19T12:13:22.612Z</time></trkpt><trkpt lat="45.6077985" lon="11.131419"><ele>856.0</ele><time>2026-04-19T12:13:26.596Z</time></trkpt><trkpt lat="45.6077873" lon="11.1313262"><ele>856.0000000000001</ele><time>2026-04-19T12:13:30.612Z</time></trkpt><trkpt lat="45.6077743" lon="11.1312332"><ele>856.0</ele><time>2026-04-19T12:13:38.618Z</time></trkpt><trkpt lat="45.6077763" lon="11.1311336"><ele>851.3333333333333</ele><time>2026-04-19T12:13:50.606Z</time></trkpt><trkpt lat="45.6078527" lon="11.1311063"><ele>846.6666666666666</ele><time>2026-04-19T12:13:56.619Z</time></trkpt><trkpt lat="45.6078741" lon="11.131009"><ele>842.0</ele><time>2026-04-19T12:14:07.612Z</time></trkpt><trkpt lat="45.6078783" lon="11.1309136"><ele>837.3333333333333</ele><time>2026-04-19T12:14:12.62Z</time></trkpt><trkpt lat="45.607873" lon="11.1308043"><ele>832.6666666666666</ele><time>2026-04-19T12:14:17.61Z</time></trkpt><trkpt lat="45.6078929" lon="11.1306972"><ele>828.0</ele><time>2026-04-19T12:14:21.598Z</time></trkpt><trkpt lat="45.607922" lon="11.1305863"><ele>828.0000000000001</ele><time>2026-04-19T12:14:25.597Z</time></trkpt><trkpt lat="45.6079475" lon="11.1304858"><ele>828.0</ele><time>2026-04-19T12:14:31.596Z</time></trkpt><trkpt lat="45.6079733" lon="11.1303778"><ele>828.0</ele><time>2026-04-19T12:14:34.612Z</time></trkpt><trkpt lat="45.6080278" lon="11.130324"><ele>828.0</ele><time>2026-04-19T12:14:37.596Z</time></trkpt><trkpt lat="45.6080959" lon="11.1303522"><ele>828.0</ele><time>2026-04-19T12:15:43.59Z</time></trkpt><trkpt lat="45.6081496" lon="11.1302932"><ele>828.0000000000001</ele><time>2026-04-19T12:16:05.605Z</time></trkpt><trkpt lat="45.6082079" lon="11.1302518"><ele>828.0</ele><time>2026-04-19T12:16:12.596Z</time></trkpt><trkpt lat="45.6082741" lon="11.1301824"><ele>828.0000000000001</ele><time>2026-04-19T12:16:17.704Z</time></trkpt><trkpt lat="45.6083396" lon="11.1301365"><ele>828.0</ele><time>2026-04-19T12:16:20.591Z</time></trkpt><trkpt lat="45.6084035" lon="11.1301097"><ele>828.0</ele><time>2026-04-19T12:16:22.59Z</time></trkpt><trkpt lat="45.6084678" lon="11.1300674"><ele>828.0</ele><time>2026-04-19T12:16:31.589Z</time></trkpt><trkpt lat="45.6084075" lon="11.1300299"><ele>828.0</ele><time>2026-04-19T12:16:35.594Z</time></trkpt><trkpt lat="45.6083652" lon="11.1299577"><ele>828.0000000000001</ele><time>2026-04-19T12:16:42.598Z</time></trkpt><trkpt lat="45.6083838" lon="11.1298666"><ele>828.0</ele><time>2026-04-19T12:16:59.597Z</time></trkpt><trkpt lat="45.6083135" lon="11.1298654"><ele>828.7142857142858</ele><time>2026-04-19T12:17:22.595Z</time></trkpt><trkpt lat="45.6082923" lon="11.1297687"><ele>829.4285714285714</ele><time>2026-04-19T12:17:38.601Z</time></trkpt><trkpt lat="45.6082773" lon="11.1296681"><ele>830.1428571428571</ele><time>2026-04-19T12:17:47.602Z</time></trkpt><trkpt lat="45.6082698" lon="11.1295721"><ele>830.8571428571429</ele><time>2026-04-19T12:17:52.601Z</time></trkpt><trkpt lat="45.608237" lon="11.1294746"><ele>831.5714285714286</ele><time>2026-04-19T12:18:02.684Z</time></trkpt><trkpt lat="45.6082255" lon="11.1293754"><ele>832.2857142857143</ele><time>2026-04-19T12:18:11.663Z</time></trkpt><trkpt lat="45.60826" lon="11.129291"><ele>833.0</ele><time>2026-04-19T12:18:18.604Z</time></trkpt><trkpt lat="45.6082177" lon="11.1292056"><ele>833.0000000000001</ele><time>2026-04-19T12:19:09.656Z</time></trkpt><trkpt lat="45.6081906" lon="11.1290937"><ele>833.0</ele><time>2026-04-19T12:19:13.613Z</time></trkpt><trkpt lat="45.6081603" lon="11.1290036"><ele>833.0</ele><time>2026-04-19T12:19:17.603Z</time></trkpt><trkpt lat="45.6081602" lon="11.128893"><ele>833.0</ele><time>2026-04-19T12:19:21.731Z</time></trkpt><trkpt lat="45.6081534" lon="11.1287987"><ele>833.0000000000001</ele><time>2026-04-19T12:19:25.716Z</time></trkpt><trkpt lat="45.608196" lon="11.1287051"><ele>833.0</ele><time>2026-04-19T12:19:29.602Z</time></trkpt><trkpt lat="45.6082175" lon="11.1285784"><ele>833.5714285714286</ele><time>2026-04-19T12:19:34.609Z</time></trkpt><trkpt lat="45.6082267" lon="11.1284853"><ele>834.1428571428571</ele><time>2026-04-19T12:19:37.708Z</time></trkpt><trkpt lat="45.6082282" lon="11.1283891"><ele>834.7142857142858</ele><time>2026-04-19T12:19:41.707Z</time></trkpt><trkpt lat="45.6082541" lon="11.1282949"><ele>835.2857142857142</ele><time>2026-04-19T12:19:47.705Z</time></trkpt><trkpt lat="45.6082596" lon="11.1281957"><ele>835.8571428571429</ele><time>2026-04-19T12:19:52.596Z</time></trkpt><trkpt lat="45.6082533" lon="11.1280544"><ele>836.4285714285714</ele><time>2026-04-19T12:20:00.603Z</time></trkpt><trkpt lat="45.6082449" lon="11.1279564"><ele>837.0</ele><time>2026-04-19T12:20:04.716Z</time></trkpt><trkpt lat="45.6082327" lon="11.1278641"><ele>838.0</ele><time>2026-04-19T12:20:08.592Z</time></trkpt><trkpt lat="45.6082638" lon="11.1277636"><ele>839.0</ele><time>2026-04-19T12:20:12.598Z</time></trkpt><trkpt lat="45.6082615" lon="11.1276618"><ele>840.0</ele><time>2026-04-19T12:20:17.602Z</time></trkpt><trkpt lat="45.6082921" lon="11.1275674"><ele>841.0</ele><time>2026-04-19T12:20:21.62Z</time></trkpt><trkpt lat="45.6082894" lon="11.1274563"><ele>842.0</ele><time>2026-04-19T12:20:27.602Z</time></trkpt><trkpt lat="45.6083206" lon="11.1273607"><ele>843.0</ele><time>2026-04-19T12:20:31.602Z</time></trkpt><trkpt lat="45.6083532" lon="11.1272684"><ele>844.0</ele><time>2026-04-19T12:20:35.602Z</time></trkpt><trkpt lat="45.6083742" lon="11.1271683"><ele>845.5714285714286</ele><time>2026-04-19T12:20:39.596Z</time></trkpt><trkpt lat="45.6084057" lon="11.1270766"><ele>847.1428571428571</ele><time>2026-04-19T12:20:42.603Z</time></trkpt><trkpt lat="45.608438" lon="11.1269817"><ele>848.7142857142858</ele><time>2026-04-19T12:20:46.599Z</time></trkpt><trkpt lat="45.6084577" lon="11.126883"><ele>850.2857142857142</ele><time>2026-04-19T12:20:50.606Z</time></trkpt><trkpt lat="45.6084705" lon="11.1267926"><ele>851.8571428571428</ele><time>2026-04-19T12:20:54.606Z</time></trkpt><trkpt lat="45.6084873" lon="11.1267036"><ele>853.4285714285714</ele><time>2026-04-19T12:20:58.603Z</time></trkpt><trkpt lat="45.6084859" lon="11.1265922"><ele>855.0</ele><time>2026-04-19T12:21:02.602Z</time></trkpt><trkpt lat="45.6084761" lon="11.1264914"><ele>857.4285714285714</ele><time>2026-04-19T12:21:07.602Z</time></trkpt><trkpt lat="45.6084896" lon="11.1263933"><ele>859.8571428571428</ele><time>2026-04-19T12:21:12.605Z</time></trkpt><trkpt lat="45.6085065" lon="11.126297"><ele>862.2857142857142</ele><time>2026-04-19T12:21:16.598Z</time></trkpt><trkpt lat="45.6085594" lon="11.1262096"><ele>864.7142857142858</ele><time>2026-04-19T12:21:20.601Z</time></trkpt><trkpt lat="45.6085893" lon="11.1261293"><ele>867.1428571428571</ele><time>2026-04-19T12:21:23.69Z</time></trkpt><trkpt lat="45.608613" lon="11.126039"><ele>869.5714285714286</ele><time>2026-04-19T12:21:26.603Z</time></trkpt><trkpt lat="45.6086352" lon="11.1259406"><ele>872.0</ele><time>2026-04-19T12:21:30.611Z</time></trkpt><trkpt lat="45.6086587" lon="11.1258275"><ele>862.5714285714286</ele><time>2026-04-19T12:21:34.606Z</time></trkpt><trkpt lat="45.6086932" lon="11.1257427"><ele>853.1428571428571</ele><time>2026-04-19T12:21:39.602Z</time></trkpt><trkpt lat="45.6087102" lon="11.1256421"><ele>843.7142857142858</ele><time>2026-04-19T12:21:45.601Z</time></trkpt><trkpt lat="45.6087075" lon="11.1255385"><ele>834.2857142857142</ele><time>2026-04-19T12:21:50.602Z</time></trkpt><trkpt lat="45.6086969" lon="11.1254444"><ele>824.8571428571428</ele><time>2026-04-19T12:21:54.599Z</time></trkpt><trkpt lat="45.6087072" lon="11.1253397"><ele>815.4285714285714</ele><time>2026-04-19T12:21:59.608Z</time></trkpt><trkpt lat="45.6087277" lon="11.1252265"><ele>806.0</ele><time>2026-04-19T12:22:04.597Z</time></trkpt><trkpt lat="45.6087306" lon="11.1251349"><ele>805.2857142857143</ele><time>2026-04-19T12:22:08.605Z</time></trkpt><trkpt lat="45.6087222" lon="11.1250408"><ele>804.5714285714286</ele><time>2026-04-19T12:22:12.595Z</time></trkpt><trkpt lat="45.6087234" lon="11.124942"><ele>803.8571428571429</ele><time>2026-04-19T12:22:16.603Z</time></trkpt><trkpt lat="45.6086808" lon="11.1248715"><ele>803.1428571428571</ele><time>2026-04-19T12:22:20.597Z</time></trkpt><trkpt lat="45.6086136" lon="11.1248095"><ele>802.4285714285713</ele><time>2026-04-19T12:22:24.606Z</time></trkpt><trkpt lat="45.6085546" lon="11.1247768"><ele>801.7142857142857</ele><time>2026-04-19T12:22:27.612Z</time></trkpt><trkpt lat="45.608497" lon="11.1247113"><ele>801.0</ele><time>2026-04-19T12:22:31.7Z</time></trkpt><trkpt lat="45.6084511" lon="11.1246267"><ele>809.0</ele><time>2026-04-19T12:22:38.614Z</time></trkpt><trkpt lat="45.6084023" lon="11.1245522"><ele>817.0</ele><time>2026-04-19T12:22:44.606Z</time></trkpt><trkpt lat="45.6083479" lon="11.1244967"><ele>825.0</ele><time>2026-04-19T12:22:49.603Z</time></trkpt><trkpt lat="45.6083375" lon="11.1244066"><ele>833.0</ele><time>2026-04-19T12:22:53.599Z</time></trkpt><trkpt lat="45.6083502" lon="11.1243114"><ele>841.0</ele><time>2026-04-19T12:22:57.608Z</time></trkpt><trkpt lat="45.608317" lon="11.124211"><ele>849.0</ele><time>2026-04-19T12:23:02.602Z</time></trkpt><trkpt lat="45.6083447" lon="11.1241145"><ele>857.0</ele><time>2026-04-19T12:23:06.657Z</time></trkpt><trkpt lat="45.6083768" lon="11.1240268"><ele>858.7142857142857</ele><time>2026-04-19T12:23:13.59Z</time></trkpt><trkpt lat="45.6084078" lon="11.1239314"><ele>860.4285714285713</ele><time>2026-04-19T12:23:19.714Z</time></trkpt><trkpt lat="45.6084334" lon="11.1238219"><ele>862.1428571428571</ele><time>2026-04-19T12:23:25.6Z</time></trkpt><trkpt lat="45.6084387" lon="11.1237167"><ele>863.8571428571429</ele><time>2026-04-19T12:23:32.605Z</time></trkpt><trkpt lat="45.608439" lon="11.1236134"><ele>865.5714285714286</ele><time>2026-04-19T12:23:38.606Z</time></trkpt><trkpt lat="45.6084365" lon="11.12352"><ele>867.2857142857143</ele><time>2026-04-19T12:23:43.601Z</time></trkpt><trkpt lat="45.6084557" lon="11.1234332"><ele>869.0</ele><time>2026-04-19T12:23:51.617Z</time></trkpt><trkpt lat="45.6084364" lon="11.1233444"><ele>869.0</ele><time>2026-04-19T12:23:55.698Z</time></trkpt><trkpt lat="45.6084322" lon="11.1232535"><ele>869.0</ele><time>2026-04-19T12:23:59.601Z</time></trkpt><trkpt lat="45.6084474" lon="11.1231619"><ele>869.0</ele><time>2026-04-19T12:24:04.601Z</time></trkpt><trkpt lat="45.6085" lon="11.1231038"><ele>869.0</ele><time>2026-04-19T12:24:09.615Z</time></trkpt><trkpt lat="45.608517" lon="11.1230078"><ele>869.0</ele><time>2026-04-19T12:24:17.613Z</time></trkpt><trkpt lat="45.6085275" lon="11.1228667"><ele>869.0</ele><time>2026-04-19T12:24:27.59Z</time></trkpt><trkpt lat="45.608539" lon="11.1227641"><ele>869.0</ele><time>2026-04-19T12:24:34.606Z</time></trkpt><trkpt lat="45.6085938" lon="11.1227067"><ele>873.2857142857143</ele><time>2026-04-19T12:24:40.589Z</time></trkpt><trkpt lat="45.6086351" lon="11.1226375"><ele>877.5714285714284</ele><time>2026-04-19T12:24:46.599Z</time></trkpt><trkpt lat="45.6086209" lon="11.1225456"><ele>881.8571428571428</ele><time>2026-04-19T12:24:53.59Z</time></trkpt><trkpt lat="45.6086057" lon="11.1224407"><ele>886.1428571428571</ele><time>2026-04-19T12:25:00.604Z</time></trkpt><trkpt lat="45.6085985" lon="11.1223472"><ele>890.4285714285713</ele><time>2026-04-19T12:25:04.6Z</time></trkpt><trkpt lat="45.6085912" lon="11.1222509"><ele>894.7142857142856</ele><time>2026-04-19T12:25:09.608Z</time></trkpt><trkpt lat="45.6085764" lon="11.1221602"><ele>898.9999999999999</ele><time>2026-04-19T12:25:21.6Z</time></trkpt><trkpt lat="45.60853" lon="11.1220768"><ele>899.3333333333334</ele><time>2026-04-19T12:25:36.599Z</time></trkpt><trkpt lat="45.6085441" lon="11.1219396"><ele>899.6666666666667</ele><time>2026-04-19T12:25:42.601Z</time></trkpt><trkpt lat="45.6085506" lon="11.12185"><ele>900.0</ele><time>2026-04-19T12:25:46.609Z</time></trkpt><trkpt lat="45.6085655" lon="11.1217581"><ele>900.3333333333333</ele><time>2026-04-19T12:25:50.606Z</time></trkpt><trkpt lat="45.6086275" lon="11.1216852"><ele>900.6666666666666</ele><time>2026-04-19T12:25:54.602Z</time></trkpt><trkpt lat="45.6086839" lon="11.1215983"><ele>901.0</ele><time>2026-04-19T12:25:59.589Z</time></trkpt><trkpt lat="45.6086844" lon="11.1215064"><ele>900.9999999999999</ele><time>2026-04-19T12:26:03.615Z</time></trkpt><trkpt lat="45.6086653" lon="11.1214157"><ele>901.0</ele><time>2026-04-19T12:26:06.609Z</time></trkpt><trkpt lat="45.6085713" lon="11.121395"><ele>901.0</ele><time>2026-04-19T12:26:14.599Z</time></trkpt><trkpt lat="45.6086566" lon="11.1214387"><ele>901.0</ele><time>2026-04-19T12:28:27.724Z</time></trkpt><trkpt lat="45.6086886" lon="11.1215287"><ele>900.9999999999999</ele><time>2026-04-19T12:28:31.591Z</time></trkpt><trkpt lat="45.6086854" lon="11.1216206"><ele>901.0</ele><time>2026-04-19T12:28:35.593Z</time></trkpt><trkpt lat="45.6086572" lon="11.1217767"><ele>901.0</ele><time>2026-04-19T12:28:41.6Z</time></trkpt><trkpt lat="45.6086346" lon="11.1218778"><ele>901.0000000000001</ele><time>2026-04-19T12:28:46.598Z</time></trkpt><trkpt lat="45.6086529" lon="11.121973"><ele>901.0</ele><time>2026-04-19T12:28:49.599Z</time></trkpt><trkpt lat="45.6086719" lon="11.1220868"><ele>901.0</ele><time>2026-04-19T12:28:52.602Z</time></trkpt><trkpt lat="45.6086672" lon="11.122179"><ele>901.0000000000001</ele><time>2026-04-19T12:28:54.596Z</time></trkpt><trkpt lat="45.6086416" lon="11.1222816"><ele>901.0</ele><time>2026-04-19T12:28:57.602Z</time></trkpt><trkpt lat="45.6086207" lon="11.122378"><ele>901.0</ele><time>2026-04-19T12:29:00.597Z</time></trkpt><trkpt lat="45.6086022" lon="11.1224746"><ele>900.6666666666666</ele><time>2026-04-19T12:29:03.602Z</time></trkpt><trkpt lat="45.6086228" lon="11.1225831"><ele>900.3333333333333</ele><time>2026-04-19T12:29:07.606Z</time></trkpt><trkpt lat="45.6086407" lon="11.1226947"><ele>900.0</ele><time>2026-04-19T12:29:12.596Z</time></trkpt><trkpt lat="45.6086771" lon="11.1227727"><ele>899.6666666666667</ele><time>2026-04-19T12:29:16.592Z</time></trkpt><trkpt lat="45.608711" lon="11.1228693"><ele>899.3333333333334</ele><time>2026-04-19T12:29:19.597Z</time></trkpt><trkpt lat="45.6087318" lon="11.1230034"><ele>899.0</ele><time>2026-04-19T12:29:23.601Z</time></trkpt><trkpt lat="45.6087481" lon="11.1230955"><ele>874.75</ele><time>2026-04-19T12:29:25.609Z</time></trkpt><trkpt lat="45.6087584" lon="11.1232171"><ele>850.5</ele><time>2026-04-19T12:29:31.603Z</time></trkpt><trkpt lat="45.6087646" lon="11.1233376"><ele>826.25</ele><time>2026-04-19T12:29:34.69Z</time></trkpt><trkpt lat="45.6087757" lon="11.1234291"><ele>802.0</ele><time>2026-04-19T12:29:37.601Z</time></trkpt><trkpt lat="45.6089634" lon="11.1232763"><ele>801.9999999999999</ele><time>2026-04-19T12:29:55.603Z</time></trkpt><trkpt lat="45.6090054" lon="11.1233673"><ele>802.0</ele><time>2026-04-19T12:29:58.673Z</time></trkpt><trkpt lat="45.6090549" lon="11.1232843"><ele>802.0</ele><time>2026-04-19T12:30:00.719Z</time></trkpt><trkpt lat="45.6090753" lon="11.1231644"><ele>802.0</ele><time>2026-04-19T12:30:03.607Z</time></trkpt><trkpt lat="45.6090894" lon="11.1230605"><ele>801.9999999999999</ele><time>2026-04-19T12:30:06.615Z</time></trkpt><trkpt lat="45.6090782" lon="11.1229538"><ele>802.0</ele><time>2026-04-19T12:30:10.728Z</time></trkpt><trkpt lat="45.6090538" lon="11.1228685"><ele>801.9999999999999</ele><time>2026-04-19T12:30:13.727Z</time></trkpt><trkpt lat="45.6090266" lon="11.1227688"><ele>802.0</ele><time>2026-04-19T12:30:16.607Z</time></trkpt><trkpt lat="45.6090582" lon="11.1226824"><ele>802.0</ele><time>2026-04-19T12:30:18.654Z</time></trkpt><trkpt lat="45.6090915" lon="11.1226004"><ele>802.0</ele><time>2026-04-19T12:30:20.72Z</time></trkpt><trkpt lat="45.6090721" lon="11.1227796"><ele>801.9999999999999</ele><time>2026-04-19T12:30:23.689Z</time></trkpt><trkpt lat="45.6090731" lon="11.1226718"><ele>802.0</ele><time>2026-04-19T12:30:28.244Z</time></trkpt><trkpt lat="45.6091877" lon="11.1224707"><ele>802.0</ele><time>2026-04-19T12:30:35.72Z</time></trkpt><trkpt lat="45.6092491" lon="11.1224292"><ele>802.0</ele><time>2026-04-19T12:30:38.609Z</time></trkpt><trkpt lat="45.6093195" lon="11.1224302"><ele>802.0</ele><time>2026-04-19T12:30:42.601Z</time></trkpt><trkpt lat="45.6093636" lon="11.1225069"><ele>802.0</ele><time>2026-04-19T12:30:48.063Z</time></trkpt><trkpt lat="45.6093722" lon="11.1226021"><ele>802.0</ele><time>2026-04-19T12:31:05.726Z</time></trkpt><trkpt lat="45.6093537" lon="11.122727"><ele>802.0</ele><time>2026-04-19T12:31:25.685Z</time></trkpt><trkpt lat="45.6093205" lon="11.1228124"><ele>802.0</ele><time>2026-04-19T12:31:40.499Z</time></trkpt><trkpt lat="45.6093452" lon="11.1229031"><ele>802.0</ele><time>2026-04-19T12:31:44.621Z</time></trkpt><trkpt lat="45.6093548" lon="11.123008"><ele>802.0</ele><time>2026-04-19T12:31:48.601Z</time></trkpt><trkpt lat="45.6093531" lon="11.1231039"><ele>802.0</ele><time>2026-04-19T12:31:52.617Z</time></trkpt><trkpt lat="45.6093534" lon="11.1232086"><ele>802.0</ele><time>2026-04-19T12:31:57.7Z</time></trkpt><trkpt lat="45.6094002" lon="11.1232944"><ele>802.0</ele><time>2026-04-19T12:32:02.608Z</time></trkpt><trkpt lat="45.6094303" lon="11.1233762"><ele>802.0</ele><time>2026-04-19T12:32:05.593Z</time></trkpt><trkpt lat="45.6094662" lon="11.1234532"><ele>802.0</ele><time>2026-04-19T12:32:08.603Z</time></trkpt><trkpt lat="45.6094939" lon="11.1235692"><ele>794.9999999999999</ele><time>2026-04-19T12:32:12.64Z</time></trkpt><trkpt lat="45.6095155" lon="11.1237072"><ele>788.0</ele><time>2026-04-19T12:32:16.605Z</time></trkpt><trkpt lat="45.6095521" lon="11.1238319"><ele>781.0</ele><time>2026-04-19T12:32:19.603Z</time></trkpt><trkpt lat="45.6095844" lon="11.1239499"><ele>774.0</ele><time>2026-04-19T12:32:22.762Z</time></trkpt><trkpt lat="45.6096086" lon="11.1240468"><ele>767.0</ele><time>2026-04-19T12:32:24.61Z</time></trkpt><trkpt lat="45.6096563" lon="11.1241417"><ele>760.0</ele><time>2026-04-19T12:32:27.605Z</time></trkpt><trkpt lat="45.6096977" lon="11.1242193"><ele>756.3333333333334</ele><time>2026-04-19T12:32:30.714Z</time></trkpt><trkpt lat="45.6097366" lon="11.1243335"><ele>752.6666666666667</ele><time>2026-04-19T12:32:33.6Z</time></trkpt><trkpt lat="45.6097612" lon="11.1244227"><ele>749.0</ele><time>2026-04-19T12:32:35.728Z</time></trkpt><trkpt lat="45.6097824" lon="11.1245092"><ele>745.3333333333334</ele><time>2026-04-19T12:32:37.71Z</time></trkpt><trkpt lat="45.60983" lon="11.1246196"><ele>741.6666666666666</ele><time>2026-04-19T12:32:40.592Z</time></trkpt><trkpt lat="45.6098711" lon="11.1246927"><ele>738.0</ele><time>2026-04-19T12:32:42.604Z</time></trkpt><trkpt lat="45.6099226" lon="11.1248055"><ele>738.0</ele><time>2026-04-19T12:32:45.727Z</time></trkpt><trkpt lat="45.6099824" lon="11.1248782"><ele>738.0</ele><time>2026-04-19T12:32:48.595Z</time></trkpt><trkpt lat="45.6100016" lon="11.1249933"><ele>738.0</ele><time>2026-04-19T12:32:51.671Z</time></trkpt><trkpt lat="45.6100249" lon="11.1250775"><ele>738.0</ele><time>2026-04-19T12:32:53.608Z</time></trkpt><trkpt lat="45.6100706" lon="11.125186"><ele>738.0</ele><time>2026-04-19T12:32:55.607Z</time></trkpt><trkpt lat="45.6101083" lon="11.1253087"><ele>738.0</ele><time>2026-04-19T12:32:57.683Z</time></trkpt><trkpt lat="45.610124" lon="11.1254343"><ele>738.8</ele><time>2026-04-19T12:32:59.697Z</time></trkpt><trkpt lat="45.6101872" lon="11.1255176"><ele>739.5999999999999</ele><time>2026-04-19T12:33:01.607Z</time></trkpt><trkpt lat="45.6102366" lon="11.1256121"><ele>740.4000000000001</ele><time>2026-04-19T12:33:03.602Z</time></trkpt><trkpt lat="45.6102882" lon="11.1257146"><ele>741.2</ele><time>2026-04-19T12:33:06.699Z</time></trkpt><trkpt lat="45.6102872" lon="11.1258537"><ele>742.0</ele><time>2026-04-19T12:33:08.673Z</time></trkpt><trkpt lat="45.6102709" lon="11.1259982"><ele>740.4000000000001</ele><time>2026-04-19T12:33:10.608Z</time></trkpt><trkpt lat="45.6102764" lon="11.1261528"><ele>738.8000000000001</ele><time>2026-04-19T12:33:12.607Z</time></trkpt><trkpt lat="45.6102847" lon="11.1262761"><ele>737.2</ele><time>2026-04-19T12:33:14.602Z</time></trkpt><trkpt lat="45.6102602" lon="11.1263845"><ele>735.6</ele><time>2026-04-19T12:33:16.688Z</time></trkpt><trkpt lat="45.6102345" lon="11.1265409"><ele>734.0</ele><time>2026-04-19T12:33:19.605Z</time></trkpt><trkpt lat="45.6102178" lon="11.1266406"><ele>732.6</ele><time>2026-04-19T12:33:21.606Z</time></trkpt><trkpt lat="45.6102173" lon="11.1267527"><ele>731.2</ele><time>2026-04-19T12:33:23.719Z</time></trkpt><trkpt lat="45.6102146" lon="11.1268963"><ele>729.8000000000001</ele><time>2026-04-19T12:33:25.602Z</time></trkpt><trkpt lat="45.6102175" lon="11.1270222"><ele>728.4000000000001</ele><time>2026-04-19T12:33:27.692Z</time></trkpt><trkpt lat="45.6102318" lon="11.1271871"><ele>727.0</ele><time>2026-04-19T12:33:29.674Z</time></trkpt><trkpt lat="45.6102425" lon="11.1273076"><ele>724.6</ele><time>2026-04-19T12:33:31.599Z</time></trkpt><trkpt lat="45.6102396" lon="11.1274357"><ele>722.2</ele><time>2026-04-19T12:33:33.69Z</time></trkpt><trkpt lat="45.6102485" lon="11.1275544"><ele>719.8</ele><time>2026-04-19T12:33:35.611Z</time></trkpt><trkpt lat="45.6102774" lon="11.1276446"><ele>717.4</ele><time>2026-04-19T12:33:37.708Z</time></trkpt><trkpt lat="45.6103207" lon="11.1277436"><ele>715.0</ele><time>2026-04-19T12:33:41.599Z</time></trkpt><trkpt lat="45.6103791" lon="11.1279069"><ele>709.8333333333334</ele><time>2026-04-19T12:33:57.607Z</time></trkpt><trkpt lat="45.6104085" lon="11.1280207"><ele>704.6666666666667</ele><time>2026-04-19T12:34:00.609Z</time></trkpt><trkpt lat="45.6103941" lon="11.1281488"><ele>699.5</ele><time>2026-04-19T12:34:03.61Z</time></trkpt><trkpt lat="45.6103892" lon="11.1282495"><ele>694.3333333333334</ele><time>2026-04-19T12:34:05.605Z</time></trkpt><trkpt lat="45.6103827" lon="11.1283753"><ele>689.1666666666666</ele><time>2026-04-19T12:34:08.605Z</time></trkpt><trkpt lat="45.6103689" lon="11.1284836"><ele>684.0</ele><time>2026-04-19T12:34:12.611Z</time></trkpt><trkpt lat="45.6103688" lon="11.1285909"><ele>681.6666666666666</ele><time>2026-04-19T12:34:18.607Z</time></trkpt><trkpt lat="45.6103715" lon="11.1286812"><ele>679.3333333333334</ele><time>2026-04-19T12:34:22.603Z</time></trkpt><trkpt lat="45.6103838" lon="11.1287713"><ele>677.0</ele><time>2026-04-19T12:34:25.602Z</time></trkpt><trkpt lat="45.6104343" lon="11.128857"><ele>674.6666666666667</ele><time>2026-04-19T12:34:28.612Z</time></trkpt><trkpt lat="45.6104658" lon="11.1289379"><ele>672.3333333333334</ele><time>2026-04-19T12:34:31.604Z</time></trkpt><trkpt lat="45.6105069" lon="11.1290957"><ele>670.0</ele><time>2026-04-19T12:34:35.597Z</time></trkpt><trkpt lat="45.6105312" lon="11.1292153"><ele>670.0</ele><time>2026-04-19T12:34:38.603Z</time></trkpt><trkpt lat="45.6105497" lon="11.1293033"><ele>670.0</ele><time>2026-04-19T12:34:49.598Z</time></trkpt><trkpt lat="45.6105285" lon="11.1294056"><ele>670.0</ele><time>2026-04-19T12:36:01.595Z</time></trkpt><trkpt lat="45.6105784" lon="11.1293432"><ele>670.0</ele><time>2026-04-19T12:36:32.594Z</time></trkpt><trkpt lat="45.6106481" lon="11.1292473"><ele>670.0</ele><time>2026-04-19T12:36:35.595Z</time></trkpt><trkpt lat="45.6107143" lon="11.1291261"><ele>670.0</ele><time>2026-04-19T12:36:37.603Z</time></trkpt><trkpt lat="45.6107588" lon="11.1290029"><ele>670.0</ele><time>2026-04-19T12:36:39.596Z</time></trkpt><trkpt lat="45.6107908" lon="11.1288921"><ele>670.0</ele><time>2026-04-19T12:36:42.594Z</time></trkpt><trkpt lat="45.6108378" lon="11.1288111"><ele>670.0</ele><time>2026-04-19T12:36:45.599Z</time></trkpt><trkpt lat="45.6109084" lon="11.1288226"><ele>670.0</ele><time>2026-04-19T12:36:48.59Z</time></trkpt><trkpt lat="45.6109183" lon="11.128925"><ele>670.0</ele><time>2026-04-19T12:36:52.594Z</time></trkpt><trkpt lat="45.6108772" lon="11.1290201"><ele>670.0</ele><time>2026-04-19T12:36:57.592Z</time></trkpt><trkpt lat="45.610864" lon="11.129129"><ele>667.8</ele><time>2026-04-19T12:36:59.592Z</time></trkpt><trkpt lat="45.6108767" lon="11.1292938"><ele>665.6</ele><time>2026-04-19T12:37:01.599Z</time></trkpt><trkpt lat="45.6108699" lon="11.1294044"><ele>663.4000000000001</ele><time>2026-04-19T12:37:02.599Z</time></trkpt><trkpt lat="45.6108608" lon="11.1295244"><ele>661.2</ele><time>2026-04-19T12:37:03.602Z</time></trkpt><trkpt lat="45.6108625" lon="11.129655"><ele>659.0</ele><time>2026-04-19T12:37:04.593Z</time></trkpt><trkpt lat="45.6108613" lon="11.1297756"><ele>659.0</ele><time>2026-04-19T12:37:05.598Z</time></trkpt><trkpt lat="45.6108625" lon="11.129883"><ele>659.0</ele><time>2026-04-19T12:37:06.599Z</time></trkpt><trkpt lat="45.6108638" lon="11.1299865"><ele>659.0</ele><time>2026-04-19T12:37:07.602Z</time></trkpt><trkpt lat="45.6108681" lon="11.1300785"><ele>659.0</ele><time>2026-04-19T12:37:08.602Z</time></trkpt><trkpt lat="45.6108756" lon="11.130176"><ele>659.0</ele><time>2026-04-19T12:37:09.6Z</time></trkpt><trkpt lat="45.6109002" lon="11.1302863"><ele>659.0</ele><time>2026-04-19T12:37:10.608Z</time></trkpt><trkpt lat="45.6109385" lon="11.1304263"><ele>658.0</ele><time>2026-04-19T12:37:11.607Z</time></trkpt><trkpt lat="45.6109927" lon="11.1305643"><ele>657.0</ele><time>2026-04-19T12:37:12.684Z</time></trkpt><trkpt lat="45.611101" lon="11.1306792"><ele>656.0</ele><time>2026-04-19T12:37:13.641Z</time></trkpt><trkpt lat="45.611167" lon="11.1307815"><ele>655.0</ele><time>2026-04-19T12:37:14.608Z</time></trkpt><trkpt lat="45.6112185" lon="11.1309104"><ele>654.0</ele><time>2026-04-19T12:37:15.597Z</time></trkpt><trkpt lat="45.6112653" lon="11.13102"><ele>653.5</ele><time>2026-04-19T12:37:16.605Z</time></trkpt><trkpt lat="45.6113034" lon="11.1311953"><ele>653.0</ele><time>2026-04-19T12:37:18.605Z</time></trkpt><trkpt lat="45.6113575" lon="11.1313538"><ele>652.5</ele><time>2026-04-19T12:37:19.602Z</time></trkpt><trkpt lat="45.6113561" lon="11.1314998"><ele>652.0</ele><time>2026-04-19T12:37:20.599Z</time></trkpt><trkpt lat="45.6113725" lon="11.1316373"><ele>649.1666666666667</ele><time>2026-04-19T12:37:21.595Z</time></trkpt><trkpt lat="45.6113535" lon="11.1317604"><ele>646.3333333333334</ele><time>2026-04-19T12:37:22.594Z</time></trkpt><trkpt lat="45.6113588" lon="11.1318961"><ele>643.5</ele><time>2026-04-19T12:37:23.6Z</time></trkpt><trkpt lat="45.6113532" lon="11.1320328"><ele>640.6666666666666</ele><time>2026-04-19T12:37:24.595Z</time></trkpt><trkpt lat="45.6113633" lon="11.1321516"><ele>637.8333333333333</ele><time>2026-04-19T12:37:25.597Z</time></trkpt><trkpt lat="45.6113748" lon="11.1322536"><ele>635.0</ele><time>2026-04-19T12:37:26.591Z</time></trkpt><trkpt lat="45.6113848" lon="11.1323634"><ele>632.6666666666666</ele><time>2026-04-19T12:37:27.594Z</time></trkpt><trkpt lat="45.6113919" lon="11.1324673"><ele>630.3333333333333</ele><time>2026-04-19T12:37:28.596Z</time></trkpt><trkpt lat="45.6114126" lon="11.1325707"><ele>628.0</ele><time>2026-04-19T12:37:29.591Z</time></trkpt><trkpt lat="45.6114363" lon="11.1326771"><ele>625.6666666666666</ele><time>2026-04-19T12:37:30.592Z</time></trkpt><trkpt lat="45.6114476" lon="11.1327896"><ele>623.3333333333334</ele><time>2026-04-19T12:37:31.627Z</time></trkpt><trkpt lat="45.6114572" lon="11.132905"><ele>621.0</ele><time>2026-04-19T12:37:32.597Z</time></trkpt><trkpt lat="45.6114769" lon="11.1330172"><ele>620.9999999999999</ele><time>2026-04-19T12:37:33.594Z</time></trkpt><trkpt lat="45.6114783" lon="11.133117"><ele>621.0</ele><time>2026-04-19T12:37:34.68Z</time></trkpt><trkpt lat="45.6114683" lon="11.1332158"><ele>621.0</ele><time>2026-04-19T12:37:35.6Z</time></trkpt><trkpt lat="45.6114421" lon="11.1333273"><ele>621.0</ele><time>2026-04-19T12:37:36.611Z</time></trkpt><trkpt lat="45.6114154" lon="11.1334251"><ele>621.0</ele><time>2026-04-19T12:37:37.68Z</time></trkpt><trkpt lat="45.6113748" lon="11.1335029"><ele>620.9999999999999</ele><time>2026-04-19T12:37:38.61Z</time></trkpt><trkpt lat="45.6113211" lon="11.1335863"><ele>621.0</ele><time>2026-04-19T12:37:39.61Z</time></trkpt><trkpt lat="45.6112608" lon="11.1336953"><ele>619.6</ele><time>2026-04-19T12:37:40.604Z</time></trkpt><trkpt lat="45.6112255" lon="11.1338849"><ele>618.2</ele><time>2026-04-19T12:37:42.602Z</time></trkpt><trkpt lat="45.6112239" lon="11.1339926"><ele>616.8</ele><time>2026-04-19T12:37:43.609Z</time></trkpt><trkpt lat="45.6112231" lon="11.1341059"><ele>615.4</ele><time>2026-04-19T12:37:44.619Z</time></trkpt><trkpt lat="45.6112244" lon="11.1342438"><ele>614.0</ele><time>2026-04-19T12:37:45.608Z</time></trkpt><trkpt lat="45.6112164" lon="11.1343649"><ele>613.0</ele><time>2026-04-19T12:37:46.608Z</time></trkpt><trkpt lat="45.6112627" lon="11.1345055"><ele>612.0</ele><time>2026-04-19T12:37:48.607Z</time></trkpt><trkpt lat="45.6112794" lon="11.1346634"><ele>611.0</ele><time>2026-04-19T12:37:50.68Z</time></trkpt><trkpt lat="45.6113012" lon="11.1347514"><ele>610.0</ele><time>2026-04-19T12:37:51.696Z</time></trkpt><trkpt lat="45.6113262" lon="11.1348491"><ele>609.0</ele><time>2026-04-19T12:37:52.609Z</time></trkpt><trkpt lat="45.6113474" lon="11.1349544"><ele>608.0</ele><time>2026-04-19T12:37:53.611Z</time></trkpt><trkpt lat="45.6113629" lon="11.1350645"><ele>607.0</ele><time>2026-04-19T12:37:54.609Z</time></trkpt><trkpt lat="45.6113813" lon="11.1351754"><ele>606.0</ele><time>2026-04-19T12:37:55.612Z</time></trkpt><trkpt lat="45.6114039" lon="11.1352855"><ele>605.0</ele><time>2026-04-19T12:37:56.596Z</time></trkpt><trkpt lat="45.6114203" lon="11.1353839"><ele>604.0</ele><time>2026-04-19T12:37:57.615Z</time></trkpt><trkpt lat="45.6114128" lon="11.1355356"><ele>603.0</ele><time>2026-04-19T12:37:59.618Z</time></trkpt><trkpt lat="45.6113718" lon="11.1356485"><ele>602.0</ele><time>2026-04-19T12:38:02.606Z</time></trkpt><trkpt lat="45.611312" lon="11.1356942"><ele>600.6666666666666</ele><time>2026-04-19T12:40:23.609Z</time></trkpt><trkpt lat="45.6112484" lon="11.1357654"><ele>599.3333333333333</ele><time>2026-04-19T12:40:27.605Z</time></trkpt><trkpt lat="45.6111917" lon="11.1358574"><ele>598.0</ele><time>2026-04-19T12:40:30.593Z</time></trkpt><trkpt lat="45.6111497" lon="11.1359544"><ele>596.6666666666666</ele><time>2026-04-19T12:40:32.595Z</time></trkpt><trkpt lat="45.6111096" lon="11.1360652"><ele>595.3333333333334</ele><time>2026-04-19T12:40:34.698Z</time></trkpt><trkpt lat="45.6110452" lon="11.1361571"><ele>594.0</ele><time>2026-04-19T12:40:36.601Z</time></trkpt><trkpt lat="45.6109771" lon="11.1362702"><ele>592.1666666666666</ele><time>2026-04-19T12:40:38.611Z</time></trkpt><trkpt lat="45.6108931" lon="11.1364057"><ele>590.3333333333334</ele><time>2026-04-19T12:40:40.603Z</time></trkpt><trkpt lat="45.6108387" lon="11.1364687"><ele>588.5</ele><time>2026-04-19T12:40:41.599Z</time></trkpt><trkpt lat="45.6107836" lon="11.1365193"><ele>586.6666666666667</ele><time>2026-04-19T12:40:42.601Z</time></trkpt><trkpt lat="45.6107303" lon="11.1365982"><ele>584.8333333333334</ele><time>2026-04-19T12:40:43.606Z</time></trkpt><trkpt lat="45.610676" lon="11.1366813"><ele>583.0</ele><time>2026-04-19T12:40:44.611Z</time></trkpt><trkpt lat="45.6106157" lon="11.1367689"><ele>581.8333333333334</ele><time>2026-04-19T12:40:45.7Z</time></trkpt><trkpt lat="45.6105589" lon="11.1368538"><ele>580.6666666666667</ele><time>2026-04-19T12:40:46.609Z</time></trkpt><trkpt lat="45.6105221" lon="11.1369626"><ele>579.5</ele><time>2026-04-19T12:40:47.611Z</time></trkpt><trkpt lat="45.6104984" lon="11.1370738"><ele>578.3333333333334</ele><time>2026-04-19T12:40:48.599Z</time></trkpt><trkpt lat="45.6104778" lon="11.1371882"><ele>577.1666666666666</ele><time>2026-04-19T12:40:49.603Z</time></trkpt><trkpt lat="45.6104773" lon="11.1373002"><ele>576.0</ele><time>2026-04-19T12:40:50.609Z</time></trkpt><trkpt lat="45.6105204" lon="11.1374039"><ele>574.5</ele><time>2026-04-19T12:40:51.639Z</time></trkpt><trkpt lat="45.6105536" lon="11.1375133"><ele>573.0</ele><time>2026-04-19T12:40:52.703Z</time></trkpt><trkpt lat="45.6106078" lon="11.1375941"><ele>571.5</ele><time>2026-04-19T12:40:53.707Z</time></trkpt><trkpt lat="45.6106728" lon="11.1376655"><ele>570.0</ele><time>2026-04-19T12:40:54.702Z</time></trkpt><trkpt lat="45.6107348" lon="11.13771"><ele>568.5</ele><time>2026-04-19T12:40:55.709Z</time></trkpt><trkpt lat="45.6108168" lon="11.137805"><ele>567.0</ele><time>2026-04-19T12:40:57.717Z</time></trkpt><trkpt lat="45.6107743" lon="11.1378975"><ele>567.0</ele><time>2026-04-19T12:40:59.598Z</time></trkpt><trkpt lat="45.6107188" lon="11.1379668"><ele>567.0</ele><time>2026-04-19T12:41:02.613Z</time></trkpt><trkpt lat="45.6106693" lon="11.1380285"><ele>567.0</ele><time>2026-04-19T12:41:03.604Z</time></trkpt><trkpt lat="45.6105818" lon="11.138105"><ele>567.0</ele><time>2026-04-19T12:41:05.625Z</time></trkpt><trkpt lat="45.6104942" lon="11.138206"><ele>567.0</ele><time>2026-04-19T12:41:07.604Z</time></trkpt><trkpt lat="45.610467" lon="11.1383362"><ele>566.6</ele><time>2026-04-19T12:41:09.729Z</time></trkpt><trkpt lat="45.6104803" lon="11.1384656"><ele>566.2</ele><time>2026-04-19T12:41:11.707Z</time></trkpt><trkpt lat="45.6105136" lon="11.1385891"><ele>565.8</ele><time>2026-04-19T12:41:13.602Z</time></trkpt><trkpt lat="45.6105405" lon="11.1387132"><ele>565.4</ele><time>2026-04-19T12:41:15.716Z</time></trkpt><trkpt lat="45.6104915" lon="11.1388971"><ele>565.0</ele><time>2026-04-19T12:41:18.604Z</time></trkpt><trkpt lat="45.6104466" lon="11.1389954"><ele>565.5</ele><time>2026-04-19T12:41:20.604Z</time></trkpt><trkpt lat="45.6103966" lon="11.1390862"><ele>566.0</ele><time>2026-04-19T12:41:22.598Z</time></trkpt><trkpt lat="45.6103672" lon="11.1391672"><ele>566.5</ele><time>2026-04-19T12:41:23.609Z</time></trkpt><trkpt lat="45.6103216" lon="11.1392557"><ele>567.0</ele><time>2026-04-19T12:41:25.728Z</time></trkpt><trkpt lat="45.6102559" lon="11.1394029"><ele>567.5</ele><time>2026-04-19T12:41:27.597Z</time></trkpt><trkpt lat="45.6101997" lon="11.1394943"><ele>568.0</ele><time>2026-04-19T12:41:29.676Z</time></trkpt><trkpt lat="45.6101169" lon="11.1395549"><ele>567.8</ele><time>2026-04-19T12:41:31.612Z</time></trkpt><trkpt lat="45.610038" lon="11.1396019"><ele>567.5999999999999</ele><time>2026-04-19T12:41:33.607Z</time></trkpt><trkpt lat="45.6099396" lon="11.1396747"><ele>567.4000000000001</ele><time>2026-04-19T12:41:35.609Z</time></trkpt><trkpt lat="45.609844" lon="11.1397449"><ele>567.2</ele><time>2026-04-19T12:41:37.61Z</time></trkpt><trkpt lat="45.6097436" lon="11.13982"><ele>567.0</ele><time>2026-04-19T12:41:39.688Z</time></trkpt><trkpt lat="45.6096357" lon="11.1399036"><ele>567.0</ele><time>2026-04-19T12:41:41.622Z</time></trkpt><trkpt lat="45.6095237" lon="11.1400056"><ele>567.0</ele><time>2026-04-19T12:41:43.598Z</time></trkpt><trkpt lat="45.6094566" lon="11.140045"><ele>567.0</ele><time>2026-04-19T12:41:44.607Z</time></trkpt><trkpt lat="45.6094101" lon="11.1401062"><ele>567.0</ele><time>2026-04-19T12:41:45.601Z</time></trkpt><trkpt lat="45.6093128" lon="11.1402087"><ele>567.0</ele><time>2026-04-19T12:41:47.608Z</time></trkpt><trkpt lat="45.6092292" lon="11.1403278"><ele>567.6</ele><time>2026-04-19T12:41:49.603Z</time></trkpt><trkpt lat="45.6091332" lon="11.1404337"><ele>568.2</ele><time>2026-04-19T12:41:51.678Z</time></trkpt><trkpt lat="45.609042" lon="11.1405553"><ele>568.8</ele><time>2026-04-19T12:41:53.611Z</time></trkpt><trkpt lat="45.6089904" lon="11.1406298"><ele>569.4</ele><time>2026-04-19T12:41:54.684Z</time></trkpt><trkpt lat="45.6089298" lon="11.1407534"><ele>570.0</ele><time>2026-04-19T12:41:56.603Z</time></trkpt><trkpt lat="45.6088708" lon="11.1408275"><ele>570.0</ele><time>2026-04-19T12:41:57.609Z</time></trkpt><trkpt lat="45.6088029" lon="11.1408832"><ele>570.0</ele><time>2026-04-19T12:41:58.695Z</time></trkpt><trkpt lat="45.6087481" lon="11.1409438"><ele>570.0</ele><time>2026-04-19T12:41:59.608Z</time></trkpt><trkpt lat="45.6086942" lon="11.1410265"><ele>570.0</ele><time>2026-04-19T12:42:00.605Z</time></trkpt><trkpt lat="45.6086015" lon="11.1411397"><ele>570.0</ele><time>2026-04-19T12:42:02.597Z</time></trkpt><trkpt lat="45.6085265" lon="11.1411264"><ele>570.0</ele><time>2026-04-19T12:42:03.609Z</time></trkpt><trkpt lat="45.6084609" lon="11.1410962"><ele>567.0</ele><time>2026-04-19T12:42:04.687Z</time></trkpt><trkpt lat="45.6083822" lon="11.1410734"><ele>564.0</ele><time>2026-04-19T12:42:05.751Z</time></trkpt><trkpt lat="45.6082423" lon="11.1411502"><ele>561.0</ele><time>2026-04-19T12:42:07.605Z</time></trkpt><trkpt lat="45.6081496" lon="11.1411979"><ele>558.0</ele><time>2026-04-19T12:42:08.717Z</time></trkpt><trkpt lat="45.6080219" lon="11.1413618"><ele>558.0</ele><time>2026-04-19T12:42:10.608Z</time></trkpt><trkpt lat="45.6079536" lon="11.1414432"><ele>558.0</ele><time>2026-04-19T12:42:11.703Z</time></trkpt><trkpt lat="45.6079014" lon="11.1415386"><ele>558.0</ele><time>2026-04-19T12:42:12.604Z</time></trkpt><trkpt lat="45.6078378" lon="11.1416253"><ele>558.0</ele><time>2026-04-19T12:42:13.611Z</time></trkpt><trkpt lat="45.6077736" lon="11.1416921"><ele>558.0</ele><time>2026-04-19T12:42:14.62Z</time></trkpt><trkpt lat="45.6077056" lon="11.141753"><ele>558.0</ele><time>2026-04-19T12:42:15.608Z</time></trkpt><trkpt lat="45.6076404" lon="11.1418269"><ele>556.6</ele><time>2026-04-19T12:42:16.61Z</time></trkpt><trkpt lat="45.6075777" lon="11.1419197"><ele>555.1999999999999</ele><time>2026-04-19T12:42:17.604Z</time></trkpt><trkpt lat="45.6075091" lon="11.1419948"><ele>553.8</ele><time>2026-04-19T12:42:18.606Z</time></trkpt><trkpt lat="45.6074282" lon="11.1420599"><ele>552.4</ele><time>2026-04-19T12:42:19.613Z</time></trkpt><trkpt lat="45.6073752" lon="11.1421323"><ele>551.0</ele><time>2026-04-19T12:42:20.61Z</time></trkpt><trkpt lat="45.6072946" lon="11.1422325"><ele>551.0</ele><time>2026-04-19T12:42:21.615Z</time></trkpt><trkpt lat="45.6072469" lon="11.1423349"><ele>551.0</ele><time>2026-04-19T12:42:22.605Z</time></trkpt><trkpt lat="45.607184" lon="11.1423805"><ele>551.0</ele><time>2026-04-19T12:42:23.606Z</time></trkpt><trkpt lat="45.6071204" lon="11.1424258"><ele>551.0</ele><time>2026-04-19T12:42:24.608Z</time></trkpt><trkpt lat="45.6070764" lon="11.1425197"><ele>551.0</ele><time>2026-04-19T12:42:25.603Z</time></trkpt><trkpt lat="45.6070057" lon="11.142589"><ele>551.0</ele><time>2026-04-19T12:42:26.612Z</time></trkpt><trkpt lat="45.6069248" lon="11.1426396"><ele>550.5714285714286</ele><time>2026-04-19T12:42:27.606Z</time></trkpt><trkpt lat="45.6068588" lon="11.1426932"><ele>550.1428571428571</ele><time>2026-04-19T12:42:28.591Z</time></trkpt><trkpt lat="45.6067963" lon="11.1427563"><ele>549.7142857142858</ele><time>2026-04-19T12:42:29.602Z</time></trkpt><trkpt lat="45.6067374" lon="11.1427921"><ele>549.2857142857142</ele><time>2026-04-19T12:42:30.602Z</time></trkpt><trkpt lat="45.6066613" lon="11.142834"><ele>548.8571428571429</ele><time>2026-04-19T12:42:31.6Z</time></trkpt><trkpt lat="45.6065887" lon="11.1428765"><ele>548.4285714285714</ele><time>2026-04-19T12:42:32.604Z</time></trkpt><trkpt lat="45.6065272" lon="11.142917"><ele>548.0</ele><time>2026-04-19T12:42:33.606Z</time></trkpt><trkpt lat="45.6064668" lon="11.1429613"><ele>548.0</ele><time>2026-04-19T12:42:34.601Z</time></trkpt><trkpt lat="45.6063861" lon="11.1430094"><ele>548.0</ele><time>2026-04-19T12:42:35.608Z</time></trkpt><trkpt lat="45.6063259" lon="11.1430899"><ele>548.0</ele><time>2026-04-19T12:42:36.707Z</time></trkpt><trkpt lat="45.6062473" lon="11.1430978"><ele>548.0</ele><time>2026-04-19T12:42:37.681Z</time></trkpt><trkpt lat="45.6061757" lon="11.143153"><ele>548.0</ele><time>2026-04-19T12:42:38.637Z</time></trkpt><trkpt lat="45.6060807" lon="11.1431917"><ele>548.0</ele><time>2026-04-19T12:42:39.722Z</time></trkpt><trkpt lat="45.6059346" lon="11.1432946"><ele>547.8</ele><time>2026-04-19T12:42:41.608Z</time></trkpt><trkpt lat="45.6058686" lon="11.1433183"><ele>547.5999999999999</ele><time>2026-04-19T12:42:42.601Z</time></trkpt><trkpt lat="45.6057852" lon="11.1433394"><ele>547.4000000000001</ele><time>2026-04-19T12:42:43.61Z</time></trkpt><trkpt lat="45.6057133" lon="11.1433746"><ele>547.2</ele><time>2026-04-19T12:42:44.715Z</time></trkpt><trkpt lat="45.6055747" lon="11.1434428"><ele>547.0</ele><time>2026-04-19T12:42:46.608Z</time></trkpt><trkpt lat="45.6054696" lon="11.1435115"><ele>547.0</ele><time>2026-04-19T12:42:48.605Z</time></trkpt><trkpt lat="45.6053691" lon="11.1435945"><ele>547.0</ele><time>2026-04-19T12:42:50.607Z</time></trkpt><trkpt lat="45.6052876" lon="11.1436945"><ele>547.0</ele><time>2026-04-19T12:42:52.61Z</time></trkpt><trkpt lat="45.6052335" lon="11.1437598"><ele>547.0</ele><time>2026-04-19T12:42:54.645Z</time></trkpt><trkpt lat="45.6051818" lon="11.1438117"><ele>547.0</ele><time>2026-04-19T12:42:56.72Z</time></trkpt><trkpt lat="45.6051418" lon="11.143899"><ele>547.0</ele><time>2026-04-19T12:42:58.607Z</time></trkpt><trkpt lat="45.6050865" lon="11.1439772"><ele>546.5</ele><time>2026-04-19T12:43:01.6Z</time></trkpt><trkpt lat="45.6050295" lon="11.1440425"><ele>546.0</ele><time>2026-04-19T12:43:04.611Z</time></trkpt><trkpt lat="45.6049662" lon="11.1440777"><ele>545.5</ele><time>2026-04-19T12:43:06.62Z</time></trkpt><trkpt lat="45.6048739" lon="11.1440823"><ele>545.0</ele><time>2026-04-19T12:43:08.598Z</time></trkpt><trkpt lat="45.6047527" lon="11.1440563"><ele>544.5</ele><time>2026-04-19T12:43:10.614Z</time></trkpt><trkpt lat="45.6046776" lon="11.144052"><ele>544.0</ele><time>2026-04-19T12:43:11.614Z</time></trkpt><trkpt lat="45.6046092" lon="11.1440192"><ele>544.0</ele><time>2026-04-19T12:43:12.606Z</time></trkpt><trkpt lat="45.6045387" lon="11.1439689"><ele>544.0</ele><time>2026-04-19T12:43:13.614Z</time></trkpt><trkpt lat="45.6044659" lon="11.1439075"><ele>544.0</ele><time>2026-04-19T12:43:14.615Z</time></trkpt><trkpt lat="45.604374" lon="11.1438677"><ele>544.0</ele><time>2026-04-19T12:43:15.611Z</time></trkpt><trkpt lat="45.6042607" lon="11.1438715"><ele>544.0</ele><time>2026-04-19T12:43:16.612Z</time></trkpt><trkpt lat="45.6041759" lon="11.1439265"><ele>543.8</ele><time>2026-04-19T12:43:17.612Z</time></trkpt><trkpt lat="45.6041114" lon="11.144007"><ele>543.5999999999999</ele><time>2026-04-19T12:43:18.613Z</time></trkpt><trkpt lat="45.604035" lon="11.1440881"><ele>543.4</ele><time>2026-04-19T12:43:19.605Z</time></trkpt><trkpt lat="45.6039576" lon="11.1441684"><ele>543.1999999999999</ele><time>2026-04-19T12:43:20.707Z</time></trkpt><trkpt lat="45.6038742" lon="11.1442511"><ele>543.0</ele><time>2026-04-19T12:43:21.715Z</time></trkpt><trkpt lat="45.6037936" lon="11.144302"><ele>543.0</ele><time>2026-04-19T12:43:22.598Z</time></trkpt><trkpt lat="45.6037207" lon="11.1443695"><ele>543.0</ele><time>2026-04-19T12:43:23.61Z</time></trkpt><trkpt lat="45.6036467" lon="11.1444136"><ele>543.0</ele><time>2026-04-19T12:43:24.714Z</time></trkpt><trkpt lat="45.6034868" lon="11.1444697"><ele>543.0</ele><time>2026-04-19T12:43:26.615Z</time></trkpt><trkpt lat="45.6034177" lon="11.1444996"><ele>543.0</ele><time>2026-04-19T12:43:27.612Z</time></trkpt><trkpt lat="45.6033451" lon="11.1445235"><ele>542.0</ele><time>2026-04-19T12:43:28.609Z</time></trkpt><trkpt lat="45.603272" lon="11.1445777"><ele>541.0</ele><time>2026-04-19T12:43:29.608Z</time></trkpt><trkpt lat="45.603201" lon="11.1446269"><ele>540.0</ele><time>2026-04-19T12:43:30.612Z</time></trkpt><trkpt lat="45.6031264" lon="11.1446724"><ele>539.0</ele><time>2026-04-19T12:43:31.703Z</time></trkpt><trkpt lat="45.6030662" lon="11.14476"><ele>538.0</ele><time>2026-04-19T12:43:32.607Z</time></trkpt><trkpt lat="45.6029947" lon="11.1447774"><ele>537.0</ele><time>2026-04-19T12:43:33.605Z</time></trkpt><trkpt lat="45.6028749" lon="11.1448411"><ele>536.2</ele><time>2026-04-19T12:43:35.731Z</time></trkpt><trkpt lat="45.6027576" lon="11.1448992"><ele>535.4000000000001</ele><time>2026-04-19T12:43:37.614Z</time></trkpt><trkpt lat="45.6026359" lon="11.1449491"><ele>534.5999999999999</ele><time>2026-04-19T12:43:39.612Z</time></trkpt><trkpt lat="45.6025417" lon="11.1450025"><ele>533.8</ele><time>2026-04-19T12:43:40.608Z</time></trkpt><trkpt lat="45.6024713" lon="11.1450537"><ele>533.0</ele><time>2026-04-19T12:43:41.611Z</time></trkpt><trkpt lat="45.6023598" lon="11.1450599"><ele>533.0</ele><time>2026-04-19T12:43:43.611Z</time></trkpt><trkpt lat="45.602293" lon="11.1450984"><ele>533.0</ele><time>2026-04-19T12:43:44.606Z</time></trkpt><trkpt lat="45.602171" lon="11.1450632"><ele>533.0</ele><time>2026-04-19T12:43:46.619Z</time></trkpt><trkpt lat="45.6021061" lon="11.1450692"><ele>533.0</ele><time>2026-04-19T12:43:47.61Z</time></trkpt><trkpt lat="45.6019965" lon="11.1451181"><ele>533.0</ele><time>2026-04-19T12:43:49.616Z</time></trkpt><trkpt lat="45.6019244" lon="11.1451311"><ele>533.0</ele><time>2026-04-19T12:43:50.607Z</time></trkpt><trkpt lat="45.6018596" lon="11.1451486"><ele>532.6</ele><time>2026-04-19T12:43:51.604Z</time></trkpt><trkpt lat="45.6017546" lon="11.1452423"><ele>532.1999999999999</ele><time>2026-04-19T12:43:53.72Z</time></trkpt><trkpt lat="45.6016941" lon="11.1453063"><ele>531.8</ele><time>2026-04-19T12:43:54.707Z</time></trkpt><trkpt lat="45.6015959" lon="11.1454084"><ele>531.4</ele><time>2026-04-19T12:43:56.608Z</time></trkpt><trkpt lat="45.6015814" lon="11.1455172"><ele>531.0</ele><time>2026-04-19T12:43:57.609Z</time></trkpt><trkpt lat="45.6014792" lon="11.1456241"><ele>531.0</ele><time>2026-04-19T12:43:59.62Z</time></trkpt><trkpt lat="45.6014405" lon="11.1456968"><ele>531.0</ele><time>2026-04-19T12:44:00.614Z</time></trkpt><trkpt lat="45.6013486" lon="11.1458376"><ele>531.0</ele><time>2026-04-19T12:44:02.621Z</time></trkpt><trkpt lat="45.6012976" lon="11.145901"><ele>531.0</ele><time>2026-04-19T12:44:03.621Z</time></trkpt><trkpt lat="45.6011521" lon="11.1460479"><ele>531.0</ele><time>2026-04-19T12:44:06.606Z</time></trkpt><trkpt lat="45.601091" lon="11.1461026"><ele>530.8333333333334</ele><time>2026-04-19T12:44:07.599Z</time></trkpt><trkpt lat="45.6010405" lon="11.1461593"><ele>530.6666666666666</ele><time>2026-04-19T12:44:08.604Z</time></trkpt><trkpt lat="45.6009478" lon="11.1462645"><ele>530.5</ele><time>2026-04-19T12:44:10.601Z</time></trkpt><trkpt lat="45.6008987" lon="11.1463212"><ele>530.3333333333333</ele><time>2026-04-19T12:44:11.604Z</time></trkpt><trkpt lat="45.6008574" lon="11.1464084"><ele>530.1666666666666</ele><time>2026-04-19T12:44:12.598Z</time></trkpt><trkpt lat="45.6008103" lon="11.1464711"><ele>530.0</ele><time>2026-04-19T12:44:13.604Z</time></trkpt><trkpt lat="45.6007167" lon="11.1465848"><ele>529.4</ele><time>2026-04-19T12:44:15.712Z</time></trkpt><trkpt lat="45.6006532" lon="11.1466412"><ele>528.8</ele><time>2026-04-19T12:44:16.719Z</time></trkpt><trkpt lat="45.6005374" lon="11.1466896"><ele>528.2</ele><time>2026-04-19T12:44:18.72Z</time></trkpt><trkpt lat="45.6004311" lon="11.1467792"><ele>527.6</ele><time>2026-04-19T12:44:20.61Z</time></trkpt><trkpt lat="45.6003662" lon="11.1467862"><ele>527.0</ele><time>2026-04-19T12:44:21.61Z</time></trkpt><trkpt lat="45.6002921" lon="11.1468962"><ele>527.0</ele><time>2026-04-19T12:44:23.621Z</time></trkpt><trkpt lat="45.600181" lon="11.1469685"><ele>527.0</ele><time>2026-04-19T12:44:25.607Z</time></trkpt><trkpt lat="45.6000862" lon="11.1470293"><ele>527.0</ele><time>2026-04-19T12:44:27.665Z</time></trkpt><trkpt lat="45.5999902" lon="11.1470972"><ele>527.0</ele><time>2026-04-19T12:44:29.607Z</time></trkpt><trkpt lat="45.5999061" lon="11.1471523"><ele>527.0</ele><time>2026-04-19T12:44:31.601Z</time></trkpt><trkpt lat="45.5999004" lon="11.1472962"><ele>528.5</ele><time>2026-04-19T12:44:33.603Z</time></trkpt><trkpt lat="45.5999433" lon="11.1474193"><ele>530.0</ele><time>2026-04-19T12:44:35.606Z</time></trkpt><trkpt lat="45.5999424" lon="11.147514"><ele>531.5</ele><time>2026-04-19T12:44:37.597Z</time></trkpt><trkpt lat="45.5998868" lon="11.1475986"><ele>533.0</ele><time>2026-04-19T12:44:39.611Z</time></trkpt><trkpt lat="45.5997883" lon="11.14767"><ele>534.5</ele><time>2026-04-19T12:44:41.608Z</time></trkpt><trkpt lat="45.5997329" lon="11.1477155"><ele>536.0</ele><time>2026-04-19T12:44:42.611Z</time></trkpt><trkpt lat="45.599674" lon="11.1477604"><ele>536.0</ele><time>2026-04-19T12:44:43.625Z</time></trkpt><trkpt lat="45.5995778" lon="11.1478254"><ele>536.0</ele><time>2026-04-19T12:44:45.609Z</time></trkpt><trkpt lat="45.5994829" lon="11.1478886"><ele>536.0</ele><time>2026-04-19T12:44:47.614Z</time></trkpt><trkpt lat="45.5994026" lon="11.1479685"><ele>536.0</ele><time>2026-04-19T12:44:49.634Z</time></trkpt><trkpt lat="45.5993537" lon="11.1480572"><ele>536.0</ele><time>2026-04-19T12:44:51.595Z</time></trkpt><trkpt lat="45.5992986" lon="11.1481377"><ele>536.0</ele><time>2026-04-19T12:44:53.603Z</time></trkpt><trkpt lat="45.5992457" lon="11.1482103"><ele>536.0</ele><time>2026-04-19T12:44:55.61Z</time></trkpt><trkpt lat="45.5991858" lon="11.1482936"><ele>536.0</ele><time>2026-04-19T12:44:57.682Z</time></trkpt><trkpt lat="45.5991261" lon="11.1483787"><ele>536.0</ele><time>2026-04-19T12:44:59.607Z</time></trkpt><trkpt lat="45.5990733" lon="11.1484703"><ele>536.0</ele><time>2026-04-19T12:45:01.607Z</time></trkpt><trkpt lat="45.5990143" lon="11.1485548"><ele>536.0</ele><time>2026-04-19T12:45:03.608Z</time></trkpt><trkpt lat="45.5989483" lon="11.1486419"><ele>536.0</ele><time>2026-04-19T12:45:05.61Z</time></trkpt><trkpt lat="45.5988946" lon="11.1487462"><ele>536.0</ele><time>2026-04-19T12:45:07.609Z</time></trkpt><trkpt lat="45.5988179" lon="11.148826"><ele>536.0</ele><time>2026-04-19T12:45:09.693Z</time></trkpt><trkpt lat="45.5987394" lon="11.148934"><ele>536.0</ele><time>2026-04-19T12:45:11.613Z</time></trkpt><trkpt lat="45.5986427" lon="11.1490291"><ele>536.0</ele><time>2026-04-19T12:45:13.606Z</time></trkpt><trkpt lat="45.5985894" lon="11.1490812"><ele>534.4</ele><time>2026-04-19T12:45:14.61Z</time></trkpt><trkpt lat="45.5985372" lon="11.1491417"><ele>532.8</ele><time>2026-04-19T12:45:15.611Z</time></trkpt><trkpt lat="45.598478" lon="11.149184"><ele>531.1999999999999</ele><time>2026-04-19T12:45:16.611Z</time></trkpt><trkpt lat="45.5984277" lon="11.1492632"><ele>529.6</ele><time>2026-04-19T12:45:17.607Z</time></trkpt><trkpt lat="45.5983253" lon="11.1493666"><ele>528.0</ele><time>2026-04-19T12:45:19.697Z</time></trkpt><trkpt lat="45.5982003" lon="11.1494946"><ele>528.0</ele><time>2026-04-19T12:45:21.605Z</time></trkpt><trkpt lat="45.5981355" lon="11.1495516"><ele>528.0</ele><time>2026-04-19T12:45:22.703Z</time></trkpt><trkpt lat="45.5980652" lon="11.1495955"><ele>528.0</ele><time>2026-04-19T12:45:23.693Z</time></trkpt><trkpt lat="45.5980032" lon="11.1496518"><ele>528.0</ele><time>2026-04-19T12:45:24.617Z</time></trkpt><trkpt lat="45.5979348" lon="11.1496986"><ele>528.0</ele><time>2026-04-19T12:45:25.593Z</time></trkpt><trkpt lat="45.5978647" lon="11.1497371"><ele>528.0</ele><time>2026-04-19T12:45:26.645Z</time></trkpt><trkpt lat="45.597791" lon="11.1497585"><ele>527.1666666666666</ele><time>2026-04-19T12:45:27.677Z</time></trkpt><trkpt lat="45.5977157" lon="11.1497928"><ele>526.3333333333334</ele><time>2026-04-19T12:45:28.611Z</time></trkpt><trkpt lat="45.5976534" lon="11.1498207"><ele>525.5</ele><time>2026-04-19T12:45:29.595Z</time></trkpt><trkpt lat="45.5975944" lon="11.1498821"><ele>524.6666666666667</ele><time>2026-04-19T12:45:30.607Z</time></trkpt><trkpt lat="45.5974991" lon="11.149992"><ele>523.8333333333334</ele><time>2026-04-19T12:45:32.588Z</time></trkpt><trkpt lat="45.5974475" lon="11.1500539"><ele>523.0</ele><time>2026-04-19T12:45:33.592Z</time></trkpt><trkpt lat="45.5973935" lon="11.1501071"><ele>523.0</ele><time>2026-04-19T12:45:34.599Z</time></trkpt><trkpt lat="45.5973229" lon="11.1502222"><ele>523.0</ele><time>2026-04-19T12:45:36.592Z</time></trkpt><trkpt lat="45.5972137" lon="11.1503198"><ele>523.0</ele><time>2026-04-19T12:45:38.596Z</time></trkpt><trkpt lat="45.5971483" lon="11.1503325"><ele>523.0</ele><time>2026-04-19T12:45:39.594Z</time></trkpt><trkpt lat="45.5970377" lon="11.1503744"><ele>523.0</ele><time>2026-04-19T12:45:41.598Z</time></trkpt><trkpt lat="45.5969208" lon="11.1504344"><ele>523.1666666666667</ele><time>2026-04-19T12:45:43.595Z</time></trkpt><trkpt lat="45.5968179" lon="11.1505254"><ele>523.3333333333334</ele><time>2026-04-19T12:45:45.594Z</time></trkpt><trkpt lat="45.5967675" lon="11.1505826"><ele>523.5</ele><time>2026-04-19T12:45:46.608Z</time></trkpt><trkpt lat="45.596666" lon="11.1506778"><ele>523.6666666666666</ele><time>2026-04-19T12:45:48.596Z</time></trkpt><trkpt lat="45.5966097" lon="11.1507276"><ele>523.8333333333333</ele><time>2026-04-19T12:45:49.597Z</time></trkpt><trkpt lat="45.5965561" lon="11.1507801"><ele>524.0</ele><time>2026-04-19T12:45:50.591Z</time></trkpt><trkpt lat="45.596508" lon="11.1508382"><ele>524.0</ele><time>2026-04-19T12:45:51.598Z</time></trkpt><trkpt lat="45.5964523" lon="11.150897"><ele>524.0</ele><time>2026-04-19T12:45:52.592Z</time></trkpt><trkpt lat="45.5964018" lon="11.1509616"><ele>524.0</ele><time>2026-04-19T12:45:53.592Z</time></trkpt><trkpt lat="45.5962989" lon="11.1510566"><ele>524.0</ele><time>2026-04-19T12:45:55.603Z</time></trkpt><trkpt lat="45.5962057" lon="11.1511504"><ele>524.0</ele><time>2026-04-19T12:45:57.597Z</time></trkpt><trkpt lat="45.5961184" lon="11.1512522"><ele>523.25</ele><time>2026-04-19T12:45:59.596Z</time></trkpt><trkpt lat="45.5960186" lon="11.1513392"><ele>522.5</ele><time>2026-04-19T12:46:01.596Z</time></trkpt><trkpt lat="45.5959104" lon="11.1514162"><ele>521.75</ele><time>2026-04-19T12:46:03.596Z</time></trkpt><trkpt lat="45.5958271" lon="11.1515443"><ele>521.0</ele><time>2026-04-19T12:46:05.596Z</time></trkpt><trkpt lat="45.5957313" lon="11.1516165"><ele>521.0</ele><time>2026-04-19T12:46:07.686Z</time></trkpt><trkpt lat="45.5956577" lon="11.1517354"><ele>521.0</ele><time>2026-04-19T12:46:09.687Z</time></trkpt><trkpt lat="45.5955728" lon="11.1518493"><ele>521.0</ele><time>2026-04-19T12:46:12.594Z</time></trkpt><trkpt lat="45.5955129" lon="11.1519143"><ele>521.0</ele><time>2026-04-19T12:46:14.691Z</time></trkpt><trkpt lat="45.5954403" lon="11.1519626"><ele>521.0</ele><time>2026-04-19T12:46:17.61Z</time></trkpt><trkpt lat="45.5953922" lon="11.1520251"><ele>521.0</ele><time>2026-04-19T12:46:19.607Z</time></trkpt><trkpt lat="45.5953109" lon="11.1519787"><ele>519.2</ele><time>2026-04-19T12:46:22.602Z</time></trkpt><trkpt lat="45.5952216" lon="11.1519558"><ele>517.4000000000001</ele><time>2026-04-19T12:46:25.71Z</time></trkpt><trkpt lat="45.5951377" lon="11.1519471"><ele>515.6</ele><time>2026-04-19T12:46:27.605Z</time></trkpt><trkpt lat="45.5950464" lon="11.1519007"><ele>513.8000000000001</ele><time>2026-04-19T12:46:29.684Z</time></trkpt><trkpt lat="45.5949568" lon="11.1519133"><ele>512.0</ele><time>2026-04-19T12:46:31.688Z</time></trkpt><trkpt lat="45.5948484" lon="11.1519144"><ele>512.0</ele><time>2026-04-19T12:46:33.604Z</time></trkpt><trkpt lat="45.5947257" lon="11.1519314"><ele>512.0</ele><time>2026-04-19T12:46:35.71Z</time></trkpt><trkpt lat="45.5946187" lon="11.1519305"><ele>512.0</ele><time>2026-04-19T12:46:37.7Z</time></trkpt><trkpt lat="45.594556" lon="11.1519428"><ele>512.0</ele><time>2026-04-19T12:46:38.708Z</time></trkpt><trkpt lat="45.5944466" lon="11.151938"><ele>512.0</ele><time>2026-04-19T12:46:40.611Z</time></trkpt><trkpt lat="45.5943272" lon="11.1519137"><ele>511.40000000000003</ele><time>2026-04-19T12:46:42.7Z</time></trkpt><trkpt lat="45.5942392" lon="11.1518886"><ele>510.80000000000007</ele><time>2026-04-19T12:46:44.618Z</time></trkpt><trkpt lat="45.5941327" lon="11.1519177"><ele>510.2</ele><time>2026-04-19T12:46:47.705Z</time></trkpt><trkpt lat="45.5940307" lon="11.1519275"><ele>509.6</ele><time>2026-04-19T12:46:49.711Z</time></trkpt><trkpt lat="45.5939131" lon="11.1519218"><ele>509.0</ele><time>2026-04-19T12:46:52.611Z</time></trkpt><trkpt lat="45.5938025" lon="11.1519092"><ele>509.0</ele><time>2026-04-19T12:46:55.607Z</time></trkpt><trkpt lat="45.5937082" lon="11.1519079"><ele>509.0</ele><time>2026-04-19T12:46:58.604Z</time></trkpt><trkpt lat="45.5936155" lon="11.1519028"><ele>509.0</ele><time>2026-04-19T12:47:01.708Z</time></trkpt><trkpt lat="45.593541" lon="11.1518766"><ele>509.0</ele><time>2026-04-19T12:47:03.708Z</time></trkpt><trkpt lat="45.593352" lon="11.1518604"><ele>508.4</ele><time>2026-04-19T12:47:06.603Z</time></trkpt><trkpt lat="45.5932728" lon="11.1518639"><ele>507.79999999999995</ele><time>2026-04-19T12:47:07.608Z</time></trkpt><trkpt lat="45.593203" lon="11.1518719"><ele>507.20000000000005</ele><time>2026-04-19T12:47:08.61Z</time></trkpt><trkpt lat="45.5931371" lon="11.1518764"><ele>506.6</ele><time>2026-04-19T12:47:09.633Z</time></trkpt><trkpt lat="45.593013" lon="11.1518772"><ele>506.0</ele><time>2026-04-19T12:47:11.711Z</time></trkpt><trkpt lat="45.5928878" lon="11.151891"><ele>505.6</ele><time>2026-04-19T12:47:13.691Z</time></trkpt><trkpt lat="45.592768" lon="11.1518858"><ele>505.20000000000005</ele><time>2026-04-19T12:47:15.724Z</time></trkpt><trkpt lat="45.5926983" lon="11.1518681"><ele>504.79999999999995</ele><time>2026-04-19T12:47:16.703Z</time></trkpt><trkpt lat="45.5925975" lon="11.1519324"><ele>504.4</ele><time>2026-04-19T12:47:18.721Z</time></trkpt><trkpt lat="45.5925416" lon="11.1519815"><ele>504.0</ele><time>2026-04-19T12:47:19.748Z</time></trkpt><trkpt lat="45.5924385" lon="11.152012"><ele>504.0</ele><time>2026-04-19T12:47:21.708Z</time></trkpt><trkpt lat="45.5923685" lon="11.1520181"><ele>504.0</ele><time>2026-04-19T12:47:22.709Z</time></trkpt><trkpt lat="45.5922401" lon="11.1520356"><ele>504.0</ele><time>2026-04-19T12:47:24.706Z</time></trkpt><trkpt lat="45.5921116" lon="11.1520484"><ele>504.0</ele><time>2026-04-19T12:47:26.731Z</time></trkpt><trkpt lat="45.5920434" lon="11.1520591"><ele>504.0</ele><time>2026-04-19T12:47:27.72Z</time></trkpt><trkpt lat="45.5919637" lon="11.1520716"><ele>503.6</ele><time>2026-04-19T12:47:28.724Z</time></trkpt><trkpt lat="45.5918355" lon="11.1520578"><ele>503.2</ele><time>2026-04-19T12:47:30.711Z</time></trkpt><trkpt lat="45.5917694" lon="11.1520709"><ele>502.80000000000007</ele><time>2026-04-19T12:47:31.717Z</time></trkpt><trkpt lat="45.5916536" lon="11.152098"><ele>502.40000000000003</ele><time>2026-04-19T12:47:33.711Z</time></trkpt><trkpt lat="45.591529" lon="11.1520869"><ele>502.0</ele><time>2026-04-19T12:47:35.712Z</time></trkpt><trkpt lat="45.591461" lon="11.1520863"><ele>502.0</ele><time>2026-04-19T12:47:36.721Z</time></trkpt><trkpt lat="45.5913924" lon="11.1521072"><ele>502.00000000000006</ele><time>2026-04-19T12:47:37.703Z</time></trkpt><trkpt lat="45.5912738" lon="11.1521198"><ele>502.00000000000006</ele><time>2026-04-19T12:47:39.604Z</time></trkpt><trkpt lat="45.5911539" lon="11.1521709"><ele>502.0</ele><time>2026-04-19T12:47:41.7Z</time></trkpt><trkpt lat="45.5910339" lon="11.1522142"><ele>502.0</ele><time>2026-04-19T12:47:43.69Z</time></trkpt><trkpt lat="45.590964" lon="11.1522052"><ele>502.00000000000006</ele><time>2026-04-19T12:47:44.685Z</time></trkpt><trkpt lat="45.5908932" lon="11.1522032"><ele>502.0</ele><time>2026-04-19T12:47:45.698Z</time></trkpt><trkpt lat="45.5908266" lon="11.1522331"><ele>502.0</ele><time>2026-04-19T12:47:46.706Z</time></trkpt><trkpt lat="45.590706" lon="11.1522588"><ele>502.0</ele><time>2026-04-19T12:47:48.613Z</time></trkpt><trkpt lat="45.5906408" lon="11.1522631"><ele>502.00000000000006</ele><time>2026-04-19T12:47:49.605Z</time></trkpt><trkpt lat="45.5905702" lon="11.1522767"><ele>502.0</ele><time>2026-04-19T12:47:50.634Z</time></trkpt><trkpt lat="45.590501" lon="11.152304"><ele>502.0</ele><time>2026-04-19T12:47:51.706Z</time></trkpt><trkpt lat="45.5903753" lon="11.1523499"><ele>502.0</ele><time>2026-04-19T12:47:53.696Z</time></trkpt><trkpt lat="45.5901738" lon="11.1523879"><ele>502.0</ele><time>2026-04-19T12:47:56.714Z</time></trkpt><trkpt lat="45.5901078" lon="11.1523937"><ele>502.0</ele><time>2026-04-19T12:47:57.701Z</time></trkpt><trkpt lat="45.5900475" lon="11.152427"><ele>501.2857142857142</ele><time>2026-04-19T12:47:58.688Z</time></trkpt><trkpt lat="45.589985" lon="11.1524471"><ele>500.57142857142856</ele><time>2026-04-19T12:47:59.691Z</time></trkpt><trkpt lat="45.5899145" lon="11.1524676"><ele>499.85714285714283</ele><time>2026-04-19T12:48:00.696Z</time></trkpt><trkpt lat="45.5898345" lon="11.1524866"><ele>499.1428571428571</ele><time>2026-04-19T12:48:01.718Z</time></trkpt><trkpt lat="45.5897625" lon="11.1525"><ele>498.42857142857144</ele><time>2026-04-19T12:48:02.707Z</time></trkpt><trkpt lat="45.5896916" lon="11.1525143"><ele>497.7142857142857</ele><time>2026-04-19T12:48:03.715Z</time></trkpt><trkpt lat="45.5896186" lon="11.1525105"><ele>497.0</ele><time>2026-04-19T12:48:04.722Z</time></trkpt><trkpt lat="45.5895476" lon="11.1525145"><ele>497.0</ele><time>2026-04-19T12:48:05.705Z</time></trkpt><trkpt lat="45.5894739" lon="11.152519"><ele>497.0</ele><time>2026-04-19T12:48:06.703Z</time></trkpt><trkpt lat="45.5893993" lon="11.1525223"><ele>497.0</ele><time>2026-04-19T12:48:07.703Z</time></trkpt><trkpt lat="45.589318" lon="11.1525338"><ele>497.0</ele><time>2026-04-19T12:48:08.61Z</time></trkpt><trkpt lat="45.5892514" lon="11.1525414"><ele>497.0</ele><time>2026-04-19T12:48:09.604Z</time></trkpt><trkpt lat="45.5891839" lon="11.1525501"><ele>497.0</ele><time>2026-04-19T12:48:10.592Z</time></trkpt><trkpt lat="45.5891077" lon="11.1525983"><ele>497.0</ele><time>2026-04-19T12:48:11.592Z</time></trkpt><trkpt lat="45.5889517" lon="11.1526432"><ele>496.99999999999994</ele><time>2026-04-19T12:48:13.738Z</time></trkpt><trkpt lat="45.5888846" lon="11.1526499"><ele>497.0</ele><time>2026-04-19T12:48:14.703Z</time></trkpt><trkpt lat="45.5888145" lon="11.1526718"><ele>497.0</ele><time>2026-04-19T12:48:15.629Z</time></trkpt><trkpt lat="45.5887463" lon="11.1526882"><ele>497.0</ele><time>2026-04-19T12:48:16.711Z</time></trkpt><trkpt lat="45.5886782" lon="11.1527065"><ele>496.99999999999994</ele><time>2026-04-19T12:48:17.712Z</time></trkpt><trkpt lat="45.588555" lon="11.1527597"><ele>497.0</ele><time>2026-04-19T12:48:19.71Z</time></trkpt><trkpt lat="45.5883848" lon="11.1528072"><ele>496.49999999999994</ele><time>2026-04-19T12:48:22.692Z</time></trkpt><trkpt lat="45.5883149" lon="11.1528184"><ele>496.0</ele><time>2026-04-19T12:48:23.691Z</time></trkpt><trkpt lat="45.5882102" lon="11.152864"><ele>495.5</ele><time>2026-04-19T12:48:25.606Z</time></trkpt><trkpt lat="45.5881471" lon="11.15287"><ele>495.0</ele><time>2026-04-19T12:48:26.608Z</time></trkpt><trkpt lat="45.5880525" lon="11.152889"><ele>494.49999999999994</ele><time>2026-04-19T12:48:28.603Z</time></trkpt><trkpt lat="45.5879801" lon="11.1529096"><ele>494.0</ele><time>2026-04-19T12:48:29.603Z</time></trkpt><trkpt lat="45.587883" lon="11.1529175"><ele>493.2</ele><time>2026-04-19T12:48:31.702Z</time></trkpt><trkpt lat="45.5877773" lon="11.1528593"><ele>492.4</ele><time>2026-04-19T12:48:33.604Z</time></trkpt><trkpt lat="45.5876702" lon="11.152847"><ele>491.6</ele><time>2026-04-19T12:48:35.595Z</time></trkpt><trkpt lat="45.5875597" lon="11.1528429"><ele>490.8</ele><time>2026-04-19T12:48:37.596Z</time></trkpt><trkpt lat="45.5874898" lon="11.1528621"><ele>490.0</ele><time>2026-04-19T12:48:38.594Z</time></trkpt><trkpt lat="45.5874128" lon="11.1528739"><ele>490.0</ele><time>2026-04-19T12:48:39.598Z</time></trkpt><trkpt lat="45.5873144" lon="11.1528262"><ele>490.0</ele><time>2026-04-19T12:48:41.597Z</time></trkpt><trkpt lat="45.5872178" lon="11.1527487"><ele>490.0</ele><time>2026-04-19T12:48:43.592Z</time></trkpt><trkpt lat="45.5871026" lon="11.1526949"><ele>490.0</ele><time>2026-04-19T12:48:45.597Z</time></trkpt><trkpt lat="45.5870443" lon="11.1526383"><ele>490.0</ele><time>2026-04-19T12:48:46.611Z</time></trkpt><trkpt lat="45.5869582" lon="11.1526545"><ele>490.6</ele><time>2026-04-19T12:48:48.593Z</time></trkpt><trkpt lat="45.586837" lon="11.1526188"><ele>491.2</ele><time>2026-04-19T12:48:50.598Z</time></trkpt><trkpt lat="45.5867622" lon="11.1526005"><ele>491.79999999999995</ele><time>2026-04-19T12:48:51.598Z</time></trkpt><trkpt lat="45.5866359" lon="11.1525966"><ele>492.4</ele><time>2026-04-19T12:48:53.6Z</time></trkpt><trkpt lat="45.5865364" lon="11.1525395"><ele>493.0</ele><time>2026-04-19T12:48:55.6Z</time></trkpt><trkpt lat="45.5864783" lon="11.1524992"><ele>493.0</ele><time>2026-04-19T12:48:56.589Z</time></trkpt><trkpt lat="45.5864092" lon="11.1524684"><ele>492.99999999999994</ele><time>2026-04-19T12:48:57.59Z</time></trkpt><trkpt lat="45.5863172" lon="11.1523985"><ele>492.99999999999994</ele><time>2026-04-19T12:48:59.601Z</time></trkpt><trkpt lat="45.5862081" lon="11.1523344"><ele>493.0</ele><time>2026-04-19T12:49:01.591Z</time></trkpt><trkpt lat="45.5860955" lon="11.1522674"><ele>493.0</ele><time>2026-04-19T12:49:03.597Z</time></trkpt><trkpt lat="45.5860338" lon="11.1522451"><ele>492.50000000000006</ele><time>2026-04-19T12:49:04.598Z</time></trkpt><trkpt lat="45.5859197" lon="11.1521777"><ele>492.0</ele><time>2026-04-19T12:49:06.597Z</time></trkpt><trkpt lat="45.585813" lon="11.1521188"><ele>491.5</ele><time>2026-04-19T12:49:08.595Z</time></trkpt><trkpt lat="45.5857498" lon="11.1521036"><ele>491.0</ele><time>2026-04-19T12:49:09.598Z</time></trkpt><trkpt lat="45.5856858" lon="11.1520798"><ele>490.50000000000006</ele><time>2026-04-19T12:49:10.59Z</time></trkpt><trkpt lat="45.5856214" lon="11.152062"><ele>490.0</ele><time>2026-04-19T12:49:11.596Z</time></trkpt><trkpt lat="45.5854974" lon="11.1519928"><ele>490.0</ele><time>2026-04-19T12:49:13.596Z</time></trkpt><trkpt lat="45.5853888" lon="11.1519399"><ele>490.0</ele><time>2026-04-19T12:49:15.596Z</time></trkpt><trkpt lat="45.5852801" lon="11.151909"><ele>490.0</ele><time>2026-04-19T12:49:17.602Z</time></trkpt><trkpt lat="45.5851757" lon="11.1518835"><ele>490.0</ele><time>2026-04-19T12:49:19.595Z</time></trkpt><trkpt lat="45.5850698" lon="11.1518395"><ele>490.0</ele><time>2026-04-19T12:49:21.594Z</time></trkpt><trkpt lat="45.5849801" lon="11.1517791"><ele>489.6</ele><time>2026-04-19T12:49:23.595Z</time></trkpt><trkpt lat="45.5849131" lon="11.151685"><ele>489.2</ele><time>2026-04-19T12:49:25.596Z</time></trkpt><trkpt lat="45.5848458" lon="11.1515587"><ele>488.79999999999995</ele><time>2026-04-19T12:49:27.593Z</time></trkpt><trkpt lat="45.5847716" lon="11.1514198"><ele>488.4</ele><time>2026-04-19T12:49:29.59Z</time></trkpt><trkpt lat="45.5846846" lon="11.1513189"><ele>488.0</ele><time>2026-04-19T12:49:31.594Z</time></trkpt><trkpt lat="45.5845502" lon="11.1512833"><ele>489.4</ele><time>2026-04-19T12:49:33.596Z</time></trkpt><trkpt lat="45.5844841" lon="11.1512579"><ele>490.79999999999995</ele><time>2026-04-19T12:49:34.592Z</time></trkpt><trkpt lat="45.5843664" lon="11.1512535"><ele>492.2</ele><time>2026-04-19T12:49:36.598Z</time></trkpt><trkpt lat="45.5842408" lon="11.1512113"><ele>493.6</ele><time>2026-04-19T12:49:38.598Z</time></trkpt><trkpt lat="45.5841758" lon="11.1511996"><ele>495.0</ele><time>2026-04-19T12:49:39.606Z</time></trkpt><trkpt lat="45.5840538" lon="11.1511972"><ele>495.0</ele><time>2026-04-19T12:49:41.594Z</time></trkpt><trkpt lat="45.5839456" lon="11.151203"><ele>495.0</ele><time>2026-04-19T12:49:43.592Z</time></trkpt><trkpt lat="45.5838621" lon="11.151176"><ele>495.0</ele><time>2026-04-19T12:49:45.598Z</time></trkpt><trkpt lat="45.5838453" lon="11.1510819"><ele>495.0</ele><time>2026-04-19T12:49:47.592Z</time></trkpt><trkpt lat="45.5838424" lon="11.1509588"><ele>495.0</ele><time>2026-04-19T12:49:50.599Z</time></trkpt><trkpt lat="45.5838437" lon="11.150845"><ele>495.0</ele><time>2026-04-19T12:49:52.597Z</time></trkpt><trkpt lat="45.5838115" lon="11.1507482"><ele>495.0</ele><time>2026-04-19T12:49:54.693Z</time></trkpt><trkpt lat="45.5837168" lon="11.1507451"><ele>495.0</ele><time>2026-04-19T12:49:56.603Z</time></trkpt><trkpt lat="45.5836136" lon="11.1507696"><ele>495.0</ele><time>2026-04-19T12:49:58.716Z</time></trkpt><trkpt lat="45.5835119" lon="11.1507915"><ele>495.0</ele><time>2026-04-19T12:50:00.615Z</time></trkpt><trkpt lat="45.5834133" lon="11.1508228"><ele>495.0</ele><time>2026-04-19T12:50:02.732Z</time></trkpt><trkpt lat="45.5833154" lon="11.1508573"><ele>493.2</ele><time>2026-04-19T12:50:04.71Z</time></trkpt><trkpt lat="45.5832245" lon="11.1508715"><ele>491.4</ele><time>2026-04-19T12:50:06.725Z</time></trkpt><trkpt lat="45.5831146" lon="11.1509079"><ele>489.6</ele><time>2026-04-19T12:50:08.725Z</time></trkpt><trkpt lat="45.5830014" lon="11.1509246"><ele>487.8</ele><time>2026-04-19T12:50:10.72Z</time></trkpt><trkpt lat="45.5828989" lon="11.1509368"><ele>486.0</ele><time>2026-04-19T12:50:12.725Z</time></trkpt><trkpt lat="45.5827885" lon="11.1509458"><ele>485.0</ele><time>2026-04-19T12:50:14.715Z</time></trkpt><trkpt lat="45.5826765" lon="11.1509683"><ele>484.0</ele><time>2026-04-19T12:50:16.724Z</time></trkpt><trkpt lat="45.5824947" lon="11.1509075"><ele>483.0</ele><time>2026-04-19T12:50:19.607Z</time></trkpt><trkpt lat="45.5824264" lon="11.1508222"><ele>482.0</ele><time>2026-04-19T12:50:20.608Z</time></trkpt><trkpt lat="45.5823063" lon="11.1507409"><ele>483.0</ele><time>2026-04-19T12:50:22.635Z</time></trkpt><trkpt lat="45.582208" lon="11.1506756"><ele>484.00000000000006</ele><time>2026-04-19T12:50:24.752Z</time></trkpt><trkpt lat="45.5821238" lon="11.1505673"><ele>485.00000000000006</ele><time>2026-04-19T12:50:26.722Z</time></trkpt><trkpt lat="45.5820755" lon="11.1505094"><ele>486.0</ele><time>2026-04-19T12:50:27.71Z</time></trkpt><trkpt lat="45.5820015" lon="11.1503814"><ele>487.0</ele><time>2026-04-19T12:50:29.641Z</time></trkpt><trkpt lat="45.581874" lon="11.1501884"><ele>487.00000000000006</ele><time>2026-04-19T12:50:32.61Z</time></trkpt><trkpt lat="45.581816" lon="11.1501341"><ele>487.0</ele><time>2026-04-19T12:50:33.598Z</time></trkpt><trkpt lat="45.5817452" lon="11.1500329"><ele>487.0</ele><time>2026-04-19T12:50:35.685Z</time></trkpt><trkpt lat="45.5816381" lon="11.1499886"><ele>487.0</ele><time>2026-04-19T12:50:37.609Z</time></trkpt><trkpt lat="45.5815682" lon="11.1499576"><ele>487.00000000000006</ele><time>2026-04-19T12:50:38.723Z</time></trkpt><trkpt lat="45.5814992" lon="11.1499148"><ele>487.0</ele><time>2026-04-19T12:50:39.699Z</time></trkpt><trkpt lat="45.5814439" lon="11.1498676"><ele>487.83333333333337</ele><time>2026-04-19T12:50:40.703Z</time></trkpt><trkpt lat="45.581381" lon="11.1498139"><ele>488.6666666666667</ele><time>2026-04-19T12:50:41.719Z</time></trkpt><trkpt lat="45.5813476" lon="11.1497221"><ele>489.5</ele><time>2026-04-19T12:50:42.712Z</time></trkpt><trkpt lat="45.5812923" lon="11.1496738"><ele>490.33333333333337</ele><time>2026-04-19T12:50:43.711Z</time></trkpt><trkpt lat="45.5812352" lon="11.1496269"><ele>491.1666666666667</ele><time>2026-04-19T12:50:44.719Z</time></trkpt><trkpt lat="45.581167" lon="11.149596"><ele>492.0</ele><time>2026-04-19T12:50:45.648Z</time></trkpt><trkpt lat="45.5810157" lon="11.1494594"><ele>492.0</ele><time>2026-04-19T12:50:48.673Z</time></trkpt><trkpt lat="45.5809252" lon="11.1493815"><ele>492.00000000000006</ele><time>2026-04-19T12:50:50.717Z</time></trkpt><trkpt lat="45.5808538" lon="11.1493122"><ele>492.00000000000006</ele><time>2026-04-19T12:50:52.713Z</time></trkpt><trkpt lat="45.5807695" lon="11.149277"><ele>492.0</ele><time>2026-04-19T12:50:54.598Z</time></trkpt><trkpt lat="45.5806118" lon="11.1493298"><ele>492.0</ele><time>2026-04-19T12:50:57.595Z</time></trkpt><trkpt lat="45.5805199" lon="11.1493731"><ele>492.0</ele><time>2026-04-19T12:50:59.656Z</time></trkpt><trkpt lat="45.5804465" lon="11.1494272"><ele>492.0</ele><time>2026-04-19T12:51:01.601Z</time></trkpt><trkpt lat="45.5803783" lon="11.1494854"><ele>492.0</ele><time>2026-04-19T12:51:03.609Z</time></trkpt><trkpt lat="45.5803104" lon="11.1495247"><ele>492.0</ele><time>2026-04-19T12:51:05.726Z</time></trkpt><trkpt lat="45.5801956" lon="11.1495654"><ele>492.0</ele><time>2026-04-19T12:51:08.711Z</time></trkpt><trkpt lat="45.5801173" lon="11.1495493"><ele>492.0</ele><time>2026-04-19T12:51:10.608Z</time></trkpt><trkpt lat="45.5800275" lon="11.1495216"><ele>489.40000000000003</ele><time>2026-04-19T12:51:12.724Z</time></trkpt><trkpt lat="45.5799235" lon="11.1494869"><ele>486.80000000000007</ele><time>2026-04-19T12:51:14.604Z</time></trkpt><trkpt lat="45.5798284" lon="11.1494984"><ele>484.2</ele><time>2026-04-19T12:51:16.731Z</time></trkpt><trkpt lat="45.5797445" lon="11.1494552"><ele>481.6</ele><time>2026-04-19T12:51:18.715Z</time></trkpt><trkpt lat="45.5796469" lon="11.1493983"><ele>479.0</ele><time>2026-04-19T12:51:20.708Z</time></trkpt><trkpt lat="45.5795703" lon="11.1493022"><ele>477.79999999999995</ele><time>2026-04-19T12:51:22.725Z</time></trkpt><trkpt lat="45.5795042" lon="11.1492788"><ele>476.59999999999997</ele><time>2026-04-19T12:51:23.733Z</time></trkpt><trkpt lat="45.5794342" lon="11.1491763"><ele>475.4</ele><time>2026-04-19T12:51:25.725Z</time></trkpt><trkpt lat="45.5793692" lon="11.1490323"><ele>474.2</ele><time>2026-04-19T12:51:27.717Z</time></trkpt><trkpt lat="45.5793151" lon="11.1488924"><ele>473.0</ele><time>2026-04-19T12:51:29.711Z</time></trkpt><trkpt lat="45.5792113" lon="11.1487239"><ele>475.59999999999997</ele><time>2026-04-19T12:51:32.729Z</time></trkpt><trkpt lat="45.5791253" lon="11.1486498"><ele>478.19999999999993</ele><time>2026-04-19T12:51:34.632Z</time></trkpt><trkpt lat="45.5790483" lon="11.1486418"><ele>480.8</ele><time>2026-04-19T12:51:35.612Z</time></trkpt><trkpt lat="45.5789415" lon="11.1486322"><ele>483.4</ele><time>2026-04-19T12:51:37.658Z</time></trkpt><trkpt lat="45.5788217" lon="11.1486809"><ele>486.0</ele><time>2026-04-19T12:51:39.69Z</time></trkpt><trkpt lat="45.5787555" lon="11.1486976"><ele>486.0</ele><time>2026-04-19T12:51:40.608Z</time></trkpt><trkpt lat="45.5786951" lon="11.1487264"><ele>486.0</ele><time>2026-04-19T12:51:41.604Z</time></trkpt><trkpt lat="45.5786291" lon="11.1487409"><ele>486.0</ele><time>2026-04-19T12:51:42.703Z</time></trkpt><trkpt lat="45.5784455" lon="11.1487968"><ele>486.0</ele><time>2026-04-19T12:51:45.595Z</time></trkpt><trkpt lat="45.5783441" lon="11.1488231"><ele>486.0</ele><time>2026-04-19T12:51:47.7Z</time></trkpt><trkpt lat="45.5782832" lon="11.1488509"><ele>488.8</ele><time>2026-04-19T12:51:48.609Z</time></trkpt><trkpt lat="45.5781849" lon="11.1488836"><ele>491.6</ele><time>2026-04-19T12:51:50.708Z</time></trkpt><trkpt lat="45.57812" lon="11.1488949"><ele>494.4</ele><time>2026-04-19T12:51:51.718Z</time></trkpt><trkpt lat="45.5780009" lon="11.1489256"><ele>497.2</ele><time>2026-04-19T12:51:53.598Z</time></trkpt><trkpt lat="45.5778738" lon="11.14897"><ele>500.0</ele><time>2026-04-19T12:51:55.718Z</time></trkpt><trkpt lat="45.5778076" lon="11.1489871"><ele>500.8</ele><time>2026-04-19T12:51:56.731Z</time></trkpt><trkpt lat="45.5776929" lon="11.1490153"><ele>501.6</ele><time>2026-04-19T12:51:58.711Z</time></trkpt><trkpt lat="45.5775678" lon="11.1490515"><ele>502.4</ele><time>2026-04-19T12:52:00.728Z</time></trkpt><trkpt lat="45.5774915" lon="11.1490754"><ele>503.2</ele><time>2026-04-19T12:52:01.738Z</time></trkpt><trkpt lat="45.5774179" lon="11.1490942"><ele>504.0</ele><time>2026-04-19T12:52:02.747Z</time></trkpt><trkpt lat="45.5773547" lon="11.1491095"><ele>499.3333333333333</ele><time>2026-04-19T12:52:03.735Z</time></trkpt><trkpt lat="45.5772823" lon="11.1491249"><ele>494.66666666666663</ele><time>2026-04-19T12:52:04.732Z</time></trkpt><trkpt lat="45.5771588" lon="11.1491588"><ele>490.0</ele><time>2026-04-19T12:52:06.727Z</time></trkpt><trkpt lat="45.5770874" lon="11.1491818"><ele>485.3333333333333</ele><time>2026-04-19T12:52:07.727Z</time></trkpt><trkpt lat="45.5770231" lon="11.1491993"><ele>480.66666666666663</ele><time>2026-04-19T12:52:08.714Z</time></trkpt><trkpt lat="45.5769593" lon="11.1492167"><ele>476.0</ele><time>2026-04-19T12:52:09.736Z</time></trkpt><trkpt lat="45.5768921" lon="11.1492373"><ele>475.4</ele><time>2026-04-19T12:52:10.712Z</time></trkpt><trkpt lat="45.5768331" lon="11.1492823"><ele>474.8</ele><time>2026-04-19T12:52:11.72Z</time></trkpt><trkpt lat="45.5767707" lon="11.1493049"><ele>474.19999999999993</ele><time>2026-04-19T12:52:12.716Z</time></trkpt><trkpt lat="45.5766038" lon="11.1493744"><ele>473.59999999999997</ele><time>2026-04-19T12:52:15.611Z</time></trkpt><trkpt lat="45.5764867" lon="11.1494234"><ele>473.0</ele><time>2026-04-19T12:52:17.719Z</time></trkpt><trkpt lat="45.5764301" lon="11.1494689"><ele>472.99999999999994</ele><time>2026-04-19T12:52:18.742Z</time></trkpt><trkpt lat="45.5763623" lon="11.1495071"><ele>473.0</ele><time>2026-04-19T12:52:19.71Z</time></trkpt><trkpt lat="45.5762994" lon="11.1495333"><ele>473.0</ele><time>2026-04-19T12:52:20.711Z</time></trkpt><trkpt lat="45.5762359" lon="11.1495528"><ele>473.0</ele><time>2026-04-19T12:52:21.714Z</time></trkpt><trkpt lat="45.5761741" lon="11.1495849"><ele>472.99999999999994</ele><time>2026-04-19T12:52:22.705Z</time></trkpt><trkpt lat="45.5760475" lon="11.1496136"><ele>473.0</ele><time>2026-04-19T12:52:24.595Z</time></trkpt><trkpt lat="45.5759907" lon="11.149656"><ele>472.49999999999994</ele><time>2026-04-19T12:52:25.595Z</time></trkpt><trkpt lat="45.5759232" lon="11.1496852"><ele>472.0</ele><time>2026-04-19T12:52:26.605Z</time></trkpt><trkpt lat="45.5757985" lon="11.1497032"><ele>471.5</ele><time>2026-04-19T12:52:28.607Z</time></trkpt><trkpt lat="45.5757346" lon="11.1497157"><ele>471.0</ele><time>2026-04-19T12:52:29.6Z</time></trkpt><trkpt lat="45.5756685" lon="11.1497246"><ele>470.49999999999994</ele><time>2026-04-19T12:52:30.6Z</time></trkpt><trkpt lat="45.575553" lon="11.1497703"><ele>470.0</ele><time>2026-04-19T12:52:32.601Z</time></trkpt><trkpt lat="45.5754925" lon="11.1498014"><ele>469.99999999999994</ele><time>2026-04-19T12:52:33.601Z</time></trkpt><trkpt lat="45.5754354" lon="11.1498655"><ele>470.0</ele><time>2026-04-19T12:52:34.593Z</time></trkpt><trkpt lat="45.5753167" lon="11.1499447"><ele>470.0</ele><time>2026-04-19T12:52:36.593Z</time></trkpt><trkpt lat="45.575257" lon="11.1499988"><ele>470.0</ele><time>2026-04-19T12:52:37.603Z</time></trkpt><trkpt lat="45.575188" lon="11.1500661"><ele>469.99999999999994</ele><time>2026-04-19T12:52:38.605Z</time></trkpt><trkpt lat="45.5751203" lon="11.1500944"><ele>470.0</ele><time>2026-04-19T12:52:39.605Z</time></trkpt><trkpt lat="45.5750493" lon="11.150106"><ele>469.1428571428571</ele><time>2026-04-19T12:52:40.602Z</time></trkpt><trkpt lat="45.5749735" lon="11.1501382"><ele>468.2857142857142</ele><time>2026-04-19T12:52:41.602Z</time></trkpt><trkpt lat="45.5749104" lon="11.1501757"><ele>467.42857142857144</ele><time>2026-04-19T12:52:42.61Z</time></trkpt><trkpt lat="45.5748416" lon="11.1501927"><ele>466.57142857142856</ele><time>2026-04-19T12:52:43.606Z</time></trkpt><trkpt lat="45.5747685" lon="11.150235"><ele>465.7142857142857</ele><time>2026-04-19T12:52:44.607Z</time></trkpt><trkpt lat="45.5746951" lon="11.1502466"><ele>464.8571428571429</ele><time>2026-04-19T12:52:45.608Z</time></trkpt><trkpt lat="45.5746298" lon="11.1502736"><ele>464.00000000000006</ele><time>2026-04-19T12:52:46.593Z</time></trkpt><trkpt lat="45.5745622" lon="11.1502924"><ele>463.6</ele><time>2026-04-19T12:52:47.609Z</time></trkpt><trkpt lat="45.5744899" lon="11.1503095"><ele>463.2</ele><time>2026-04-19T12:52:48.605Z</time></trkpt><trkpt lat="45.5743864" lon="11.1502975"><ele>462.80000000000007</ele><time>2026-04-19T12:52:50.61Z</time></trkpt><trkpt lat="45.5743069" lon="11.1503495"><ele>462.40000000000003</ele><time>2026-04-19T12:52:51.607Z</time></trkpt><trkpt lat="45.5742205" lon="11.1503559"><ele>462.0</ele><time>2026-04-19T12:52:52.609Z</time></trkpt><trkpt lat="45.5741034" lon="11.1503568"><ele>462.0</ele><time>2026-04-19T12:52:54.698Z</time></trkpt><trkpt lat="45.5739848" lon="11.1503522"><ele>462.0</ele><time>2026-04-19T12:52:56.685Z</time></trkpt><trkpt lat="45.573915" lon="11.1503615"><ele>462.0</ele><time>2026-04-19T12:52:57.686Z</time></trkpt><trkpt lat="45.5738502" lon="11.1503666"><ele>462.0</ele><time>2026-04-19T12:52:58.689Z</time></trkpt><trkpt lat="45.5737838" lon="11.1503843"><ele>462.0</ele><time>2026-04-19T12:52:59.7Z</time></trkpt><trkpt lat="45.5736686" lon="11.1504166"><ele>462.0</ele><time>2026-04-19T12:53:01.71Z</time></trkpt><trkpt lat="45.5736023" lon="11.1504162"><ele>462.0</ele><time>2026-04-19T12:53:02.713Z</time></trkpt><trkpt lat="45.573475" lon="11.1504194"><ele>462.00000000000006</ele><time>2026-04-19T12:53:04.707Z</time></trkpt><trkpt lat="45.5734139" lon="11.1504532"><ele>462.00000000000006</ele><time>2026-04-19T12:53:05.731Z</time></trkpt><trkpt lat="45.5732922" lon="11.1505169"><ele>462.0</ele><time>2026-04-19T12:53:07.711Z</time></trkpt><trkpt lat="45.5731735" lon="11.1505578"><ele>462.0</ele><time>2026-04-19T12:53:09.661Z</time></trkpt><trkpt lat="45.5731106" lon="11.1505829"><ele>462.0</ele><time>2026-04-19T12:53:10.745Z</time></trkpt><trkpt lat="45.5730482" lon="11.1506177"><ele>462.00000000000006</ele><time>2026-04-19T12:53:11.704Z</time></trkpt><trkpt lat="45.5729869" lon="11.150654"><ele>462.00000000000006</ele><time>2026-04-19T12:53:12.707Z</time></trkpt><trkpt lat="45.5728785" lon="11.1506977"><ele>462.0</ele><time>2026-04-19T12:53:14.721Z</time></trkpt><trkpt lat="45.5727609" lon="11.1507239"><ele>462.0</ele><time>2026-04-19T12:53:16.596Z</time></trkpt><trkpt lat="45.5726318" lon="11.1507779"><ele>461.0</ele><time>2026-04-19T12:53:18.702Z</time></trkpt><trkpt lat="45.5725675" lon="11.1508057"><ele>460.00000000000006</ele><time>2026-04-19T12:53:19.743Z</time></trkpt><trkpt lat="45.5724433" lon="11.1508535"><ele>459.00000000000006</ele><time>2026-04-19T12:53:21.72Z</time></trkpt><trkpt lat="45.5723674" lon="11.1508766"><ele>458.0</ele><time>2026-04-19T12:53:22.734Z</time></trkpt><trkpt lat="45.5723054" lon="11.1508956"><ele>457.0</ele><time>2026-04-19T12:53:23.693Z</time></trkpt><trkpt lat="45.5721748" lon="11.1509142"><ele>457.0</ele><time>2026-04-19T12:53:25.737Z</time></trkpt><trkpt lat="45.5720546" lon="11.1509688"><ele>457.00000000000006</ele><time>2026-04-19T12:53:27.716Z</time></trkpt><trkpt lat="45.5719187" lon="11.1510138"><ele>457.00000000000006</ele><time>2026-04-19T12:53:29.73Z</time></trkpt><trkpt lat="45.5718512" lon="11.1510239"><ele>457.0</ele><time>2026-04-19T12:53:30.729Z</time></trkpt><trkpt lat="45.5717727" lon="11.1510702"><ele>457.0</ele><time>2026-04-19T12:53:31.65Z</time></trkpt><trkpt lat="45.5716572" lon="11.1510953"><ele>457.40000000000003</ele><time>2026-04-19T12:53:33.725Z</time></trkpt><trkpt lat="45.5715523" lon="11.1511417"><ele>457.80000000000007</ele><time>2026-04-19T12:53:35.733Z</time></trkpt><trkpt lat="45.5714568" lon="11.151185"><ele>458.2</ele><time>2026-04-19T12:53:37.716Z</time></trkpt><trkpt lat="45.571346" lon="11.1512504"><ele>458.6</ele><time>2026-04-19T12:53:39.726Z</time></trkpt><trkpt lat="45.5712813" lon="11.1512927"><ele>459.0</ele><time>2026-04-19T12:53:40.729Z</time></trkpt><trkpt lat="45.571222" lon="11.1513352"><ele>458.8333333333333</ele><time>2026-04-19T12:53:41.722Z</time></trkpt><trkpt lat="45.5711608" lon="11.1513601"><ele>458.66666666666663</ele><time>2026-04-19T12:53:42.73Z</time></trkpt><trkpt lat="45.5710987" lon="11.151403"><ele>458.5</ele><time>2026-04-19T12:53:43.714Z</time></trkpt><trkpt lat="45.5710326" lon="11.1514308"><ele>458.3333333333333</ele><time>2026-04-19T12:53:44.715Z</time></trkpt><trkpt lat="45.5709042" lon="11.1514843"><ele>458.16666666666663</ele><time>2026-04-19T12:53:46.623Z</time></trkpt><trkpt lat="45.5708403" lon="11.151513"><ele>458.0</ele><time>2026-04-19T12:53:47.706Z</time></trkpt><trkpt lat="45.5707931" lon="11.1515808"><ele>457.2</ele><time>2026-04-19T12:53:48.711Z</time></trkpt><trkpt lat="45.5706829" lon="11.1516401"><ele>456.4</ele><time>2026-04-19T12:53:50.739Z</time></trkpt><trkpt lat="45.5706165" lon="11.1516675"><ele>455.59999999999997</ele><time>2026-04-19T12:53:51.712Z</time></trkpt><trkpt lat="45.5705093" lon="11.1517088"><ele>454.79999999999995</ele><time>2026-04-19T12:53:53.728Z</time></trkpt><trkpt lat="45.5703979" lon="11.1517685"><ele>454.0</ele><time>2026-04-19T12:53:55.708Z</time></trkpt><trkpt lat="45.5702823" lon="11.1518522"><ele>453.79999999999995</ele><time>2026-04-19T12:53:57.716Z</time></trkpt><trkpt lat="45.5701711" lon="11.1518958"><ele>453.59999999999997</ele><time>2026-04-19T12:53:59.725Z</time></trkpt><trkpt lat="45.5700734" lon="11.1519257"><ele>453.4</ele><time>2026-04-19T12:54:01.707Z</time></trkpt><trkpt lat="45.5699661" lon="11.1519958"><ele>453.2</ele><time>2026-04-19T12:54:03.736Z</time></trkpt><trkpt lat="45.5699002" lon="11.1520116"><ele>453.0</ele><time>2026-04-19T12:54:04.724Z</time></trkpt><trkpt lat="45.5697956" lon="11.1520489"><ele>453.0</ele><time>2026-04-19T12:54:06.605Z</time></trkpt><trkpt lat="45.5697323" lon="11.1520861"><ele>452.99999999999994</ele><time>2026-04-19T12:54:07.719Z</time></trkpt><trkpt lat="45.5696224" lon="11.1521776"><ele>452.99999999999994</ele><time>2026-04-19T12:54:09.741Z</time></trkpt><trkpt lat="45.569508" lon="11.1522177"><ele>453.0</ele><time>2026-04-19T12:54:11.612Z</time></trkpt><trkpt lat="45.5694442" lon="11.1522116"><ele>453.0</ele><time>2026-04-19T12:54:12.602Z</time></trkpt><trkpt lat="45.5693362" lon="11.1522303"><ele>453.0</ele><time>2026-04-19T12:54:14.605Z</time></trkpt><trkpt lat="45.5692498" lon="11.1522476"><ele>453.0</ele><time>2026-04-19T12:54:16.602Z</time></trkpt><trkpt lat="45.5691424" lon="11.1522583"><ele>453.0</ele><time>2026-04-19T12:54:18.593Z</time></trkpt><trkpt lat="45.5690244" lon="11.1522787"><ele>453.0</ele><time>2026-04-19T12:54:20.604Z</time></trkpt><trkpt lat="45.5689597" lon="11.1522964"><ele>453.0</ele><time>2026-04-19T12:54:21.602Z</time></trkpt><trkpt lat="45.5688911" lon="11.1523116"><ele>453.0</ele><time>2026-04-19T12:54:22.602Z</time></trkpt><trkpt lat="45.5687755" lon="11.1523403"><ele>453.0</ele><time>2026-04-19T12:54:24.6Z</time></trkpt><trkpt lat="45.5687114" lon="11.1523643"><ele>452.99999999999994</ele><time>2026-04-19T12:54:25.602Z</time></trkpt><trkpt lat="45.5685936" lon="11.1523905"><ele>452.99999999999994</ele><time>2026-04-19T12:54:27.585Z</time></trkpt><trkpt lat="45.5684778" lon="11.1523894"><ele>453.0</ele><time>2026-04-19T12:54:29.593Z</time></trkpt><trkpt lat="45.5684098" lon="11.1524002"><ele>453.0</ele><time>2026-04-19T12:54:30.593Z</time></trkpt><trkpt lat="45.5682934" lon="11.15243"><ele>452.2</ele><time>2026-04-19T12:54:32.602Z</time></trkpt><trkpt lat="45.5681732" lon="11.1524584"><ele>451.4</ele><time>2026-04-19T12:54:34.604Z</time></trkpt><trkpt lat="45.5680612" lon="11.1524859"><ele>450.59999999999997</ele><time>2026-04-19T12:54:36.609Z</time></trkpt><trkpt lat="45.567998" lon="11.1525031"><ele>449.79999999999995</ele><time>2026-04-19T12:54:37.598Z</time></trkpt><trkpt lat="45.5678781" lon="11.152533"><ele>449.0</ele><time>2026-04-19T12:54:39.601Z</time></trkpt><trkpt lat="45.5677618" lon="11.1525602"><ele>448.66666666666663</ele><time>2026-04-19T12:54:41.606Z</time></trkpt><trkpt lat="45.5676426" lon="11.1525918"><ele>448.3333333333333</ele><time>2026-04-19T12:54:43.605Z</time></trkpt><trkpt lat="45.5675677" lon="11.1526101"><ele>448.0</ele><time>2026-04-19T12:54:44.603Z</time></trkpt><trkpt lat="45.5674466" lon="11.1526374"><ele>447.66666666666663</ele><time>2026-04-19T12:54:46.602Z</time></trkpt><trkpt lat="45.5673838" lon="11.152651"><ele>447.3333333333333</ele><time>2026-04-19T12:54:47.602Z</time></trkpt><trkpt lat="45.5673233" lon="11.1526891"><ele>447.0</ele><time>2026-04-19T12:54:48.599Z</time></trkpt><trkpt lat="45.5672635" lon="11.1527205"><ele>447.0</ele><time>2026-04-19T12:54:49.601Z</time></trkpt><trkpt lat="45.5671411" lon="11.1527434"><ele>447.0</ele><time>2026-04-19T12:54:51.605Z</time></trkpt><trkpt lat="45.567022" lon="11.1527811"><ele>447.0</ele><time>2026-04-19T12:54:53.606Z</time></trkpt><trkpt lat="45.5668954" lon="11.1528033"><ele>447.0</ele><time>2026-04-19T12:54:55.603Z</time></trkpt><trkpt lat="45.5667777" lon="11.1528225"><ele>447.0</ele><time>2026-04-19T12:54:57.603Z</time></trkpt><trkpt lat="45.5667145" lon="11.152832"><ele>447.0</ele><time>2026-04-19T12:54:58.604Z</time></trkpt><trkpt lat="45.5665948" lon="11.1528583"><ele>447.0</ele><time>2026-04-19T12:55:00.604Z</time></trkpt><trkpt lat="45.5665266" lon="11.152868"><ele>447.0</ele><time>2026-04-19T12:55:01.733Z</time></trkpt><trkpt lat="45.5664613" lon="11.1528771"><ele>447.0</ele><time>2026-04-19T12:55:02.687Z</time></trkpt><trkpt lat="45.5663498" lon="11.1528891"><ele>447.0</ele><time>2026-04-19T12:55:04.734Z</time></trkpt><trkpt lat="45.5662497" lon="11.1529094"><ele>447.1666666666667</ele><time>2026-04-19T12:55:06.594Z</time></trkpt><trkpt lat="45.5661726" lon="11.1529239"><ele>447.33333333333337</ele><time>2026-04-19T12:55:08.598Z</time></trkpt><trkpt lat="45.5660879" lon="11.1529602"><ele>447.5</ele><time>2026-04-19T12:55:11.609Z</time></trkpt><trkpt lat="45.5660027" lon="11.152976"><ele>447.6666666666667</ele><time>2026-04-19T12:55:14.706Z</time></trkpt><trkpt lat="45.5659119" lon="11.1530227"><ele>447.83333333333337</ele><time>2026-04-19T12:55:16.722Z</time></trkpt><trkpt lat="45.5658288" lon="11.1530474"><ele>448.0</ele><time>2026-04-19T12:55:18.608Z</time></trkpt><trkpt lat="45.5656936" lon="11.1530095"><ele>448.0</ele><time>2026-04-19T12:55:21.603Z</time></trkpt><trkpt lat="45.5655814" lon="11.153024"><ele>448.0</ele><time>2026-04-19T12:55:23.687Z</time></trkpt><trkpt lat="45.5654714" lon="11.1530257"><ele>448.0</ele><time>2026-04-19T12:55:25.68Z</time></trkpt><trkpt lat="45.5653481" lon="11.1530356"><ele>448.0</ele><time>2026-04-19T12:55:27.605Z</time></trkpt><trkpt lat="45.5652185" lon="11.1530321"><ele>447.25</ele><time>2026-04-19T12:55:29.61Z</time></trkpt><trkpt lat="45.5651113" lon="11.153062"><ele>446.5</ele><time>2026-04-19T12:55:31.604Z</time></trkpt><trkpt lat="45.5649778" lon="11.1531244"><ele>445.75</ele><time>2026-04-19T12:55:33.657Z</time></trkpt><trkpt lat="45.5648642" lon="11.1531261"><ele>445.0</ele><time>2026-04-19T12:55:35.693Z</time></trkpt><trkpt lat="45.5647644" lon="11.1531383"><ele>445.0</ele><time>2026-04-19T12:55:37.709Z</time></trkpt><trkpt lat="45.5646402" lon="11.153159"><ele>445.0</ele><time>2026-04-19T12:55:39.71Z</time></trkpt><trkpt lat="45.5645373" lon="11.1531996"><ele>445.0</ele><time>2026-04-19T12:55:41.713Z</time></trkpt><trkpt lat="45.5644682" lon="11.1531901"><ele>445.0</ele><time>2026-04-19T12:55:42.699Z</time></trkpt><trkpt lat="45.5643369" lon="11.1532048"><ele>445.0</ele><time>2026-04-19T12:55:44.714Z</time></trkpt><trkpt lat="45.5642718" lon="11.1532174"><ele>444.4</ele><time>2026-04-19T12:55:45.711Z</time></trkpt><trkpt lat="45.5642076" lon="11.1532357"><ele>443.8</ele><time>2026-04-19T12:55:46.72Z</time></trkpt><trkpt lat="45.5641441" lon="11.1532626"><ele>443.20000000000005</ele><time>2026-04-19T12:55:47.712Z</time></trkpt><trkpt lat="45.5640114" lon="11.1532782"><ele>442.6</ele><time>2026-04-19T12:55:49.708Z</time></trkpt><trkpt lat="45.5638924" lon="11.1532943"><ele>442.0</ele><time>2026-04-19T12:55:51.726Z</time></trkpt><trkpt lat="45.5637548" lon="11.1532989"><ele>441.83333333333337</ele><time>2026-04-19T12:55:53.728Z</time></trkpt><trkpt lat="45.5636877" lon="11.1533105"><ele>441.6666666666667</ele><time>2026-04-19T12:55:54.706Z</time></trkpt><trkpt lat="45.5636472" lon="11.1533981"><ele>441.5</ele><time>2026-04-19T12:55:55.7Z</time></trkpt><trkpt lat="45.5635294" lon="11.1534098"><ele>441.33333333333337</ele><time>2026-04-19T12:55:57.703Z</time></trkpt><trkpt lat="45.5634644" lon="11.1533998"><ele>441.1666666666667</ele><time>2026-04-19T12:55:58.709Z</time></trkpt><trkpt lat="45.5633997" lon="11.1534055"><ele>441.0</ele><time>2026-04-19T12:55:59.734Z</time></trkpt><trkpt lat="45.5633276" lon="11.1533989"><ele>441.0</ele><time>2026-04-19T12:56:00.731Z</time></trkpt><trkpt lat="45.5632141" lon="11.153417"><ele>441.0</ele><time>2026-04-19T12:56:02.607Z</time></trkpt><trkpt lat="45.5630947" lon="11.1534419"><ele>441.0</ele><time>2026-04-19T12:56:04.7Z</time></trkpt><trkpt lat="45.5629792" lon="11.1534376"><ele>441.0</ele><time>2026-04-19T12:56:06.718Z</time></trkpt><trkpt lat="45.5628677" lon="11.1534687"><ele>440.25</ele><time>2026-04-19T12:56:08.736Z</time></trkpt><trkpt lat="45.5627603" lon="11.1534911"><ele>439.5</ele><time>2026-04-19T12:56:10.714Z</time></trkpt><trkpt lat="45.5626171" lon="11.153511"><ele>438.75</ele><time>2026-04-19T12:56:12.601Z</time></trkpt><trkpt lat="45.5625029" lon="11.1534935"><ele>438.0</ele><time>2026-04-19T12:56:14.604Z</time></trkpt><trkpt lat="45.5623905" lon="11.1535246"><ele>438.0</ele><time>2026-04-19T12:56:16.602Z</time></trkpt><trkpt lat="45.5623268" lon="11.1535336"><ele>437.99999999999994</ele><time>2026-04-19T12:56:17.601Z</time></trkpt><trkpt lat="45.5622158" lon="11.1535479"><ele>437.99999999999994</ele><time>2026-04-19T12:56:19.598Z</time></trkpt><trkpt lat="45.5620932" lon="11.1535823"><ele>438.0</ele><time>2026-04-19T12:56:21.59Z</time></trkpt><trkpt lat="45.5620201" lon="11.1535939"><ele>438.0</ele><time>2026-04-19T12:56:22.592Z</time></trkpt><trkpt lat="45.5619231" lon="11.1536067"><ele>438.0</ele><time>2026-04-19T12:56:24.604Z</time></trkpt><trkpt lat="45.5617969" lon="11.1535859"><ele>437.99999999999994</ele><time>2026-04-19T12:56:26.591Z</time></trkpt><trkpt lat="45.5616909" lon="11.1535701"><ele>437.99999999999994</ele><time>2026-04-19T12:56:28.589Z</time></trkpt><trkpt lat="45.5615901" lon="11.1535355"><ele>438.0</ele><time>2026-04-19T12:56:30.593Z</time></trkpt><trkpt lat="45.5614917" lon="11.1535421"><ele>438.0</ele><time>2026-04-19T12:56:32.595Z</time></trkpt><trkpt lat="45.5613927" lon="11.1535733"><ele>438.0</ele><time>2026-04-19T12:56:34.589Z</time></trkpt><trkpt lat="45.5612978" lon="11.1535966"><ele>437.99999999999994</ele><time>2026-04-19T12:56:36.6Z</time></trkpt><trkpt lat="45.5611791" lon="11.1536003"><ele>437.99999999999994</ele><time>2026-04-19T12:56:38.601Z</time></trkpt><trkpt lat="45.561071" lon="11.1536593"><ele>438.0</ele><time>2026-04-19T12:56:40.591Z</time></trkpt><trkpt lat="45.5609683" lon="11.1536934"><ele>438.0</ele><time>2026-04-19T12:56:42.596Z</time></trkpt><trkpt lat="45.5609076" lon="11.1537181"><ele>437.4</ele><time>2026-04-19T12:56:43.591Z</time></trkpt><trkpt lat="45.5608035" lon="11.1537743"><ele>436.79999999999995</ele><time>2026-04-19T12:56:45.591Z</time></trkpt><trkpt lat="45.5607063" lon="11.1538166"><ele>436.2</ele><time>2026-04-19T12:56:47.608Z</time></trkpt><trkpt lat="45.5605979" lon="11.1538751"><ele>435.6</ele><time>2026-04-19T12:56:49.597Z</time></trkpt><trkpt lat="45.5604893" lon="11.153915"><ele>435.0</ele><time>2026-04-19T12:56:51.595Z</time></trkpt><trkpt lat="45.5603837" lon="11.1539359"><ele>434.4</ele><time>2026-04-19T12:56:53.605Z</time></trkpt><trkpt lat="45.5602833" lon="11.1540026"><ele>433.8</ele><time>2026-04-19T12:56:55.603Z</time></trkpt><trkpt lat="45.5601795" lon="11.1540347"><ele>433.20000000000005</ele><time>2026-04-19T12:56:57.617Z</time></trkpt><trkpt lat="45.5601166" lon="11.1540577"><ele>432.6</ele><time>2026-04-19T12:56:58.607Z</time></trkpt><trkpt lat="45.5600551" lon="11.1540876"><ele>432.0</ele><time>2026-04-19T12:56:59.604Z</time></trkpt><trkpt lat="45.5599455" lon="11.1541151"><ele>432.0</ele><time>2026-04-19T12:57:01.594Z</time></trkpt><trkpt lat="45.5598289" lon="11.1541622"><ele>432.0</ele><time>2026-04-19T12:57:03.612Z</time></trkpt><trkpt lat="45.5597642" lon="11.1541943"><ele>432.0</ele><time>2026-04-19T12:57:04.602Z</time></trkpt><trkpt lat="45.5596987" lon="11.154213"><ele>432.0</ele><time>2026-04-19T12:57:05.596Z</time></trkpt><trkpt lat="45.5595882" lon="11.1542584"><ele>432.0</ele><time>2026-04-19T12:57:07.604Z</time></trkpt><trkpt lat="45.5595264" lon="11.154279"><ele>432.0</ele><time>2026-04-19T12:57:08.604Z</time></trkpt><trkpt lat="45.5594066" lon="11.1543173"><ele>431.42857142857144</ele><time>2026-04-19T12:57:10.682Z</time></trkpt><trkpt lat="45.5593371" lon="11.1543363"><ele>430.85714285714283</ele><time>2026-04-19T12:57:11.643Z</time></trkpt><trkpt lat="45.5592728" lon="11.1543578"><ele>430.28571428571433</ele><time>2026-04-19T12:57:12.7Z</time></trkpt><trkpt lat="45.5592073" lon="11.15437"><ele>429.7142857142857</ele><time>2026-04-19T12:57:13.711Z</time></trkpt><trkpt lat="45.5591364" lon="11.1543771"><ele>429.14285714285717</ele><time>2026-04-19T12:57:14.692Z</time></trkpt><trkpt lat="45.559063" lon="11.1543717"><ele>428.5714285714286</ele><time>2026-04-19T12:57:15.692Z</time></trkpt><trkpt lat="45.558988" lon="11.1543738"><ele>428.0</ele><time>2026-04-19T12:57:16.603Z</time></trkpt><trkpt lat="45.5588461" lon="11.1543683"><ele>428.0</ele><time>2026-04-19T12:57:18.603Z</time></trkpt><trkpt lat="45.5587111" lon="11.1544088"><ele>428.0</ele><time>2026-04-19T12:57:20.712Z</time></trkpt><trkpt lat="45.5586393" lon="11.1544207"><ele>428.0</ele><time>2026-04-19T12:57:21.726Z</time></trkpt><trkpt lat="45.5585127" lon="11.1544227"><ele>428.0</ele><time>2026-04-19T12:57:23.606Z</time></trkpt><trkpt lat="45.5583806" lon="11.1544213"><ele>427.8333333333333</ele><time>2026-04-19T12:57:25.718Z</time></trkpt><trkpt lat="45.5583139" lon="11.1544386"><ele>427.66666666666663</ele><time>2026-04-19T12:57:26.69Z</time></trkpt><trkpt lat="45.5581739" lon="11.1544427"><ele>427.5</ele><time>2026-04-19T12:57:28.705Z</time></trkpt><trkpt lat="45.5581078" lon="11.1544371"><ele>427.33333333333337</ele><time>2026-04-19T12:57:29.713Z</time></trkpt><trkpt lat="45.5580444" lon="11.154432"><ele>427.1666666666667</ele><time>2026-04-19T12:57:30.71Z</time></trkpt><trkpt lat="45.5579647" lon="11.1544645"><ele>427.0</ele><time>2026-04-19T12:57:31.614Z</time></trkpt><trkpt lat="45.5577918" lon="11.1544844"><ele>426.6</ele><time>2026-04-19T12:57:34.715Z</time></trkpt><trkpt lat="45.5576676" lon="11.15451"><ele>426.20000000000005</ele><time>2026-04-19T12:57:36.614Z</time></trkpt><trkpt lat="45.5576044" lon="11.1544977"><ele>425.8</ele><time>2026-04-19T12:57:37.727Z</time></trkpt><trkpt lat="45.5575397" lon="11.1544885"><ele>425.4</ele><time>2026-04-19T12:57:38.726Z</time></trkpt><trkpt lat="45.5574163" lon="11.1544633"><ele>425.0</ele><time>2026-04-19T12:57:40.656Z</time></trkpt><trkpt lat="45.5572533" lon="11.1544086"><ele>425.0</ele><time>2026-04-19T12:57:43.742Z</time></trkpt><trkpt lat="45.5571394" lon="11.1543795"><ele>425.0</ele><time>2026-04-19T12:57:45.6Z</time></trkpt><trkpt lat="45.557022" lon="11.1543478"><ele>425.0</ele><time>2026-04-19T12:57:47.611Z</time></trkpt><trkpt lat="45.5569545" lon="11.1543206"><ele>425.0</ele><time>2026-04-19T12:57:48.6Z</time></trkpt><trkpt lat="45.5568512" lon="11.154341"><ele>425.0</ele><time>2026-04-19T12:57:50.605Z</time></trkpt><trkpt lat="45.5567285" lon="11.1542861"><ele>424.5</ele><time>2026-04-19T12:57:52.602Z</time></trkpt><trkpt lat="45.5566021" lon="11.1542682"><ele>424.0</ele><time>2026-04-19T12:57:54.716Z</time></trkpt><trkpt lat="45.5564955" lon="11.1542188"><ele>423.5</ele><time>2026-04-19T12:57:56.706Z</time></trkpt><trkpt lat="45.5563769" lon="11.154175"><ele>423.0</ele><time>2026-04-19T12:57:58.713Z</time></trkpt><trkpt lat="45.5562552" lon="11.154132"><ele>422.79999999999995</ele><time>2026-04-19T12:58:00.632Z</time></trkpt><trkpt lat="45.5561901" lon="11.1540877"><ele>422.6</ele><time>2026-04-19T12:58:01.692Z</time></trkpt><trkpt lat="45.5560687" lon="11.1540448"><ele>422.4</ele><time>2026-04-19T12:58:03.731Z</time></trkpt><trkpt lat="45.5560037" lon="11.1540455"><ele>422.20000000000005</ele><time>2026-04-19T12:58:04.728Z</time></trkpt><trkpt lat="45.5558849" lon="11.1540112"><ele>422.0</ele><time>2026-04-19T12:58:06.593Z</time></trkpt><trkpt lat="45.5557762" lon="11.1539889"><ele>421.8</ele><time>2026-04-19T12:58:08.701Z</time></trkpt><trkpt lat="45.5556679" lon="11.1539136"><ele>421.6</ele><time>2026-04-19T12:58:10.708Z</time></trkpt><trkpt lat="45.5555533" lon="11.1539026"><ele>421.40000000000003</ele><time>2026-04-19T12:58:12.742Z</time></trkpt><trkpt lat="45.5554458" lon="11.1538755"><ele>421.20000000000005</ele><time>2026-04-19T12:58:14.687Z</time></trkpt><trkpt lat="45.5553436" lon="11.153862"><ele>421.0</ele><time>2026-04-19T12:58:16.639Z</time></trkpt><trkpt lat="45.5552799" lon="11.1538526"><ele>421.00000000000006</ele><time>2026-04-19T12:58:17.727Z</time></trkpt><trkpt lat="45.5552034" lon="11.1538359"><ele>421.0</ele><time>2026-04-19T12:58:18.685Z</time></trkpt><trkpt lat="45.555134" lon="11.1538303"><ele>421.0</ele><time>2026-04-19T12:58:19.607Z</time></trkpt><trkpt lat="45.5550699" lon="11.1538252"><ele>421.0</ele><time>2026-04-19T12:58:20.614Z</time></trkpt><trkpt lat="45.5549981" lon="11.1538179"><ele>421.0</ele><time>2026-04-19T12:58:21.732Z</time></trkpt><trkpt lat="45.5549362" lon="11.1538012"><ele>421.00000000000006</ele><time>2026-04-19T12:58:22.732Z</time></trkpt><trkpt lat="45.554871" lon="11.1537828"><ele>421.0</ele><time>2026-04-19T12:58:23.72Z</time></trkpt><trkpt lat="45.5547477" lon="11.1537888"><ele>421.0</ele><time>2026-04-19T12:58:25.727Z</time></trkpt><trkpt lat="45.554622" lon="11.1538059"><ele>421.0</ele><time>2026-04-19T12:58:27.765Z</time></trkpt><trkpt lat="45.5545071" lon="11.1538255"><ele>421.0</ele><time>2026-04-19T12:58:29.737Z</time></trkpt><trkpt lat="45.5543865" lon="11.1538459"><ele>421.0</ele><time>2026-04-19T12:58:31.716Z</time></trkpt><trkpt lat="45.5543204" lon="11.1538478"><ele>421.0</ele><time>2026-04-19T12:58:32.723Z</time></trkpt><trkpt lat="45.5542474" lon="11.1538485"><ele>420.6</ele><time>2026-04-19T12:58:33.712Z</time></trkpt><trkpt lat="45.5541874" lon="11.1538938"><ele>420.20000000000005</ele><time>2026-04-19T12:58:34.713Z</time></trkpt><trkpt lat="45.554118" lon="11.1539004"><ele>419.79999999999995</ele><time>2026-04-19T12:58:35.613Z</time></trkpt><trkpt lat="45.5539977" lon="11.1539119"><ele>419.4</ele><time>2026-04-19T12:58:37.633Z</time></trkpt><trkpt lat="45.5539237" lon="11.153927"><ele>419.0</ele><time>2026-04-19T12:58:38.721Z</time></trkpt><trkpt lat="45.5538021" lon="11.1539434"><ele>418.25</ele><time>2026-04-19T12:58:40.698Z</time></trkpt><trkpt lat="45.553682" lon="11.1539493"><ele>417.5</ele><time>2026-04-19T12:58:42.698Z</time></trkpt><trkpt lat="45.5535001" lon="11.1539804"><ele>416.75</ele><time>2026-04-19T12:58:45.603Z</time></trkpt><trkpt lat="45.5534333" lon="11.1539961"><ele>416.0</ele><time>2026-04-19T12:58:46.604Z</time></trkpt><trkpt lat="45.5533131" lon="11.1539961"><ele>415.99999999999994</ele><time>2026-04-19T12:58:48.601Z</time></trkpt><trkpt lat="45.5532428" lon="11.1539971"><ele>416.0</ele><time>2026-04-19T12:58:49.609Z</time></trkpt><trkpt lat="45.5531124" lon="11.1539581"><ele>416.0</ele><time>2026-04-19T12:58:51.596Z</time></trkpt><trkpt lat="45.5530514" lon="11.1539333"><ele>416.0</ele><time>2026-04-19T12:58:52.599Z</time></trkpt><trkpt lat="45.5529893" lon="11.1538707"><ele>415.99999999999994</ele><time>2026-04-19T12:58:53.604Z</time></trkpt><trkpt lat="45.5529191" lon="11.1538414"><ele>416.0</ele><time>2026-04-19T12:58:54.604Z</time></trkpt><trkpt lat="45.5528508" lon="11.1538158"><ele>415.49999999999994</ele><time>2026-04-19T12:58:55.707Z</time></trkpt><trkpt lat="45.5527874" lon="11.1537899"><ele>415.0</ele><time>2026-04-19T12:58:56.711Z</time></trkpt><trkpt lat="45.5527049" lon="11.1537991"><ele>414.5</ele><time>2026-04-19T12:58:57.712Z</time></trkpt><trkpt lat="45.5526223" lon="11.1537727"><ele>414.0</ele><time>2026-04-19T12:58:58.711Z</time></trkpt><trkpt lat="45.5525412" lon="11.1537469"><ele>413.49999999999994</ele><time>2026-04-19T12:58:59.703Z</time></trkpt><trkpt lat="45.5524601" lon="11.1537271"><ele>413.0</ele><time>2026-04-19T12:59:00.719Z</time></trkpt><trkpt lat="45.5523811" lon="11.1537104"><ele>413.0</ele><time>2026-04-19T12:59:01.715Z</time></trkpt><trkpt lat="45.5522816" lon="11.1536901"><ele>413.0</ele><time>2026-04-19T12:59:02.696Z</time></trkpt><trkpt lat="45.5521249" lon="11.1536473"><ele>413.0</ele><time>2026-04-19T12:59:04.716Z</time></trkpt><trkpt lat="45.5519649" lon="11.1535922"><ele>413.0</ele><time>2026-04-19T12:59:06.611Z</time></trkpt><trkpt lat="45.5518993" lon="11.1535801"><ele>412.3333333333333</ele><time>2026-04-19T12:59:07.6Z</time></trkpt><trkpt lat="45.5517757" lon="11.153536"><ele>411.66666666666663</ele><time>2026-04-19T12:59:09.714Z</time></trkpt><trkpt lat="45.5517087" lon="11.1535198"><ele>411.0</ele><time>2026-04-19T12:59:10.719Z</time></trkpt><trkpt lat="45.5516355" lon="11.1535026"><ele>410.33333333333337</ele><time>2026-04-19T12:59:11.72Z</time></trkpt><trkpt lat="45.5515444" lon="11.1534989"><ele>409.6666666666667</ele><time>2026-04-19T12:59:12.715Z</time></trkpt><trkpt lat="45.5514778" lon="11.1534887"><ele>409.0</ele><time>2026-04-19T12:59:13.714Z</time></trkpt><trkpt lat="45.5513517" lon="11.1534561"><ele>409.0</ele><time>2026-04-19T12:59:15.706Z</time></trkpt><trkpt lat="45.5512698" lon="11.1534247"><ele>409.0</ele><time>2026-04-19T12:59:16.622Z</time></trkpt><trkpt lat="45.5511988" lon="11.1534189"><ele>409.0</ele><time>2026-04-19T12:59:17.718Z</time></trkpt><trkpt lat="45.5510555" lon="11.1533867"><ele>409.0</ele><time>2026-04-19T12:59:19.733Z</time></trkpt><trkpt lat="45.5509451" lon="11.1533351"><ele>409.0</ele><time>2026-04-19T12:59:21.712Z</time></trkpt><trkpt lat="45.5508642" lon="11.1533092"><ele>409.0</ele><time>2026-04-19T12:59:22.725Z</time></trkpt><trkpt lat="45.5507433" lon="11.1532494"><ele>409.0</ele><time>2026-04-19T12:59:24.709Z</time></trkpt><trkpt lat="45.550684" lon="11.1531966"><ele>409.0</ele><time>2026-04-19T12:59:25.714Z</time></trkpt><trkpt lat="45.5506202" lon="11.15319"><ele>409.0</ele><time>2026-04-19T12:59:26.717Z</time></trkpt><trkpt lat="45.5505487" lon="11.1531704"><ele>409.0</ele><time>2026-04-19T12:59:27.725Z</time></trkpt><trkpt lat="45.5504189" lon="11.1531178"><ele>408.2</ele><time>2026-04-19T12:59:29.716Z</time></trkpt><trkpt lat="45.5503548" lon="11.1530893"><ele>407.4</ele><time>2026-04-19T12:59:30.722Z</time></trkpt><trkpt lat="45.5502311" lon="11.1530918"><ele>406.6</ele><time>2026-04-19T12:59:32.726Z</time></trkpt><trkpt lat="45.5501609" lon="11.1530786"><ele>405.8</ele><time>2026-04-19T12:59:33.71Z</time></trkpt><trkpt lat="45.5500987" lon="11.1530395"><ele>405.0</ele><time>2026-04-19T12:59:34.727Z</time></trkpt><trkpt lat="45.549959" lon="11.1528923"><ele>405.0</ele><time>2026-04-19T12:59:37.594Z</time></trkpt><trkpt lat="45.5499409" lon="11.1527976"><ele>405.0</ele><time>2026-04-19T12:59:38.601Z</time></trkpt><trkpt lat="45.5499184" lon="11.1527072"><ele>405.0</ele><time>2026-04-19T12:59:39.71Z</time></trkpt><trkpt lat="45.5499483" lon="11.1526002"><ele>405.0</ele><time>2026-04-19T12:59:40.699Z</time></trkpt><trkpt lat="45.5499501" lon="11.1524352"><ele>405.0</ele><time>2026-04-19T12:59:42.729Z</time></trkpt><trkpt lat="45.5498535" lon="11.1523208"><ele>405.4</ele><time>2026-04-19T12:59:44.727Z</time></trkpt><trkpt lat="45.5497929" lon="11.1522838"><ele>405.8</ele><time>2026-04-19T12:59:45.727Z</time></trkpt><trkpt lat="45.5496946" lon="11.1521799"><ele>406.20000000000005</ele><time>2026-04-19T12:59:47.712Z</time></trkpt><trkpt lat="45.5495946" lon="11.1520825"><ele>406.6</ele><time>2026-04-19T12:59:49.599Z</time></trkpt><trkpt lat="45.5494764" lon="11.1519955"><ele>407.0</ele><time>2026-04-19T12:59:51.608Z</time></trkpt><trkpt lat="45.549402" lon="11.1519939"><ele>407.0</ele><time>2026-04-19T12:59:52.605Z</time></trkpt><trkpt lat="45.5492855" lon="11.1519309"><ele>407.0</ele><time>2026-04-19T12:59:54.604Z</time></trkpt><trkpt lat="45.54912" lon="11.1518518"><ele>407.0</ele><time>2026-04-19T12:59:57.722Z</time></trkpt><trkpt lat="45.5490109" lon="11.1517732"><ele>407.0</ele><time>2026-04-19T12:59:59.718Z</time></trkpt><trkpt lat="45.5489523" lon="11.1517403"><ele>407.0</ele><time>2026-04-19T13:00:00.723Z</time></trkpt><trkpt lat="45.548871" lon="11.1516567"><ele>407.0</ele><time>2026-04-19T13:00:02.733Z</time></trkpt><trkpt lat="45.5488091" lon="11.1516214"><ele>407.0</ele><time>2026-04-19T13:00:03.714Z</time></trkpt><trkpt lat="45.5487206" lon="11.1516897"><ele>407.0</ele><time>2026-04-19T13:00:05.737Z</time></trkpt><trkpt lat="45.5486105" lon="11.1518505"><ele>407.0</ele><time>2026-04-19T13:00:07.594Z</time></trkpt><trkpt lat="45.5485537" lon="11.1519239"><ele>406.66666666666663</ele><time>2026-04-19T13:00:08.592Z</time></trkpt><trkpt lat="45.5485068" lon="11.1520053"><ele>406.3333333333333</ele><time>2026-04-19T13:00:09.656Z</time></trkpt><trkpt lat="45.5484723" lon="11.1520865"><ele>406.0</ele><time>2026-04-19T13:00:10.687Z</time></trkpt><trkpt lat="45.548428" lon="11.1521654"><ele>405.66666666666663</ele><time>2026-04-19T13:00:11.699Z</time></trkpt><trkpt lat="45.5483694" lon="11.1522701"><ele>405.3333333333333</ele><time>2026-04-19T13:00:12.699Z</time></trkpt><trkpt lat="45.5483402" lon="11.1523666"><ele>405.0</ele><time>2026-04-19T13:00:13.603Z</time></trkpt><trkpt lat="45.5482033" lon="11.1525632"><ele>404.4</ele><time>2026-04-19T13:00:16.708Z</time></trkpt><trkpt lat="45.5481151" lon="11.1526061"><ele>403.8</ele><time>2026-04-19T13:00:18.698Z</time></trkpt><trkpt lat="45.5480501" lon="11.1525993"><ele>403.20000000000005</ele><time>2026-04-19T13:00:19.71Z</time></trkpt><trkpt lat="45.5479207" lon="11.15259"><ele>402.6</ele><time>2026-04-19T13:00:21.617Z</time></trkpt><trkpt lat="45.5477953" lon="11.1525823"><ele>402.0</ele><time>2026-04-19T13:00:23.717Z</time></trkpt><trkpt lat="45.5476754" lon="11.1525826"><ele>401.6</ele><time>2026-04-19T13:00:25.705Z</time></trkpt><trkpt lat="45.547598" lon="11.1525673"><ele>401.20000000000005</ele><time>2026-04-19T13:00:26.718Z</time></trkpt><trkpt lat="45.5475214" lon="11.1525738"><ele>400.8</ele><time>2026-04-19T13:00:27.717Z</time></trkpt><trkpt lat="45.5474029" lon="11.1525772"><ele>400.4</ele><time>2026-04-19T13:00:29.721Z</time></trkpt><trkpt lat="45.54728" lon="11.1525962"><ele>400.0</ele><time>2026-04-19T13:00:31.711Z</time></trkpt><trkpt lat="45.5471669" lon="11.1526117"><ele>400.0</ele><time>2026-04-19T13:00:33.707Z</time></trkpt><trkpt lat="45.5470935" lon="11.1526147"><ele>400.0</ele><time>2026-04-19T13:00:34.722Z</time></trkpt><trkpt lat="45.5469714" lon="11.1526072"><ele>400.0</ele><time>2026-04-19T13:00:36.728Z</time></trkpt><trkpt lat="45.5468568" lon="11.1526184"><ele>400.0</ele><time>2026-04-19T13:00:38.605Z</time></trkpt><trkpt lat="45.5467435" lon="11.1526112"><ele>400.0</ele><time>2026-04-19T13:00:40.711Z</time></trkpt><trkpt lat="45.546652" lon="11.1525483"><ele>400.00000000000006</ele><time>2026-04-19T13:00:42.733Z</time></trkpt><trkpt lat="45.5465884" lon="11.1525045"><ele>400.0</ele><time>2026-04-19T13:00:44.605Z</time></trkpt><trkpt lat="45.546583" lon="11.1526024"><ele>400.0</ele><time>2026-04-19T13:00:46.593Z</time></trkpt><trkpt lat="45.5465706" lon="11.1526922"><ele>400.0</ele><time>2026-04-19T13:00:48.604Z</time></trkpt><trkpt lat="45.5465024" lon="11.1527249"><ele>400.0</ele><time>2026-04-19T13:00:50.606Z</time></trkpt><trkpt lat="45.5464259" lon="11.1527334"><ele>400.00000000000006</ele><time>2026-04-19T13:00:52.6Z</time></trkpt><trkpt lat="45.546342" lon="11.152705"><ele>400.0</ele><time>2026-04-19T13:00:54.6Z</time></trkpt><trkpt lat="45.5462744" lon="11.1527004"><ele>399.6</ele><time>2026-04-19T13:00:56.706Z</time></trkpt><trkpt lat="45.5460857" lon="11.1527148"><ele>399.2</ele><time>2026-04-19T13:01:00.599Z</time></trkpt><trkpt lat="45.5460223" lon="11.1527209"><ele>398.79999999999995</ele><time>2026-04-19T13:01:01.611Z</time></trkpt><trkpt lat="45.5459078" lon="11.1527231"><ele>398.4</ele><time>2026-04-19T13:01:03.593Z</time></trkpt><trkpt lat="45.5458408" lon="11.1527648"><ele>398.0</ele><time>2026-04-19T13:01:05.603Z</time></trkpt><trkpt lat="45.5457499" lon="11.1527616"><ele>398.0</ele><time>2026-04-19T13:01:07.598Z</time></trkpt><trkpt lat="45.545646" lon="11.1527782"><ele>398.0</ele><time>2026-04-19T13:01:09.751Z</time></trkpt><trkpt lat="45.5455457" lon="11.1527943"><ele>398.0</ele><time>2026-04-19T13:01:11.747Z</time></trkpt><trkpt lat="45.5454473" lon="11.1527998"><ele>398.0</ele><time>2026-04-19T13:01:13.613Z</time></trkpt><trkpt lat="45.5453779" lon="11.1527956"><ele>398.0</ele><time>2026-04-19T13:01:15.6Z</time></trkpt><trkpt lat="45.5452892" lon="11.1528046"><ele>397.3333333333333</ele><time>2026-04-19T13:01:17.602Z</time></trkpt><trkpt lat="45.5451971" lon="11.1528377"><ele>396.66666666666663</ele><time>2026-04-19T13:01:19.704Z</time></trkpt><trkpt lat="45.5451331" lon="11.1528366"><ele>396.0</ele><time>2026-04-19T13:01:20.698Z</time></trkpt><trkpt lat="45.5450684" lon="11.1528459"><ele>395.33333333333337</ele><time>2026-04-19T13:01:22.722Z</time></trkpt><trkpt lat="45.5449488" lon="11.1528225"><ele>394.6666666666667</ele><time>2026-04-19T13:01:25.604Z</time></trkpt><trkpt lat="45.5448798" lon="11.1528308"><ele>394.0</ele><time>2026-04-19T13:01:27.602Z</time></trkpt><trkpt lat="45.5447914" lon="11.1528301"><ele>394.0</ele><time>2026-04-19T13:01:29.61Z</time></trkpt><trkpt lat="45.5447057" lon="11.1528195"><ele>394.0</ele><time>2026-04-19T13:01:31.727Z</time></trkpt><trkpt lat="45.5445911" lon="11.1528107"><ele>394.0</ele><time>2026-04-19T13:01:34.612Z</time></trkpt><trkpt lat="45.5445115" lon="11.152807"><ele>394.0</ele><time>2026-04-19T13:01:35.702Z</time></trkpt><trkpt lat="45.5444454" lon="11.1528142"><ele>394.0</ele><time>2026-04-19T13:01:36.717Z</time></trkpt><trkpt lat="45.5443284" lon="11.1527993"><ele>393.6</ele><time>2026-04-19T13:01:38.722Z</time></trkpt><trkpt lat="45.5442552" lon="11.1528201"><ele>393.2</ele><time>2026-04-19T13:01:40.595Z</time></trkpt><trkpt lat="45.544171" lon="11.1528587"><ele>392.8</ele><time>2026-04-19T13:01:42.602Z</time></trkpt><trkpt lat="45.544086" lon="11.1529406"><ele>392.40000000000003</ele><time>2026-04-19T13:01:44.602Z</time></trkpt><trkpt lat="45.5439782" lon="11.1529652"><ele>392.0</ele><time>2026-04-19T13:01:46.601Z</time></trkpt><trkpt lat="45.5438687" lon="11.152967"><ele>392.0</ele><time>2026-04-19T13:01:48.603Z</time></trkpt><trkpt lat="45.5437624" lon="11.1529779"><ele>392.0</ele><time>2026-04-19T13:01:50.734Z</time></trkpt><trkpt lat="45.5436635" lon="11.1530152"><ele>392.0</ele><time>2026-04-19T13:01:53.602Z</time></trkpt><trkpt lat="45.5436218" lon="11.1531551"><ele>392.0</ele><time>2026-04-19T13:01:55.609Z</time></trkpt><trkpt lat="45.5436058" lon="11.1532648"><ele>392.0</ele><time>2026-04-19T13:01:57.733Z</time></trkpt><trkpt lat="45.5435504" lon="11.1533312"><ele>391.49999999999994</ele><time>2026-04-19T13:01:59.61Z</time></trkpt><trkpt lat="45.5434823" lon="11.1533411"><ele>391.0</ele><time>2026-04-19T13:02:01.599Z</time></trkpt><trkpt lat="45.5434024" lon="11.1533564"><ele>390.5</ele><time>2026-04-19T13:02:03.605Z</time></trkpt><trkpt lat="45.5433258" lon="11.1534142"><ele>390.0</ele><time>2026-04-19T13:02:06.72Z</time></trkpt><trkpt lat="45.5432637" lon="11.1534526"><ele>389.49999999999994</ele><time>2026-04-19T13:02:08.735Z</time></trkpt><trkpt lat="45.543165" lon="11.1534331"><ele>389.0</ele><time>2026-04-19T13:02:11.604Z</time></trkpt><trkpt lat="45.5430673" lon="11.1534314"><ele>388.99999999999994</ele><time>2026-04-19T13:02:13.722Z</time></trkpt><trkpt lat="45.5429674" lon="11.1534448"><ele>389.0</ele><time>2026-04-19T13:02:15.615Z</time></trkpt><trkpt lat="45.5428932" lon="11.1534533"><ele>389.0</ele><time>2026-04-19T13:02:17.694Z</time></trkpt><trkpt lat="45.5428223" lon="11.1534715"><ele>389.0</ele><time>2026-04-19T13:02:20.613Z</time></trkpt><trkpt lat="45.5427675" lon="11.1535206"><ele>388.99999999999994</ele><time>2026-04-19T13:02:22.617Z</time></trkpt><trkpt lat="45.5426908" lon="11.1535566"><ele>389.0</ele><time>2026-04-19T13:02:24.599Z</time></trkpt><trkpt lat="45.5425982" lon="11.1535906"><ele>388.3333333333333</ele><time>2026-04-19T13:02:26.593Z</time></trkpt><trkpt lat="45.5425133" lon="11.153614"><ele>387.66666666666663</ele><time>2026-04-19T13:02:28.608Z</time></trkpt><trkpt lat="45.5424372" lon="11.1536323"><ele>387.0</ele><time>2026-04-19T13:02:30.609Z</time></trkpt><trkpt lat="45.5423571" lon="11.1536529"><ele>386.33333333333337</ele><time>2026-04-19T13:02:32.6Z</time></trkpt><trkpt lat="45.5422759" lon="11.1536532"><ele>385.6666666666667</ele><time>2026-04-19T13:02:34.595Z</time></trkpt><trkpt lat="45.5421998" lon="11.1536607"><ele>385.0</ele><time>2026-04-19T13:02:36.6Z</time></trkpt><trkpt lat="45.5421219" lon="11.153654"><ele>384.6</ele><time>2026-04-19T13:02:38.591Z</time></trkpt><trkpt lat="45.5420403" lon="11.1536493"><ele>384.2</ele><time>2026-04-19T13:02:40.598Z</time></trkpt><trkpt lat="45.5419759" lon="11.1536594"><ele>383.79999999999995</ele><time>2026-04-19T13:02:41.594Z</time></trkpt><trkpt lat="45.541883" lon="11.1536472"><ele>383.4</ele><time>2026-04-19T13:02:43.601Z</time></trkpt><trkpt lat="45.5417658" lon="11.1536321"><ele>383.0</ele><time>2026-04-19T13:02:45.606Z</time></trkpt><trkpt lat="45.5416479" lon="11.1536163"><ele>383.0</ele><time>2026-04-19T13:02:47.596Z</time></trkpt><trkpt lat="45.5415487" lon="11.1535788"><ele>383.0</ele><time>2026-04-19T13:02:49.593Z</time></trkpt><trkpt lat="45.5414459" lon="11.1535703"><ele>383.0</ele><time>2026-04-19T13:02:51.599Z</time></trkpt><trkpt lat="45.5413439" lon="11.1535716"><ele>383.0</ele><time>2026-04-19T13:02:53.611Z</time></trkpt><trkpt lat="45.5412463" lon="11.1535683"><ele>383.0</ele><time>2026-04-19T13:02:55.602Z</time></trkpt><trkpt lat="45.5411465" lon="11.1535462"><ele>382.59999999999997</ele><time>2026-04-19T13:02:57.6Z</time></trkpt><trkpt lat="45.5410477" lon="11.1535154"><ele>382.2</ele><time>2026-04-19T13:02:59.594Z</time></trkpt><trkpt lat="45.5409828" lon="11.1535197"><ele>381.8</ele><time>2026-04-19T13:03:00.604Z</time></trkpt><trkpt lat="45.540908" lon="11.1535203"><ele>381.4</ele><time>2026-04-19T13:03:01.596Z</time></trkpt><trkpt lat="45.5407974" lon="11.1535423"><ele>381.0</ele><time>2026-04-19T13:03:03.599Z</time></trkpt><trkpt lat="45.5406931" lon="11.1535681"><ele>381.0</ele><time>2026-04-19T13:03:05.598Z</time></trkpt><trkpt lat="45.5406014" lon="11.1535704"><ele>381.0</ele><time>2026-04-19T13:03:07.599Z</time></trkpt><trkpt lat="45.5404865" lon="11.1535941"><ele>381.0</ele><time>2026-04-19T13:03:09.595Z</time></trkpt><trkpt lat="45.5403785" lon="11.1536424"><ele>381.0</ele><time>2026-04-19T13:03:11.602Z</time></trkpt><trkpt lat="45.5402698" lon="11.1536683"><ele>381.0</ele><time>2026-04-19T13:03:13.598Z</time></trkpt><trkpt lat="45.5401618" lon="11.1536933"><ele>380.5</ele><time>2026-04-19T13:03:15.597Z</time></trkpt><trkpt lat="45.5400992" lon="11.1537137"><ele>380.0</ele><time>2026-04-19T13:03:16.602Z</time></trkpt><trkpt lat="45.5400331" lon="11.1537221"><ele>379.5</ele><time>2026-04-19T13:03:17.597Z</time></trkpt><trkpt lat="45.5399678" lon="11.1537302"><ele>379.0</ele><time>2026-04-19T13:03:18.599Z</time></trkpt><trkpt lat="45.5399016" lon="11.1537438"><ele>378.5</ele><time>2026-04-19T13:03:19.599Z</time></trkpt><trkpt lat="45.5397835" lon="11.1537155"><ele>378.0</ele><time>2026-04-19T13:03:21.594Z</time></trkpt><trkpt lat="45.5396769" lon="11.1537106"><ele>378.0</ele><time>2026-04-19T13:03:23.593Z</time></trkpt><trkpt lat="45.5395769" lon="11.153717"><ele>378.0</ele><time>2026-04-19T13:03:25.604Z</time></trkpt><trkpt lat="45.5394905" lon="11.1537505"><ele>378.0</ele><time>2026-04-19T13:03:27.596Z</time></trkpt><trkpt lat="45.539394" lon="11.1538149"><ele>378.0</ele><time>2026-04-19T13:03:29.6Z</time></trkpt><trkpt lat="45.5392664" lon="11.1538879"><ele>378.0</ele><time>2026-04-19T13:03:31.595Z</time></trkpt><trkpt lat="45.5391621" lon="11.1539581"><ele>378.4</ele><time>2026-04-19T13:03:33.601Z</time></trkpt><trkpt lat="45.5390576" lon="11.1539835"><ele>378.79999999999995</ele><time>2026-04-19T13:03:35.601Z</time></trkpt><trkpt lat="45.5390027" lon="11.1540344"><ele>379.2</ele><time>2026-04-19T13:03:36.602Z</time></trkpt><trkpt lat="45.538897" lon="11.1541006"><ele>379.6</ele><time>2026-04-19T13:03:38.61Z</time></trkpt><trkpt lat="45.5387939" lon="11.1541082"><ele>380.0</ele><time>2026-04-19T13:03:40.599Z</time></trkpt><trkpt lat="45.538714" lon="11.1541359"><ele>379.2</ele><time>2026-04-19T13:03:42.594Z</time></trkpt><trkpt lat="45.5386252" lon="11.1541278"><ele>378.4</ele><time>2026-04-19T13:03:44.597Z</time></trkpt><trkpt lat="45.5385579" lon="11.154116"><ele>377.6</ele><time>2026-04-19T13:03:45.596Z</time></trkpt><trkpt lat="45.538462" lon="11.1541106"><ele>376.8</ele><time>2026-04-19T13:03:47.599Z</time></trkpt><trkpt lat="45.5383552" lon="11.1541369"><ele>376.0</ele><time>2026-04-19T13:03:49.597Z</time></trkpt><trkpt lat="45.5382463" lon="11.1541481"><ele>376.0</ele><time>2026-04-19T13:03:51.598Z</time></trkpt><trkpt lat="45.5381646" lon="11.1542103"><ele>376.0</ele><time>2026-04-19T13:03:53.595Z</time></trkpt><trkpt lat="45.5380678" lon="11.1542025"><ele>376.0</ele><time>2026-04-19T13:03:55.595Z</time></trkpt><trkpt lat="45.5379844" lon="11.1541178"><ele>376.0</ele><time>2026-04-19T13:03:57.6Z</time></trkpt><trkpt lat="45.5379455" lon="11.1540435"><ele>376.0</ele><time>2026-04-19T13:03:58.596Z</time></trkpt><trkpt lat="45.537904" lon="11.153973"><ele>376.0</ele><time>2026-04-19T13:03:59.597Z</time></trkpt><trkpt lat="45.5378648" lon="11.1538865"><ele>375.5</ele><time>2026-04-19T13:04:00.601Z</time></trkpt><trkpt lat="45.5378088" lon="11.1537289"><ele>375.0</ele><time>2026-04-19T13:04:02.595Z</time></trkpt><trkpt lat="45.5377658" lon="11.1535795"><ele>374.5</ele><time>2026-04-19T13:04:04.594Z</time></trkpt><trkpt lat="45.5377284" lon="11.1534267"><ele>374.0</ele><time>2026-04-19T13:04:06.593Z</time></trkpt><trkpt lat="45.537683" lon="11.1532832"><ele>374.83333333333337</ele><time>2026-04-19T13:04:08.594Z</time></trkpt><trkpt lat="45.5376178" lon="11.1531878"><ele>375.6666666666667</ele><time>2026-04-19T13:04:10.612Z</time></trkpt><trkpt lat="45.5375581" lon="11.1531053"><ele>376.5</ele><time>2026-04-19T13:04:12.598Z</time></trkpt><trkpt lat="45.537492" lon="11.153023"><ele>377.3333333333333</ele><time>2026-04-19T13:04:14.596Z</time></trkpt><trkpt lat="45.5374293" lon="11.1529676"><ele>378.16666666666663</ele><time>2026-04-19T13:04:16.603Z</time></trkpt><trkpt lat="45.5373476" lon="11.1528886"><ele>379.0</ele><time>2026-04-19T13:04:19.613Z</time></trkpt><trkpt lat="45.5372602" lon="11.1528214"><ele>379.0</ele><time>2026-04-19T13:04:22.659Z</time></trkpt><trkpt lat="45.5371943" lon="11.1527535"><ele>379.0</ele><time>2026-04-19T13:04:25.617Z</time></trkpt><trkpt lat="45.5371476" lon="11.1526704"><ele>379.0</ele><time>2026-04-19T13:04:28.611Z</time></trkpt><trkpt lat="45.5370927" lon="11.1526256"><ele>379.0</ele><time>2026-04-19T13:04:30.613Z</time></trkpt><trkpt lat="45.5370532" lon="11.1525172"><ele>379.0</ele><time>2026-04-19T13:04:34.637Z</time></trkpt><trkpt lat="45.5369871" lon="11.1524113"><ele>379.0</ele><time>2026-04-19T13:04:38.739Z</time></trkpt><trkpt lat="45.536945" lon="11.1523191"><ele>380.0</ele><time>2026-04-19T13:04:41.62Z</time></trkpt><trkpt lat="45.5369153" lon="11.1522254"><ele>381.0</ele><time>2026-04-19T13:04:44.606Z</time></trkpt><trkpt lat="45.5368598" lon="11.1521326"><ele>382.0</ele><time>2026-04-19T13:04:47.605Z</time></trkpt><trkpt lat="45.5368081" lon="11.1520435"><ele>383.0</ele><time>2026-04-19T13:04:50.723Z</time></trkpt><trkpt lat="45.5367608" lon="11.1519366"><ele>384.00000000000006</ele><time>2026-04-19T13:04:53.718Z</time></trkpt><trkpt lat="45.5367164" lon="11.1518408"><ele>385.0</ele><time>2026-04-19T13:04:56.61Z</time></trkpt><trkpt lat="45.5366611" lon="11.1517338"><ele>385.0</ele><time>2026-04-19T13:04:59.72Z</time></trkpt><trkpt lat="45.5366172" lon="11.1516268"><ele>385.0</ele><time>2026-04-19T13:05:02.6Z</time></trkpt><trkpt lat="45.536591" lon="11.1515354"><ele>385.0</ele><time>2026-04-19T13:05:04.706Z</time></trkpt><trkpt lat="45.5365582" lon="11.1514353"><ele>385.0</ele><time>2026-04-19T13:05:07.612Z</time></trkpt><trkpt lat="45.5365455" lon="11.1513392"><ele>385.0</ele><time>2026-04-19T13:05:09.608Z</time></trkpt><trkpt lat="45.5365346" lon="11.1512464"><ele>385.0</ele><time>2026-04-19T13:05:12.618Z</time></trkpt><trkpt lat="45.5364956" lon="11.1511569"><ele>385.0</ele><time>2026-04-19T13:05:15.719Z</time></trkpt><trkpt lat="45.5364349" lon="11.151096"><ele>384.50000000000006</ele><time>2026-04-19T13:05:18.607Z</time></trkpt><trkpt lat="45.5363724" lon="11.1510214"><ele>384.0</ele><time>2026-04-19T13:05:21.715Z</time></trkpt><trkpt lat="45.5362977" lon="11.150976"><ele>383.5</ele><time>2026-04-19T13:05:24.723Z</time></trkpt><trkpt lat="45.5361776" lon="11.1509396"><ele>383.0</ele><time>2026-04-19T13:05:28.61Z</time></trkpt><trkpt lat="45.5361059" lon="11.1509354"><ele>382.5</ele><time>2026-04-19T13:05:30.703Z</time></trkpt><trkpt lat="45.5360367" lon="11.1509326"><ele>382.0</ele><time>2026-04-19T13:05:32.77Z</time></trkpt><trkpt lat="45.5359666" lon="11.1509323"><ele>382.0</ele><time>2026-04-19T13:05:34.606Z</time></trkpt><trkpt lat="45.5358953" lon="11.1509328"><ele>382.0</ele><time>2026-04-19T13:05:36.709Z</time></trkpt><trkpt lat="45.5357849" lon="11.1509496"><ele>382.0</ele><time>2026-04-19T13:05:39.594Z</time></trkpt><trkpt lat="45.5357096" lon="11.1509392"><ele>382.0</ele><time>2026-04-19T13:05:41.706Z</time></trkpt><trkpt lat="45.5355947" lon="11.1509478"><ele>382.0</ele><time>2026-04-19T13:05:44.594Z</time></trkpt><trkpt lat="45.5355159" lon="11.1509639"><ele>382.0</ele><time>2026-04-19T13:05:46.69Z</time></trkpt><trkpt lat="45.5354426" lon="11.1509936"><ele>382.0</ele><time>2026-04-19T13:05:48.613Z</time></trkpt><trkpt lat="45.5353582" lon="11.151024"><ele>382.0</ele><time>2026-04-19T13:05:50.713Z</time></trkpt><trkpt lat="45.53526" lon="11.151058"><ele>382.0</ele><time>2026-04-19T13:05:52.732Z</time></trkpt><trkpt lat="45.5351783" lon="11.151056"><ele>382.0</ele><time>2026-04-19T13:05:54.602Z</time></trkpt><trkpt lat="45.5351112" lon="11.1510608"><ele>382.0</ele><time>2026-04-19T13:05:56.724Z</time></trkpt><trkpt lat="45.5350451" lon="11.1510717"><ele>382.0</ele><time>2026-04-19T13:05:58.697Z</time></trkpt><trkpt lat="45.5349773" lon="11.1510756"><ele>382.0</ele><time>2026-04-19T13:06:00.603Z</time></trkpt><trkpt lat="45.5349103" lon="11.1510654"><ele>382.0</ele><time>2026-04-19T13:06:02.706Z</time></trkpt><trkpt lat="45.5348043" lon="11.1510817"><ele>382.0</ele><time>2026-04-19T13:06:05.603Z</time></trkpt><trkpt lat="45.5347282" lon="11.15108"><ele>382.0</ele><time>2026-04-19T13:06:07.699Z</time></trkpt><trkpt lat="45.5345806" lon="11.1511"><ele>381.6</ele><time>2026-04-19T13:06:10.598Z</time></trkpt><trkpt lat="45.5345162" lon="11.1511112"><ele>381.20000000000005</ele><time>2026-04-19T13:06:12.689Z</time></trkpt><trkpt lat="45.5344098" lon="11.1510987"><ele>380.8</ele><time>2026-04-19T13:06:14.697Z</time></trkpt><trkpt lat="45.5343198" lon="11.1510893"><ele>380.4</ele><time>2026-04-19T13:06:16.705Z</time></trkpt><trkpt lat="45.534216" lon="11.1510889"><ele>380.0</ele><time>2026-04-19T13:06:18.706Z</time></trkpt><trkpt lat="45.5341323" lon="11.1510715"><ele>380.0</ele><time>2026-04-19T13:06:20.708Z</time></trkpt><trkpt lat="45.5340304" lon="11.1510471"><ele>380.0</ele><time>2026-04-19T13:06:22.612Z</time></trkpt><trkpt lat="45.5339441" lon="11.1510085"><ele>380.0</ele><time>2026-04-19T13:06:24.726Z</time></trkpt><trkpt lat="45.5338344" lon="11.150972"><ele>380.0</ele><time>2026-04-19T13:06:26.713Z</time></trkpt><trkpt lat="45.5337157" lon="11.1508942"><ele>380.0</ele><time>2026-04-19T13:06:28.759Z</time></trkpt><trkpt lat="45.5336052" lon="11.1508358"><ele>380.1666666666667</ele><time>2026-04-19T13:06:30.729Z</time></trkpt><trkpt lat="45.5334816" lon="11.1507812"><ele>380.33333333333337</ele><time>2026-04-19T13:06:32.739Z</time></trkpt><trkpt lat="45.5334071" lon="11.1507832"><ele>380.5</ele><time>2026-04-19T13:06:33.716Z</time></trkpt><trkpt lat="45.5333377" lon="11.1507799"><ele>380.6666666666667</ele><time>2026-04-19T13:06:34.733Z</time></trkpt><trkpt lat="45.5332455" lon="11.150788"><ele>380.8333333333333</ele><time>2026-04-19T13:06:35.724Z</time></trkpt><trkpt lat="45.5331699" lon="11.1508121"><ele>381.0</ele><time>2026-04-19T13:06:36.717Z</time></trkpt><trkpt lat="45.5331091" lon="11.1508372"><ele>381.0</ele><time>2026-04-19T13:06:37.716Z</time></trkpt><trkpt lat="45.5330446" lon="11.1508554"><ele>381.0</ele><time>2026-04-19T13:06:38.677Z</time></trkpt><trkpt lat="45.5329728" lon="11.1508748"><ele>381.0</ele><time>2026-04-19T13:06:39.761Z</time></trkpt><trkpt lat="45.532896" lon="11.1509072"><ele>381.0</ele><time>2026-04-19T13:06:40.719Z</time></trkpt><trkpt lat="45.5328018" lon="11.1509236"><ele>381.0</ele><time>2026-04-19T13:06:41.718Z</time></trkpt><trkpt lat="45.5327383" lon="11.1509522"><ele>381.0</ele><time>2026-04-19T13:06:42.721Z</time></trkpt><trkpt lat="45.5326792" lon="11.150988"><ele>381.0</ele><time>2026-04-19T13:06:43.698Z</time></trkpt><trkpt lat="45.5326055" lon="11.151035"><ele>382.3333333333333</ele><time>2026-04-19T13:06:44.709Z</time></trkpt><trkpt lat="45.532529" lon="11.1510508"><ele>383.66666666666663</ele><time>2026-04-19T13:06:45.715Z</time></trkpt><trkpt lat="45.5324616" lon="11.1510639"><ele>385.0</ele><time>2026-04-19T13:06:46.729Z</time></trkpt><trkpt lat="45.5323297" lon="11.151111"><ele>386.3333333333333</ele><time>2026-04-19T13:06:48.713Z</time></trkpt><trkpt lat="45.532255" lon="11.1511323"><ele>387.66666666666663</ele><time>2026-04-19T13:06:49.704Z</time></trkpt><trkpt lat="45.5321944" lon="11.1511579"><ele>389.0</ele><time>2026-04-19T13:06:50.61Z</time></trkpt><trkpt lat="45.5321283" lon="11.1511781"><ele>388.99999999999994</ele><time>2026-04-19T13:06:51.606Z</time></trkpt><trkpt lat="45.5320584" lon="11.1511962"><ele>389.0</ele><time>2026-04-19T13:06:52.707Z</time></trkpt><trkpt lat="45.5319372" lon="11.1512455"><ele>389.0</ele><time>2026-04-19T13:06:54.722Z</time></trkpt><trkpt lat="45.5318713" lon="11.151271"><ele>389.0</ele><time>2026-04-19T13:06:55.708Z</time></trkpt><trkpt lat="45.5318" lon="11.1512964"><ele>388.99999999999994</ele><time>2026-04-19T13:06:56.728Z</time></trkpt><trkpt lat="45.5317201" lon="11.1513081"><ele>389.0</ele><time>2026-04-19T13:06:57.726Z</time></trkpt><trkpt lat="45.5316559" lon="11.151338"><ele>388.8333333333333</ele><time>2026-04-19T13:06:58.734Z</time></trkpt><trkpt lat="45.5315815" lon="11.1513626"><ele>388.66666666666663</ele><time>2026-04-19T13:06:59.785Z</time></trkpt><trkpt lat="45.5314514" lon="11.1514127"><ele>388.5</ele><time>2026-04-19T13:07:01.725Z</time></trkpt><trkpt lat="45.5313757" lon="11.1514254"><ele>388.33333333333337</ele><time>2026-04-19T13:07:02.723Z</time></trkpt><trkpt lat="45.531305" lon="11.1514452"><ele>388.1666666666667</ele><time>2026-04-19T13:07:03.738Z</time></trkpt><trkpt lat="45.531233" lon="11.1514556"><ele>388.0</ele><time>2026-04-19T13:07:04.72Z</time></trkpt><trkpt lat="45.531165" lon="11.1514758"><ele>386.1666666666667</ele><time>2026-04-19T13:07:05.723Z</time></trkpt><trkpt lat="45.5310977" lon="11.1515035"><ele>384.33333333333337</ele><time>2026-04-19T13:07:06.73Z</time></trkpt><trkpt lat="45.531027" lon="11.1515225"><ele>382.5</ele><time>2026-04-19T13:07:07.719Z</time></trkpt><trkpt lat="45.5309564" lon="11.1515387"><ele>380.6666666666667</ele><time>2026-04-19T13:07:08.708Z</time></trkpt><trkpt lat="45.5308814" lon="11.1515469"><ele>378.83333333333337</ele><time>2026-04-19T13:07:09.72Z</time></trkpt><trkpt lat="45.5308034" lon="11.1515754"><ele>377.0</ele><time>2026-04-19T13:07:10.712Z</time></trkpt><trkpt lat="45.5307182" lon="11.1515907"><ele>375.33333333333337</ele><time>2026-04-19T13:07:11.686Z</time></trkpt><trkpt lat="45.5306405" lon="11.1516043"><ele>373.6666666666667</ele><time>2026-04-19T13:07:12.696Z</time></trkpt><trkpt lat="45.5305531" lon="11.1516153"><ele>372.0</ele><time>2026-04-19T13:07:13.7Z</time></trkpt><trkpt lat="45.5304752" lon="11.1516106"><ele>370.3333333333333</ele><time>2026-04-19T13:07:14.701Z</time></trkpt><trkpt lat="45.5303922" lon="11.1516118"><ele>368.66666666666663</ele><time>2026-04-19T13:07:15.685Z</time></trkpt><trkpt lat="45.5303155" lon="11.151623"><ele>367.0</ele><time>2026-04-19T13:07:16.699Z</time></trkpt><trkpt lat="45.5302408" lon="11.1516484"><ele>366.16666666666663</ele><time>2026-04-19T13:07:17.711Z</time></trkpt><trkpt lat="45.5301635" lon="11.1516566"><ele>365.3333333333333</ele><time>2026-04-19T13:07:18.683Z</time></trkpt><trkpt lat="45.5300925" lon="11.1516713"><ele>364.5</ele><time>2026-04-19T13:07:19.7Z</time></trkpt><trkpt lat="45.5299539" lon="11.1516161"><ele>363.6666666666667</ele><time>2026-04-19T13:07:21.608Z</time></trkpt><trkpt lat="45.5298895" lon="11.1516304"><ele>362.83333333333337</ele><time>2026-04-19T13:07:22.704Z</time></trkpt><trkpt lat="45.529824" lon="11.1516437"><ele>362.0</ele><time>2026-04-19T13:07:23.702Z</time></trkpt><trkpt lat="45.5296484" lon="11.1516762"><ele>362.0</ele><time>2026-04-19T13:07:26.634Z</time></trkpt><trkpt lat="45.5295797" lon="11.1516989"><ele>362.0</ele><time>2026-04-19T13:07:27.61Z</time></trkpt><trkpt lat="45.5294536" lon="11.1517339"><ele>362.0</ele><time>2026-04-19T13:07:29.717Z</time></trkpt><trkpt lat="45.5293295" lon="11.1517614"><ele>362.0</ele><time>2026-04-19T13:07:31.727Z</time></trkpt><trkpt lat="45.5292647" lon="11.1517713"><ele>362.0</ele><time>2026-04-19T13:07:32.719Z</time></trkpt><trkpt lat="45.5291434" lon="11.1518105"><ele>362.0</ele><time>2026-04-19T13:07:34.714Z</time></trkpt><trkpt lat="45.5290244" lon="11.1518371"><ele>362.0</ele><time>2026-04-19T13:07:36.725Z</time></trkpt><trkpt lat="45.5289155" lon="11.1518666"><ele>362.0</ele><time>2026-04-19T13:07:38.698Z</time></trkpt><trkpt lat="45.5287937" lon="11.1518752"><ele>362.0</ele><time>2026-04-19T13:07:40.725Z</time></trkpt><trkpt lat="45.5286709" lon="11.1519023"><ele>361.83333333333337</ele><time>2026-04-19T13:07:42.724Z</time></trkpt><trkpt lat="45.528572" lon="11.1519048"><ele>361.6666666666667</ele><time>2026-04-19T13:07:44.724Z</time></trkpt><trkpt lat="45.528463" lon="11.1519669"><ele>361.5</ele><time>2026-04-19T13:07:46.712Z</time></trkpt><trkpt lat="45.5284022" lon="11.1519972"><ele>361.3333333333333</ele><time>2026-04-19T13:07:47.707Z</time></trkpt><trkpt lat="45.5283412" lon="11.1520204"><ele>361.16666666666663</ele><time>2026-04-19T13:07:48.718Z</time></trkpt><trkpt lat="45.5282751" lon="11.1520476"><ele>361.0</ele><time>2026-04-19T13:07:49.699Z</time></trkpt><trkpt lat="45.5282073" lon="11.1520816"><ele>361.0</ele><time>2026-04-19T13:07:50.61Z</time></trkpt><trkpt lat="45.5281411" lon="11.1521122"><ele>361.0</ele><time>2026-04-19T13:07:51.606Z</time></trkpt><trkpt lat="45.5281192" lon="11.1522078"><ele>361.0</ele><time>2026-04-19T13:07:52.637Z</time></trkpt><trkpt lat="45.5280519" lon="11.1522512"><ele>361.0</ele><time>2026-04-19T13:07:53.714Z</time></trkpt><trkpt lat="45.5279894" lon="11.1522944"><ele>361.0</ele><time>2026-04-19T13:07:54.706Z</time></trkpt><trkpt lat="45.5279176" lon="11.1523383"><ele>361.0</ele><time>2026-04-19T13:07:55.718Z</time></trkpt><trkpt lat="45.5278526" lon="11.1523868"><ele>361.0</ele><time>2026-04-19T13:07:56.714Z</time></trkpt><trkpt lat="45.5277843" lon="11.1524182"><ele>360.14285714285717</ele><time>2026-04-19T13:07:57.706Z</time></trkpt><trkpt lat="45.5277155" lon="11.1524673"><ele>359.2857142857143</ele><time>2026-04-19T13:07:58.714Z</time></trkpt><trkpt lat="45.5276562" lon="11.1525064"><ele>358.42857142857144</ele><time>2026-04-19T13:07:59.703Z</time></trkpt><trkpt lat="45.5275908" lon="11.1525363"><ele>357.57142857142856</ele><time>2026-04-19T13:08:00.703Z</time></trkpt><trkpt lat="45.5275506" lon="11.152613"><ele>356.7142857142857</ele><time>2026-04-19T13:08:01.717Z</time></trkpt><trkpt lat="45.5274816" lon="11.1526569"><ele>355.85714285714283</ele><time>2026-04-19T13:08:02.721Z</time></trkpt><trkpt lat="45.5274158" lon="11.1526845"><ele>355.0</ele><time>2026-04-19T13:08:03.71Z</time></trkpt><trkpt lat="45.5273694" lon="11.1527475"><ele>355.0</ele><time>2026-04-19T13:08:04.716Z</time></trkpt><trkpt lat="45.5273038" lon="11.1527906"><ele>355.0</ele><time>2026-04-19T13:08:05.706Z</time></trkpt><trkpt lat="45.5272371" lon="11.152841"><ele>355.0</ele><time>2026-04-19T13:08:06.745Z</time></trkpt><trkpt lat="45.5271675" lon="11.1528916"><ele>355.0</ele><time>2026-04-19T13:08:07.727Z</time></trkpt><trkpt lat="45.5271141" lon="11.1529493"><ele>355.0</ele><time>2026-04-19T13:08:08.735Z</time></trkpt><trkpt lat="45.5270498" lon="11.1529896"><ele>355.0</ele><time>2026-04-19T13:08:09.721Z</time></trkpt><trkpt lat="45.5269837" lon="11.1530306"><ele>355.0</ele><time>2026-04-19T13:08:10.71Z</time></trkpt><trkpt lat="45.5268703" lon="11.153131"><ele>354.8333333333333</ele><time>2026-04-19T13:08:12.699Z</time></trkpt><trkpt lat="45.5268077" lon="11.1531721"><ele>354.66666666666663</ele><time>2026-04-19T13:08:13.727Z</time></trkpt><trkpt lat="45.5267422" lon="11.1531883"><ele>354.5</ele><time>2026-04-19T13:08:14.72Z</time></trkpt><trkpt lat="45.5266116" lon="11.1532111"><ele>354.3333333333333</ele><time>2026-04-19T13:08:16.747Z</time></trkpt><trkpt lat="45.5265071" lon="11.1532511"><ele>354.1666666666667</ele><time>2026-04-19T13:08:18.606Z</time></trkpt><trkpt lat="45.5264452" lon="11.1532705"><ele>354.0</ele><time>2026-04-19T13:08:19.608Z</time></trkpt><trkpt lat="45.5263398" lon="11.1533068"><ele>353.79999999999995</ele><time>2026-04-19T13:08:21.603Z</time></trkpt><trkpt lat="45.5262682" lon="11.1533115"><ele>353.59999999999997</ele><time>2026-04-19T13:08:23.602Z</time></trkpt><trkpt lat="45.5262048" lon="11.1533325"><ele>353.4</ele><time>2026-04-19T13:08:24.603Z</time></trkpt><trkpt lat="45.5260795" lon="11.1533933"><ele>353.2</ele><time>2026-04-19T13:08:26.604Z</time></trkpt><trkpt lat="45.5259514" lon="11.153411"><ele>353.0</ele><time>2026-04-19T13:08:28.71Z</time></trkpt><trkpt lat="45.525879" lon="11.1534552"><ele>352.4</ele><time>2026-04-19T13:08:29.727Z</time></trkpt><trkpt lat="45.5257455" lon="11.1534711"><ele>351.79999999999995</ele><time>2026-04-19T13:08:31.72Z</time></trkpt><trkpt lat="45.5256254" lon="11.1534947"><ele>351.2</ele><time>2026-04-19T13:08:33.702Z</time></trkpt><trkpt lat="45.5255595" lon="11.1535083"><ele>350.6</ele><time>2026-04-19T13:08:34.666Z</time></trkpt><trkpt lat="45.5254492" lon="11.1535478"><ele>350.0</ele><time>2026-04-19T13:08:37.725Z</time></trkpt><trkpt lat="45.5253431" lon="11.1535787"><ele>349.6</ele><time>2026-04-19T13:08:38.712Z</time></trkpt><trkpt lat="45.5252228" lon="11.1536014"><ele>349.2</ele><time>2026-04-19T13:08:40.706Z</time></trkpt><trkpt lat="45.5251599" lon="11.1536096"><ele>348.79999999999995</ele><time>2026-04-19T13:08:41.71Z</time></trkpt><trkpt lat="45.5250861" lon="11.1536446"><ele>348.4</ele><time>2026-04-19T13:08:42.66Z</time></trkpt><trkpt lat="45.5249617" lon="11.1536444"><ele>348.0</ele><time>2026-04-19T13:08:44.703Z</time></trkpt><trkpt lat="45.524885" lon="11.153649"><ele>348.0</ele><time>2026-04-19T13:08:45.698Z</time></trkpt><trkpt lat="45.5248125" lon="11.1536453"><ele>348.0</ele><time>2026-04-19T13:08:46.69Z</time></trkpt><trkpt lat="45.5247492" lon="11.1536689"><ele>348.0</ele><time>2026-04-19T13:08:47.671Z</time></trkpt><trkpt lat="45.5246864" lon="11.1536777"><ele>348.0</ele><time>2026-04-19T13:08:48.722Z</time></trkpt><trkpt lat="45.5245753" lon="11.1536913"><ele>348.0</ele><time>2026-04-19T13:08:50.696Z</time></trkpt><trkpt lat="45.5244554" lon="11.1537246"><ele>348.0</ele><time>2026-04-19T13:08:52.605Z</time></trkpt><trkpt lat="45.5243412" lon="11.1537537"><ele>347.4</ele><time>2026-04-19T13:08:54.692Z</time></trkpt><trkpt lat="45.5242714" lon="11.1537643"><ele>346.79999999999995</ele><time>2026-04-19T13:08:55.697Z</time></trkpt><trkpt lat="45.5241465" lon="11.1538304"><ele>346.2</ele><time>2026-04-19T13:08:57.717Z</time></trkpt><trkpt lat="45.5240827" lon="11.1538833"><ele>345.6</ele><time>2026-04-19T13:08:58.694Z</time></trkpt><trkpt lat="45.5239695" lon="11.1539146"><ele>345.0</ele><time>2026-04-19T13:09:00.694Z</time></trkpt><trkpt lat="45.5238483" lon="11.1539283"><ele>345.0</ele><time>2026-04-19T13:09:02.699Z</time></trkpt><trkpt lat="45.523761" lon="11.1539615"><ele>345.0</ele><time>2026-04-19T13:09:03.701Z</time></trkpt><trkpt lat="45.5236433" lon="11.1539691"><ele>345.0</ele><time>2026-04-19T13:09:05.609Z</time></trkpt><trkpt lat="45.5235799" lon="11.1539734"><ele>345.0</ele><time>2026-04-19T13:09:06.609Z</time></trkpt><trkpt lat="45.5234756" lon="11.1540116"><ele>345.0</ele><time>2026-04-19T13:09:08.603Z</time></trkpt><trkpt lat="45.5233603" lon="11.1540783"><ele>344.6</ele><time>2026-04-19T13:09:10.601Z</time></trkpt><trkpt lat="45.5232941" lon="11.1541205"><ele>344.2</ele><time>2026-04-19T13:09:11.601Z</time></trkpt><trkpt lat="45.523234" lon="11.1541664"><ele>343.79999999999995</ele><time>2026-04-19T13:09:12.739Z</time></trkpt><trkpt lat="45.5231718" lon="11.1541892"><ele>343.4</ele><time>2026-04-19T13:09:13.717Z</time></trkpt><trkpt lat="45.5230709" lon="11.1542529"><ele>343.0</ele><time>2026-04-19T13:09:15.708Z</time></trkpt><trkpt lat="45.5229142" lon="11.1543762"><ele>344.0</ele><time>2026-04-19T13:09:18.701Z</time></trkpt><trkpt lat="45.5228202" lon="11.1544575"><ele>345.0</ele><time>2026-04-19T13:09:20.6Z</time></trkpt><trkpt lat="45.5227603" lon="11.1545125"><ele>346.0</ele><time>2026-04-19T13:09:21.604Z</time></trkpt><trkpt lat="45.5226987" lon="11.1545584"><ele>347.0</ele><time>2026-04-19T13:09:22.601Z</time></trkpt><trkpt lat="45.5225983" lon="11.1546783"><ele>348.0</ele><time>2026-04-19T13:09:24.604Z</time></trkpt><trkpt lat="45.5225022" lon="11.1547672"><ele>348.0</ele><time>2026-04-19T13:09:26.604Z</time></trkpt><trkpt lat="45.5223903" lon="11.1548451"><ele>348.0</ele><time>2026-04-19T13:09:28.611Z</time></trkpt><trkpt lat="45.5222893" lon="11.1549263"><ele>348.0</ele><time>2026-04-19T13:09:30.602Z</time></trkpt><trkpt lat="45.5222235" lon="11.1549717"><ele>348.0</ele><time>2026-04-19T13:09:31.709Z</time></trkpt><trkpt lat="45.5221166" lon="11.1550544"><ele>348.0</ele><time>2026-04-19T13:09:33.715Z</time></trkpt><trkpt lat="45.5220574" lon="11.155106"><ele>346.4</ele><time>2026-04-19T13:09:34.72Z</time></trkpt><trkpt lat="45.5220005" lon="11.1551525"><ele>344.79999999999995</ele><time>2026-04-19T13:09:35.706Z</time></trkpt><trkpt lat="45.5219419" lon="11.1551941"><ele>343.2</ele><time>2026-04-19T13:09:36.71Z</time></trkpt><trkpt lat="45.5218185" lon="11.1552874"><ele>341.6</ele><time>2026-04-19T13:09:38.723Z</time></trkpt><trkpt lat="45.5217007" lon="11.155366"><ele>340.0</ele><time>2026-04-19T13:09:40.706Z</time></trkpt><trkpt lat="45.5216325" lon="11.1554082"><ele>340.0</ele><time>2026-04-19T13:09:41.611Z</time></trkpt><trkpt lat="45.5215225" lon="11.1554997"><ele>340.0</ele><time>2026-04-19T13:09:43.728Z</time></trkpt><trkpt lat="45.5214653" lon="11.1555478"><ele>340.0</ele><time>2026-04-19T13:09:44.717Z</time></trkpt><trkpt lat="45.5214111" lon="11.1555939"><ele>340.0</ele><time>2026-04-19T13:09:45.725Z</time></trkpt><trkpt lat="45.5212873" lon="11.1556677"><ele>340.0</ele><time>2026-04-19T13:09:47.73Z</time></trkpt><trkpt lat="45.5212324" lon="11.1557123"><ele>339.2</ele><time>2026-04-19T13:09:48.709Z</time></trkpt><trkpt lat="45.5211498" lon="11.1558416"><ele>338.4</ele><time>2026-04-19T13:09:50.712Z</time></trkpt><trkpt lat="45.5211065" lon="11.1559973"><ele>337.6</ele><time>2026-04-19T13:09:52.599Z</time></trkpt><trkpt lat="45.5211229" lon="11.1560884"><ele>336.8</ele><time>2026-04-19T13:09:53.714Z</time></trkpt><trkpt lat="45.5210981" lon="11.1561801"><ele>336.0</ele><time>2026-04-19T13:09:54.728Z</time></trkpt><trkpt lat="45.521079" lon="11.1563462"><ele>336.0</ele><time>2026-04-19T13:09:56.718Z</time></trkpt><trkpt lat="45.5210681" lon="11.1565305"><ele>336.0</ele><time>2026-04-19T13:09:58.731Z</time></trkpt><trkpt lat="45.5210569" lon="11.1566284"><ele>336.0</ele><time>2026-04-19T13:09:59.71Z</time></trkpt><trkpt lat="45.5210547" lon="11.1567292"><ele>336.0</ele><time>2026-04-19T13:10:00.721Z</time></trkpt><trkpt lat="45.5210447" lon="11.1568262"><ele>336.0</ele><time>2026-04-19T13:10:01.72Z</time></trkpt><trkpt lat="45.5210357" lon="11.156926"><ele>336.0</ele><time>2026-04-19T13:10:02.709Z</time></trkpt><trkpt lat="45.5210339" lon="11.1570277"><ele>335.8</ele><time>2026-04-19T13:10:03.71Z</time></trkpt><trkpt lat="45.5210219" lon="11.1571278"><ele>335.6</ele><time>2026-04-19T13:10:04.72Z</time></trkpt><trkpt lat="45.5210114" lon="11.157229"><ele>335.4</ele><time>2026-04-19T13:10:05.719Z</time></trkpt><trkpt lat="45.5209982" lon="11.1574139"><ele>335.2</ele><time>2026-04-19T13:10:07.728Z</time></trkpt><trkpt lat="45.5209999" lon="11.1575051"><ele>335.0</ele><time>2026-04-19T13:10:08.716Z</time></trkpt><trkpt lat="45.5210011" lon="11.1577661"><ele>334.33333333333337</ele><time>2026-04-19T13:10:11.737Z</time></trkpt><trkpt lat="45.5209908" lon="11.1578699"><ele>333.6666666666667</ele><time>2026-04-19T13:10:12.758Z</time></trkpt><trkpt lat="45.5210102" lon="11.1579582"><ele>333.0</ele><time>2026-04-19T13:10:13.736Z</time></trkpt><trkpt lat="45.5210196" lon="11.1580562"><ele>332.3333333333333</ele><time>2026-04-19T13:10:14.723Z</time></trkpt><trkpt lat="45.5210603" lon="11.1582204"><ele>331.66666666666663</ele><time>2026-04-19T13:10:16.724Z</time></trkpt><trkpt lat="45.5210816" lon="11.1583082"><ele>331.0</ele><time>2026-04-19T13:10:17.724Z</time></trkpt><trkpt lat="45.521082" lon="11.1584597"><ele>330.6</ele><time>2026-04-19T13:10:19.716Z</time></trkpt><trkpt lat="45.5210687" lon="11.1585635"><ele>330.20000000000005</ele><time>2026-04-19T13:10:20.717Z</time></trkpt><trkpt lat="45.5209877" lon="11.158708"><ele>329.79999999999995</ele><time>2026-04-19T13:10:22.604Z</time></trkpt><trkpt lat="45.5208571" lon="11.158771"><ele>329.4</ele><time>2026-04-19T13:10:24.607Z</time></trkpt><trkpt lat="45.5207822" lon="11.1587839"><ele>329.0</ele><time>2026-04-19T13:10:25.606Z</time></trkpt><trkpt lat="45.5207108" lon="11.1587933"><ele>329.0</ele><time>2026-04-19T13:10:26.608Z</time></trkpt><trkpt lat="45.5206442" lon="11.1587988"><ele>329.0</ele><time>2026-04-19T13:10:27.605Z</time></trkpt><trkpt lat="45.5205761" lon="11.158819"><ele>329.0</ele><time>2026-04-19T13:10:28.604Z</time></trkpt><trkpt lat="45.5205087" lon="11.1588473"><ele>329.0</ele><time>2026-04-19T13:10:29.606Z</time></trkpt><trkpt lat="45.5203783" lon="11.1588483"><ele>329.0</ele><time>2026-04-19T13:10:31.596Z</time></trkpt><trkpt lat="45.5202428" lon="11.1589021"><ele>328.83333333333337</ele><time>2026-04-19T13:10:33.727Z</time></trkpt><trkpt lat="45.5201618" lon="11.1589218"><ele>328.6666666666667</ele><time>2026-04-19T13:10:34.738Z</time></trkpt><trkpt lat="45.5200798" lon="11.1589381"><ele>328.5</ele><time>2026-04-19T13:10:35.727Z</time></trkpt><trkpt lat="45.5200005" lon="11.1589579"><ele>328.3333333333333</ele><time>2026-04-19T13:10:36.677Z</time></trkpt><trkpt lat="45.5199304" lon="11.1589856"><ele>328.16666666666663</ele><time>2026-04-19T13:10:37.728Z</time></trkpt><trkpt lat="45.5198596" lon="11.1590147"><ele>328.0</ele><time>2026-04-19T13:10:38.725Z</time></trkpt><trkpt lat="45.5197882" lon="11.1590401"><ele>328.0</ele><time>2026-04-19T13:10:39.691Z</time></trkpt><trkpt lat="45.5197064" lon="11.1590599"><ele>328.0</ele><time>2026-04-19T13:10:40.701Z</time></trkpt><trkpt lat="45.5196454" lon="11.1591077"><ele>328.0</ele><time>2026-04-19T13:10:41.698Z</time></trkpt><trkpt lat="45.519577" lon="11.159127"><ele>328.0</ele><time>2026-04-19T13:10:42.696Z</time></trkpt><trkpt lat="45.5195047" lon="11.1591891"><ele>328.0</ele><time>2026-04-19T13:10:43.698Z</time></trkpt><trkpt lat="45.5194325" lon="11.1592285"><ele>328.0</ele><time>2026-04-19T13:10:44.722Z</time></trkpt><trkpt lat="45.5193612" lon="11.1592741"><ele>327.25</ele><time>2026-04-19T13:10:45.709Z</time></trkpt><trkpt lat="45.5193018" lon="11.1593165"><ele>326.5</ele><time>2026-04-19T13:10:46.697Z</time></trkpt><trkpt lat="45.5191697" lon="11.1594028"><ele>325.75</ele><time>2026-04-19T13:10:48.705Z</time></trkpt><trkpt lat="45.519082" lon="11.1594462"><ele>325.0</ele><time>2026-04-19T13:10:49.706Z</time></trkpt><trkpt lat="45.5188456" lon="11.159591"><ele>325.0</ele><time>2026-04-19T13:10:52.604Z</time></trkpt><trkpt lat="45.5187604" lon="11.1596091"><ele>325.0</ele><time>2026-04-19T13:10:53.605Z</time></trkpt><trkpt lat="45.5186847" lon="11.1596388"><ele>325.0</ele><time>2026-04-19T13:10:54.603Z</time></trkpt><trkpt lat="45.5185789" lon="11.1596574"><ele>325.0</ele><time>2026-04-19T13:10:55.601Z</time></trkpt><trkpt lat="45.5185009" lon="11.1596989"><ele>325.0</ele><time>2026-04-19T13:10:56.595Z</time></trkpt><trkpt lat="45.5184416" lon="11.1597431"><ele>325.0</ele><time>2026-04-19T13:10:57.712Z</time></trkpt><trkpt lat="45.5183586" lon="11.1597906"><ele>324.5</ele><time>2026-04-19T13:10:58.706Z</time></trkpt><trkpt lat="45.5182895" lon="11.1598248"><ele>324.0</ele><time>2026-04-19T13:10:59.703Z</time></trkpt><trkpt lat="45.5182268" lon="11.1598609"><ele>323.5</ele><time>2026-04-19T13:11:00.714Z</time></trkpt><trkpt lat="45.5181661" lon="11.1599017"><ele>323.0</ele><time>2026-04-19T13:11:01.721Z</time></trkpt><trkpt lat="45.5180621" lon="11.1599467"><ele>322.5</ele><time>2026-04-19T13:11:02.718Z</time></trkpt><trkpt lat="45.517982" lon="11.1599779"><ele>322.0</ele><time>2026-04-19T13:11:03.733Z</time></trkpt><trkpt lat="45.5178969" lon="11.1600278"><ele>321.40000000000003</ele><time>2026-04-19T13:11:04.727Z</time></trkpt><trkpt lat="45.5178177" lon="11.1600651"><ele>320.8</ele><time>2026-04-19T13:11:05.729Z</time></trkpt><trkpt lat="45.5177294" lon="11.1601024"><ele>320.2</ele><time>2026-04-19T13:11:06.718Z</time></trkpt><trkpt lat="45.5176571" lon="11.1601414"><ele>319.6</ele><time>2026-04-19T13:11:07.727Z</time></trkpt><trkpt lat="45.5175118" lon="11.1602254"><ele>319.0</ele><time>2026-04-19T13:11:09.732Z</time></trkpt><trkpt lat="45.5174264" lon="11.1602516"><ele>319.0</ele><time>2026-04-19T13:11:10.724Z</time></trkpt><trkpt lat="45.5173382" lon="11.1602839"><ele>319.0</ele><time>2026-04-19T13:11:11.717Z</time></trkpt><trkpt lat="45.5172675" lon="11.1603268"><ele>319.0</ele><time>2026-04-19T13:11:12.717Z</time></trkpt><trkpt lat="45.5171884" lon="11.1603569"><ele>319.0</ele><time>2026-04-19T13:11:13.707Z</time></trkpt><trkpt lat="45.5171036" lon="11.1603998"><ele>319.0</ele><time>2026-04-19T13:11:14.731Z</time></trkpt><trkpt lat="45.5170143" lon="11.1604278"><ele>319.0</ele><time>2026-04-19T13:11:15.717Z</time></trkpt><trkpt lat="45.5169312" lon="11.1604652"><ele>318.4</ele><time>2026-04-19T13:11:16.723Z</time></trkpt><trkpt lat="45.5168442" lon="11.1604744"><ele>317.79999999999995</ele><time>2026-04-19T13:11:17.718Z</time></trkpt><trkpt lat="45.5167658" lon="11.1604894"><ele>317.20000000000005</ele><time>2026-04-19T13:11:18.714Z</time></trkpt><trkpt lat="45.5166838" lon="11.1605233"><ele>316.6</ele><time>2026-04-19T13:11:19.715Z</time></trkpt><trkpt lat="45.5165236" lon="11.1605978"><ele>316.0</ele><time>2026-04-19T13:11:21.727Z</time></trkpt><trkpt lat="45.5164488" lon="11.1606372"><ele>316.0</ele><time>2026-04-19T13:11:22.727Z</time></trkpt><trkpt lat="45.5163719" lon="11.1606734"><ele>316.0</ele><time>2026-04-19T13:11:23.733Z</time></trkpt><trkpt lat="45.5162908" lon="11.160692"><ele>316.0</ele><time>2026-04-19T13:11:24.731Z</time></trkpt><trkpt lat="45.5161462" lon="11.1607131"><ele>316.0</ele><time>2026-04-19T13:11:26.606Z</time></trkpt><trkpt lat="45.516021" lon="11.1607252"><ele>316.0</ele><time>2026-04-19T13:11:28.71Z</time></trkpt><trkpt lat="45.5159558" lon="11.1607392"><ele>315.5</ele><time>2026-04-19T13:11:29.706Z</time></trkpt><trkpt lat="45.5157269" lon="11.1608196"><ele>315.0</ele><time>2026-04-19T13:11:32.609Z</time></trkpt><trkpt lat="45.5156479" lon="11.1608417"><ele>314.5</ele><time>2026-04-19T13:11:33.724Z</time></trkpt><trkpt lat="45.5155619" lon="11.1608427"><ele>314.0</ele><time>2026-04-19T13:11:34.721Z</time></trkpt><trkpt lat="45.515456" lon="11.1608508"><ele>314.0</ele><time>2026-04-19T13:11:35.727Z</time></trkpt><trkpt lat="45.5153889" lon="11.1608784"><ele>314.0</ele><time>2026-04-19T13:11:36.734Z</time></trkpt><trkpt lat="45.5153192" lon="11.1608873"><ele>314.0</ele><time>2026-04-19T13:11:37.733Z</time></trkpt><trkpt lat="45.5152367" lon="11.1608933"><ele>314.0</ele><time>2026-04-19T13:11:38.718Z</time></trkpt><trkpt lat="45.5151421" lon="11.1608928"><ele>314.0</ele><time>2026-04-19T13:11:39.727Z</time></trkpt><trkpt lat="45.5149525" lon="11.16093"><ele>314.0</ele><time>2026-04-19T13:11:41.606Z</time></trkpt><trkpt lat="45.5148613" lon="11.1609362"><ele>314.0</ele><time>2026-04-19T13:11:42.738Z</time></trkpt><trkpt lat="45.5146919" lon="11.1609791"><ele>314.0</ele><time>2026-04-19T13:11:44.715Z</time></trkpt><trkpt lat="45.5145949" lon="11.1610128"><ele>314.0</ele><time>2026-04-19T13:11:45.728Z</time></trkpt><trkpt lat="45.5145251" lon="11.1610224"><ele>314.0</ele><time>2026-04-19T13:11:46.749Z</time></trkpt><trkpt lat="45.514451" lon="11.1610313"><ele>313.5</ele><time>2026-04-19T13:11:47.706Z</time></trkpt><trkpt lat="45.514383" lon="11.1610804"><ele>313.0</ele><time>2026-04-19T13:11:48.73Z</time></trkpt><trkpt lat="45.5142953" lon="11.1610964"><ele>312.5</ele><time>2026-04-19T13:11:49.724Z</time></trkpt><trkpt lat="45.5142305" lon="11.1611122"><ele>312.0</ele><time>2026-04-19T13:11:50.652Z</time></trkpt><trkpt lat="45.5141565" lon="11.1611375"><ele>311.5</ele><time>2026-04-19T13:11:51.739Z</time></trkpt><trkpt lat="45.514083" lon="11.1611386"><ele>311.0</ele><time>2026-04-19T13:11:52.733Z</time></trkpt><trkpt lat="45.5140107" lon="11.1611422"><ele>311.0</ele><time>2026-04-19T13:11:53.74Z</time></trkpt><trkpt lat="45.5139413" lon="11.1611599"><ele>311.0</ele><time>2026-04-19T13:11:54.708Z</time></trkpt><trkpt lat="45.5138698" lon="11.1611817"><ele>311.0</ele><time>2026-04-19T13:11:55.619Z</time></trkpt><trkpt lat="45.5138026" lon="11.1611848"><ele>311.0</ele><time>2026-04-19T13:11:56.599Z</time></trkpt><trkpt lat="45.5137343" lon="11.1611969"><ele>311.0</ele><time>2026-04-19T13:11:57.725Z</time></trkpt><trkpt lat="45.5136546" lon="11.1612197"><ele>311.0</ele><time>2026-04-19T13:11:58.731Z</time></trkpt><trkpt lat="45.5135835" lon="11.1612367"><ele>311.0</ele><time>2026-04-19T13:11:59.733Z</time></trkpt><trkpt lat="45.5134471" lon="11.1612961"><ele>310.33333333333337</ele><time>2026-04-19T13:12:01.726Z</time></trkpt><trkpt lat="45.513375" lon="11.1613217"><ele>309.6666666666667</ele><time>2026-04-19T13:12:02.711Z</time></trkpt><trkpt lat="45.5133012" lon="11.1613445"><ele>309.0</ele><time>2026-04-19T13:12:03.703Z</time></trkpt><trkpt lat="45.5131683" lon="11.1613848"><ele>308.3333333333333</ele><time>2026-04-19T13:12:05.727Z</time></trkpt><trkpt lat="45.5130936" lon="11.1613924"><ele>307.66666666666663</ele><time>2026-04-19T13:12:06.696Z</time></trkpt><trkpt lat="45.513022" lon="11.1614265"><ele>307.0</ele><time>2026-04-19T13:12:07.694Z</time></trkpt><trkpt lat="45.5129384" lon="11.1614507"><ele>307.0</ele><time>2026-04-19T13:12:08.698Z</time></trkpt><trkpt lat="45.5128543" lon="11.1614575"><ele>307.0</ele><time>2026-04-19T13:12:09.691Z</time></trkpt><trkpt lat="45.5127814" lon="11.1614871"><ele>307.0</ele><time>2026-04-19T13:12:10.701Z</time></trkpt><trkpt lat="45.5127118" lon="11.1615062"><ele>307.0</ele><time>2026-04-19T13:12:11.7Z</time></trkpt><trkpt lat="45.5126188" lon="11.1615322"><ele>307.0</ele><time>2026-04-19T13:12:12.704Z</time></trkpt><trkpt lat="45.5125374" lon="11.1615803"><ele>307.0</ele><time>2026-04-19T13:12:13.712Z</time></trkpt><trkpt lat="45.5124673" lon="11.1615938"><ele>306.99999999999994</ele><time>2026-04-19T13:12:14.707Z</time></trkpt><trkpt lat="45.5124015" lon="11.1616037"><ele>307.0</ele><time>2026-04-19T13:12:15.705Z</time></trkpt><trkpt lat="45.5123283" lon="11.1616177"><ele>307.0</ele><time>2026-04-19T13:12:16.693Z</time></trkpt><trkpt lat="45.5122586" lon="11.1616368"><ele>307.0</ele><time>2026-04-19T13:12:17.707Z</time></trkpt><trkpt lat="45.5121875" lon="11.1616508"><ele>307.0</ele><time>2026-04-19T13:12:18.689Z</time></trkpt><trkpt lat="45.5121221" lon="11.1616726"><ele>306.99999999999994</ele><time>2026-04-19T13:12:19.717Z</time></trkpt><trkpt lat="45.5120511" lon="11.1616849"><ele>307.0</ele><time>2026-04-19T13:12:20.729Z</time></trkpt><trkpt lat="45.5119867" lon="11.1617087"><ele>306.4</ele><time>2026-04-19T13:12:21.711Z</time></trkpt><trkpt lat="45.5118629" lon="11.1617216"><ele>305.79999999999995</ele><time>2026-04-19T13:12:23.713Z</time></trkpt><trkpt lat="45.5117891" lon="11.1617485"><ele>305.2</ele><time>2026-04-19T13:12:24.714Z</time></trkpt><trkpt lat="45.5116586" lon="11.1618037"><ele>304.59999999999997</ele><time>2026-04-19T13:12:26.613Z</time></trkpt><trkpt lat="45.5115917" lon="11.1618421"><ele>304.0</ele><time>2026-04-19T13:12:27.703Z</time></trkpt><trkpt lat="45.5114724" lon="11.1618704"><ele>304.0</ele><time>2026-04-19T13:12:29.701Z</time></trkpt><trkpt lat="45.5113711" lon="11.1618889"><ele>304.0</ele><time>2026-04-19T13:12:31.718Z</time></trkpt><trkpt lat="45.5112732" lon="11.1619575"><ele>304.0</ele><time>2026-04-19T13:12:33.722Z</time></trkpt><trkpt lat="45.5111347" lon="11.1620198"><ele>304.0</ele><time>2026-04-19T13:12:35.711Z</time></trkpt><trkpt lat="45.5110671" lon="11.162046"><ele>304.0</ele><time>2026-04-19T13:12:36.71Z</time></trkpt><trkpt lat="45.5109964" lon="11.162067"><ele>303.2</ele><time>2026-04-19T13:12:37.708Z</time></trkpt><trkpt lat="45.5109272" lon="11.1620756"><ele>302.4</ele><time>2026-04-19T13:12:38.648Z</time></trkpt><trkpt lat="45.5108539" lon="11.1621061"><ele>301.6</ele><time>2026-04-19T13:12:39.726Z</time></trkpt><trkpt lat="45.5107357" lon="11.162146"><ele>300.8</ele><time>2026-04-19T13:12:41.709Z</time></trkpt><trkpt lat="45.5106699" lon="11.1621731"><ele>300.0</ele><time>2026-04-19T13:12:42.723Z</time></trkpt><trkpt lat="45.5105277" lon="11.1621903"><ele>300.0</ele><time>2026-04-19T13:12:44.719Z</time></trkpt><trkpt lat="45.5104486" lon="11.1622036"><ele>300.0</ele><time>2026-04-19T13:12:45.695Z</time></trkpt><trkpt lat="45.5103755" lon="11.1622181"><ele>300.0</ele><time>2026-04-19T13:12:46.733Z</time></trkpt><trkpt lat="45.5103057" lon="11.162229"><ele>300.0</ele><time>2026-04-19T13:12:47.707Z</time></trkpt><trkpt lat="45.5102262" lon="11.1622632"><ele>300.0</ele><time>2026-04-19T13:12:48.708Z</time></trkpt><trkpt lat="45.5101596" lon="11.1622853"><ele>300.0</ele><time>2026-04-19T13:12:49.722Z</time></trkpt><trkpt lat="45.5100826" lon="11.1623141"><ele>299.6666666666667</ele><time>2026-04-19T13:12:50.718Z</time></trkpt><trkpt lat="45.5100099" lon="11.1623114"><ele>299.33333333333337</ele><time>2026-04-19T13:12:51.79Z</time></trkpt><trkpt lat="45.5097697" lon="11.1623458"><ele>299.0</ele><time>2026-04-19T13:12:54.712Z</time></trkpt><trkpt lat="45.5095959" lon="11.1624114"><ele>298.6666666666667</ele><time>2026-04-19T13:12:56.607Z</time></trkpt><trkpt lat="45.5095118" lon="11.1624427"><ele>298.33333333333337</ele><time>2026-04-19T13:12:57.6Z</time></trkpt><trkpt lat="45.5094476" lon="11.162462"><ele>298.0</ele><time>2026-04-19T13:12:58.602Z</time></trkpt><trkpt lat="45.5093606" lon="11.1624755"><ele>297.6666666666667</ele><time>2026-04-19T13:12:59.593Z</time></trkpt><trkpt lat="45.5092811" lon="11.1624972"><ele>297.3333333333333</ele><time>2026-04-19T13:13:00.602Z</time></trkpt><trkpt lat="45.509201" lon="11.1625227"><ele>297.0</ele><time>2026-04-19T13:13:01.6Z</time></trkpt><trkpt lat="45.509125" lon="11.1625571"><ele>297.0</ele><time>2026-04-19T13:13:02.602Z</time></trkpt><trkpt lat="45.5090441" lon="11.1625824"><ele>297.0</ele><time>2026-04-19T13:13:03.605Z</time></trkpt><trkpt lat="45.5089651" lon="11.1625965"><ele>297.0</ele><time>2026-04-19T13:13:04.612Z</time></trkpt><trkpt lat="45.5088848" lon="11.1626206"><ele>297.0</ele><time>2026-04-19T13:13:05.594Z</time></trkpt><trkpt lat="45.508806" lon="11.1626355"><ele>297.0</ele><time>2026-04-19T13:13:06.594Z</time></trkpt><trkpt lat="45.5087357" lon="11.1626486"><ele>297.0</ele><time>2026-04-19T13:13:07.602Z</time></trkpt><trkpt lat="45.5086552" lon="11.1626712"><ele>296.42857142857144</ele><time>2026-04-19T13:13:08.604Z</time></trkpt><trkpt lat="45.5085941" lon="11.1627005"><ele>295.8571428571429</ele><time>2026-04-19T13:13:09.596Z</time></trkpt><trkpt lat="45.5085191" lon="11.16273"><ele>295.2857142857143</ele><time>2026-04-19T13:13:10.608Z</time></trkpt><trkpt lat="45.5084497" lon="11.1627495"><ele>294.7142857142857</ele><time>2026-04-19T13:13:11.606Z</time></trkpt><trkpt lat="45.5083778" lon="11.1627706"><ele>294.1428571428571</ele><time>2026-04-19T13:13:12.603Z</time></trkpt><trkpt lat="45.5083062" lon="11.1627872"><ele>293.57142857142856</ele><time>2026-04-19T13:13:13.609Z</time></trkpt><trkpt lat="45.5082384" lon="11.1628187"><ele>293.0</ele><time>2026-04-19T13:13:14.604Z</time></trkpt><trkpt lat="45.508164" lon="11.1628417"><ele>292.99999999999994</ele><time>2026-04-19T13:13:15.611Z</time></trkpt><trkpt lat="45.5080852" lon="11.1628706"><ele>293.0</ele><time>2026-04-19T13:13:16.607Z</time></trkpt><trkpt lat="45.5080208" lon="11.1628885"><ele>293.0</ele><time>2026-04-19T13:13:17.599Z</time></trkpt><trkpt lat="45.5079551" lon="11.1629141"><ele>293.0</ele><time>2026-04-19T13:13:18.61Z</time></trkpt><trkpt lat="45.50788" lon="11.1629373"><ele>293.0</ele><time>2026-04-19T13:13:19.599Z</time></trkpt><trkpt lat="45.5078046" lon="11.1629684"><ele>292.99999999999994</ele><time>2026-04-19T13:13:20.603Z</time></trkpt><trkpt lat="45.5077327" lon="11.1629917"><ele>293.0</ele><time>2026-04-19T13:13:21.607Z</time></trkpt><trkpt lat="45.5076611" lon="11.1630124"><ele>292.83333333333337</ele><time>2026-04-19T13:13:22.606Z</time></trkpt><trkpt lat="45.5075798" lon="11.1630313"><ele>292.6666666666667</ele><time>2026-04-19T13:13:23.607Z</time></trkpt><trkpt lat="45.5075098" lon="11.1630567"><ele>292.5</ele><time>2026-04-19T13:13:24.607Z</time></trkpt><trkpt lat="45.507431" lon="11.1630831"><ele>292.3333333333333</ele><time>2026-04-19T13:13:25.612Z</time></trkpt><trkpt lat="45.5073718" lon="11.1631138"><ele>292.16666666666663</ele><time>2026-04-19T13:13:26.606Z</time></trkpt><trkpt lat="45.5073049" lon="11.1631619"><ele>292.0</ele><time>2026-04-19T13:13:27.714Z</time></trkpt><trkpt lat="45.507224" lon="11.1631977"><ele>292.0</ele><time>2026-04-19T13:13:28.721Z</time></trkpt><trkpt lat="45.5071498" lon="11.163215"><ele>292.0</ele><time>2026-04-19T13:13:29.724Z</time></trkpt><trkpt lat="45.5070743" lon="11.1632568"><ele>292.0</ele><time>2026-04-19T13:13:30.67Z</time></trkpt><trkpt lat="45.5069985" lon="11.163278"><ele>292.0</ele><time>2026-04-19T13:13:31.784Z</time></trkpt><trkpt lat="45.5068808" lon="11.1633345"><ele>292.0</ele><time>2026-04-19T13:13:33.708Z</time></trkpt><trkpt lat="45.5067082" lon="11.1633523"><ele>291.66666666666663</ele><time>2026-04-19T13:13:35.594Z</time></trkpt><trkpt lat="45.5066349" lon="11.1633717"><ele>291.3333333333333</ele><time>2026-04-19T13:13:36.596Z</time></trkpt><trkpt lat="45.5065661" lon="11.1633968"><ele>291.0</ele><time>2026-04-19T13:13:37.608Z</time></trkpt><trkpt lat="45.5064788" lon="11.1633981"><ele>290.6666666666667</ele><time>2026-04-19T13:13:38.601Z</time></trkpt><trkpt lat="45.5064108" lon="11.163393"><ele>290.33333333333337</ele><time>2026-04-19T13:13:39.595Z</time></trkpt><trkpt lat="45.5063367" lon="11.1634207"><ele>290.0</ele><time>2026-04-19T13:13:40.595Z</time></trkpt><trkpt lat="45.5062566" lon="11.1634266"><ele>289.1666666666667</ele><time>2026-04-19T13:13:41.603Z</time></trkpt><trkpt lat="45.5061767" lon="11.163455"><ele>288.33333333333337</ele><time>2026-04-19T13:13:42.718Z</time></trkpt><trkpt lat="45.506097" lon="11.1634713"><ele>287.5</ele><time>2026-04-19T13:13:43.731Z</time></trkpt><trkpt lat="45.5060212" lon="11.1634874"><ele>286.6666666666667</ele><time>2026-04-19T13:13:44.689Z</time></trkpt><trkpt lat="45.505943" lon="11.1635086"><ele>285.8333333333333</ele><time>2026-04-19T13:13:45.685Z</time></trkpt><trkpt lat="45.5058709" lon="11.1635393"><ele>285.0</ele><time>2026-04-19T13:13:46.67Z</time></trkpt><trkpt lat="45.5057926" lon="11.1635761"><ele>285.0</ele><time>2026-04-19T13:13:47.69Z</time></trkpt><trkpt lat="45.5057069" lon="11.1636165"><ele>285.0</ele><time>2026-04-19T13:13:48.68Z</time></trkpt><trkpt lat="45.5056341" lon="11.1636157"><ele>285.0</ele><time>2026-04-19T13:13:49.71Z</time></trkpt><trkpt lat="45.5055624" lon="11.1636639"><ele>285.0</ele><time>2026-04-19T13:13:50.702Z</time></trkpt><trkpt lat="45.5054934" lon="11.1637027"><ele>285.0</ele><time>2026-04-19T13:13:51.726Z</time></trkpt><trkpt lat="45.5054248" lon="11.1637368"><ele>285.0</ele><time>2026-04-19T13:13:52.683Z</time></trkpt><trkpt lat="45.5053435" lon="11.163752"><ele>285.0</ele><time>2026-04-19T13:13:53.7Z</time></trkpt><trkpt lat="45.5052943" lon="11.1638293"><ele>285.0</ele><time>2026-04-19T13:13:54.708Z</time></trkpt><trkpt lat="45.505222" lon="11.1638792"><ele>285.0</ele><time>2026-04-19T13:13:55.723Z</time></trkpt><trkpt lat="45.5051051" lon="11.1639674"><ele>285.0</ele><time>2026-04-19T13:13:57.612Z</time></trkpt><trkpt lat="45.5050553" lon="11.1640266"><ele>285.0</ele><time>2026-04-19T13:13:58.708Z</time></trkpt><trkpt lat="45.5050069" lon="11.1640896"><ele>285.0</ele><time>2026-04-19T13:13:59.702Z</time></trkpt><trkpt lat="45.5049544" lon="11.1641469"><ele>285.0</ele><time>2026-04-19T13:14:00.709Z</time></trkpt><trkpt lat="45.5048924" lon="11.1642136"><ele>285.0</ele><time>2026-04-19T13:14:01.698Z</time></trkpt><trkpt lat="45.5048332" lon="11.1642735"><ele>285.0</ele><time>2026-04-19T13:14:02.698Z</time></trkpt><trkpt lat="45.504766" lon="11.1643268"><ele>285.0</ele><time>2026-04-19T13:14:03.714Z</time></trkpt><trkpt lat="45.5047106" lon="11.1643821"><ele>285.0</ele><time>2026-04-19T13:14:04.708Z</time></trkpt><trkpt lat="45.50466" lon="11.1644685"><ele>285.0</ele><time>2026-04-19T13:14:05.61Z</time></trkpt><trkpt lat="45.5046002" lon="11.1645379"><ele>284.4</ele><time>2026-04-19T13:14:06.604Z</time></trkpt><trkpt lat="45.5045454" lon="11.1645926"><ele>283.8</ele><time>2026-04-19T13:14:07.71Z</time></trkpt><trkpt lat="45.5044327" lon="11.1647504"><ele>283.2</ele><time>2026-04-19T13:14:09.714Z</time></trkpt><trkpt lat="45.5043745" lon="11.1648231"><ele>282.6</ele><time>2026-04-19T13:14:10.725Z</time></trkpt><trkpt lat="45.5042825" lon="11.1649642"><ele>282.0</ele><time>2026-04-19T13:14:12.748Z</time></trkpt><trkpt lat="45.5041993" lon="11.1651118"><ele>282.0</ele><time>2026-04-19T13:14:14.742Z</time></trkpt><trkpt lat="45.5041468" lon="11.1651987"><ele>282.0</ele><time>2026-04-19T13:14:15.713Z</time></trkpt><trkpt lat="45.5041031" lon="11.1652915"><ele>282.0</ele><time>2026-04-19T13:14:16.704Z</time></trkpt><trkpt lat="45.5040555" lon="11.1653817"><ele>282.0</ele><time>2026-04-19T13:14:17.731Z</time></trkpt><trkpt lat="45.5040222" lon="11.1654631"><ele>282.0</ele><time>2026-04-19T13:14:18.708Z</time></trkpt><trkpt lat="45.5039804" lon="11.1655428"><ele>282.0</ele><time>2026-04-19T13:14:19.737Z</time></trkpt><trkpt lat="45.5038779" lon="11.1656839"><ele>282.1666666666667</ele><time>2026-04-19T13:14:21.706Z</time></trkpt><trkpt lat="45.5038298" lon="11.1657768"><ele>282.3333333333333</ele><time>2026-04-19T13:14:22.705Z</time></trkpt><trkpt lat="45.5037806" lon="11.1658678"><ele>282.5</ele><time>2026-04-19T13:14:23.711Z</time></trkpt><trkpt lat="45.5037335" lon="11.1659716"><ele>282.66666666666663</ele><time>2026-04-19T13:14:24.723Z</time></trkpt><trkpt lat="45.503683" lon="11.1660569"><ele>282.8333333333333</ele><time>2026-04-19T13:14:25.718Z</time></trkpt><trkpt lat="45.5036469" lon="11.1661604"><ele>283.0</ele><time>2026-04-19T13:14:26.701Z</time></trkpt><trkpt lat="45.5035491" lon="11.1662935"><ele>282.16666666666663</ele><time>2026-04-19T13:14:28.61Z</time></trkpt><trkpt lat="45.5034966" lon="11.166396"><ele>281.3333333333333</ele><time>2026-04-19T13:14:29.709Z</time></trkpt><trkpt lat="45.5034475" lon="11.1664854"><ele>280.5</ele><time>2026-04-19T13:14:30.716Z</time></trkpt><trkpt lat="45.5034074" lon="11.1665681"><ele>279.6666666666667</ele><time>2026-04-19T13:14:31.719Z</time></trkpt><trkpt lat="45.5033614" lon="11.1666418"><ele>278.83333333333337</ele><time>2026-04-19T13:14:32.721Z</time></trkpt><trkpt lat="45.5033097" lon="11.166725"><ele>278.0</ele><time>2026-04-19T13:14:33.683Z</time></trkpt><trkpt lat="45.5032638" lon="11.1668191"><ele>278.0</ele><time>2026-04-19T13:14:34.684Z</time></trkpt><trkpt lat="45.5032147" lon="11.1668935"><ele>278.0</ele><time>2026-04-19T13:14:35.687Z</time></trkpt><trkpt lat="45.5031357" lon="11.1670869"><ele>278.0</ele><time>2026-04-19T13:14:37.686Z</time></trkpt><trkpt lat="45.5030917" lon="11.1671792"><ele>278.0</ele><time>2026-04-19T13:14:38.69Z</time></trkpt><trkpt lat="45.5030506" lon="11.1672606"><ele>278.0</ele><time>2026-04-19T13:14:39.703Z</time></trkpt><trkpt lat="45.5029986" lon="11.1673283"><ele>278.0</ele><time>2026-04-19T13:14:40.699Z</time></trkpt><trkpt lat="45.502952" lon="11.1674283"><ele>277.7142857142857</ele><time>2026-04-19T13:14:41.714Z</time></trkpt><trkpt lat="45.5029084" lon="11.1675221"><ele>277.42857142857144</ele><time>2026-04-19T13:14:42.692Z</time></trkpt><trkpt lat="45.5028617" lon="11.1676025"><ele>277.14285714285717</ele><time>2026-04-19T13:14:43.708Z</time></trkpt><trkpt lat="45.5028206" lon="11.1676896"><ele>276.8571428571429</ele><time>2026-04-19T13:14:44.702Z</time></trkpt><trkpt lat="45.5027788" lon="11.1677797"><ele>276.5714285714286</ele><time>2026-04-19T13:14:45.608Z</time></trkpt><trkpt lat="45.5027365" lon="11.1678541"><ele>276.2857142857143</ele><time>2026-04-19T13:14:46.676Z</time></trkpt><trkpt lat="45.5026881" lon="11.1679399"><ele>276.0</ele><time>2026-04-19T13:14:47.656Z</time></trkpt><trkpt lat="45.5026475" lon="11.1680504"><ele>276.0</ele><time>2026-04-19T13:14:48.604Z</time></trkpt><trkpt lat="45.5026014" lon="11.1681493"><ele>276.0</ele><time>2026-04-19T13:14:49.736Z</time></trkpt><trkpt lat="45.5025524" lon="11.1682302"><ele>276.0</ele><time>2026-04-19T13:14:50.678Z</time></trkpt><trkpt lat="45.5024997" lon="11.1682997"><ele>276.0</ele><time>2026-04-19T13:14:51.686Z</time></trkpt><trkpt lat="45.5024544" lon="11.1683837"><ele>276.0</ele><time>2026-04-19T13:14:52.709Z</time></trkpt><trkpt lat="45.5024093" lon="11.1684592"><ele>276.0</ele><time>2026-04-19T13:14:53.701Z</time></trkpt><trkpt lat="45.5023621" lon="11.1685343"><ele>276.0</ele><time>2026-04-19T13:14:54.711Z</time></trkpt><trkpt lat="45.502318" lon="11.1686088"><ele>275.8571428571429</ele><time>2026-04-19T13:14:55.712Z</time></trkpt><trkpt lat="45.5022673" lon="11.1686788"><ele>275.7142857142857</ele><time>2026-04-19T13:14:56.701Z</time></trkpt><trkpt lat="45.5022113" lon="11.1687491"><ele>275.57142857142856</ele><time>2026-04-19T13:14:57.615Z</time></trkpt><trkpt lat="45.5021516" lon="11.1688164"><ele>275.42857142857144</ele><time>2026-04-19T13:14:58.606Z</time></trkpt><trkpt lat="45.5020955" lon="11.1688786"><ele>275.2857142857143</ele><time>2026-04-19T13:14:59.715Z</time></trkpt><trkpt lat="45.5020316" lon="11.1689381"><ele>275.14285714285717</ele><time>2026-04-19T13:15:00.702Z</time></trkpt><trkpt lat="45.5019714" lon="11.1689868"><ele>275.0</ele><time>2026-04-19T13:15:01.713Z</time></trkpt><trkpt lat="45.5019125" lon="11.1690414"><ele>274.5</ele><time>2026-04-19T13:15:02.713Z</time></trkpt><trkpt lat="45.5018458" lon="11.1690508"><ele>274.0</ele><time>2026-04-19T13:15:03.695Z</time></trkpt><trkpt lat="45.501782" lon="11.1691023"><ele>273.5</ele><time>2026-04-19T13:15:04.726Z</time></trkpt><trkpt lat="45.5017069" lon="11.169128"><ele>273.0</ele><time>2026-04-19T13:15:05.714Z</time></trkpt><trkpt lat="45.501623" lon="11.1692895"><ele>272.5</ele><time>2026-04-19T13:15:07.723Z</time></trkpt><trkpt lat="45.5015616" lon="11.1693326"><ele>272.0</ele><time>2026-04-19T13:15:08.652Z</time></trkpt><trkpt lat="45.5015126" lon="11.1694344"><ele>272.0</ele><time>2026-04-19T13:15:09.73Z</time></trkpt><trkpt lat="45.5013864" lon="11.1695301"><ele>272.0</ele><time>2026-04-19T13:15:11.729Z</time></trkpt><trkpt lat="45.5013198" lon="11.1695686"><ele>272.0</ele><time>2026-04-19T13:15:12.733Z</time></trkpt><trkpt lat="45.5012506" lon="11.1696148"><ele>272.0</ele><time>2026-04-19T13:15:13.726Z</time></trkpt><trkpt lat="45.5011836" lon="11.1696781"><ele>272.0</ele><time>2026-04-19T13:15:14.729Z</time></trkpt><trkpt lat="45.5011178" lon="11.1696968"><ele>272.0</ele><time>2026-04-19T13:15:15.71Z</time></trkpt><trkpt lat="45.5010521" lon="11.1697545"><ele>271.5</ele><time>2026-04-19T13:15:16.737Z</time></trkpt><trkpt lat="45.500998" lon="11.1698266"><ele>271.0</ele><time>2026-04-19T13:15:17.727Z</time></trkpt><trkpt lat="45.5009393" lon="11.1698771"><ele>270.5</ele><time>2026-04-19T13:15:18.72Z</time></trkpt><trkpt lat="45.5008712" lon="11.1699007"><ele>270.0</ele><time>2026-04-19T13:15:19.708Z</time></trkpt><trkpt lat="45.5008096" lon="11.1699433"><ele>269.5</ele><time>2026-04-19T13:15:20.724Z</time></trkpt><trkpt lat="45.5007553" lon="11.1699971"><ele>269.0</ele><time>2026-04-19T13:15:21.72Z</time></trkpt><trkpt lat="45.5005608" lon="11.170103"><ele>269.0</ele><time>2026-04-19T13:15:24.734Z</time></trkpt><trkpt lat="45.5004965" lon="11.1701372"><ele>269.0</ele><time>2026-04-19T13:15:25.722Z</time></trkpt><trkpt lat="45.5003811" lon="11.1702144"><ele>269.0</ele><time>2026-04-19T13:15:27.609Z</time></trkpt><trkpt lat="45.5003186" lon="11.1702514"><ele>269.0</ele><time>2026-04-19T13:15:28.598Z</time></trkpt><trkpt lat="45.5001984" lon="11.1703137"><ele>269.0</ele><time>2026-04-19T13:15:30.716Z</time></trkpt><trkpt lat="45.5001394" lon="11.1703741"><ele>268.6666666666667</ele><time>2026-04-19T13:15:31.72Z</time></trkpt><trkpt lat="45.5000716" lon="11.1704225"><ele>268.33333333333337</ele><time>2026-04-19T13:15:32.72Z</time></trkpt><trkpt lat="45.500007" lon="11.1704777"><ele>268.0</ele><time>2026-04-19T13:15:33.675Z</time></trkpt><trkpt lat="45.4999495" lon="11.1705622"><ele>267.6666666666667</ele><time>2026-04-19T13:15:34.652Z</time></trkpt><trkpt lat="45.4998824" lon="11.1706159"><ele>267.3333333333333</ele><time>2026-04-19T13:15:35.611Z</time></trkpt><trkpt lat="45.4998229" lon="11.1706676"><ele>267.0</ele><time>2026-04-19T13:15:36.724Z</time></trkpt><trkpt lat="45.4996966" lon="11.1707775"><ele>266.8</ele><time>2026-04-19T13:15:38.734Z</time></trkpt><trkpt lat="45.4996238" lon="11.1708519"><ele>266.6</ele><time>2026-04-19T13:15:39.727Z</time></trkpt><trkpt lat="45.4995143" lon="11.1709369"><ele>266.40000000000003</ele><time>2026-04-19T13:15:41.729Z</time></trkpt><trkpt lat="45.4994462" lon="11.1709949"><ele>266.2</ele><time>2026-04-19T13:15:42.722Z</time></trkpt><trkpt lat="45.4993421" lon="11.1710726"><ele>266.0</ele><time>2026-04-19T13:15:44.706Z</time></trkpt><trkpt lat="45.4992248" lon="11.1711886"><ele>265.6666666666667</ele><time>2026-04-19T13:15:46.699Z</time></trkpt><trkpt lat="45.4991726" lon="11.171246"><ele>265.33333333333337</ele><time>2026-04-19T13:15:47.712Z</time></trkpt><trkpt lat="45.4991184" lon="11.171306"><ele>265.0</ele><time>2026-04-19T13:15:48.751Z</time></trkpt><trkpt lat="45.4990606" lon="11.1713434"><ele>264.6666666666667</ele><time>2026-04-19T13:15:49.705Z</time></trkpt><trkpt lat="45.4989269" lon="11.1714298"><ele>264.3333333333333</ele><time>2026-04-19T13:15:51.715Z</time></trkpt><trkpt lat="45.4988513" lon="11.1714871"><ele>264.0</ele><time>2026-04-19T13:15:52.71Z</time></trkpt><trkpt lat="45.4987888" lon="11.1715204"><ele>263.2</ele><time>2026-04-19T13:15:53.716Z</time></trkpt><trkpt lat="45.4987213" lon="11.1715632"><ele>262.4</ele><time>2026-04-19T13:15:54.709Z</time></trkpt><trkpt lat="45.4986507" lon="11.1716214"><ele>261.6</ele><time>2026-04-19T13:15:55.736Z</time></trkpt><trkpt lat="45.4985863" lon="11.1716819"><ele>260.8</ele><time>2026-04-19T13:15:56.724Z</time></trkpt><trkpt lat="45.4984624" lon="11.1717971"><ele>260.0</ele><time>2026-04-19T13:15:58.609Z</time></trkpt><trkpt lat="45.4983914" lon="11.1718561"><ele>260.0</ele><time>2026-04-19T13:15:59.66Z</time></trkpt><trkpt lat="45.4983223" lon="11.1719225"><ele>260.0</ele><time>2026-04-19T13:16:00.646Z</time></trkpt><trkpt lat="45.4982017" lon="11.1720339"><ele>260.0</ele><time>2026-04-19T13:16:02.718Z</time></trkpt><trkpt lat="45.4980685" lon="11.1721498"><ele>260.0</ele><time>2026-04-19T13:16:04.699Z</time></trkpt><trkpt lat="45.4980004" lon="11.1721871"><ele>260.0</ele><time>2026-04-19T13:16:05.695Z</time></trkpt><trkpt lat="45.4979224" lon="11.1722344"><ele>260.0</ele><time>2026-04-19T13:16:06.607Z</time></trkpt><trkpt lat="45.4978569" lon="11.172291"><ele>260.0</ele><time>2026-04-19T13:16:07.609Z</time></trkpt><trkpt lat="45.4978002" lon="11.1723553"><ele>260.0</ele><time>2026-04-19T13:16:08.609Z</time></trkpt><trkpt lat="45.4977329" lon="11.1724053"><ele>260.0</ele><time>2026-04-19T13:16:09.697Z</time></trkpt><trkpt lat="45.4976647" lon="11.1724491"><ele>260.0</ele><time>2026-04-19T13:16:10.7Z</time></trkpt><trkpt lat="45.4975954" lon="11.1725052"><ele>259.6666666666667</ele><time>2026-04-19T13:16:11.697Z</time></trkpt><trkpt lat="45.4975192" lon="11.172545"><ele>259.33333333333337</ele><time>2026-04-19T13:16:12.69Z</time></trkpt><trkpt lat="45.4974458" lon="11.1725957"><ele>259.0</ele><time>2026-04-19T13:16:13.704Z</time></trkpt><trkpt lat="45.4973872" lon="11.172652"><ele>258.6666666666667</ele><time>2026-04-19T13:16:14.723Z</time></trkpt><trkpt lat="45.4973273" lon="11.1727193"><ele>258.3333333333333</ele><time>2026-04-19T13:16:15.679Z</time></trkpt><trkpt lat="45.4972566" lon="11.1727836"><ele>258.0</ele><time>2026-04-19T13:16:16.711Z</time></trkpt><trkpt lat="45.4971847" lon="11.1728301"><ele>258.0</ele><time>2026-04-19T13:16:17.704Z</time></trkpt><trkpt lat="45.4971205" lon="11.1728978"><ele>258.0</ele><time>2026-04-19T13:16:18.705Z</time></trkpt><trkpt lat="45.497049" lon="11.1729537"><ele>258.0</ele><time>2026-04-19T13:16:19.703Z</time></trkpt><trkpt lat="45.4969758" lon="11.173012"><ele>258.0</ele><time>2026-04-19T13:16:20.719Z</time></trkpt><trkpt lat="45.4969067" lon="11.1730595"><ele>258.0</ele><time>2026-04-19T13:16:21.72Z</time></trkpt><trkpt lat="45.496841" lon="11.1731195"><ele>258.0</ele><time>2026-04-19T13:16:22.717Z</time></trkpt><trkpt lat="45.496786" lon="11.1731778"><ele>257.5</ele><time>2026-04-19T13:16:23.707Z</time></trkpt><trkpt lat="45.4967248" lon="11.1732264"><ele>257.0</ele><time>2026-04-19T13:16:24.716Z</time></trkpt><trkpt lat="45.4966598" lon="11.1732754"><ele>256.5</ele><time>2026-04-19T13:16:25.714Z</time></trkpt><trkpt lat="45.4965933" lon="11.173322"><ele>256.0</ele><time>2026-04-19T13:16:26.716Z</time></trkpt><trkpt lat="45.4965236" lon="11.1733586"><ele>255.5</ele><time>2026-04-19T13:16:27.72Z</time></trkpt><trkpt lat="45.4963968" lon="11.1734581"><ele>255.0</ele><time>2026-04-19T13:16:29.613Z</time></trkpt><trkpt lat="45.4963354" lon="11.1735131"><ele>255.0</ele><time>2026-04-19T13:16:30.705Z</time></trkpt><trkpt lat="45.4962659" lon="11.1735863"><ele>255.0</ele><time>2026-04-19T13:16:31.702Z</time></trkpt><trkpt lat="45.4961945" lon="11.1736289"><ele>255.0</ele><time>2026-04-19T13:16:32.729Z</time></trkpt><trkpt lat="45.4961218" lon="11.1736877"><ele>255.0</ele><time>2026-04-19T13:16:33.722Z</time></trkpt><trkpt lat="45.496045" lon="11.1737329"><ele>255.0</ele><time>2026-04-19T13:16:34.706Z</time></trkpt><trkpt lat="45.4959824" lon="11.173776"><ele>255.0</ele><time>2026-04-19T13:16:35.74Z</time></trkpt><trkpt lat="45.4958689" lon="11.173868"><ele>254.6</ele><time>2026-04-19T13:16:37.732Z</time></trkpt><trkpt lat="45.4958116" lon="11.1739173"><ele>254.2</ele><time>2026-04-19T13:16:38.741Z</time></trkpt><trkpt lat="45.4957501" lon="11.1739777"><ele>253.8</ele><time>2026-04-19T13:16:39.718Z</time></trkpt><trkpt lat="45.4956877" lon="11.1740291"><ele>253.4</ele><time>2026-04-19T13:16:40.721Z</time></trkpt><trkpt lat="45.4955424" lon="11.174148"><ele>253.0</ele><time>2026-04-19T13:16:42.741Z</time></trkpt><trkpt lat="45.4954761" lon="11.1741991"><ele>252.16666666666666</ele><time>2026-04-19T13:16:43.776Z</time></trkpt><trkpt lat="45.4954099" lon="11.1742553"><ele>251.33333333333331</ele><time>2026-04-19T13:16:44.72Z</time></trkpt><trkpt lat="45.4953484" lon="11.1743072"><ele>250.5</ele><time>2026-04-19T13:16:45.73Z</time></trkpt><trkpt lat="45.4952891" lon="11.1743508"><ele>249.66666666666669</ele><time>2026-04-19T13:16:46.707Z</time></trkpt><trkpt lat="45.4951588" lon="11.1744385"><ele>248.83333333333334</ele><time>2026-04-19T13:16:48.683Z</time></trkpt><trkpt lat="45.495092" lon="11.1744703"><ele>248.0</ele><time>2026-04-19T13:16:49.715Z</time></trkpt><trkpt lat="45.4950306" lon="11.1745125"><ele>248.0</ele><time>2026-04-19T13:16:50.71Z</time></trkpt><trkpt lat="45.4949646" lon="11.1745602"><ele>248.00000000000003</ele><time>2026-04-19T13:16:51.718Z</time></trkpt><trkpt lat="45.4949014" lon="11.1745845"><ele>248.0</ele><time>2026-04-19T13:16:52.724Z</time></trkpt><trkpt lat="45.4948419" lon="11.1746263"><ele>248.0</ele><time>2026-04-19T13:16:53.722Z</time></trkpt><trkpt lat="45.4947786" lon="11.1746523"><ele>248.00000000000003</ele><time>2026-04-19T13:16:54.73Z</time></trkpt><trkpt lat="45.4947186" lon="11.1746899"><ele>248.0</ele><time>2026-04-19T13:16:55.715Z</time></trkpt><trkpt lat="45.4946339" lon="11.1747164"><ele>248.0</ele><time>2026-04-19T13:16:56.708Z</time></trkpt><trkpt lat="45.4945722" lon="11.1747438"><ele>247.4</ele><time>2026-04-19T13:16:57.725Z</time></trkpt><trkpt lat="45.4943997" lon="11.174858"><ele>246.8</ele><time>2026-04-19T13:16:59.611Z</time></trkpt><trkpt lat="45.4943338" lon="11.1748544"><ele>246.2</ele><time>2026-04-19T13:17:00.683Z</time></trkpt><trkpt lat="45.4942699" lon="11.1748863"><ele>245.6</ele><time>2026-04-19T13:17:01.622Z</time></trkpt><trkpt lat="45.4942048" lon="11.1749016"><ele>245.0</ele><time>2026-04-19T13:17:02.612Z</time></trkpt><trkpt lat="45.4941454" lon="11.1749398"><ele>245.0</ele><time>2026-04-19T13:17:03.73Z</time></trkpt><trkpt lat="45.4939934" lon="11.1749898"><ele>245.0</ele><time>2026-04-19T13:17:05.72Z</time></trkpt><trkpt lat="45.4938521" lon="11.1750452"><ele>245.0</ele><time>2026-04-19T13:17:07.709Z</time></trkpt><trkpt lat="45.4937857" lon="11.1750754"><ele>245.0</ele><time>2026-04-19T13:17:08.71Z</time></trkpt><trkpt lat="45.4937172" lon="11.1750906"><ele>245.0</ele><time>2026-04-19T13:17:09.711Z</time></trkpt><trkpt lat="45.4935819" lon="11.1751296"><ele>244.83333333333334</ele><time>2026-04-19T13:17:11.722Z</time></trkpt><trkpt lat="45.4935143" lon="11.1751532"><ele>244.66666666666669</ele><time>2026-04-19T13:17:12.751Z</time></trkpt><trkpt lat="45.4934426" lon="11.1751693"><ele>244.5</ele><time>2026-04-19T13:17:13.698Z</time></trkpt><trkpt lat="45.4933741" lon="11.1751841"><ele>244.33333333333331</ele><time>2026-04-19T13:17:14.719Z</time></trkpt><trkpt lat="45.4933021" lon="11.1751953"><ele>244.16666666666666</ele><time>2026-04-19T13:17:15.707Z</time></trkpt><trkpt lat="45.4931757" lon="11.1752355"><ele>244.0</ele><time>2026-04-19T13:17:17.708Z</time></trkpt><trkpt lat="45.4930632" lon="11.1752634"><ele>243.99999999999997</ele><time>2026-04-19T13:17:19.702Z</time></trkpt><trkpt lat="45.4929964" lon="11.1752825"><ele>244.0</ele><time>2026-04-19T13:17:20.704Z</time></trkpt><trkpt lat="45.4929213" lon="11.1752901"><ele>243.99999999999997</ele><time>2026-04-19T13:17:21.709Z</time></trkpt><trkpt lat="45.4928444" lon="11.1753116"><ele>243.99999999999997</ele><time>2026-04-19T13:17:22.693Z</time></trkpt><trkpt lat="45.4927694" lon="11.1753278"><ele>244.0</ele><time>2026-04-19T13:17:23.682Z</time></trkpt><trkpt lat="45.4926963" lon="11.1753403"><ele>243.99999999999997</ele><time>2026-04-19T13:17:24.735Z</time></trkpt><trkpt lat="45.4926239" lon="11.1753521"><ele>243.99999999999997</ele><time>2026-04-19T13:17:25.729Z</time></trkpt><trkpt lat="45.4925477" lon="11.1753482"><ele>243.79999999999998</ele><time>2026-04-19T13:17:26.733Z</time></trkpt><trkpt lat="45.4924778" lon="11.1753546"><ele>243.59999999999997</ele><time>2026-04-19T13:17:27.727Z</time></trkpt><trkpt lat="45.4923302" lon="11.1753625"><ele>243.4</ele><time>2026-04-19T13:17:29.605Z</time></trkpt><trkpt lat="45.4922558" lon="11.1753661"><ele>243.2</ele><time>2026-04-19T13:17:30.717Z</time></trkpt><trkpt lat="45.492099" lon="11.1753559"><ele>243.0</ele><time>2026-04-19T13:17:32.602Z</time></trkpt><trkpt lat="45.49202" lon="11.1753479"><ele>242.5</ele><time>2026-04-19T13:17:33.603Z</time></trkpt><trkpt lat="45.491938" lon="11.1753405"><ele>242.0</ele><time>2026-04-19T13:17:34.61Z</time></trkpt><trkpt lat="45.4918683" lon="11.1753092"><ele>241.5</ele><time>2026-04-19T13:17:35.605Z</time></trkpt><trkpt lat="45.4918013" lon="11.175302"><ele>241.0</ele><time>2026-04-19T13:17:36.609Z</time></trkpt><trkpt lat="45.4917341" lon="11.1752736"><ele>240.5</ele><time>2026-04-19T13:17:37.604Z</time></trkpt><trkpt lat="45.4916601" lon="11.1752504"><ele>240.0</ele><time>2026-04-19T13:17:38.606Z</time></trkpt><trkpt lat="45.4915658" lon="11.1752285"><ele>240.0</ele><time>2026-04-19T13:17:39.601Z</time></trkpt><trkpt lat="45.4914981" lon="11.1752069"><ele>240.0</ele><time>2026-04-19T13:17:40.606Z</time></trkpt><trkpt lat="45.4914011" lon="11.175201"><ele>240.0</ele><time>2026-04-19T13:17:41.602Z</time></trkpt><trkpt lat="45.4913381" lon="11.1751864"><ele>240.0</ele><time>2026-04-19T13:17:42.6Z</time></trkpt><trkpt lat="45.4912641" lon="11.1751639"><ele>240.0</ele><time>2026-04-19T13:17:43.609Z</time></trkpt><trkpt lat="45.4911318" lon="11.175116"><ele>240.0</ele><time>2026-04-19T13:17:45.693Z</time></trkpt><trkpt lat="45.4909982" lon="11.1751114"><ele>239.4</ele><time>2026-04-19T13:17:47.645Z</time></trkpt><trkpt lat="45.490879" lon="11.17508"><ele>238.8</ele><time>2026-04-19T13:17:49.611Z</time></trkpt><trkpt lat="45.4908009" lon="11.1750648"><ele>238.2</ele><time>2026-04-19T13:17:50.704Z</time></trkpt><trkpt lat="45.490695" lon="11.1751284"><ele>237.6</ele><time>2026-04-19T13:17:52.703Z</time></trkpt><trkpt lat="45.4906197" lon="11.1751321"><ele>237.0</ele><time>2026-04-19T13:17:53.651Z</time></trkpt><trkpt lat="45.4905448" lon="11.1751481"><ele>237.0</ele><time>2026-04-19T13:17:54.704Z</time></trkpt><trkpt lat="45.4904714" lon="11.1751625"><ele>237.0</ele><time>2026-04-19T13:17:55.68Z</time></trkpt><trkpt lat="45.4903937" lon="11.1751775"><ele>237.0</ele><time>2026-04-19T13:17:56.609Z</time></trkpt><trkpt lat="45.4902721" lon="11.175186"><ele>237.0</ele><time>2026-04-19T13:17:58.595Z</time></trkpt><trkpt lat="45.490207" lon="11.1752187"><ele>237.0</ele><time>2026-04-19T13:17:59.604Z</time></trkpt><trkpt lat="45.4900779" lon="11.1752369"><ele>236.6</ele><time>2026-04-19T13:18:01.687Z</time></trkpt><trkpt lat="45.49001" lon="11.175259"><ele>236.2</ele><time>2026-04-19T13:18:02.7Z</time></trkpt><trkpt lat="45.4899456" lon="11.1752746"><ele>235.8</ele><time>2026-04-19T13:18:03.713Z</time></trkpt><trkpt lat="45.4898216" lon="11.1753197"><ele>235.4</ele><time>2026-04-19T13:18:05.708Z</time></trkpt><trkpt lat="45.4897208" lon="11.1754094"><ele>235.0</ele><time>2026-04-19T13:18:07.71Z</time></trkpt><trkpt lat="45.4896631" lon="11.1754707"><ele>234.66666666666666</ele><time>2026-04-19T13:18:08.716Z</time></trkpt><trkpt lat="45.4895677" lon="11.1754604"><ele>234.33333333333331</ele><time>2026-04-19T13:18:09.715Z</time></trkpt><trkpt lat="45.4895007" lon="11.1754786"><ele>234.0</ele><time>2026-04-19T13:18:10.701Z</time></trkpt><trkpt lat="45.4893934" lon="11.1755461"><ele>233.66666666666669</ele><time>2026-04-19T13:18:12.707Z</time></trkpt><trkpt lat="45.4893154" lon="11.1755562"><ele>233.33333333333334</ele><time>2026-04-19T13:18:13.708Z</time></trkpt><trkpt lat="45.4892528" lon="11.1755865"><ele>233.0</ele><time>2026-04-19T13:18:14.717Z</time></trkpt><trkpt lat="45.4891902" lon="11.1756248"><ele>233.0</ele><time>2026-04-19T13:18:15.716Z</time></trkpt><trkpt lat="45.4891273" lon="11.175667"><ele>233.0</ele><time>2026-04-19T13:18:16.72Z</time></trkpt><trkpt lat="45.4890703" lon="11.1757178"><ele>233.0</ele><time>2026-04-19T13:18:17.719Z</time></trkpt><trkpt lat="45.4890019" lon="11.1757574"><ele>233.0</ele><time>2026-04-19T13:18:18.646Z</time></trkpt><trkpt lat="45.4889342" lon="11.1757819"><ele>233.0</ele><time>2026-04-19T13:18:19.719Z</time></trkpt><trkpt lat="45.4888721" lon="11.1758214"><ele>233.0</ele><time>2026-04-19T13:18:20.712Z</time></trkpt><trkpt lat="45.4888023" lon="11.1758456"><ele>233.0</ele><time>2026-04-19T13:18:21.716Z</time></trkpt><trkpt lat="45.4887272" lon="11.1758797"><ele>232.50000000000003</ele><time>2026-04-19T13:18:22.724Z</time></trkpt><trkpt lat="45.4886617" lon="11.1759153"><ele>232.0</ele><time>2026-04-19T13:18:23.712Z</time></trkpt><trkpt lat="45.4885986" lon="11.1759425"><ele>231.5</ele><time>2026-04-19T13:18:24.716Z</time></trkpt><trkpt lat="45.4884758" lon="11.1760043"><ele>231.0</ele><time>2026-04-19T13:18:26.753Z</time></trkpt><trkpt lat="45.4884114" lon="11.1760271"><ele>230.50000000000003</ele><time>2026-04-19T13:18:27.731Z</time></trkpt><trkpt lat="45.4883493" lon="11.1760582"><ele>230.0</ele><time>2026-04-19T13:18:28.713Z</time></trkpt><trkpt lat="45.4882564" lon="11.176076"><ele>230.0</ele><time>2026-04-19T13:18:29.616Z</time></trkpt><trkpt lat="45.4881295" lon="11.1761227"><ele>230.0</ele><time>2026-04-19T13:18:31.719Z</time></trkpt><trkpt lat="45.4880524" lon="11.1761346"><ele>230.0</ele><time>2026-04-19T13:18:32.717Z</time></trkpt><trkpt lat="45.4878644" lon="11.1762088"><ele>230.0</ele><time>2026-04-19T13:18:35.721Z</time></trkpt><trkpt lat="45.4877374" lon="11.1762277"><ele>229.5</ele><time>2026-04-19T13:18:37.73Z</time></trkpt><trkpt lat="45.4876008" lon="11.1762958"><ele>229.0</ele><time>2026-04-19T13:18:39.597Z</time></trkpt><trkpt lat="45.487535" lon="11.1763676"><ele>228.5</ele><time>2026-04-19T13:18:40.608Z</time></trkpt><trkpt lat="45.4874165" lon="11.1764645"><ele>228.0</ele><time>2026-04-19T13:18:42.611Z</time></trkpt><trkpt lat="45.4872986" lon="11.1764875"><ele>227.83333333333334</ele><time>2026-04-19T13:18:44.607Z</time></trkpt><trkpt lat="45.487183" lon="11.1765279"><ele>227.66666666666669</ele><time>2026-04-19T13:18:46.719Z</time></trkpt><trkpt lat="45.487117" lon="11.176547"><ele>227.5</ele><time>2026-04-19T13:18:47.708Z</time></trkpt><trkpt lat="45.4870494" lon="11.1765713"><ele>227.33333333333334</ele><time>2026-04-19T13:18:48.704Z</time></trkpt><trkpt lat="45.4869853" lon="11.1765916"><ele>227.16666666666669</ele><time>2026-04-19T13:18:49.708Z</time></trkpt><trkpt lat="45.4869191" lon="11.1765952"><ele>227.0</ele><time>2026-04-19T13:18:50.716Z</time></trkpt><trkpt lat="45.486838" lon="11.1766242"><ele>226.50000000000003</ele><time>2026-04-19T13:18:51.719Z</time></trkpt><trkpt lat="45.4867811" lon="11.1766627"><ele>226.0</ele><time>2026-04-19T13:18:52.717Z</time></trkpt><trkpt lat="45.4867145" lon="11.1766927"><ele>225.5</ele><time>2026-04-19T13:18:53.732Z</time></trkpt><trkpt lat="45.4866303" lon="11.1767099"><ele>225.0</ele><time>2026-04-19T13:18:54.724Z</time></trkpt><trkpt lat="45.4865619" lon="11.1767249"><ele>224.50000000000003</ele><time>2026-04-19T13:18:55.737Z</time></trkpt><trkpt lat="45.4864896" lon="11.1767641"><ele>224.0</ele><time>2026-04-19T13:18:56.719Z</time></trkpt><trkpt lat="45.4863765" lon="11.1767816"><ele>223.50000000000003</ele><time>2026-04-19T13:18:58.642Z</time></trkpt><trkpt lat="45.4862568" lon="11.176813"><ele>223.0</ele><time>2026-04-19T13:19:00.662Z</time></trkpt><trkpt lat="45.4861896" lon="11.1768031"><ele>222.5</ele><time>2026-04-19T13:19:01.735Z</time></trkpt><trkpt lat="45.4861174" lon="11.1768044"><ele>222.0</ele><time>2026-04-19T13:19:02.717Z</time></trkpt><trkpt lat="45.4860139" lon="11.176835"><ele>221.50000000000003</ele><time>2026-04-19T13:19:04.75Z</time></trkpt><trkpt lat="45.4859428" lon="11.1768564"><ele>221.0</ele><time>2026-04-19T13:19:05.723Z</time></trkpt><trkpt lat="45.4858689" lon="11.1768559"><ele>221.0</ele><time>2026-04-19T13:19:06.718Z</time></trkpt><trkpt lat="45.4857332" lon="11.1768805"><ele>221.00000000000003</ele><time>2026-04-19T13:19:08.605Z</time></trkpt><trkpt lat="45.485612" lon="11.1768933"><ele>221.00000000000003</ele><time>2026-04-19T13:19:10.605Z</time></trkpt><trkpt lat="45.4855425" lon="11.1769196"><ele>221.0</ele><time>2026-04-19T13:19:11.605Z</time></trkpt><trkpt lat="45.485479" lon="11.1769397"><ele>221.0</ele><time>2026-04-19T13:19:12.603Z</time></trkpt><trkpt lat="45.4854077" lon="11.1769551"><ele>220.83333333333334</ele><time>2026-04-19T13:19:13.602Z</time></trkpt><trkpt lat="45.4852934" lon="11.1770021"><ele>220.66666666666669</ele><time>2026-04-19T13:19:15.605Z</time></trkpt><trkpt lat="45.4852276" lon="11.1770142"><ele>220.5</ele><time>2026-04-19T13:19:16.597Z</time></trkpt><trkpt lat="45.4851594" lon="11.1770286"><ele>220.33333333333331</ele><time>2026-04-19T13:19:17.719Z</time></trkpt><trkpt lat="45.4850629" lon="11.1770849"><ele>220.16666666666666</ele><time>2026-04-19T13:19:19.698Z</time></trkpt><trkpt lat="45.4849918" lon="11.1771106"><ele>220.0</ele><time>2026-04-19T13:19:20.717Z</time></trkpt><trkpt lat="45.4848895" lon="11.1771605"><ele>219.99999999999997</ele><time>2026-04-19T13:19:22.727Z</time></trkpt><trkpt lat="45.4848091" lon="11.1771746"><ele>220.0</ele><time>2026-04-19T13:19:23.745Z</time></trkpt><trkpt lat="45.4846939" lon="11.1772169"><ele>220.0</ele><time>2026-04-19T13:19:25.725Z</time></trkpt><trkpt lat="45.4845893" lon="11.1772236"><ele>220.0</ele><time>2026-04-19T13:19:27.677Z</time></trkpt><trkpt lat="45.4845242" lon="11.1772325"><ele>219.99999999999997</ele><time>2026-04-19T13:19:28.702Z</time></trkpt><trkpt lat="45.4844506" lon="11.1772252"><ele>220.0</ele><time>2026-04-19T13:19:29.615Z</time></trkpt><trkpt lat="45.4843434" lon="11.1772743"><ele>219.4</ele><time>2026-04-19T13:19:31.703Z</time></trkpt><trkpt lat="45.4842114" lon="11.1772908"><ele>218.8</ele><time>2026-04-19T13:19:33.643Z</time></trkpt><trkpt lat="45.4841481" lon="11.1773064"><ele>218.2</ele><time>2026-04-19T13:19:34.707Z</time></trkpt><trkpt lat="45.4840827" lon="11.1773279"><ele>217.6</ele><time>2026-04-19T13:19:35.693Z</time></trkpt><trkpt lat="45.4840271" lon="11.1773709"><ele>217.0</ele><time>2026-04-19T13:19:36.696Z</time></trkpt><trkpt lat="45.4838981" lon="11.1774669"><ele>217.0</ele><time>2026-04-19T13:19:38.607Z</time></trkpt><trkpt lat="45.4837682" lon="11.1774861"><ele>217.0</ele><time>2026-04-19T13:19:40.61Z</time></trkpt><trkpt lat="45.4836861" lon="11.1775014"><ele>217.0</ele><time>2026-04-19T13:19:41.601Z</time></trkpt><trkpt lat="45.483588" lon="11.1775202"><ele>217.0</ele><time>2026-04-19T13:19:43.705Z</time></trkpt><trkpt lat="45.4835137" lon="11.1775482"><ele>217.0</ele><time>2026-04-19T13:19:44.613Z</time></trkpt><trkpt lat="45.4834345" lon="11.1775714"><ele>216.6</ele><time>2026-04-19T13:19:45.712Z</time></trkpt><trkpt lat="45.4833311" lon="11.1775982"><ele>216.2</ele><time>2026-04-19T13:19:47.706Z</time></trkpt><trkpt lat="45.4831982" lon="11.1776171"><ele>215.8</ele><time>2026-04-19T13:19:49.707Z</time></trkpt><trkpt lat="45.4831318" lon="11.1776233"><ele>215.4</ele><time>2026-04-19T13:19:50.713Z</time></trkpt><trkpt lat="45.4830333" lon="11.1776507"><ele>215.0</ele><time>2026-04-19T13:19:52.719Z</time></trkpt><trkpt lat="45.4829703" lon="11.1776327"><ele>214.4</ele><time>2026-04-19T13:19:53.714Z</time></trkpt><trkpt lat="45.4828137" lon="11.177647"><ele>213.8</ele><time>2026-04-19T13:19:56.716Z</time></trkpt><trkpt lat="45.4827271" lon="11.1776673"><ele>213.2</ele><time>2026-04-19T13:19:58.604Z</time></trkpt><trkpt lat="45.4826226" lon="11.1776996"><ele>212.6</ele><time>2026-04-19T13:20:00.733Z</time></trkpt><trkpt lat="45.4825401" lon="11.1777069"><ele>212.0</ele><time>2026-04-19T13:20:02.719Z</time></trkpt><trkpt lat="45.4824459" lon="11.177696"><ele>212.0</ele><time>2026-04-19T13:20:04.624Z</time></trkpt><trkpt lat="45.4823422" lon="11.1777103"><ele>212.0</ele><time>2026-04-19T13:20:06.739Z</time></trkpt><trkpt lat="45.4822349" lon="11.1777277"><ele>212.0</ele><time>2026-04-19T13:20:08.731Z</time></trkpt><trkpt lat="45.4821083" lon="11.1777558"><ele>212.0</ele><time>2026-04-19T13:20:10.611Z</time></trkpt><trkpt lat="45.4819529" lon="11.1777357"><ele>211.5</ele><time>2026-04-19T13:20:12.711Z</time></trkpt><trkpt lat="45.4818303" lon="11.1777522"><ele>211.0</ele><time>2026-04-19T13:20:14.723Z</time></trkpt><trkpt lat="45.4817037" lon="11.1777689"><ele>210.5</ele><time>2026-04-19T13:20:16.71Z</time></trkpt><trkpt lat="45.4816154" lon="11.1777676"><ele>210.0</ele><time>2026-04-19T13:20:18.731Z</time></trkpt><trkpt lat="45.4814974" lon="11.1778033"><ele>210.0</ele><time>2026-04-19T13:20:20.763Z</time></trkpt><trkpt lat="45.4814071" lon="11.1778256"><ele>210.0</ele><time>2026-04-19T13:20:22.707Z</time></trkpt><trkpt lat="45.481311" lon="11.1778506"><ele>210.0</ele><time>2026-04-19T13:20:24.741Z</time></trkpt><trkpt lat="45.481204" lon="11.1778975"><ele>210.0</ele><time>2026-04-19T13:20:26.714Z</time></trkpt><trkpt lat="45.4810948" lon="11.177917"><ele>210.0</ele><time>2026-04-19T13:20:28.741Z</time></trkpt><trkpt lat="45.4809266" lon="11.1779446"><ele>209.5</ele><time>2026-04-19T13:20:31.72Z</time></trkpt><trkpt lat="45.4808629" lon="11.1779643"><ele>209.0</ele><time>2026-04-19T13:20:32.678Z</time></trkpt><trkpt lat="45.4807469" lon="11.177999"><ele>208.5</ele><time>2026-04-19T13:20:34.695Z</time></trkpt><trkpt lat="45.4806279" lon="11.1780772"><ele>208.0</ele><time>2026-04-19T13:20:36.7Z</time></trkpt><trkpt lat="45.4804991" lon="11.1781602"><ele>207.5</ele><time>2026-04-19T13:20:38.693Z</time></trkpt><trkpt lat="45.4804384" lon="11.1782136"><ele>207.0</ele><time>2026-04-19T13:20:39.707Z</time></trkpt><trkpt lat="45.480341" lon="11.1783187"><ele>206.5</ele><time>2026-04-19T13:20:41.61Z</time></trkpt><trkpt lat="45.4802339" lon="11.1783951"><ele>206.0</ele><time>2026-04-19T13:20:43.608Z</time></trkpt><trkpt lat="45.4801164" lon="11.1784986"><ele>205.33333333333334</ele><time>2026-04-19T13:20:45.711Z</time></trkpt><trkpt lat="45.4800085" lon="11.1785761"><ele>204.66666666666669</ele><time>2026-04-19T13:20:47.694Z</time></trkpt><trkpt lat="45.4799604" lon="11.178635"><ele>204.0</ele><time>2026-04-19T13:20:48.658Z</time></trkpt><trkpt lat="45.479865" lon="11.1787479"><ele>203.33333333333331</ele><time>2026-04-19T13:20:50.708Z</time></trkpt><trkpt lat="45.4798061" lon="11.1787933"><ele>202.66666666666666</ele><time>2026-04-19T13:20:51.711Z</time></trkpt><trkpt lat="45.4797431" lon="11.1788391"><ele>202.0</ele><time>2026-04-19T13:20:52.7Z</time></trkpt><trkpt lat="45.4796784" lon="11.1788859"><ele>202.0</ele><time>2026-04-19T13:20:53.709Z</time></trkpt><trkpt lat="45.4796196" lon="11.1789312"><ele>202.0</ele><time>2026-04-19T13:20:54.699Z</time></trkpt><trkpt lat="45.4795631" lon="11.1789722"><ele>202.0</ele><time>2026-04-19T13:20:55.694Z</time></trkpt><trkpt lat="45.4795032" lon="11.1790285"><ele>202.0</ele><time>2026-04-19T13:20:56.704Z</time></trkpt><trkpt lat="45.4794498" lon="11.1790762"><ele>202.0</ele><time>2026-04-19T13:20:57.72Z</time></trkpt><trkpt lat="45.4793936" lon="11.1791304"><ele>202.0</ele><time>2026-04-19T13:20:58.712Z</time></trkpt><trkpt lat="45.4793384" lon="11.1791844"><ele>202.0</ele><time>2026-04-19T13:20:59.713Z</time></trkpt><trkpt lat="45.4792795" lon="11.1792345"><ele>201.6</ele><time>2026-04-19T13:21:00.614Z</time></trkpt><trkpt lat="45.4792233" lon="11.1792787"><ele>201.2</ele><time>2026-04-19T13:21:01.615Z</time></trkpt><trkpt lat="45.4791665" lon="11.1793297"><ele>200.8</ele><time>2026-04-19T13:21:02.621Z</time></trkpt><trkpt lat="45.4791034" lon="11.1793656"><ele>200.4</ele><time>2026-04-19T13:21:03.734Z</time></trkpt><trkpt lat="45.4789646" lon="11.1794139"><ele>200.0</ele><time>2026-04-19T13:21:05.697Z</time></trkpt><trkpt lat="45.4788759" lon="11.1795469"><ele>199.4</ele><time>2026-04-19T13:21:07.728Z</time></trkpt><trkpt lat="45.4787657" lon="11.1796325"><ele>198.8</ele><time>2026-04-19T13:21:09.62Z</time></trkpt><trkpt lat="45.4787041" lon="11.1796776"><ele>198.2</ele><time>2026-04-19T13:21:10.623Z</time></trkpt><trkpt lat="45.4786071" lon="11.179778"><ele>197.6</ele><time>2026-04-19T13:21:12.711Z</time></trkpt><trkpt lat="45.478522" lon="11.1799012"><ele>197.0</ele><time>2026-04-19T13:21:14.719Z</time></trkpt><trkpt lat="45.4784646" lon="11.1799495"><ele>197.0</ele><time>2026-04-19T13:21:15.717Z</time></trkpt><trkpt lat="45.4783958" lon="11.1800577"><ele>197.0</ele><time>2026-04-19T13:21:17.718Z</time></trkpt><trkpt lat="45.4782736" lon="11.18015"><ele>197.0</ele><time>2026-04-19T13:21:19.7Z</time></trkpt><trkpt lat="45.4782187" lon="11.1802006"><ele>197.0</ele><time>2026-04-19T13:21:20.715Z</time></trkpt><trkpt lat="45.478099" lon="11.1802878"><ele>197.0</ele><time>2026-04-19T13:21:22.604Z</time></trkpt><trkpt lat="45.478043" lon="11.18033"><ele>197.0</ele><time>2026-04-19T13:21:23.604Z</time></trkpt><trkpt lat="45.4779604" lon="11.1804435"><ele>197.0</ele><time>2026-04-19T13:21:25.715Z</time></trkpt><trkpt lat="45.4778537" lon="11.1805314"><ele>197.0</ele><time>2026-04-19T13:21:27.722Z</time></trkpt><trkpt lat="45.4777462" lon="11.1806126"><ele>197.0</ele><time>2026-04-19T13:21:29.722Z</time></trkpt><trkpt lat="45.4776269" lon="11.1806638"><ele>196.6</ele><time>2026-04-19T13:21:31.717Z</time></trkpt><trkpt lat="45.4775042" lon="11.1807279"><ele>196.2</ele><time>2026-04-19T13:21:33.723Z</time></trkpt><trkpt lat="45.4774329" lon="11.1807443"><ele>195.8</ele><time>2026-04-19T13:21:34.723Z</time></trkpt><trkpt lat="45.4773682" lon="11.1807568"><ele>195.4</ele><time>2026-04-19T13:21:35.718Z</time></trkpt><trkpt lat="45.4772415" lon="11.1807828"><ele>195.0</ele><time>2026-04-19T13:21:37.73Z</time></trkpt><trkpt lat="45.4771131" lon="11.1808124"><ele>194.2</ele><time>2026-04-19T13:21:39.714Z</time></trkpt><trkpt lat="45.4769778" lon="11.1808289"><ele>193.4</ele><time>2026-04-19T13:21:41.618Z</time></trkpt><trkpt lat="45.4769008" lon="11.1808202"><ele>192.60000000000002</ele><time>2026-04-19T13:21:42.708Z</time></trkpt><trkpt lat="45.4767822" lon="11.180845"><ele>191.8</ele><time>2026-04-19T13:21:44.736Z</time></trkpt><trkpt lat="45.476675" lon="11.1808677"><ele>191.0</ele><time>2026-04-19T13:21:46.72Z</time></trkpt><trkpt lat="45.476551" lon="11.1808972"><ele>191.0</ele><time>2026-04-19T13:21:48.635Z</time></trkpt><trkpt lat="45.4764879" lon="11.1809112"><ele>191.0</ele><time>2026-04-19T13:21:49.729Z</time></trkpt><trkpt lat="45.4764233" lon="11.1809278"><ele>191.0</ele><time>2026-04-19T13:21:50.709Z</time></trkpt><trkpt lat="45.476296" lon="11.1809488"><ele>191.0</ele><time>2026-04-19T13:21:52.706Z</time></trkpt><trkpt lat="45.476178" lon="11.1809552"><ele>191.0</ele><time>2026-04-19T13:21:54.732Z</time></trkpt><trkpt lat="45.4761113" lon="11.1809558"><ele>191.0</ele><time>2026-04-19T13:21:55.728Z</time></trkpt><trkpt lat="45.4760441" lon="11.1809403"><ele>190.66666666666666</ele><time>2026-04-19T13:21:56.71Z</time></trkpt><trkpt lat="45.4759313" lon="11.1809502"><ele>190.33333333333331</ele><time>2026-04-19T13:21:58.698Z</time></trkpt><trkpt lat="45.4758676" lon="11.1809599"><ele>190.0</ele><time>2026-04-19T13:21:59.697Z</time></trkpt><trkpt lat="45.4757475" lon="11.1809651"><ele>189.66666666666666</ele><time>2026-04-19T13:22:01.704Z</time></trkpt><trkpt lat="45.4756737" lon="11.1809853"><ele>189.33333333333334</ele><time>2026-04-19T13:22:02.707Z</time></trkpt><trkpt lat="45.4756007" lon="11.1809795"><ele>189.0</ele><time>2026-04-19T13:22:03.7Z</time></trkpt><trkpt lat="45.4754788" lon="11.180957"><ele>188.39999999999998</ele><time>2026-04-19T13:22:05.71Z</time></trkpt><trkpt lat="45.4753505" lon="11.1809609"><ele>187.8</ele><time>2026-04-19T13:22:07.692Z</time></trkpt><trkpt lat="45.4752838" lon="11.180949"><ele>187.2</ele><time>2026-04-19T13:22:08.702Z</time></trkpt><trkpt lat="45.4751621" lon="11.1809506"><ele>186.60000000000002</ele><time>2026-04-19T13:22:10.696Z</time></trkpt><trkpt lat="45.4750843" lon="11.1809825"><ele>186.0</ele><time>2026-04-19T13:22:11.621Z</time></trkpt><trkpt lat="45.4750151" lon="11.1809713"><ele>186.0</ele><time>2026-04-19T13:22:12.612Z</time></trkpt><trkpt lat="45.4749378" lon="11.1809826"><ele>186.0</ele><time>2026-04-19T13:22:13.709Z</time></trkpt><trkpt lat="45.4748752" lon="11.1809721"><ele>186.0</ele><time>2026-04-19T13:22:14.705Z</time></trkpt><trkpt lat="45.4747954" lon="11.180958"><ele>186.0</ele><time>2026-04-19T13:22:15.72Z</time></trkpt><trkpt lat="45.4746655" lon="11.1809516"><ele>186.0</ele><time>2026-04-19T13:22:17.72Z</time></trkpt><trkpt lat="45.4745575" lon="11.1809564"><ele>185.75</ele><time>2026-04-19T13:22:19.703Z</time></trkpt><trkpt lat="45.4744329" lon="11.1809482"><ele>185.5</ele><time>2026-04-19T13:22:21.721Z</time></trkpt><trkpt lat="45.4743209" lon="11.1809422"><ele>185.25</ele><time>2026-04-19T13:22:23.722Z</time></trkpt><trkpt lat="45.4741943" lon="11.1809084"><ele>185.0</ele><time>2026-04-19T13:22:25.716Z</time></trkpt><trkpt lat="45.4740818" lon="11.1808726"><ele>185.0</ele><time>2026-04-19T13:22:27.739Z</time></trkpt><trkpt lat="45.4739717" lon="11.1808679"><ele>185.0</ele><time>2026-04-19T13:22:29.731Z</time></trkpt><trkpt lat="45.4738601" lon="11.1808688"><ele>185.0</ele><time>2026-04-19T13:22:31.709Z</time></trkpt><trkpt lat="45.4737363" lon="11.1808888"><ele>185.0</ele><time>2026-04-19T13:22:33.715Z</time></trkpt><trkpt lat="45.4736729" lon="11.1808958"><ele>185.0</ele><time>2026-04-19T13:22:34.718Z</time></trkpt><trkpt lat="45.4736063" lon="11.1808922"><ele>184.66666666666666</ele><time>2026-04-19T13:22:35.714Z</time></trkpt><trkpt lat="45.4735415" lon="11.1808963"><ele>184.33333333333331</ele><time>2026-04-19T13:22:36.735Z</time></trkpt><trkpt lat="45.4734713" lon="11.1808909"><ele>184.0</ele><time>2026-04-19T13:22:37.731Z</time></trkpt><trkpt lat="45.4733778" lon="11.1808663"><ele>183.66666666666666</ele><time>2026-04-19T13:22:38.721Z</time></trkpt><trkpt lat="45.4732642" lon="11.1808657"><ele>183.33333333333334</ele><time>2026-04-19T13:22:40.702Z</time></trkpt><trkpt lat="45.4731963" lon="11.1808778"><ele>183.0</ele><time>2026-04-19T13:22:41.614Z</time></trkpt><trkpt lat="45.4730896" lon="11.180896"><ele>183.0</ele><time>2026-04-19T13:22:43.724Z</time></trkpt><trkpt lat="45.4729717" lon="11.1809008"><ele>183.0</ele><time>2026-04-19T13:22:45.719Z</time></trkpt><trkpt lat="45.472853" lon="11.1809056"><ele>183.0</ele><time>2026-04-19T13:22:47.717Z</time></trkpt><trkpt lat="45.4727068" lon="11.1809285"><ele>183.0</ele><time>2026-04-19T13:22:50.599Z</time></trkpt><trkpt lat="45.472587" lon="11.1809226"><ele>182.4</ele><time>2026-04-19T13:22:52.601Z</time></trkpt><trkpt lat="45.4724823" lon="11.1809147"><ele>181.8</ele><time>2026-04-19T13:22:54.605Z</time></trkpt><trkpt lat="45.4723835" lon="11.1809046"><ele>181.2</ele><time>2026-04-19T13:22:56.609Z</time></trkpt><trkpt lat="45.4722915" lon="11.1808381"><ele>180.6</ele><time>2026-04-19T13:22:58.615Z</time></trkpt><trkpt lat="45.4721803" lon="11.1808137"><ele>180.0</ele><time>2026-04-19T13:23:00.602Z</time></trkpt><trkpt lat="45.4721126" lon="11.1807468"><ele>179.6</ele><time>2026-04-19T13:23:02.605Z</time></trkpt><trkpt lat="45.4720378" lon="11.1806908"><ele>179.2</ele><time>2026-04-19T13:23:04.598Z</time></trkpt><trkpt lat="45.4719521" lon="11.1806653"><ele>178.8</ele><time>2026-04-19T13:23:06.591Z</time></trkpt><trkpt lat="45.4718534" lon="11.1806099"><ele>178.4</ele><time>2026-04-19T13:23:08.605Z</time></trkpt><trkpt lat="45.4717567" lon="11.180606"><ele>178.0</ele><time>2026-04-19T13:23:10.604Z</time></trkpt><trkpt lat="45.4716983" lon="11.180532"><ele>178.0</ele><time>2026-04-19T13:23:12.593Z</time></trkpt><trkpt lat="45.4716999" lon="11.1804019"><ele>178.0</ele><time>2026-04-19T13:23:15.598Z</time></trkpt><trkpt lat="45.4717094" lon="11.1802799"><ele>178.0</ele><time>2026-04-19T13:23:17.605Z</time></trkpt><trkpt lat="45.471673" lon="11.1801526"><ele>178.0</ele><time>2026-04-19T13:23:19.602Z</time></trkpt><trkpt lat="45.4716618" lon="11.1800146"><ele>178.0</ele><time>2026-04-19T13:23:21.607Z</time></trkpt><trkpt lat="45.4716659" lon="11.1798646"><ele>177.83333333333334</ele><time>2026-04-19T13:23:23.671Z</time></trkpt><trkpt lat="45.4716671" lon="11.1797325"><ele>177.66666666666669</ele><time>2026-04-19T13:23:25.689Z</time></trkpt><trkpt lat="45.471645" lon="11.1796275"><ele>177.5</ele><time>2026-04-19T13:23:27.603Z</time></trkpt><trkpt lat="45.4715974" lon="11.1795659"><ele>177.33333333333334</ele><time>2026-04-19T13:23:29.604Z</time></trkpt><trkpt lat="45.4715064" lon="11.1795594"><ele>177.16666666666666</ele><time>2026-04-19T13:23:32.708Z</time></trkpt><trkpt lat="45.4714034" lon="11.1795419"><ele>177.0</ele><time>2026-04-19T13:23:35.613Z</time></trkpt><trkpt lat="45.4713261" lon="11.1795493"><ele>176.83333333333334</ele><time>2026-04-19T13:23:37.718Z</time></trkpt><trkpt lat="45.4712502" lon="11.1795487"><ele>176.66666666666666</ele><time>2026-04-19T13:23:39.615Z</time></trkpt><trkpt lat="45.4711493" lon="11.1795445"><ele>176.5</ele><time>2026-04-19T13:23:42.648Z</time></trkpt><trkpt lat="45.4710823" lon="11.1795339"><ele>176.33333333333331</ele><time>2026-04-19T13:23:44.607Z</time></trkpt><trkpt lat="45.471015" lon="11.179518"><ele>176.16666666666666</ele><time>2026-04-19T13:23:46.723Z</time></trkpt><trkpt lat="45.4709544" lon="11.1794161"><ele>176.0</ele><time>2026-04-19T13:23:49.716Z</time></trkpt><trkpt lat="45.4709296" lon="11.1793009"><ele>176.0</ele><time>2026-04-19T13:23:51.617Z</time></trkpt><trkpt lat="45.4709275" lon="11.179191"><ele>176.0</ele><time>2026-04-19T13:23:53.72Z</time></trkpt><trkpt lat="45.4709442" lon="11.1790184"><ele>176.0</ele><time>2026-04-19T13:23:56.604Z</time></trkpt><trkpt lat="45.4709649" lon="11.1788947"><ele>176.0</ele><time>2026-04-19T13:23:58.72Z</time></trkpt><trkpt lat="45.4709841" lon="11.1787741"><ele>176.0</ele><time>2026-04-19T13:24:00.605Z</time></trkpt><trkpt lat="45.4709959" lon="11.1786403"><ele>175.8</ele><time>2026-04-19T13:24:02.604Z</time></trkpt><trkpt lat="45.4709755" lon="11.1785349"><ele>175.60000000000002</ele><time>2026-04-19T13:24:04.604Z</time></trkpt><trkpt lat="45.4708838" lon="11.1784476"><ele>175.4</ele><time>2026-04-19T13:24:07.628Z</time></trkpt><trkpt lat="45.4707766" lon="11.178486"><ele>175.2</ele><time>2026-04-19T13:24:08.705Z</time></trkpt><trkpt lat="45.4706419" lon="11.1784576"><ele>175.0</ele><time>2026-04-19T13:24:11.615Z</time></trkpt><trkpt lat="45.4705415" lon="11.1784252"><ele>175.0</ele><time>2026-04-19T13:24:13.699Z</time></trkpt><trkpt lat="45.4704598" lon="11.1784154"><ele>175.0</ele><time>2026-04-19T13:24:16.61Z</time></trkpt><trkpt lat="45.4703825" lon="11.1784133"><ele>175.0</ele><time>2026-04-19T13:24:19.739Z</time></trkpt><trkpt lat="45.4702725" lon="11.1784049"><ele>175.0</ele><time>2026-04-19T13:24:22.621Z</time></trkpt><trkpt lat="45.4701781" lon="11.178399"><ele>175.0</ele><time>2026-04-19T13:24:24.607Z</time></trkpt><trkpt lat="45.4699856" lon="11.1782996"><ele>174.5</ele><time>2026-04-19T13:24:29.602Z</time></trkpt><trkpt lat="45.469911" lon="11.1783063"><ele>174.0</ele><time>2026-04-19T13:24:32.71Z</time></trkpt><trkpt lat="45.4698371" lon="11.1783103"><ele>173.5</ele><time>2026-04-19T13:24:35.609Z</time></trkpt><trkpt lat="45.4697568" lon="11.1782393"><ele>173.0</ele><time>2026-04-19T13:24:37.611Z</time></trkpt><trkpt lat="45.4696742" lon="11.1782215"><ele>172.5</ele><time>2026-04-19T13:24:39.646Z</time></trkpt><trkpt lat="45.4695759" lon="11.1781817"><ele>172.0</ele><time>2026-04-19T13:24:41.614Z</time></trkpt><trkpt lat="45.4694424" lon="11.178138"><ele>171.6</ele><time>2026-04-19T13:24:44.612Z</time></trkpt><trkpt lat="45.4693336" lon="11.1780841"><ele>171.2</ele><time>2026-04-19T13:24:46.606Z</time></trkpt><trkpt lat="45.4692254" lon="11.1780958"><ele>170.8</ele><time>2026-04-19T13:24:49.599Z</time></trkpt><trkpt lat="45.4691429" lon="11.1780985"><ele>170.4</ele><time>2026-04-19T13:24:51.608Z</time></trkpt><trkpt lat="45.4690627" lon="11.1781071"><ele>170.0</ele><time>2026-04-19T13:24:53.684Z</time></trkpt><trkpt lat="45.4689843" lon="11.1781045"><ele>170.0</ele><time>2026-04-19T13:24:55.689Z</time></trkpt><trkpt lat="45.4688957" lon="11.1780951"><ele>170.0</ele><time>2026-04-19T13:24:57.604Z</time></trkpt><trkpt lat="45.4688117" lon="11.1780974"><ele>170.0</ele><time>2026-04-19T13:24:59.688Z</time></trkpt><trkpt lat="45.4687331" lon="11.1780933"><ele>170.0</ele><time>2026-04-19T13:25:01.61Z</time></trkpt><trkpt lat="45.4686556" lon="11.1780861"><ele>170.0</ele><time>2026-04-19T13:25:03.611Z</time></trkpt><trkpt lat="45.4686045" lon="11.1780218"><ele>170.0</ele><time>2026-04-19T13:25:07.691Z</time></trkpt><trkpt lat="45.4686153" lon="11.17791"><ele>169.0</ele><time>2026-04-19T13:25:10.695Z</time></trkpt><trkpt lat="45.4686685" lon="11.177853"><ele>168.0</ele><time>2026-04-19T13:25:32.604Z</time></trkpt><trkpt lat="45.4687635" lon="11.1778507"><ele>167.0</ele><time>2026-04-19T13:25:40.6Z</time></trkpt><trkpt lat="45.468435" lon="11.1779945"><ele>167.0</ele><time>2026-04-19T13:26:24.297Z</time></trkpt><trkpt lat="45.4685857" lon="11.1778948"><ele>167.0</ele><time>2026-04-19T13:26:46.756Z</time></trkpt><trkpt lat="45.4685042" lon="11.1778413"><ele>167.0</ele><time>2026-04-19T13:26:53.998Z</time></trkpt></trkseg></trk></gpx>